<?xml version='1.0' encoding='UTF-8'?><gpx version="1.1" creator="JPX - https://github.com/jenetics/jpx" xmlns="http://www.topografix.com/GPX/1/1"><trk><trkseg><trkpt lat="44.47971396220757" lon="7.873013528561457"><ele>363.0</ele><time>2026-03-23T16:35:39.237Z</time></trkpt><trkpt lat="44.479780614829146" lon="7.872952230696296"><ele>363.0</ele><time>2026-03-23T16:35:41.738Z</time></trkpt><trkpt lat="44.47995064235332" lon="7.872896927972555"><ele>363.0</ele><time>2026-03-23T16:35:47.325Z</time></trkpt><trkpt lat="44.48022394059334" lon="7.872805490236363"><ele>363.0</ele><time>2026-03-23T16:35:48.012Z</time></trkpt><trkpt lat="44.480216212023954" lon="7.872693181141485"><ele>363.0</ele><time>2026-03-23T16:35:57.999Z</time></trkpt><trkpt lat="44.48023035964206" lon="7.872583527245013"><ele>363.0</ele><time>2026-03-23T16:36:00Z</time></trkpt><trkpt lat="44.48016414705812" lon="7.872512282044067"><ele>363.0</ele><time>2026-03-23T16:36:03Z</time></trkpt><trkpt lat="44.48006227854105" lon="7.872518698429616"><ele>363.0</ele><time>2026-03-23T16:36:05Z</time></trkpt><trkpt lat="44.479961994614634" lon="7.872538162386967"><ele>363.0</ele><time>2026-03-23T16:36:07Z</time></trkpt><trkpt lat="44.47990980598457" lon="7.8725878205407565"><ele>363.0</ele><time>2026-03-23T16:36:08Z</time></trkpt><trkpt lat="44.47976136996091" lon="7.87260322245868"><ele>363.0</ele><time>2026-03-23T16:36:10Z</time></trkpt><trkpt lat="44.47964844819096" lon="7.872629201346357"><ele>363.0</ele><time>2026-03-23T16:36:12Z</time></trkpt><trkpt lat="44.479537192136426" lon="7.872660735225426"><ele>363.0</ele><time>2026-03-23T16:36:14Z</time></trkpt><trkpt lat="44.479433507481566" lon="7.87269081503154"><ele>363.1666666666667</ele><time>2026-03-23T16:36:16Z</time></trkpt><trkpt lat="44.47937065008314" lon="7.872713620920649"><ele>363.3333333333333</ele><time>2026-03-23T16:36:17Z</time></trkpt><trkpt lat="44.47926671951999" lon="7.872759121693761"><ele>363.5</ele><time>2026-03-23T16:36:19Z</time></trkpt><trkpt lat="44.479191926756506" lon="7.872791805970433"><ele>363.66666666666663</ele><time>2026-03-23T16:36:21Z</time></trkpt><trkpt lat="44.479144269782175" lon="7.872850260576153"><ele>363.8333333333333</ele><time>2026-03-23T16:36:22Z</time></trkpt><trkpt lat="44.47908145714792" lon="7.872867663629947"><ele>364.0</ele><time>2026-03-23T16:36:24Z</time></trkpt><trkpt lat="44.479004737917236" lon="7.8726019277015356"><ele>364.0</ele><time>2026-03-23T16:36:31Z</time></trkpt><trkpt lat="44.47896024023873" lon="7.872443176555905"><ele>364.0</ele><time>2026-03-23T16:36:33Z</time></trkpt><trkpt lat="44.47893313831175" lon="7.8723491288192475"><ele>364.0</ele><time>2026-03-23T16:36:33.999Z</time></trkpt><trkpt lat="44.478872034418266" lon="7.872241216475805"><ele>364.0</ele><time>2026-03-23T16:36:34.999Z</time></trkpt><trkpt lat="44.478839226142654" lon="7.872114249663253"><ele>364.0</ele><time>2026-03-23T16:36:35.999Z</time></trkpt><trkpt lat="44.47880693999939" lon="7.871998668595024"><ele>364.0</ele><time>2026-03-23T16:36:36.999Z</time></trkpt><trkpt lat="44.478765468988875" lon="7.871864425482187"><ele>364.0</ele><time>2026-03-23T16:36:37.999Z</time></trkpt><trkpt lat="44.47872831440281" lon="7.871744794936862"><ele>364.0</ele><time>2026-03-23T16:36:38.999Z</time></trkpt><trkpt lat="44.47869096186115" lon="7.871612749443435"><ele>364.0</ele><time>2026-03-23T16:36:39.999Z</time></trkpt><trkpt lat="44.47868161060392" lon="7.871493709554371"><ele>364.0</ele><time>2026-03-23T16:36:40.999Z</time></trkpt><trkpt lat="44.47863225110837" lon="7.871397223452966"><ele>364.0</ele><time>2026-03-23T16:36:41.999Z</time></trkpt><trkpt lat="44.47860328156435" lon="7.871289545867129"><ele>364.0</ele><time>2026-03-23T16:36:42.999Z</time></trkpt><trkpt lat="44.478582584222195" lon="7.871174875438043"><ele>364.0</ele><time>2026-03-23T16:36:43.999Z</time></trkpt><trkpt lat="44.47856658592211" lon="7.871080946772708"><ele>364.0</ele><time>2026-03-23T16:36:44.999Z</time></trkpt><trkpt lat="44.47854912524771" lon="7.870938386809721"><ele>364.0</ele><time>2026-03-23T16:36:46.999Z</time></trkpt><trkpt lat="44.478514311381765" lon="7.8708480086747565"><ele>364.0</ele><time>2026-03-23T16:36:47.999Z</time></trkpt><trkpt lat="44.47863614877912" lon="7.87076151216193"><ele>363.79999999999995</ele><time>2026-03-23T16:36:48.999Z</time></trkpt><trkpt lat="44.47869377340959" lon="7.870659413819447"><ele>363.59999999999997</ele><time>2026-03-23T16:36:49.999Z</time></trkpt><trkpt lat="44.478738743489025" lon="7.870565661396189"><ele>363.4</ele><time>2026-03-23T16:36:50.999Z</time></trkpt><trkpt lat="44.478790738438256" lon="7.870460119411857"><ele>363.2</ele><time>2026-03-23T16:36:51.999Z</time></trkpt><trkpt lat="44.47884407962006" lon="7.870351844755699"><ele>363.0</ele><time>2026-03-23T16:36:52.999Z</time></trkpt><trkpt lat="44.478902807154476" lon="7.870233958740961"><ele>363.0</ele><time>2026-03-23T16:36:53.999Z</time></trkpt><trkpt lat="44.478954045984445" lon="7.870130888369691"><ele>363.0</ele><time>2026-03-23T16:36:54.999Z</time></trkpt><trkpt lat="44.47900147565346" lon="7.870035480382096"><ele>363.0</ele><time>2026-03-23T16:36:55.999Z</time></trkpt><trkpt lat="44.47904059982188" lon="7.869956779469802"><ele>363.0</ele><time>2026-03-23T16:36:56.999Z</time></trkpt><trkpt lat="44.47910998385438" lon="7.869817208800526"><ele>363.0</ele><time>2026-03-23T16:36:58.999Z</time></trkpt><trkpt lat="44.47915846158863" lon="7.8697148113784205"><ele>363.0</ele><time>2026-03-23T16:36:59.999Z</time></trkpt><trkpt lat="44.479210104371816" lon="7.869607663958218"><ele>363.0</ele><time>2026-03-23T16:37:00.999Z</time></trkpt><trkpt lat="44.47926114815692" lon="7.869501759333034"><ele>363.0</ele><time>2026-03-23T16:37:01.999Z</time></trkpt><trkpt lat="44.47930049812705" lon="7.869378814339713"><ele>363.0</ele><time>2026-03-23T16:37:02.999Z</time></trkpt><trkpt lat="44.47936367613221" lon="7.869288472827972"><ele>363.0</ele><time>2026-03-23T16:37:03.999Z</time></trkpt><trkpt lat="44.479409802752556" lon="7.86919003583839"><ele>363.0</ele><time>2026-03-23T16:37:04.999Z</time></trkpt><trkpt lat="44.47946140941998" lon="7.869079904099644"><ele>363.0</ele><time>2026-03-23T16:37:05.999Z</time></trkpt><trkpt lat="44.479509840003495" lon="7.868976547809497"><ele>363.0</ele><time>2026-03-23T16:37:06.999Z</time></trkpt><trkpt lat="44.47954956532731" lon="7.868892125795507"><ele>363.0</ele><time>2026-03-23T16:37:07.999Z</time></trkpt><trkpt lat="44.47958559307849" lon="7.868815561654819"><ele>363.0</ele><time>2026-03-23T16:37:08.999Z</time></trkpt><trkpt lat="44.479641064117864" lon="7.868685020149974"><ele>363.0</ele><time>2026-03-23T16:37:10.999Z</time></trkpt><trkpt lat="44.47968792270773" lon="7.868613049660827"><ele>363.0</ele><time>2026-03-23T16:37:12.999Z</time></trkpt><trkpt lat="44.47976640160527" lon="7.868555813471325"><ele>363.0</ele><time>2026-03-23T16:37:14.999Z</time></trkpt><trkpt lat="44.47985170089764" lon="7.868444877514656"><ele>363.0</ele><time>2026-03-23T16:37:16.999Z</time></trkpt><trkpt lat="44.47983381957219" lon="7.868295868810225"><ele>363.0</ele><time>2026-03-23T16:37:18.999Z</time></trkpt><trkpt lat="44.47978500516289" lon="7.86823982794315"><ele>363.0</ele><time>2026-03-23T16:37:19.999Z</time></trkpt><trkpt lat="44.47972339923289" lon="7.868192774099974"><ele>363.0</ele><time>2026-03-23T16:37:20.999Z</time></trkpt><trkpt lat="44.47962302611714" lon="7.868160844641555"><ele>362.75</ele><time>2026-03-23T16:37:21.999Z</time></trkpt><trkpt lat="44.47952813960131" lon="7.868103756030785"><ele>362.5</ele><time>2026-03-23T16:37:22.999Z</time></trkpt><trkpt lat="44.47945949864958" lon="7.8679783557382725"><ele>362.25</ele><time>2026-03-23T16:37:23.999Z</time></trkpt><trkpt lat="44.47936987848861" lon="7.867889746058249"><ele>362.0</ele><time>2026-03-23T16:37:24.999Z</time></trkpt><trkpt lat="44.4792691015728" lon="7.8677603797900915"><ele>362.0</ele><time>2026-03-23T16:37:25.999Z</time></trkpt><trkpt lat="44.47917765478399" lon="7.867646872973389"><ele>362.0</ele><time>2026-03-23T16:37:26.999Z</time></trkpt><trkpt lat="44.47908404856744" lon="7.867539061881503"><ele>362.0</ele><time>2026-03-23T16:37:27.999Z</time></trkpt><trkpt lat="44.47898553608444" lon="7.867407929690411"><ele>362.0</ele><time>2026-03-23T16:37:28.999Z</time></trkpt><trkpt lat="44.47889856804765" lon="7.8672987590056005"><ele>362.0</ele><time>2026-03-23T16:37:29.999Z</time></trkpt><trkpt lat="44.478817701622525" lon="7.867184416258202"><ele>362.0</ele><time>2026-03-23T16:37:30.999Z</time></trkpt><trkpt lat="44.4787263088524" lon="7.8670643764601085"><ele>362.0</ele><time>2026-03-23T16:37:31.999Z</time></trkpt><trkpt lat="44.47862561525507" lon="7.866931577443097"><ele>362.0</ele><time>2026-03-23T16:37:32.999Z</time></trkpt><trkpt lat="44.47853526354764" lon="7.8668314445102006"><ele>362.0</ele><time>2026-03-23T16:37:33.999Z</time></trkpt><trkpt lat="44.47844349570664" lon="7.866727286964233"><ele>362.0</ele><time>2026-03-23T16:37:34.999Z</time></trkpt><trkpt lat="44.47835871386307" lon="7.866622416644318"><ele>362.0</ele><time>2026-03-23T16:37:35.998Z</time></trkpt><trkpt lat="44.478284711508074" lon="7.866512016892"><ele>362.0</ele><time>2026-03-23T16:37:36.998Z</time></trkpt><trkpt lat="44.47819503041583" lon="7.866402274993166"><ele>362.0</ele><time>2026-03-23T16:37:37.998Z</time></trkpt><trkpt lat="44.47811777361021" lon="7.866286669505127"><ele>362.0</ele><time>2026-03-23T16:37:38.998Z</time></trkpt><trkpt lat="44.47805247653984" lon="7.866200794014867"><ele>362.0</ele><time>2026-03-23T16:37:39.998Z</time></trkpt><trkpt lat="44.477972988539264" lon="7.866096070942229"><ele>362.0</ele><time>2026-03-23T16:37:40.998Z</time></trkpt><trkpt lat="44.47788898052974" lon="7.865999981755207"><ele>362.0</ele><time>2026-03-23T16:37:41.998Z</time></trkpt><trkpt lat="44.47779896502969" lon="7.86588674535445"><ele>362.5</ele><time>2026-03-23T16:37:42.998Z</time></trkpt><trkpt lat="44.4777143721798" lon="7.86577753904266"><ele>363.0</ele><time>2026-03-23T16:37:43.998Z</time></trkpt><trkpt lat="44.47763199248794" lon="7.865671094519062"><ele>363.5</ele><time>2026-03-23T16:37:44.998Z</time></trkpt><trkpt lat="44.47755920457057" lon="7.86556412545365"><ele>364.0</ele><time>2026-03-23T16:37:45.998Z</time></trkpt><trkpt lat="44.47746823267535" lon="7.865454243420984"><ele>364.0</ele><time>2026-03-23T16:37:46.998Z</time></trkpt><trkpt lat="44.47739614772921" lon="7.8653488383232855"><ele>364.0</ele><time>2026-03-23T16:37:47.998Z</time></trkpt><trkpt lat="44.47730336334301" lon="7.8652438092972154"><ele>364.0</ele><time>2026-03-23T16:37:48.998Z</time></trkpt><trkpt lat="44.477231138140795" lon="7.865158615161787"><ele>364.0</ele><time>2026-03-23T16:37:49.998Z</time></trkpt><trkpt lat="44.47717839408995" lon="7.8650773718132525"><ele>364.0</ele><time>2026-03-23T16:37:50.998Z</time></trkpt><trkpt lat="44.47713005230118" lon="7.865009093743687"><ele>364.0</ele><time>2026-03-23T16:37:51.998Z</time></trkpt><trkpt lat="44.47710299289808" lon="7.864878957234031"><ele>364.0</ele><time>2026-03-23T16:37:53.998Z</time></trkpt><trkpt lat="44.47718079274326" lon="7.864738982062238"><ele>364.0</ele><time>2026-03-23T16:37:55.998Z</time></trkpt><trkpt lat="44.47723364133059" lon="7.8646358908354905"><ele>364.0</ele><time>2026-03-23T16:37:56.998Z</time></trkpt><trkpt lat="44.477287200917544" lon="7.864523266404633"><ele>364.0</ele><time>2026-03-23T16:37:57.998Z</time></trkpt><trkpt lat="44.47734028800595" lon="7.864398783958446"><ele>363.75</ele><time>2026-03-23T16:37:58.998Z</time></trkpt><trkpt lat="44.47736651453589" lon="7.8642552321377766"><ele>363.5</ele><time>2026-03-23T16:38:00Z</time></trkpt><trkpt lat="44.47741133296338" lon="7.864090070005128"><ele>363.25</ele><time>2026-03-23T16:38:01Z</time></trkpt><trkpt lat="44.47741234320671" lon="7.8639238528334525"><ele>363.0</ele><time>2026-03-23T16:38:02Z</time></trkpt><trkpt lat="44.47743726458847" lon="7.863757596400076"><ele>363.0</ele><time>2026-03-23T16:38:03Z</time></trkpt><trkpt lat="44.47744904729618" lon="7.863591650937877"><ele>363.0</ele><time>2026-03-23T16:38:04Z</time></trkpt><trkpt lat="44.477463177055874" lon="7.863436172873001"><ele>363.0</ele><time>2026-03-23T16:38:05Z</time></trkpt><trkpt lat="44.47748276489574" lon="7.863258453422822"><ele>363.0</ele><time>2026-03-23T16:38:06Z</time></trkpt><trkpt lat="44.4775019882967" lon="7.8630939251325"><ele>362.75</ele><time>2026-03-23T16:38:07Z</time></trkpt><trkpt lat="44.47754865860037" lon="7.862902318021727"><ele>362.5</ele><time>2026-03-23T16:38:08Z</time></trkpt><trkpt lat="44.477557475150675" lon="7.8627469235737895"><ele>362.25</ele><time>2026-03-23T16:38:09Z</time></trkpt><trkpt lat="44.4775735937888" lon="7.862605313308943"><ele>362.0</ele><time>2026-03-23T16:38:10Z</time></trkpt><trkpt lat="44.47759265030367" lon="7.8624600999828385"><ele>362.0</ele><time>2026-03-23T16:38:11Z</time></trkpt><trkpt lat="44.477607569272145" lon="7.862302848869034"><ele>362.0</ele><time>2026-03-23T16:38:12Z</time></trkpt><trkpt lat="44.47761706788879" lon="7.862148425595084"><ele>362.0</ele><time>2026-03-23T16:38:13Z</time></trkpt><trkpt lat="44.47763675779398" lon="7.861977643706974"><ele>362.0</ele><time>2026-03-23T16:38:14Z</time></trkpt><trkpt lat="44.47766966217299" lon="7.861816923151979"><ele>363.0</ele><time>2026-03-23T16:38:15Z</time></trkpt><trkpt lat="44.47769631893152" lon="7.861654487082695"><ele>364.0</ele><time>2026-03-23T16:38:16Z</time></trkpt><trkpt lat="44.47772484256729" lon="7.861484391411286"><ele>365.0</ele><time>2026-03-23T16:38:17Z</time></trkpt><trkpt lat="44.47773376971024" lon="7.8613127169448225"><ele>366.0</ele><time>2026-03-23T16:38:18Z</time></trkpt><trkpt lat="44.47777095243505" lon="7.861167168371247"><ele>366.0</ele><time>2026-03-23T16:38:19Z</time></trkpt><trkpt lat="44.47778601968722" lon="7.861017455705066"><ele>366.0</ele><time>2026-03-23T16:38:20Z</time></trkpt><trkpt lat="44.47777538633763" lon="7.860864288186604"><ele>366.0</ele><time>2026-03-23T16:38:21Z</time></trkpt><trkpt lat="44.477754848030166" lon="7.860720327554282"><ele>366.0</ele><time>2026-03-23T16:38:22Z</time></trkpt><trkpt lat="44.477737073881904" lon="7.860561870945379"><ele>366.0</ele><time>2026-03-23T16:38:23Z</time></trkpt><trkpt lat="44.47771948116345" lon="7.860374165963472"><ele>365.5</ele><time>2026-03-23T16:38:24Z</time></trkpt><trkpt lat="44.47772708103384" lon="7.860193608811872"><ele>365.0</ele><time>2026-03-23T16:38:25Z</time></trkpt><trkpt lat="44.477722494149795" lon="7.860006860014186"><ele>364.5</ele><time>2026-03-23T16:38:26Z</time></trkpt><trkpt lat="44.47770742434364" lon="7.859802905752189"><ele>364.0</ele><time>2026-03-23T16:38:27Z</time></trkpt><trkpt lat="44.477678746615595" lon="7.859591645382265"><ele>364.0</ele><time>2026-03-23T16:38:28Z</time></trkpt><trkpt lat="44.47766231874441" lon="7.859371451862861"><ele>364.0</ele><time>2026-03-23T16:38:29Z</time></trkpt><trkpt lat="44.47763719362742" lon="7.859168541707986"><ele>364.0</ele><time>2026-03-23T16:38:30Z</time></trkpt><trkpt lat="44.47762247952093" lon="7.858976167188537"><ele>364.0</ele><time>2026-03-23T16:38:31Z</time></trkpt><trkpt lat="44.477622243564625" lon="7.8587769990657295"><ele>364.25</ele><time>2026-03-23T16:38:32Z</time></trkpt><trkpt lat="44.47760096607822" lon="7.858586532936947"><ele>364.5</ele><time>2026-03-23T16:38:33Z</time></trkpt><trkpt lat="44.47757644823288" lon="7.858378260143416"><ele>364.75</ele><time>2026-03-23T16:38:34Z</time></trkpt><trkpt lat="44.477546524198374" lon="7.85817191766921"><ele>365.0</ele><time>2026-03-23T16:38:35Z</time></trkpt><trkpt lat="44.477511074406486" lon="7.857965119788518"><ele>365.25</ele><time>2026-03-23T16:38:36Z</time></trkpt><trkpt lat="44.477476250828104" lon="7.857757766635423"><ele>365.5</ele><time>2026-03-23T16:38:37Z</time></trkpt><trkpt lat="44.477441461115056" lon="7.8575686909356435"><ele>365.75</ele><time>2026-03-23T16:38:38Z</time></trkpt><trkpt lat="44.47741017116234" lon="7.857366381234901"><ele>366.0</ele><time>2026-03-23T16:38:39Z</time></trkpt><trkpt lat="44.477374999840116" lon="7.85717626200502"><ele>366.25</ele><time>2026-03-23T16:38:40Z</time></trkpt><trkpt lat="44.47734228117929" lon="7.85699458739228"><ele>366.5</ele><time>2026-03-23T16:38:41Z</time></trkpt><trkpt lat="44.47731020742441" lon="7.856832274909939"><ele>366.75</ele><time>2026-03-23T16:38:42Z</time></trkpt><trkpt lat="44.477287782536635" lon="7.856677834717393"><ele>367.0</ele><time>2026-03-23T16:38:42.999Z</time></trkpt><trkpt lat="44.47726465879908" lon="7.856550363043066"><ele>367.0</ele><time>2026-03-23T16:38:43.999Z</time></trkpt><trkpt lat="44.477269926030594" lon="7.856419369361749"><ele>367.0</ele><time>2026-03-23T16:38:44.999Z</time></trkpt><trkpt lat="44.477322563657275" lon="7.856292277576857"><ele>367.0</ele><time>2026-03-23T16:38:45.999Z</time></trkpt><trkpt lat="44.477361027947346" lon="7.8561818912963455"><ele>367.0</ele><time>2026-03-23T16:38:46.999Z</time></trkpt><trkpt lat="44.47740740189835" lon="7.856040124566948"><ele>367.0</ele><time>2026-03-23T16:38:47.999Z</time></trkpt><trkpt lat="44.47744625374521" lon="7.855902949046672"><ele>367.75</ele><time>2026-03-23T16:38:48.999Z</time></trkpt><trkpt lat="44.47747391844168" lon="7.855754853217883"><ele>368.5</ele><time>2026-03-23T16:38:49.999Z</time></trkpt><trkpt lat="44.477504952673065" lon="7.855593012143795"><ele>369.25</ele><time>2026-03-23T16:38:50.999Z</time></trkpt><trkpt lat="44.477516440256444" lon="7.8554173671600305"><ele>370.0</ele><time>2026-03-23T16:38:51.999Z</time></trkpt><trkpt lat="44.47752291172848" lon="7.855240680238974"><ele>370.25</ele><time>2026-03-23T16:38:52.999Z</time></trkpt><trkpt lat="44.4775221069323" lon="7.8550518404022585"><ele>370.5</ele><time>2026-03-23T16:38:53.999Z</time></trkpt><trkpt lat="44.47750969233729" lon="7.854850994440941"><ele>370.75</ele><time>2026-03-23T16:38:54.999Z</time></trkpt><trkpt lat="44.4774777018516" lon="7.854660723971396"><ele>371.0</ele><time>2026-03-23T16:38:55.999Z</time></trkpt><trkpt lat="44.477440008783816" lon="7.854482404328128"><ele>371.0</ele><time>2026-03-23T16:38:56.999Z</time></trkpt><trkpt lat="44.477390779349705" lon="7.854288144858"><ele>371.0</ele><time>2026-03-23T16:38:57.999Z</time></trkpt><trkpt lat="44.47733310353365" lon="7.854102328233544"><ele>371.0</ele><time>2026-03-23T16:38:58.999Z</time></trkpt><trkpt lat="44.477297808780136" lon="7.853933734158472"><ele>371.0</ele><time>2026-03-23T16:38:59.999Z</time></trkpt><trkpt lat="44.47725679823441" lon="7.853776266037432"><ele>371.6</ele><time>2026-03-23T16:39:00.999Z</time></trkpt><trkpt lat="44.47722456548199" lon="7.853639305009661"><ele>372.20000000000005</ele><time>2026-03-23T16:39:01.999Z</time></trkpt><trkpt lat="44.477193085061266" lon="7.853512407981336"><ele>372.79999999999995</ele><time>2026-03-23T16:39:02.999Z</time></trkpt><trkpt lat="44.47717837787024" lon="7.8533530927647766"><ele>373.4</ele><time>2026-03-23T16:39:03.999Z</time></trkpt><trkpt lat="44.47717172022504" lon="7.853183323932278"><ele>374.0</ele><time>2026-03-23T16:39:04.999Z</time></trkpt><trkpt lat="44.47716613285327" lon="7.853005955764469"><ele>374.2</ele><time>2026-03-23T16:39:05.999Z</time></trkpt><trkpt lat="44.47715420427189" lon="7.852817892104734"><ele>374.4</ele><time>2026-03-23T16:39:06.999Z</time></trkpt><trkpt lat="44.477141710234534" lon="7.852665182965395"><ele>374.6</ele><time>2026-03-23T16:39:07.999Z</time></trkpt><trkpt lat="44.477138014101264" lon="7.85252607084789"><ele>374.8</ele><time>2026-03-23T16:39:08.999Z</time></trkpt><trkpt lat="44.477136689009285" lon="7.852395531228519"><ele>375.0</ele><time>2026-03-23T16:39:09.999Z</time></trkpt><trkpt lat="44.47714307903981" lon="7.852256948442938"><ele>375.0</ele><time>2026-03-23T16:39:10.999Z</time></trkpt><trkpt lat="44.47719484110778" lon="7.852134143654212"><ele>375.0</ele><time>2026-03-23T16:39:11.999Z</time></trkpt><trkpt lat="44.47724796506741" lon="7.852027119432874"><ele>375.0</ele><time>2026-03-23T16:39:12.999Z</time></trkpt><trkpt lat="44.477307095572385" lon="7.851945564077091"><ele>375.0</ele><time>2026-03-23T16:39:13.999Z</time></trkpt><trkpt lat="44.477388065383714" lon="7.851852165057766"><ele>375.0</ele><time>2026-03-23T16:39:14.999Z</time></trkpt><trkpt lat="44.47747434332707" lon="7.8517568712143735"><ele>375.25</ele><time>2026-03-23T16:39:15.999Z</time></trkpt><trkpt lat="44.47756629826655" lon="7.8516591399866495"><ele>375.5</ele><time>2026-03-23T16:39:16.999Z</time></trkpt><trkpt lat="44.477652452306316" lon="7.851572495106963"><ele>375.75</ele><time>2026-03-23T16:39:17.999Z</time></trkpt><trkpt lat="44.477756557271434" lon="7.851467056344676"><ele>376.0</ele><time>2026-03-23T16:39:18.999Z</time></trkpt><trkpt lat="44.477877572856706" lon="7.851349411861884"><ele>376.66666666666663</ele><time>2026-03-23T16:39:19.999Z</time></trkpt><trkpt lat="44.47797562197411" lon="7.851248974527948"><ele>377.3333333333333</ele><time>2026-03-23T16:39:20.999Z</time></trkpt><trkpt lat="44.47805134890997" lon="7.851164758861361"><ele>378.0</ele><time>2026-03-23T16:39:21.999Z</time></trkpt><trkpt lat="44.47812291375091" lon="7.851085507603738"><ele>378.6666666666667</ele><time>2026-03-23T16:39:22.999Z</time></trkpt><trkpt lat="44.478167670604066" lon="7.851006130525106"><ele>379.33333333333337</ele><time>2026-03-23T16:39:23.999Z</time></trkpt><trkpt lat="44.478207363932704" lon="7.850929098421353"><ele>380.0</ele><time>2026-03-23T16:39:24.999Z</time></trkpt><trkpt lat="44.47822134666384" lon="7.850825596802664"><ele>380.0</ele><time>2026-03-23T16:39:25.999Z</time></trkpt><trkpt lat="44.478230300058335" lon="7.8507091816945245"><ele>380.0</ele><time>2026-03-23T16:39:26.999Z</time></trkpt><trkpt lat="44.47823224953678" lon="7.850579432185997"><ele>380.0</ele><time>2026-03-23T16:39:27.999Z</time></trkpt><trkpt lat="44.47821171698762" lon="7.850415943330157"><ele>380.0</ele><time>2026-03-23T16:39:28.999Z</time></trkpt><trkpt lat="44.47818897978826" lon="7.850265035576075"><ele>380.0</ele><time>2026-03-23T16:39:29.999Z</time></trkpt><trkpt lat="44.478157160397885" lon="7.8501076473777225"><ele>380.5</ele><time>2026-03-23T16:39:30.999Z</time></trkpt><trkpt lat="44.47813442896747" lon="7.849946397355986"><ele>381.0</ele><time>2026-03-23T16:39:31.999Z</time></trkpt><trkpt lat="44.47811530801138" lon="7.849778093363286"><ele>381.5</ele><time>2026-03-23T16:39:32.999Z</time></trkpt><trkpt lat="44.47810820695525" lon="7.8495870846829074"><ele>382.0</ele><time>2026-03-23T16:39:33.999Z</time></trkpt><trkpt lat="44.47809203806595" lon="7.849391880539457"><ele>382.25</ele><time>2026-03-23T16:39:34.999Z</time></trkpt><trkpt lat="44.47809285853211" lon="7.849196162112753"><ele>382.5</ele><time>2026-03-23T16:39:35.999Z</time></trkpt><trkpt lat="44.47808640347856" lon="7.848989562327724"><ele>382.75</ele><time>2026-03-23T16:39:36.999Z</time></trkpt><trkpt lat="44.4780840903844" lon="7.848802731345972"><ele>383.0</ele><time>2026-03-23T16:39:37.999Z</time></trkpt><trkpt lat="44.47808021749417" lon="7.848604578305174"><ele>383.6666666666667</ele><time>2026-03-23T16:39:38.999Z</time></trkpt><trkpt lat="44.47807904636008" lon="7.848396801750865"><ele>384.33333333333337</ele><time>2026-03-23T16:39:39.999Z</time></trkpt><trkpt lat="44.47808457330567" lon="7.848182539993419"><ele>385.0</ele><time>2026-03-23T16:39:40.999Z</time></trkpt><trkpt lat="44.478092483440314" lon="7.847967867711358"><ele>385.0</ele><time>2026-03-23T16:39:41.998Z</time></trkpt><trkpt lat="44.47809022070636" lon="7.847780310982573"><ele>385.0</ele><time>2026-03-23T16:39:42.998Z</time></trkpt><trkpt lat="44.47809487291416" lon="7.847588383330465"><ele>385.0</ele><time>2026-03-23T16:39:43.998Z</time></trkpt><trkpt lat="44.47808850360535" lon="7.847405614919455"><ele>385.0</ele><time>2026-03-23T16:39:44.998Z</time></trkpt><trkpt lat="44.47809516105981" lon="7.847252251407361"><ele>385.6</ele><time>2026-03-23T16:39:45.998Z</time></trkpt><trkpt lat="44.47810103797158" lon="7.847110101286997"><ele>386.2</ele><time>2026-03-23T16:39:46.998Z</time></trkpt><trkpt lat="44.478098233412666" lon="7.846944980436313"><ele>386.79999999999995</ele><time>2026-03-23T16:39:47.998Z</time></trkpt><trkpt lat="44.47810075589841" lon="7.846784901170391"><ele>387.4</ele><time>2026-03-23T16:39:48.998Z</time></trkpt><trkpt lat="44.47810017080523" lon="7.846638709823548"><ele>388.0</ele><time>2026-03-23T16:39:49.998Z</time></trkpt><trkpt lat="44.47809385891412" lon="7.846510547505004"><ele>388.2</ele><time>2026-03-23T16:39:50.998Z</time></trkpt><trkpt lat="44.47809706356103" lon="7.846390708703512"><ele>388.4</ele><time>2026-03-23T16:39:51.998Z</time></trkpt><trkpt lat="44.478100265089694" lon="7.846290677626365"><ele>388.59999999999997</ele><time>2026-03-23T16:39:52.998Z</time></trkpt><trkpt lat="44.47811467828923" lon="7.846165344366918"><ele>388.79999999999995</ele><time>2026-03-23T16:39:53.998Z</time></trkpt><trkpt lat="44.4780954255375" lon="7.8460564581929795"><ele>389.0</ele><time>2026-03-23T16:39:54.998Z</time></trkpt><trkpt lat="44.47824425082851" lon="7.845938699325557"><ele>389.25</ele><time>2026-03-23T16:39:55.998Z</time></trkpt><trkpt lat="44.478287623633825" lon="7.8458016493529215"><ele>389.5</ele><time>2026-03-23T16:39:56.998Z</time></trkpt><trkpt lat="44.478335026136286" lon="7.845634980299642"><ele>389.75</ele><time>2026-03-23T16:39:57.998Z</time></trkpt><trkpt lat="44.4783829839492" lon="7.84547576891862"><ele>390.0</ele><time>2026-03-23T16:39:58.998Z</time></trkpt><trkpt lat="44.478441153345564" lon="7.845310656372827"><ele>390.0</ele><time>2026-03-23T16:39:59.998Z</time></trkpt><trkpt lat="44.478503981337674" lon="7.845143477974903"><ele>390.0</ele><time>2026-03-23T16:40:00.998Z</time></trkpt><trkpt lat="44.47857335773388" lon="7.844963924880735"><ele>390.0</ele><time>2026-03-23T16:40:01.998Z</time></trkpt><trkpt lat="44.47864877833859" lon="7.844761305664384"><ele>390.0</ele><time>2026-03-23T16:40:02.998Z</time></trkpt><trkpt lat="44.47870884962971" lon="7.844583399299671"><ele>390.25</ele><time>2026-03-23T16:40:03.998Z</time></trkpt><trkpt lat="44.478764341707205" lon="7.844396423043976"><ele>390.5</ele><time>2026-03-23T16:40:04.998Z</time></trkpt><trkpt lat="44.478817828454545" lon="7.844191422080257"><ele>390.75</ele><time>2026-03-23T16:40:06Z</time></trkpt><trkpt lat="44.47886163498779" lon="7.843997312647987"><ele>391.0</ele><time>2026-03-23T16:40:07Z</time></trkpt><trkpt lat="44.47890311868852" lon="7.843786380484027"><ele>392.25</ele><time>2026-03-23T16:40:08Z</time></trkpt><trkpt lat="44.47894155108881" lon="7.843583817951354"><ele>393.5</ele><time>2026-03-23T16:40:09Z</time></trkpt><trkpt lat="44.47897905698758" lon="7.84339453593431"><ele>394.75</ele><time>2026-03-23T16:40:10Z</time></trkpt><trkpt lat="44.47902369405289" lon="7.843200034501674"><ele>396.0</ele><time>2026-03-23T16:40:11Z</time></trkpt><trkpt lat="44.47907333752702" lon="7.843005391504843"><ele>396.25</ele><time>2026-03-23T16:40:12Z</time></trkpt><trkpt lat="44.47912387537809" lon="7.842822521603986"><ele>396.5</ele><time>2026-03-23T16:40:13Z</time></trkpt><trkpt lat="44.4791780145102" lon="7.84266394140274"><ele>396.75</ele><time>2026-03-23T16:40:14Z</time></trkpt><trkpt lat="44.47924920867073" lon="7.84251674223199"><ele>397.0</ele><time>2026-03-23T16:40:15Z</time></trkpt><trkpt lat="44.47933688710828" lon="7.842365864220688"><ele>397.25</ele><time>2026-03-23T16:40:16Z</time></trkpt><trkpt lat="44.47943901724953" lon="7.842223333762052"><ele>397.5</ele><time>2026-03-23T16:40:17Z</time></trkpt><trkpt lat="44.479543709881725" lon="7.842081914941846"><ele>397.75</ele><time>2026-03-23T16:40:18Z</time></trkpt><trkpt lat="44.479650205027006" lon="7.841938061281368"><ele>398.0</ele><time>2026-03-23T16:40:19Z</time></trkpt><trkpt lat="44.479742884638014" lon="7.841810973821049"><ele>399.0</ele><time>2026-03-23T16:40:20Z</time></trkpt><trkpt lat="44.47980847109013" lon="7.841666034393861"><ele>400.0</ele><time>2026-03-23T16:40:21Z</time></trkpt><trkpt lat="44.47987471387252" lon="7.841534653847262"><ele>401.0</ele><time>2026-03-23T16:40:22Z</time></trkpt><trkpt lat="44.47991818103936" lon="7.841397579592977"><ele>402.0</ele><time>2026-03-23T16:40:23Z</time></trkpt><trkpt lat="44.47993247331956" lon="7.841235913623934"><ele>402.0</ele><time>2026-03-23T16:40:24Z</time></trkpt><trkpt lat="44.47995009806754" lon="7.841047764079402"><ele>402.0</ele><time>2026-03-23T16:40:25Z</time></trkpt><trkpt lat="44.47995919571815" lon="7.840855696783039"><ele>402.0</ele><time>2026-03-23T16:40:26Z</time></trkpt><trkpt lat="44.47995047587434" lon="7.840676027014137"><ele>402.0</ele><time>2026-03-23T16:40:27Z</time></trkpt><trkpt lat="44.479928256179825" lon="7.840507148420093"><ele>402.5</ele><time>2026-03-23T16:40:28Z</time></trkpt><trkpt lat="44.479908290662216" lon="7.840345530108367"><ele>403.0</ele><time>2026-03-23T16:40:29Z</time></trkpt><trkpt lat="44.479884540980805" lon="7.840180065127978"><ele>403.5</ele><time>2026-03-23T16:40:30Z</time></trkpt><trkpt lat="44.479850140345434" lon="7.840018884638788"><ele>404.0</ele><time>2026-03-23T16:40:31Z</time></trkpt><trkpt lat="44.47979871743586" lon="7.8398657301254175"><ele>404.25</ele><time>2026-03-23T16:40:32Z</time></trkpt><trkpt lat="44.479741473152956" lon="7.839701932505411"><ele>404.5</ele><time>2026-03-23T16:40:33Z</time></trkpt><trkpt lat="44.47968947087374" lon="7.839548448058587"><ele>404.75</ele><time>2026-03-23T16:40:34Z</time></trkpt><trkpt lat="44.479650656939924" lon="7.839399553152333"><ele>405.0</ele><time>2026-03-23T16:40:35Z</time></trkpt><trkpt lat="44.47962463801717" lon="7.839221584959625"><ele>405.25</ele><time>2026-03-23T16:40:36Z</time></trkpt><trkpt lat="44.47961072439573" lon="7.839034158982136"><ele>405.5</ele><time>2026-03-23T16:40:37Z</time></trkpt><trkpt lat="44.47959459337365" lon="7.838844196126371"><ele>405.75</ele><time>2026-03-23T16:40:38Z</time></trkpt><trkpt lat="44.47958173243219" lon="7.8386706586867545"><ele>406.0</ele><time>2026-03-23T16:40:39Z</time></trkpt><trkpt lat="44.47957154236483" lon="7.838501484977172"><ele>405.75</ele><time>2026-03-23T16:40:40Z</time></trkpt><trkpt lat="44.47956405668847" lon="7.838331487885197"><ele>405.5</ele><time>2026-03-23T16:40:41Z</time></trkpt><trkpt lat="44.479561266091785" lon="7.838173663529916"><ele>405.25</ele><time>2026-03-23T16:40:42Z</time></trkpt><trkpt lat="44.479563678998005" lon="7.83801906548"><ele>405.0</ele><time>2026-03-23T16:40:43Z</time></trkpt><trkpt lat="44.47958425863723" lon="7.837851899552019"><ele>405.25</ele><time>2026-03-23T16:40:44Z</time></trkpt><trkpt lat="44.47964523331692" lon="7.837692965071418"><ele>405.5</ele><time>2026-03-23T16:40:45Z</time></trkpt><trkpt lat="44.47970506283053" lon="7.837512946429545"><ele>405.75</ele><time>2026-03-23T16:40:46Z</time></trkpt><trkpt lat="44.47976412004634" lon="7.83732910772308"><ele>406.0</ele><time>2026-03-23T16:40:47Z</time></trkpt><trkpt lat="44.4798065524698" lon="7.837138908953209"><ele>406.0</ele><time>2026-03-23T16:40:48Z</time></trkpt><trkpt lat="44.479872661486624" lon="7.836991243443972"><ele>406.0</ele><time>2026-03-23T16:40:48.999Z</time></trkpt><trkpt lat="44.47992433070538" lon="7.836841522932252"><ele>406.0</ele><time>2026-03-23T16:40:49.999Z</time></trkpt><trkpt lat="44.479978656817565" lon="7.836689199103373"><ele>406.0</ele><time>2026-03-23T16:40:50.999Z</time></trkpt><trkpt lat="44.480040874606225" lon="7.836543850469659"><ele>406.0</ele><time>2026-03-23T16:40:51.999Z</time></trkpt><trkpt lat="44.48009384711577" lon="7.836423914043945"><ele>406.0</ele><time>2026-03-23T16:40:52.999Z</time></trkpt><trkpt lat="44.48014590639002" lon="7.836302759801477"><ele>406.0</ele><time>2026-03-23T16:40:53.999Z</time></trkpt><trkpt lat="44.48019686694078" lon="7.836191178325363"><ele>406.0</ele><time>2026-03-23T16:40:54.999Z</time></trkpt><trkpt lat="44.48025611248657" lon="7.836097164728369"><ele>406.0</ele><time>2026-03-23T16:40:55.999Z</time></trkpt><trkpt lat="44.480319574929034" lon="7.836014852027235"><ele>406.00000000000006</ele><time>2026-03-23T16:40:56.999Z</time></trkpt><trkpt lat="44.4804047031387" lon="7.8359736561660815"><ele>406.0</ele><time>2026-03-23T16:40:57.999Z</time></trkpt><trkpt lat="44.480466233984465" lon="7.835900909759824"><ele>406.0</ele><time>2026-03-23T16:40:58.999Z</time></trkpt><trkpt lat="44.48052742249845" lon="7.835854313975963"><ele>406.0</ele><time>2026-03-23T16:40:59.999Z</time></trkpt><trkpt lat="44.48058505006828" lon="7.835806807230676"><ele>406.00000000000006</ele><time>2026-03-23T16:41:00.999Z</time></trkpt><trkpt lat="44.48062507138863" lon="7.835723912633945"><ele>406.0</ele><time>2026-03-23T16:41:01.999Z</time></trkpt><trkpt lat="44.480657347384806" lon="7.835592177032866"><ele>405.5</ele><time>2026-03-23T16:41:02.999Z</time></trkpt><trkpt lat="44.480705229138636" lon="7.835463890273846"><ele>405.0</ele><time>2026-03-23T16:41:03.999Z</time></trkpt><trkpt lat="44.480762712428906" lon="7.835324358456108"><ele>404.5</ele><time>2026-03-23T16:41:04.999Z</time></trkpt><trkpt lat="44.480815347227086" lon="7.8351785486153975"><ele>404.0</ele><time>2026-03-23T16:41:05.999Z</time></trkpt><trkpt lat="44.480870202560894" lon="7.8350244385453705"><ele>404.0</ele><time>2026-03-23T16:41:06.999Z</time></trkpt><trkpt lat="44.48092844389026" lon="7.834875200778655"><ele>404.0</ele><time>2026-03-23T16:41:07.999Z</time></trkpt><trkpt lat="44.48099328949607" lon="7.834728560870948"><ele>404.0</ele><time>2026-03-23T16:41:08.999Z</time></trkpt><trkpt lat="44.48102838522921" lon="7.834553743769982"><ele>404.0</ele><time>2026-03-23T16:41:09.999Z</time></trkpt><trkpt lat="44.48107182464932" lon="7.834414569982819"><ele>404.2</ele><time>2026-03-23T16:41:10.999Z</time></trkpt><trkpt lat="44.48110070900053" lon="7.834295874383966"><ele>404.4</ele><time>2026-03-23T16:41:11.999Z</time></trkpt><trkpt lat="44.481136531342315" lon="7.834171173819696"><ele>404.6</ele><time>2026-03-23T16:41:12.999Z</time></trkpt><trkpt lat="44.48118687706897" lon="7.83404175190331"><ele>404.8</ele><time>2026-03-23T16:41:13.999Z</time></trkpt><trkpt lat="44.481242008827344" lon="7.833925553704076"><ele>405.0</ele><time>2026-03-23T16:41:14.999Z</time></trkpt><trkpt lat="44.48128525483703" lon="7.833806253738041"><ele>406.25</ele><time>2026-03-23T16:41:15.999Z</time></trkpt><trkpt lat="44.481321177212415" lon="7.833672712668672"><ele>407.5</ele><time>2026-03-23T16:41:16.999Z</time></trkpt><trkpt lat="44.48134855338022" lon="7.833519094392288"><ele>408.75</ele><time>2026-03-23T16:41:17.999Z</time></trkpt><trkpt lat="44.48136960632746" lon="7.83335185258752"><ele>410.0</ele><time>2026-03-23T16:41:18.999Z</time></trkpt><trkpt lat="44.481379517727014" lon="7.833178523478151"><ele>410.0</ele><time>2026-03-23T16:41:19.999Z</time></trkpt><trkpt lat="44.48140245432554" lon="7.833000296635281"><ele>410.0</ele><time>2026-03-23T16:41:20.999Z</time></trkpt><trkpt lat="44.48143195729735" lon="7.832830783793323"><ele>410.0</ele><time>2026-03-23T16:41:21.999Z</time></trkpt><trkpt lat="44.48147058065933" lon="7.832658902745532"><ele>410.0</ele><time>2026-03-23T16:41:22.999Z</time></trkpt><trkpt lat="44.481513720381216" lon="7.832490204028771"><ele>410.0</ele><time>2026-03-23T16:41:23.999Z</time></trkpt><trkpt lat="44.481550051662666" lon="7.832328823188014"><ele>410.0</ele><time>2026-03-23T16:41:24.999Z</time></trkpt><trkpt lat="44.48158262764392" lon="7.832163732141373"><ele>410.0</ele><time>2026-03-23T16:41:25.999Z</time></trkpt><trkpt lat="44.481625874868534" lon="7.831999674405727"><ele>410.0</ele><time>2026-03-23T16:41:26.999Z</time></trkpt><trkpt lat="44.48165382539967" lon="7.8318291479030515"><ele>410.25</ele><time>2026-03-23T16:41:27.999Z</time></trkpt><trkpt lat="44.481673755385735" lon="7.831665272704188"><ele>410.5</ele><time>2026-03-23T16:41:28.999Z</time></trkpt><trkpt lat="44.48168978084974" lon="7.831506495303985"><ele>410.75</ele><time>2026-03-23T16:41:29.999Z</time></trkpt><trkpt lat="44.48170691671521" lon="7.831345107470946"><ele>411.0</ele><time>2026-03-23T16:41:30.999Z</time></trkpt><trkpt lat="44.481719845040374" lon="7.831194913413575"><ele>411.0</ele><time>2026-03-23T16:41:31.999Z</time></trkpt><trkpt lat="44.481732238734565" lon="7.83103761719305"><ele>411.0</ele><time>2026-03-23T16:41:32.999Z</time></trkpt><trkpt lat="44.48174096906069" lon="7.830885719431376"><ele>411.0</ele><time>2026-03-23T16:41:33.999Z</time></trkpt><trkpt lat="44.48174816534302" lon="7.830734591088265"><ele>411.0</ele><time>2026-03-23T16:41:34.999Z</time></trkpt><trkpt lat="44.48175586537834" lon="7.830573230610905"><ele>411.0</ele><time>2026-03-23T16:41:35.999Z</time></trkpt><trkpt lat="44.481752133245685" lon="7.830413780551331"><ele>411.0</ele><time>2026-03-23T16:41:36.999Z</time></trkpt><trkpt lat="44.48174257622572" lon="7.8302419836573804"><ele>411.0</ele><time>2026-03-23T16:41:37.999Z</time></trkpt><trkpt lat="44.481724744421285" lon="7.83006567252678"><ele>411.0</ele><time>2026-03-23T16:41:38.999Z</time></trkpt><trkpt lat="44.481700202362106" lon="7.8298798116146475"><ele>411.0</ele><time>2026-03-23T16:41:39.999Z</time></trkpt><trkpt lat="44.481670084545875" lon="7.829697295690128"><ele>410.66666666666663</ele><time>2026-03-23T16:41:40.999Z</time></trkpt><trkpt lat="44.48163583559874" lon="7.829495679992027"><ele>410.3333333333333</ele><time>2026-03-23T16:41:41.999Z</time></trkpt><trkpt lat="44.48159714122694" lon="7.829288211827848"><ele>410.0</ele><time>2026-03-23T16:41:42.999Z</time></trkpt><trkpt lat="44.481555084550095" lon="7.829080444013031"><ele>410.0</ele><time>2026-03-23T16:41:43.999Z</time></trkpt><trkpt lat="44.481514290633385" lon="7.828879707884691"><ele>410.0</ele><time>2026-03-23T16:41:44.999Z</time></trkpt><trkpt lat="44.481477258846624" lon="7.828690894581821"><ele>410.0</ele><time>2026-03-23T16:41:45.999Z</time></trkpt><trkpt lat="44.48144077551683" lon="7.828509383195634"><ele>410.0</ele><time>2026-03-23T16:41:46.999Z</time></trkpt><trkpt lat="44.481408870204795" lon="7.828339019732107"><ele>410.0</ele><time>2026-03-23T16:41:47.999Z</time></trkpt><trkpt lat="44.481380516043615" lon="7.828181774452154"><ele>410.0</ele><time>2026-03-23T16:41:48.998Z</time></trkpt><trkpt lat="44.48135277793922" lon="7.828036179938909"><ele>410.0</ele><time>2026-03-23T16:41:49.998Z</time></trkpt><trkpt lat="44.48132405768424" lon="7.82790052923442"><ele>410.0</ele><time>2026-03-23T16:41:50.998Z</time></trkpt><trkpt lat="44.48130019047903" lon="7.827772084856346"><ele>410.0</ele><time>2026-03-23T16:41:51.998Z</time></trkpt><trkpt lat="44.481278474488526" lon="7.827669429414318"><ele>409.66666666666663</ele><time>2026-03-23T16:41:52.998Z</time></trkpt><trkpt lat="44.481254357396764" lon="7.827534620465671"><ele>409.3333333333333</ele><time>2026-03-23T16:41:54.998Z</time></trkpt><trkpt lat="44.48125830480183" lon="7.827431138733404"><ele>409.0</ele><time>2026-03-23T16:41:57.998Z</time></trkpt><trkpt lat="44.48132384892851" lon="7.827414864292697"><ele>408.66666666666663</ele><time>2026-03-23T16:41:59.998Z</time></trkpt><trkpt lat="44.48139535265621" lon="7.827392899443074"><ele>408.3333333333333</ele><time>2026-03-23T16:42:00.998Z</time></trkpt><trkpt lat="44.48147067767311" lon="7.827369760782453"><ele>408.0</ele><time>2026-03-23T16:42:01.998Z</time></trkpt><trkpt lat="44.481545411398265" lon="7.827348233520561"><ele>408.0</ele><time>2026-03-23T16:42:02.998Z</time></trkpt><trkpt lat="44.48163577475956" lon="7.827322816710952"><ele>408.0</ele><time>2026-03-23T16:42:03.998Z</time></trkpt><trkpt lat="44.481745821105974" lon="7.827291863609382"><ele>408.0</ele><time>2026-03-23T16:42:04.998Z</time></trkpt><trkpt lat="44.48185303220226" lon="7.827237030171602"><ele>408.0</ele><time>2026-03-23T16:42:05.998Z</time></trkpt><trkpt lat="44.481973529413324" lon="7.827213574881423"><ele>408.0</ele><time>2026-03-23T16:42:06.998Z</time></trkpt><trkpt lat="44.4821055942919" lon="7.827175361889188"><ele>408.0</ele><time>2026-03-23T16:42:07.998Z</time></trkpt><trkpt lat="44.48224184782863" lon="7.827140199477263"><ele>408.0</ele><time>2026-03-23T16:42:08.998Z</time></trkpt><trkpt lat="44.48238405499759" lon="7.827111375754134"><ele>408.0</ele><time>2026-03-23T16:42:09.998Z</time></trkpt><trkpt lat="44.48253012060449" lon="7.827085606221158"><ele>408.0</ele><time>2026-03-23T16:42:10.998Z</time></trkpt><trkpt lat="44.482687650946765" lon="7.827059120560511"><ele>408.0</ele><time>2026-03-23T16:42:12Z</time></trkpt><trkpt lat="44.482838410505764" lon="7.827038665130425"><ele>408.0</ele><time>2026-03-23T16:42:13Z</time></trkpt><trkpt lat="44.48300492317924" lon="7.827039131416228"><ele>408.0</ele><time>2026-03-23T16:42:14Z</time></trkpt><trkpt lat="44.483166049104845" lon="7.82702454356267"><ele>408.25</ele><time>2026-03-23T16:42:15Z</time></trkpt><trkpt lat="44.48330990892886" lon="7.827010002740602"><ele>408.5</ele><time>2026-03-23T16:42:16Z</time></trkpt><trkpt lat="44.48342724831229" lon="7.8269751631650815"><ele>408.75</ele><time>2026-03-23T16:42:17Z</time></trkpt><trkpt lat="44.483523750434664" lon="7.826968320611387"><ele>409.0</ele><time>2026-03-23T16:42:18Z</time></trkpt><trkpt lat="44.483619743850866" lon="7.82696776422514"><ele>409.0</ele><time>2026-03-23T16:42:19Z</time></trkpt><trkpt lat="44.48369757444524" lon="7.826960976860662"><ele>409.0</ele><time>2026-03-23T16:42:20Z</time></trkpt><trkpt lat="44.48376688611485" lon="7.82696464214897"><ele>409.0</ele><time>2026-03-23T16:42:21Z</time></trkpt><trkpt lat="44.48388170143957" lon="7.827029283036425"><ele>409.0</ele><time>2026-03-23T16:42:23Z</time></trkpt><trkpt lat="44.48395795539866" lon="7.82723431883527"><ele>409.0</ele><time>2026-03-23T16:42:25Z</time></trkpt><trkpt lat="44.48400926219198" lon="7.827354368496177"><ele>408.83333333333337</ele><time>2026-03-23T16:42:26Z</time></trkpt><trkpt lat="44.484059632131405" lon="7.827443767914412"><ele>408.6666666666667</ele><time>2026-03-23T16:42:27Z</time></trkpt><trkpt lat="44.484091788451934" lon="7.827531039781433"><ele>408.5</ele><time>2026-03-23T16:42:28Z</time></trkpt><trkpt lat="44.48413605827544" lon="7.827597145327867"><ele>408.33333333333337</ele><time>2026-03-23T16:42:29Z</time></trkpt><trkpt lat="44.48418498454673" lon="7.827676968493109"><ele>408.1666666666667</ele><time>2026-03-23T16:42:30Z</time></trkpt><trkpt lat="44.484275835522105" lon="7.827704491185311"><ele>408.0</ele><time>2026-03-23T16:42:31Z</time></trkpt><trkpt lat="44.48438174376768" lon="7.827666953094259"><ele>408.0</ele><time>2026-03-23T16:42:32Z</time></trkpt><trkpt lat="44.48448378305877" lon="7.827643124901105"><ele>408.0</ele><time>2026-03-23T16:42:33Z</time></trkpt><trkpt lat="44.484600615280556" lon="7.827612745070904"><ele>408.0</ele><time>2026-03-23T16:42:34Z</time></trkpt><trkpt lat="44.48471439341039" lon="7.827607414670125"><ele>408.0</ele><time>2026-03-23T16:42:35Z</time></trkpt><trkpt lat="44.48485402683776" lon="7.827583251032988"><ele>408.0</ele><time>2026-03-23T16:42:36Z</time></trkpt><trkpt lat="44.484961684872324" lon="7.8275681518110805"><ele>408.0</ele><time>2026-03-23T16:42:37Z</time></trkpt><trkpt lat="44.48506382685532" lon="7.827557386020379"><ele>408.0</ele><time>2026-03-23T16:42:38Z</time></trkpt><trkpt lat="44.48517095492844" lon="7.827548048085966"><ele>408.0</ele><time>2026-03-23T16:42:39Z</time></trkpt><trkpt lat="44.48529031213088" lon="7.827541453778904"><ele>408.0</ele><time>2026-03-23T16:42:40Z</time></trkpt><trkpt lat="44.485406445113874" lon="7.827538894066782"><ele>408.2</ele><time>2026-03-23T16:42:41Z</time></trkpt><trkpt lat="44.48551654615266" lon="7.827538554508771"><ele>408.4</ele><time>2026-03-23T16:42:42Z</time></trkpt><trkpt lat="44.48561033038153" lon="7.82754239743438"><ele>408.59999999999997</ele><time>2026-03-23T16:42:43Z</time></trkpt><trkpt lat="44.48570873724172" lon="7.8275506266681365"><ele>408.79999999999995</ele><time>2026-03-23T16:42:44Z</time></trkpt><trkpt lat="44.48580648093698" lon="7.827536288039477"><ele>409.0</ele><time>2026-03-23T16:42:45Z</time></trkpt><trkpt lat="44.4858876350835" lon="7.82757198577303"><ele>409.0</ele><time>2026-03-23T16:42:46Z</time></trkpt><trkpt lat="44.4859624666141" lon="7.827588139900717"><ele>409.0</ele><time>2026-03-23T16:42:47Z</time></trkpt><trkpt lat="44.48604714658026" lon="7.827636055857696"><ele>409.0</ele><time>2026-03-23T16:42:48Z</time></trkpt><trkpt lat="44.48612522056622" lon="7.827698992577097"><ele>409.0</ele><time>2026-03-23T16:42:49Z</time></trkpt><trkpt lat="44.48620081370699" lon="7.827791179915391"><ele>409.0</ele><time>2026-03-23T16:42:50Z</time></trkpt><trkpt lat="44.48627444083654" lon="7.827899235385371"><ele>408.83333333333337</ele><time>2026-03-23T16:42:51Z</time></trkpt><trkpt lat="44.486350867700715" lon="7.828016011241615"><ele>408.6666666666667</ele><time>2026-03-23T16:42:52Z</time></trkpt><trkpt lat="44.48640133554292" lon="7.828136376893416"><ele>408.5</ele><time>2026-03-23T16:42:53Z</time></trkpt><trkpt lat="44.48645289623439" lon="7.828229881352675"><ele>408.33333333333337</ele><time>2026-03-23T16:42:54Z</time></trkpt><trkpt lat="44.48650354534545" lon="7.828316365280668"><ele>408.1666666666667</ele><time>2026-03-23T16:42:55Z</time></trkpt><trkpt lat="44.48655818804354" lon="7.828379778859062"><ele>408.0</ele><time>2026-03-23T16:42:56Z</time></trkpt><trkpt lat="44.48663417407342" lon="7.828417049348091"><ele>408.0</ele><time>2026-03-23T16:42:56.999Z</time></trkpt><trkpt lat="44.48672132100444" lon="7.828386973714669"><ele>408.0</ele><time>2026-03-23T16:42:57.999Z</time></trkpt><trkpt lat="44.48680298922244" lon="7.828339259857324"><ele>408.0</ele><time>2026-03-23T16:42:58.999Z</time></trkpt><trkpt lat="44.48688547942814" lon="7.828265065858602"><ele>408.0</ele><time>2026-03-23T16:42:59.999Z</time></trkpt><trkpt lat="44.48696851578353" lon="7.82817532751523"><ele>408.0</ele><time>2026-03-23T16:43:00.999Z</time></trkpt><trkpt lat="44.48705788193641" lon="7.828122166662646"><ele>408.25</ele><time>2026-03-23T16:43:01.999Z</time></trkpt><trkpt lat="44.48715939626801" lon="7.828075232479597"><ele>408.5</ele><time>2026-03-23T16:43:02.999Z</time></trkpt><trkpt lat="44.48727898225969" lon="7.82805952584935"><ele>408.75</ele><time>2026-03-23T16:43:03.999Z</time></trkpt><trkpt lat="44.48740031289454" lon="7.828035884359792"><ele>409.0</ele><time>2026-03-23T16:43:04.999Z</time></trkpt><trkpt lat="44.487557205947425" lon="7.8280364431056775"><ele>409.0</ele><time>2026-03-23T16:43:05.999Z</time></trkpt><trkpt lat="44.487663647034616" lon="7.828089069222601"><ele>409.0</ele><time>2026-03-23T16:43:06.999Z</time></trkpt><trkpt lat="44.48776768828319" lon="7.828121219229638"><ele>409.0</ele><time>2026-03-23T16:43:07.999Z</time></trkpt><trkpt lat="44.48788437962743" lon="7.828161097093289"><ele>409.0</ele><time>2026-03-23T16:43:08.999Z</time></trkpt><trkpt lat="44.48801276361298" lon="7.828185737162925"><ele>408.75</ele><time>2026-03-23T16:43:09.999Z</time></trkpt><trkpt lat="44.48812478168297" lon="7.828255012813881"><ele>408.5</ele><time>2026-03-23T16:43:10.999Z</time></trkpt><trkpt lat="44.48824444029055" lon="7.828288203148505"><ele>408.25</ele><time>2026-03-23T16:43:11.999Z</time></trkpt><trkpt lat="44.488361204766704" lon="7.828378861883142"><ele>408.0</ele><time>2026-03-23T16:43:12.999Z</time></trkpt><trkpt lat="44.48848987986795" lon="7.828458507599168"><ele>408.0</ele><time>2026-03-23T16:43:13.999Z</time></trkpt><trkpt lat="44.48862790933169" lon="7.82851577471899"><ele>408.0</ele><time>2026-03-23T16:43:14.999Z</time></trkpt><trkpt lat="44.48876413556197" lon="7.828600101716128"><ele>408.0</ele><time>2026-03-23T16:43:15.999Z</time></trkpt><trkpt lat="44.488898976247285" lon="7.828682193601077"><ele>408.0</ele><time>2026-03-23T16:43:16.999Z</time></trkpt><trkpt lat="44.48904882733044" lon="7.828767393871333"><ele>408.75</ele><time>2026-03-23T16:43:17.999Z</time></trkpt><trkpt lat="44.48918512958044" lon="7.828854346080729"><ele>409.5</ele><time>2026-03-23T16:43:18.999Z</time></trkpt><trkpt lat="44.489313912086175" lon="7.828920758063904"><ele>410.25</ele><time>2026-03-23T16:43:19.999Z</time></trkpt><trkpt lat="44.489435241989725" lon="7.8289794529918035"><ele>411.0</ele><time>2026-03-23T16:43:20.999Z</time></trkpt><trkpt lat="44.48954592900855" lon="7.829035017994657"><ele>410.6666666666667</ele><time>2026-03-23T16:43:21.999Z</time></trkpt><trkpt lat="44.48964236176882" lon="7.829078955847845"><ele>410.33333333333337</ele><time>2026-03-23T16:43:22.999Z</time></trkpt><trkpt lat="44.48972066044482" lon="7.829119469042107"><ele>410.0</ele><time>2026-03-23T16:43:23.999Z</time></trkpt><trkpt lat="44.48979422240686" lon="7.829152034878173"><ele>409.6666666666667</ele><time>2026-03-23T16:43:24.999Z</time></trkpt><trkpt lat="44.48985427390478" lon="7.82917990776983"><ele>409.33333333333337</ele><time>2026-03-23T16:43:25.999Z</time></trkpt><trkpt lat="44.489957119361215" lon="7.829226127228209"><ele>409.0</ele><time>2026-03-23T16:43:27.999Z</time></trkpt><trkpt lat="44.49002505835649" lon="7.829264065826306"><ele>409.0</ele><time>2026-03-23T16:43:32.999Z</time></trkpt><trkpt lat="44.49005329918152" lon="7.829428979564235"><ele>409.0</ele><time>2026-03-23T16:43:44.999Z</time></trkpt><trkpt lat="44.49003456153379" lon="7.829514375832372"><ele>409.0</ele><time>2026-03-23T16:43:45.999Z</time></trkpt><trkpt lat="44.49001187307374" lon="7.829629758497609"><ele>409.0</ele><time>2026-03-23T16:43:46.999Z</time></trkpt><trkpt lat="44.48998637765648" lon="7.829767087899308"><ele>409.0</ele><time>2026-03-23T16:43:47.999Z</time></trkpt><trkpt lat="44.48996031561729" lon="7.8299105890693035"><ele>409.0</ele><time>2026-03-23T16:43:48.999Z</time></trkpt><trkpt lat="44.489934160819935" lon="7.83006793460998"><ele>409.0</ele><time>2026-03-23T16:43:49.999Z</time></trkpt><trkpt lat="44.48990504251982" lon="7.830248164140708"><ele>409.0</ele><time>2026-03-23T16:43:50.999Z</time></trkpt><trkpt lat="44.48987289806182" lon="7.830447089629147"><ele>409.0</ele><time>2026-03-23T16:43:51.999Z</time></trkpt><trkpt lat="44.48984033458913" lon="7.830645350854123"><ele>409.33333333333337</ele><time>2026-03-23T16:43:52.999Z</time></trkpt><trkpt lat="44.48980500481763" lon="7.830855314655901"><ele>409.66666666666663</ele><time>2026-03-23T16:43:53.999Z</time></trkpt><trkpt lat="44.48977117875731" lon="7.8310575904874"><ele>410.0</ele><time>2026-03-23T16:43:54.999Z</time></trkpt><trkpt lat="44.48974070631959" lon="7.8312796823197885"><ele>409.3333333333333</ele><time>2026-03-23T16:43:55.998Z</time></trkpt><trkpt lat="44.489705053970155" lon="7.831500510169409"><ele>408.66666666666663</ele><time>2026-03-23T16:43:56.998Z</time></trkpt><trkpt lat="44.489668837079" lon="7.831736012895665"><ele>408.0</ele><time>2026-03-23T16:43:57.998Z</time></trkpt><trkpt lat="44.48963608992686" lon="7.831967351551757"><ele>408.0</ele><time>2026-03-23T16:43:58.998Z</time></trkpt><trkpt lat="44.48958551878854" lon="7.832234107083381"><ele>408.0</ele><time>2026-03-23T16:43:59.998Z</time></trkpt><trkpt lat="44.48954331339995" lon="7.832503893307216"><ele>408.0</ele><time>2026-03-23T16:44:00.998Z</time></trkpt><trkpt lat="44.489485219131346" lon="7.832784562619099"><ele>407.66666666666663</ele><time>2026-03-23T16:44:01.998Z</time></trkpt><trkpt lat="44.4894413425636" lon="7.83305416757312"><ele>407.3333333333333</ele><time>2026-03-23T16:44:02.998Z</time></trkpt><trkpt lat="44.48939441933122" lon="7.833337845331791"><ele>407.0</ele><time>2026-03-23T16:44:03.998Z</time></trkpt><trkpt lat="44.48934189186164" lon="7.8336212694743494"><ele>406.66666666666663</ele><time>2026-03-23T16:44:04.998Z</time></trkpt><trkpt lat="44.489296641463476" lon="7.8339042980235885"><ele>406.33333333333337</ele><time>2026-03-23T16:44:05.998Z</time></trkpt><trkpt lat="44.48925091717861" lon="7.834191671161986"><ele>406.0</ele><time>2026-03-23T16:44:06.998Z</time></trkpt><trkpt lat="44.48920580701688" lon="7.834489451265977"><ele>406.33333333333337</ele><time>2026-03-23T16:44:07.998Z</time></trkpt><trkpt lat="44.48916293462393" lon="7.834777253025017"><ele>406.66666666666663</ele><time>2026-03-23T16:44:08.998Z</time></trkpt><trkpt lat="44.489115738361306" lon="7.835062151385913"><ele>407.0</ele><time>2026-03-23T16:44:09.998Z</time></trkpt><trkpt lat="44.489073716323304" lon="7.8353292800745304"><ele>407.0</ele><time>2026-03-23T16:44:10.998Z</time></trkpt><trkpt lat="44.48903008673783" lon="7.83559461974925"><ele>407.0</ele><time>2026-03-23T16:44:11.998Z</time></trkpt><trkpt lat="44.48898332140113" lon="7.835870898936045"><ele>407.0</ele><time>2026-03-23T16:44:12.998Z</time></trkpt><trkpt lat="44.48893377821529" lon="7.836143447416213"><ele>407.0</ele><time>2026-03-23T16:44:13.998Z</time></trkpt><trkpt lat="44.48888916445737" lon="7.836411692621075"><ele>407.0</ele><time>2026-03-23T16:44:14.998Z</time></trkpt><trkpt lat="44.48884624521807" lon="7.836680405134972"><ele>407.0</ele><time>2026-03-23T16:44:15.998Z</time></trkpt><trkpt lat="44.48879733212191" lon="7.836955069932872"><ele>407.0</ele><time>2026-03-23T16:44:16.998Z</time></trkpt><trkpt lat="44.488762391653495" lon="7.837218346176232"><ele>407.0</ele><time>2026-03-23T16:44:18Z</time></trkpt><trkpt lat="44.48871358985771" lon="7.837506978947173"><ele>407.0</ele><time>2026-03-23T16:44:19Z</time></trkpt><trkpt lat="44.488676675566886" lon="7.83776803834855"><ele>407.0</ele><time>2026-03-23T16:44:20Z</time></trkpt><trkpt lat="44.48863243055951" lon="7.838032575037043"><ele>407.0</ele><time>2026-03-23T16:44:21Z</time></trkpt><trkpt lat="44.488587367645685" lon="7.838288212241388"><ele>407.0</ele><time>2026-03-23T16:44:22Z</time></trkpt><trkpt lat="44.48854106032219" lon="7.838550072959077"><ele>406.66666666666663</ele><time>2026-03-23T16:44:23Z</time></trkpt><trkpt lat="44.48849811049661" lon="7.838810106542037"><ele>406.33333333333337</ele><time>2026-03-23T16:44:24Z</time></trkpt><trkpt lat="44.4884541362871" lon="7.839071770486389"><ele>406.0</ele><time>2026-03-23T16:44:25Z</time></trkpt><trkpt lat="44.48840988461089" lon="7.839333051851234"><ele>405.6666666666667</ele><time>2026-03-23T16:44:26Z</time></trkpt><trkpt lat="44.488361905832186" lon="7.839586352318053"><ele>405.33333333333337</ele><time>2026-03-23T16:44:27Z</time></trkpt><trkpt lat="44.48832280939395" lon="7.839843887007703"><ele>405.0</ele><time>2026-03-23T16:44:28Z</time></trkpt><trkpt lat="44.48827820571749" lon="7.840117244904833"><ele>405.0</ele><time>2026-03-23T16:44:29Z</time></trkpt><trkpt lat="44.4882329438241" lon="7.840388734522543"><ele>405.0</ele><time>2026-03-23T16:44:30Z</time></trkpt><trkpt lat="44.48818631751339" lon="7.840657006157904"><ele>405.0</ele><time>2026-03-23T16:44:31Z</time></trkpt><trkpt lat="44.48814074567509" lon="7.840930726648308"><ele>404.66666666666663</ele><time>2026-03-23T16:44:32Z</time></trkpt><trkpt lat="44.48809560638066" lon="7.841202764395319"><ele>404.3333333333333</ele><time>2026-03-23T16:44:33Z</time></trkpt><trkpt lat="44.48805318470154" lon="7.841469634207889"><ele>404.0</ele><time>2026-03-23T16:44:34Z</time></trkpt><trkpt lat="44.488007838956115" lon="7.841742433541601"><ele>404.0</ele><time>2026-03-23T16:44:35Z</time></trkpt><trkpt lat="44.48796401290333" lon="7.842014842417786"><ele>404.0</ele><time>2026-03-23T16:44:36Z</time></trkpt><trkpt lat="44.48792101978715" lon="7.842288674454834"><ele>404.0</ele><time>2026-03-23T16:44:37Z</time></trkpt><trkpt lat="44.48787573270066" lon="7.8425582477575215"><ele>403.66666666666663</ele><time>2026-03-23T16:44:38Z</time></trkpt><trkpt lat="44.48783246658396" lon="7.842837751746023"><ele>403.33333333333337</ele><time>2026-03-23T16:44:39Z</time></trkpt><trkpt lat="44.487786451227464" lon="7.843117448045111"><ele>403.0</ele><time>2026-03-23T16:44:40Z</time></trkpt><trkpt lat="44.487739715294616" lon="7.843404203309105"><ele>403.6666666666667</ele><time>2026-03-23T16:44:41Z</time></trkpt><trkpt lat="44.48769592561717" lon="7.843682997554916"><ele>404.33333333333337</ele><time>2026-03-23T16:44:42Z</time></trkpt><trkpt lat="44.487653634629275" lon="7.843963253577425"><ele>405.0</ele><time>2026-03-23T16:44:43Z</time></trkpt><trkpt lat="44.48760754425491" lon="7.84423950733176"><ele>404.33333333333337</ele><time>2026-03-23T16:44:44Z</time></trkpt><trkpt lat="44.48756206657922" lon="7.84451949555385"><ele>403.6666666666667</ele><time>2026-03-23T16:44:45Z</time></trkpt><trkpt lat="44.487517632965684" lon="7.844792065152945"><ele>403.0</ele><time>2026-03-23T16:44:46Z</time></trkpt><trkpt lat="44.48747262917535" lon="7.845077143406615"><ele>402.6666666666667</ele><time>2026-03-23T16:44:47Z</time></trkpt><trkpt lat="44.48742613631422" lon="7.845357444369438"><ele>402.33333333333337</ele><time>2026-03-23T16:44:48Z</time></trkpt><trkpt lat="44.487380972467186" lon="7.845625742879153"><ele>402.0</ele><time>2026-03-23T16:44:49Z</time></trkpt><trkpt lat="44.48732053100993" lon="7.84589573736437"><ele>401.33333333333337</ele><time>2026-03-23T16:44:50Z</time></trkpt><trkpt lat="44.48728970851196" lon="7.84617625374488"><ele>400.6666666666667</ele><time>2026-03-23T16:44:51Z</time></trkpt><trkpt lat="44.48723635769974" lon="7.846466517198362"><ele>400.0</ele><time>2026-03-23T16:44:52Z</time></trkpt><trkpt lat="44.48719104804462" lon="7.846732955811013"><ele>400.0</ele><time>2026-03-23T16:44:53Z</time></trkpt><trkpt lat="44.487142262329385" lon="7.847011220512115"><ele>400.0</ele><time>2026-03-23T16:44:54Z</time></trkpt><trkpt lat="44.487096074859174" lon="7.847285667887614"><ele>400.0</ele><time>2026-03-23T16:44:55Z</time></trkpt><trkpt lat="44.48704938917377" lon="7.8475587428647025"><ele>400.33333333333337</ele><time>2026-03-23T16:44:56Z</time></trkpt><trkpt lat="44.487009171893206" lon="7.84783634604147"><ele>400.66666666666663</ele><time>2026-03-23T16:44:57Z</time></trkpt><trkpt lat="44.486966701751676" lon="7.848106956971102"><ele>401.0</ele><time>2026-03-23T16:44:58Z</time></trkpt><trkpt lat="44.48692223072448" lon="7.8483894871372435"><ele>401.66666666666663</ele><time>2026-03-23T16:44:59Z</time></trkpt><trkpt lat="44.48687550468041" lon="7.848659628919903"><ele>402.33333333333337</ele><time>2026-03-23T16:45:00Z</time></trkpt><trkpt lat="44.486829385413024" lon="7.848932749518887"><ele>403.0</ele><time>2026-03-23T16:45:01Z</time></trkpt><trkpt lat="44.4867836079678" lon="7.8492079102128836"><ele>403.33333333333337</ele><time>2026-03-23T16:45:02Z</time></trkpt><trkpt lat="44.486737287028745" lon="7.849478690078325"><ele>403.66666666666663</ele><time>2026-03-23T16:45:03Z</time></trkpt><trkpt lat="44.48669140309724" lon="7.849737404418416"><ele>404.0</ele><time>2026-03-23T16:45:03.999Z</time></trkpt><trkpt lat="44.48665000470764" lon="7.849981816043347"><ele>403.66666666666663</ele><time>2026-03-23T16:45:04.999Z</time></trkpt><trkpt lat="44.48659859491263" lon="7.85024032521426"><ele>403.33333333333337</ele><time>2026-03-23T16:45:05.999Z</time></trkpt><trkpt lat="44.48654579483028" lon="7.85048948295255"><ele>403.0</ele><time>2026-03-23T16:45:06.999Z</time></trkpt><trkpt lat="44.48648532593361" lon="7.850739823538464"><ele>402.0</ele><time>2026-03-23T16:45:07.999Z</time></trkpt><trkpt lat="44.48641462790562" lon="7.850990441562899"><ele>401.0</ele><time>2026-03-23T16:45:08.999Z</time></trkpt><trkpt lat="44.48633697454181" lon="7.851229823703103"><ele>400.0</ele><time>2026-03-23T16:45:09.999Z</time></trkpt><trkpt lat="44.48625512181968" lon="7.851469208468568"><ele>400.0</ele><time>2026-03-23T16:45:10.999Z</time></trkpt><trkpt lat="44.48616323020227" lon="7.851700351768832"><ele>400.0</ele><time>2026-03-23T16:45:11.999Z</time></trkpt><trkpt lat="44.48605983727629" lon="7.851933170935381"><ele>400.0</ele><time>2026-03-23T16:45:12.999Z</time></trkpt><trkpt lat="44.485948671226446" lon="7.85216851718134"><ele>400.0</ele><time>2026-03-23T16:45:13.999Z</time></trkpt><trkpt lat="44.48583657595283" lon="7.852361047876108"><ele>400.0</ele><time>2026-03-23T16:45:14.999Z</time></trkpt><trkpt lat="44.48572112433182" lon="7.852553073041505"><ele>400.0</ele><time>2026-03-23T16:45:15.999Z</time></trkpt><trkpt lat="44.4856010992584" lon="7.852743493112167"><ele>400.0</ele><time>2026-03-23T16:45:16.999Z</time></trkpt><trkpt lat="44.485483085201366" lon="7.852917502702123"><ele>400.0</ele><time>2026-03-23T16:45:17.999Z</time></trkpt><trkpt lat="44.485362496689255" lon="7.853081163068176"><ele>400.0</ele><time>2026-03-23T16:45:18.999Z</time></trkpt><trkpt lat="44.485237726970766" lon="7.853241127851688"><ele>400.33333333333337</ele><time>2026-03-23T16:45:19.999Z</time></trkpt><trkpt lat="44.48511135198908" lon="7.853384043136003"><ele>400.66666666666663</ele><time>2026-03-23T16:45:20.999Z</time></trkpt><trkpt lat="44.48498789134001" lon="7.85351455944271"><ele>401.0</ele><time>2026-03-23T16:45:21.999Z</time></trkpt><trkpt lat="44.484873110006696" lon="7.853633505624568"><ele>401.0</ele><time>2026-03-23T16:45:22.999Z</time></trkpt><trkpt lat="44.48476585562326" lon="7.85373705279865"><ele>401.0</ele><time>2026-03-23T16:45:23.999Z</time></trkpt><trkpt lat="44.48466425574477" lon="7.853842563118398"><ele>401.0</ele><time>2026-03-23T16:45:24.999Z</time></trkpt><trkpt lat="44.48457829011907" lon="7.853951303424073"><ele>401.0</ele><time>2026-03-23T16:45:25.999Z</time></trkpt><trkpt lat="44.48450438041101" lon="7.854070178820101"><ele>400.25</ele><time>2026-03-23T16:45:26.999Z</time></trkpt><trkpt lat="44.48444326920066" lon="7.8542011765742075"><ele>399.5</ele><time>2026-03-23T16:45:27.999Z</time></trkpt><trkpt lat="44.484397076989396" lon="7.85434697927233"><ele>398.75</ele><time>2026-03-23T16:45:28.999Z</time></trkpt><trkpt lat="44.48436726993606" lon="7.854514278235503"><ele>398.0</ele><time>2026-03-23T16:45:29.999Z</time></trkpt><trkpt lat="44.484356386838066" lon="7.854691089393617"><ele>398.0</ele><time>2026-03-23T16:45:30.999Z</time></trkpt><trkpt lat="44.48436151429931" lon="7.854883645642561"><ele>398.0</ele><time>2026-03-23T16:45:31.999Z</time></trkpt><trkpt lat="44.48436973721584" lon="7.855066597226066"><ele>398.0</ele><time>2026-03-23T16:45:32.999Z</time></trkpt><trkpt lat="44.484378554100985" lon="7.855265664624613"><ele>398.0</ele><time>2026-03-23T16:45:33.999Z</time></trkpt><trkpt lat="44.48437485061625" lon="7.8554666511806035"><ele>397.5</ele><time>2026-03-23T16:45:34.999Z</time></trkpt><trkpt lat="44.48436056569193" lon="7.855672362849989"><ele>397.0</ele><time>2026-03-23T16:45:35.999Z</time></trkpt><trkpt lat="44.484342772375484" lon="7.8558757378628545"><ele>396.5</ele><time>2026-03-23T16:45:36.999Z</time></trkpt><trkpt lat="44.48432351100347" lon="7.8560871763077555"><ele>396.0</ele><time>2026-03-23T16:45:37.999Z</time></trkpt><trkpt lat="44.48429861201587" lon="7.856307921107561"><ele>395.66666666666663</ele><time>2026-03-23T16:45:38.999Z</time></trkpt><trkpt lat="44.48426666730899" lon="7.856549764785421"><ele>395.3333333333333</ele><time>2026-03-23T16:45:39.999Z</time></trkpt><trkpt lat="44.48423004666316" lon="7.856790276980995"><ele>395.0</ele><time>2026-03-23T16:45:40.999Z</time></trkpt><trkpt lat="44.484199558901125" lon="7.857045946422187"><ele>395.0</ele><time>2026-03-23T16:45:41.999Z</time></trkpt><trkpt lat="44.484170198328506" lon="7.857297064710578"><ele>395.0</ele><time>2026-03-23T16:45:42.999Z</time></trkpt><trkpt lat="44.4841414296073" lon="7.857518481465384"><ele>395.0</ele><time>2026-03-23T16:45:43.999Z</time></trkpt><trkpt lat="44.48411637219124" lon="7.857744564575576"><ele>394.66666666666663</ele><time>2026-03-23T16:45:44.999Z</time></trkpt><trkpt lat="44.48408927608752" lon="7.857973684589049"><ele>394.33333333333337</ele><time>2026-03-23T16:45:45.999Z</time></trkpt><trkpt lat="44.48406090251131" lon="7.858218068516022"><ele>394.0</ele><time>2026-03-23T16:45:46.999Z</time></trkpt><trkpt lat="44.48404110700189" lon="7.858430693487209"><ele>393.33333333333337</ele><time>2026-03-23T16:45:47.999Z</time></trkpt><trkpt lat="44.484030404132845" lon="7.858668507435612"><ele>392.66666666666663</ele><time>2026-03-23T16:45:48.999Z</time></trkpt><trkpt lat="44.484022089386464" lon="7.8589088218518794"><ele>392.0</ele><time>2026-03-23T16:45:49.999Z</time></trkpt><trkpt lat="44.484015287937495" lon="7.859138376793336"><ele>391.0</ele><time>2026-03-23T16:45:50.999Z</time></trkpt><trkpt lat="44.484011579422734" lon="7.8593598474711355"><ele>390.0</ele><time>2026-03-23T16:45:51.999Z</time></trkpt><trkpt lat="44.48400719871061" lon="7.859595741489266"><ele>389.0</ele><time>2026-03-23T16:45:52.999Z</time></trkpt><trkpt lat="44.48400303116867" lon="7.85982339980064"><ele>389.0</ele><time>2026-03-23T16:45:53.999Z</time></trkpt><trkpt lat="44.48399223036837" lon="7.860034973662774"><ele>389.0</ele><time>2026-03-23T16:45:54.999Z</time></trkpt><trkpt lat="44.4839717715083" lon="7.860234105054797"><ele>389.0</ele><time>2026-03-23T16:45:55.999Z</time></trkpt><trkpt lat="44.48395264954762" lon="7.860427256029263"><ele>389.0</ele><time>2026-03-23T16:45:56.999Z</time></trkpt><trkpt lat="44.48391148982312" lon="7.860640052685036"><ele>388.66666666666663</ele><time>2026-03-23T16:45:57.999Z</time></trkpt><trkpt lat="44.483859079057574" lon="7.860854681168672"><ele>388.33333333333337</ele><time>2026-03-23T16:45:58.999Z</time></trkpt><trkpt lat="44.483793385828655" lon="7.861061545667219"><ele>388.0</ele><time>2026-03-23T16:45:59.999Z</time></trkpt><trkpt lat="44.48373397121207" lon="7.861299197170472"><ele>387.6666666666667</ele><time>2026-03-23T16:46:00.999Z</time></trkpt><trkpt lat="44.48367182264775" lon="7.861534286925618"><ele>387.33333333333337</ele><time>2026-03-23T16:46:01.998Z</time></trkpt><trkpt lat="44.48360350137704" lon="7.8617844260065635"><ele>387.0</ele><time>2026-03-23T16:46:02.998Z</time></trkpt><trkpt lat="44.483547349209665" lon="7.862011487261233"><ele>384.3333333333333</ele><time>2026-03-23T16:46:03.998Z</time></trkpt><trkpt lat="44.483491660953725" lon="7.862254517991077"><ele>381.66666666666663</ele><time>2026-03-23T16:46:04.998Z</time></trkpt><trkpt lat="44.48342897081319" lon="7.862495740812146"><ele>379.0</ele><time>2026-03-23T16:46:05.998Z</time></trkpt><trkpt lat="44.48336873937907" lon="7.862735608039748"><ele>377.66666666666663</ele><time>2026-03-23T16:46:06.998Z</time></trkpt><trkpt lat="44.4833145760385" lon="7.862953425890935"><ele>376.3333333333333</ele><time>2026-03-23T16:46:07.998Z</time></trkpt><trkpt lat="44.48326503741418" lon="7.863165679394962"><ele>375.0</ele><time>2026-03-23T16:46:08.998Z</time></trkpt><trkpt lat="44.48321204303411" lon="7.86337632898433"><ele>374.0</ele><time>2026-03-23T16:46:09.998Z</time></trkpt><trkpt lat="44.48316364033357" lon="7.8635809323966885"><ele>373.0</ele><time>2026-03-23T16:46:10.998Z</time></trkpt><trkpt lat="44.48311239471035" lon="7.863784514418617"><ele>372.0</ele><time>2026-03-23T16:46:11.998Z</time></trkpt><trkpt lat="44.483063669506166" lon="7.863978937059372"><ele>372.0</ele><time>2026-03-23T16:46:12.998Z</time></trkpt><trkpt lat="44.48301523866741" lon="7.864160410429055"><ele>372.0</ele><time>2026-03-23T16:46:13.998Z</time></trkpt><trkpt lat="44.48296240589401" lon="7.86433360916592"><ele>372.0</ele><time>2026-03-23T16:46:14.998Z</time></trkpt><trkpt lat="44.48288991612773" lon="7.864501574785413"><ele>372.0</ele><time>2026-03-23T16:46:15.998Z</time></trkpt><trkpt lat="44.48280684305288" lon="7.864652099104379"><ele>372.25</ele><time>2026-03-23T16:46:16.998Z</time></trkpt><trkpt lat="44.48270574583962" lon="7.86479962922927"><ele>372.5</ele><time>2026-03-23T16:46:17.998Z</time></trkpt><trkpt lat="44.482596322131215" lon="7.864935169274792"><ele>372.75</ele><time>2026-03-23T16:46:18.998Z</time></trkpt><trkpt lat="44.482478711270154" lon="7.86506495578949"><ele>373.0</ele><time>2026-03-23T16:46:19.998Z</time></trkpt><trkpt lat="44.48234672971355" lon="7.865197085768603"><ele>373.3333333333333</ele><time>2026-03-23T16:46:20.998Z</time></trkpt><trkpt lat="44.48221206469087" lon="7.865325920853269"><ele>373.6666666666667</ele><time>2026-03-23T16:46:21.998Z</time></trkpt><trkpt lat="44.48207971419478" lon="7.865460381178404"><ele>374.0</ele><time>2026-03-23T16:46:22.998Z</time></trkpt><trkpt lat="44.481959699641536" lon="7.865580556552048"><ele>374.5</ele><time>2026-03-23T16:46:24Z</time></trkpt><trkpt lat="44.48184676160414" lon="7.865699562554902"><ele>375.0</ele><time>2026-03-23T16:46:25Z</time></trkpt><trkpt lat="44.481739917297176" lon="7.865821540832782"><ele>375.5</ele><time>2026-03-23T16:46:26Z</time></trkpt><trkpt lat="44.48163321543389" lon="7.86594198449624"><ele>376.0</ele><time>2026-03-23T16:46:27Z</time></trkpt><trkpt lat="44.4815271496495" lon="7.866060574425131"><ele>376.0</ele><time>2026-03-23T16:46:28Z</time></trkpt><trkpt lat="44.48141969025939" lon="7.866184525782593"><ele>376.0</ele><time>2026-03-23T16:46:29Z</time></trkpt><trkpt lat="44.48132497265266" lon="7.8663097382807035"><ele>376.0</ele><time>2026-03-23T16:46:30Z</time></trkpt><trkpt lat="44.481236580235915" lon="7.866431171704649"><ele>376.0</ele><time>2026-03-23T16:46:31Z</time></trkpt><trkpt lat="44.481150896494235" lon="7.866555388237832"><ele>376.20000000000005</ele><time>2026-03-23T16:46:32Z</time></trkpt><trkpt lat="44.4810709340968" lon="7.866674012787219"><ele>376.40000000000003</ele><time>2026-03-23T16:46:33Z</time></trkpt><trkpt lat="44.4809954088207" lon="7.866785280607481"><ele>376.6</ele><time>2026-03-23T16:46:34Z</time></trkpt><trkpt lat="44.48092688591846" lon="7.866895362396654"><ele>376.8</ele><time>2026-03-23T16:46:35Z</time></trkpt><trkpt lat="44.48085660197464" lon="7.8670123953405"><ele>377.0</ele><time>2026-03-23T16:46:36Z</time></trkpt><trkpt lat="44.48078360748692" lon="7.867135128903944"><ele>376.5</ele><time>2026-03-23T16:46:37Z</time></trkpt><trkpt lat="44.4807161380082" lon="7.867248392972767"><ele>376.0</ele><time>2026-03-23T16:46:38Z</time></trkpt><trkpt lat="44.48064099161869" lon="7.8673713570435195"><ele>375.5</ele><time>2026-03-23T16:46:39Z</time></trkpt><trkpt lat="44.48056365202689" lon="7.8675038104123916"><ele>375.0</ele><time>2026-03-23T16:46:40Z</time></trkpt><trkpt lat="44.48048203421305" lon="7.86762104290848"><ele>373.0</ele><time>2026-03-23T16:46:41Z</time></trkpt><trkpt lat="44.48039850722443" lon="7.867713267078577"><ele>371.0</ele><time>2026-03-23T16:46:42Z</time></trkpt><trkpt lat="44.48031228511904" lon="7.867806793607499"><ele>369.0</ele><time>2026-03-23T16:46:43Z</time></trkpt><trkpt lat="44.480218834667184" lon="7.867887142929433"><ele>367.0</ele><time>2026-03-23T16:46:44Z</time></trkpt><trkpt lat="44.48012874727313" lon="7.86797116327405"><ele>365.0</ele><time>2026-03-23T16:46:45Z</time></trkpt><trkpt lat="44.48005052847486" lon="7.868043786959059"><ele>365.0</ele><time>2026-03-23T16:46:46Z</time></trkpt><trkpt lat="44.479974448913275" lon="7.868125051422116"><ele>365.0</ele><time>2026-03-23T16:46:47Z</time></trkpt><trkpt lat="44.4799017597588" lon="7.868191637208449"><ele>365.0</ele><time>2026-03-23T16:46:48Z</time></trkpt><trkpt lat="44.4798442706964" lon="7.868228623102389"><ele>365.0</ele><time>2026-03-23T16:46:49Z</time></trkpt><trkpt lat="44.47978563250787" lon="7.8682689073533085"><ele>365.0</ele><time>2026-03-23T16:46:51Z</time></trkpt><trkpt lat="44.479723864892925" lon="7.868323844239272"><ele>365.0</ele><time>2026-03-23T16:46:53Z</time></trkpt><trkpt lat="44.47966783586859" lon="7.868374958246691"><ele>364.5</ele><time>2026-03-23T16:46:54Z</time></trkpt><trkpt lat="44.47960712439941" lon="7.868546888629147"><ele>364.0</ele><time>2026-03-23T16:46:56Z</time></trkpt><trkpt lat="44.479579423071314" lon="7.868669839656312"><ele>363.5</ele><time>2026-03-23T16:46:57Z</time></trkpt><trkpt lat="44.479544180954974" lon="7.8688244497854205"><ele>363.0</ele><time>2026-03-23T16:46:58Z</time></trkpt><trkpt lat="44.47947521486979" lon="7.8690031524212705"><ele>363.0</ele><time>2026-03-23T16:46:59Z</time></trkpt><trkpt lat="44.479399456665334" lon="7.869153292292211"><ele>363.0</ele><time>2026-03-23T16:47:00Z</time></trkpt><trkpt lat="44.47931378628718" lon="7.869316998450208"><ele>363.0</ele><time>2026-03-23T16:47:01Z</time></trkpt><trkpt lat="44.479240352571736" lon="7.869474895563017"><ele>363.0</ele><time>2026-03-23T16:47:02Z</time></trkpt><trkpt lat="44.47917819301914" lon="7.869609057292488"><ele>363.0</ele><time>2026-03-23T16:47:03Z</time></trkpt><trkpt lat="44.47911705042364" lon="7.869733929991427"><ele>363.0</ele><time>2026-03-23T16:47:04Z</time></trkpt><trkpt lat="44.47907047234202" lon="7.8698299522671"><ele>363.0</ele><time>2026-03-23T16:47:05Z</time></trkpt><trkpt lat="44.4790227820347" lon="7.869924235241149"><ele>363.0</ele><time>2026-03-23T16:47:06Z</time></trkpt><trkpt lat="44.478959379888956" lon="7.870059571269454"><ele>363.0</ele><time>2026-03-23T16:47:08Z</time></trkpt><trkpt lat="44.478904535692116" lon="7.870158734057972"><ele>363.0</ele><time>2026-03-23T16:47:08.999Z</time></trkpt><trkpt lat="44.478844082627724" lon="7.870276680729623"><ele>363.0</ele><time>2026-03-23T16:47:09.999Z</time></trkpt><trkpt lat="44.47878635755655" lon="7.87038691954843"><ele>363.0</ele><time>2026-03-23T16:47:10.999Z</time></trkpt><trkpt lat="44.47874237650766" lon="7.8704858317339035"><ele>363.0</ele><time>2026-03-23T16:47:11.999Z</time></trkpt><trkpt lat="44.47870076893677" lon="7.870571598471993"><ele>363.0</ele><time>2026-03-23T16:47:12.999Z</time></trkpt><trkpt lat="44.47866399134329" lon="7.870647077008495"><ele>363.0</ele><time>2026-03-23T16:47:13.999Z</time></trkpt><trkpt lat="44.47862280045862" lon="7.870717192492205"><ele>363.0</ele><time>2026-03-23T16:47:14.999Z</time></trkpt><trkpt lat="44.478545862691234" lon="7.870790063445484"><ele>363.0</ele><time>2026-03-23T16:47:16.999Z</time></trkpt><trkpt lat="44.47848997344822" lon="7.870883476574817"><ele>363.0</ele><time>2026-03-23T16:47:18.999Z</time></trkpt><trkpt lat="44.478456076956746" lon="7.8709875551186546"><ele>363.0</ele><time>2026-03-23T16:47:20.999Z</time></trkpt><trkpt lat="44.47852569819787" lon="7.871120116378307"><ele>363.0</ele><time>2026-03-23T16:47:21.999Z</time></trkpt><trkpt lat="44.47857123367277" lon="7.8712518041088995"><ele>363.25</ele><time>2026-03-23T16:47:22.999Z</time></trkpt><trkpt lat="44.47862379593549" lon="7.871393235316326"><ele>363.5</ele><time>2026-03-23T16:47:23.999Z</time></trkpt><trkpt lat="44.478665034388435" lon="7.871548357123895"><ele>363.75</ele><time>2026-03-23T16:47:24.999Z</time></trkpt><trkpt lat="44.478715913750484" lon="7.871722648243759"><ele>364.0</ele><time>2026-03-23T16:47:25.999Z</time></trkpt><trkpt lat="44.47876019086531" lon="7.871901282020917"><ele>364.0</ele><time>2026-03-23T16:47:26.999Z</time></trkpt><trkpt lat="44.478808428738404" lon="7.872052706795029"><ele>364.0</ele><time>2026-03-23T16:47:27.999Z</time></trkpt><trkpt lat="44.478845951422706" lon="7.8721951205372545"><ele>364.0</ele><time>2026-03-23T16:47:28.999Z</time></trkpt><trkpt lat="44.47887447971033" lon="7.872319612093959"><ele>364.0</ele><time>2026-03-23T16:47:29.999Z</time></trkpt><trkpt lat="44.47890488024849" lon="7.872460327533959"><ele>364.0</ele><time>2026-03-23T16:47:30.999Z</time></trkpt><trkpt lat="44.47893465385333" lon="7.872567783510702"><ele>364.0</ele><time>2026-03-23T16:47:31.999Z</time></trkpt><trkpt lat="44.47896484876986" lon="7.872652357918731"><ele>364.0</ele><time>2026-03-23T16:47:32.999Z</time></trkpt><trkpt lat="44.47899705396307" lon="7.872742724207736"><ele>364.0</ele><time>2026-03-23T16:47:33.999Z</time></trkpt><trkpt lat="44.47905780350626" lon="7.87289776520919"><ele>364.0</ele><time>2026-03-23T16:47:35.999Z</time></trkpt><trkpt lat="44.479091430797766" lon="7.8729940988458145"><ele>364.0</ele><time>2026-03-23T16:47:36.999Z</time></trkpt><trkpt lat="44.47911691231761" lon="7.873101559509834"><ele>364.0</ele><time>2026-03-23T16:47:37.999Z</time></trkpt><trkpt lat="44.479185271374234" lon="7.873260429036782"><ele>363.6</ele><time>2026-03-23T16:47:38.999Z</time></trkpt><trkpt lat="44.47923438357789" lon="7.873442851032247"><ele>363.2</ele><time>2026-03-23T16:47:39.999Z</time></trkpt><trkpt lat="44.479275554637034" lon="7.873585084564813"><ele>362.8</ele><time>2026-03-23T16:47:40.999Z</time></trkpt><trkpt lat="44.47930364559015" lon="7.873720262030941"><ele>362.40000000000003</ele><time>2026-03-23T16:47:41.999Z</time></trkpt><trkpt lat="44.479334669351445" lon="7.873851466771593"><ele>362.0</ele><time>2026-03-23T16:47:42.999Z</time></trkpt><trkpt lat="44.47936251564496" lon="7.873966921672716"><ele>362.0</ele><time>2026-03-23T16:47:43.999Z</time></trkpt><trkpt lat="44.47938609886691" lon="7.874094719909017"><ele>362.0</ele><time>2026-03-23T16:47:44.999Z</time></trkpt><trkpt lat="44.479401575265165" lon="7.87424563138425"><ele>362.0</ele><time>2026-03-23T16:47:45.999Z</time></trkpt><trkpt lat="44.479431581321705" lon="7.874410053634964"><ele>362.0</ele><time>2026-03-23T16:47:46.999Z</time></trkpt><trkpt lat="44.479450276741225" lon="7.874592572901333"><ele>361.8</ele><time>2026-03-23T16:47:47.999Z</time></trkpt><trkpt lat="44.47946518721559" lon="7.874733945317767"><ele>361.6</ele><time>2026-03-23T16:47:48.999Z</time></trkpt><trkpt lat="44.47947633174446" lon="7.874884240972767"><ele>361.40000000000003</ele><time>2026-03-23T16:47:49.999Z</time></trkpt><trkpt lat="44.47947749420021" lon="7.875041953569516"><ele>361.20000000000005</ele><time>2026-03-23T16:47:50.999Z</time></trkpt><trkpt lat="44.479482471634114" lon="7.8751811996220615"><ele>361.0</ele><time>2026-03-23T16:47:51.999Z</time></trkpt><trkpt lat="44.479483310829984" lon="7.875321554751595"><ele>361.0</ele><time>2026-03-23T16:47:52.999Z</time></trkpt><trkpt lat="44.47947009453937" lon="7.8754870913413635"><ele>361.0</ele><time>2026-03-23T16:47:53.999Z</time></trkpt><trkpt lat="44.47946145399826" lon="7.875620318726046"><ele>361.0</ele><time>2026-03-23T16:47:54.999Z</time></trkpt><trkpt lat="44.47945849469146" lon="7.875759508126126"><ele>361.0</ele><time>2026-03-23T16:47:55.999Z</time></trkpt><trkpt lat="44.47945761106571" lon="7.875896685091812"><ele>361.0</ele><time>2026-03-23T16:47:56.999Z</time></trkpt><trkpt lat="44.47945420955389" lon="7.87602763577225"><ele>361.0</ele><time>2026-03-23T16:47:57.999Z</time></trkpt><trkpt lat="44.479454012241206" lon="7.876145984057955"><ele>361.0</ele><time>2026-03-23T16:47:58.999Z</time></trkpt><trkpt lat="44.47945033966817" lon="7.876299924123759"><ele>361.0</ele><time>2026-03-23T16:47:59.999Z</time></trkpt><trkpt lat="44.47946111778334" lon="7.876389334344458"><ele>361.0</ele><time>2026-03-23T16:48:00.999Z</time></trkpt><trkpt lat="44.47944420510611" lon="7.876535264664546"><ele>361.0</ele><time>2026-03-23T16:48:01.999Z</time></trkpt><trkpt lat="44.479438367438135" lon="7.876638765591406"><ele>361.0</ele><time>2026-03-23T16:48:02.999Z</time></trkpt><trkpt lat="44.47942992958127" lon="7.87674243993001"><ele>361.6</ele><time>2026-03-23T16:48:03.999Z</time></trkpt><trkpt lat="44.479439741760366" lon="7.876882304176487"><ele>362.20000000000005</ele><time>2026-03-23T16:48:05.998Z</time></trkpt><trkpt lat="44.47941075915548" lon="7.87697304519368"><ele>362.79999999999995</ele><time>2026-03-23T16:48:06.998Z</time></trkpt><trkpt lat="44.47935613242436" lon="7.877062923861314"><ele>363.4</ele><time>2026-03-23T16:48:07.998Z</time></trkpt><trkpt lat="44.47926849888647" lon="7.877121765949194"><ele>364.0</ele><time>2026-03-23T16:48:08.998Z</time></trkpt><trkpt lat="44.47918729466252" lon="7.877221066789839"><ele>364.0</ele><time>2026-03-23T16:48:09.998Z</time></trkpt><trkpt lat="44.479117508859176" lon="7.877293813579358"><ele>364.0</ele><time>2026-03-23T16:48:10.998Z</time></trkpt><trkpt lat="44.47904943353903" lon="7.877381903050476"><ele>364.0</ele><time>2026-03-23T16:48:11.998Z</time></trkpt><trkpt lat="44.479003574916554" lon="7.877458932019546"><ele>364.0</ele><time>2026-03-23T16:48:12.998Z</time></trkpt><trkpt lat="44.47894369595943" lon="7.877595745493125"><ele>364.0</ele><time>2026-03-23T16:48:14.998Z</time></trkpt><trkpt lat="44.478910263929514" lon="7.8776755461092804"><ele>364.0</ele><time>2026-03-23T16:48:15.998Z</time></trkpt><trkpt lat="44.478866113906605" lon="7.877791704682325"><ele>364.0</ele><time>2026-03-23T16:48:16.998Z</time></trkpt><trkpt lat="44.478803466412145" lon="7.8778907119772"><ele>364.0</ele><time>2026-03-23T16:48:17.998Z</time></trkpt><trkpt lat="44.47875141139668" lon="7.878045807093151"><ele>364.0</ele><time>2026-03-23T16:48:18.998Z</time></trkpt><trkpt lat="44.4786559083427" lon="7.878180862134258"><ele>364.0</ele><time>2026-03-23T16:48:19.998Z</time></trkpt><trkpt lat="44.478576564528055" lon="7.878293723689867"><ele>363.66666666666663</ele><time>2026-03-23T16:48:20.998Z</time></trkpt><trkpt lat="44.478486092842815" lon="7.87840709526142"><ele>363.3333333333333</ele><time>2026-03-23T16:48:21.998Z</time></trkpt><trkpt lat="44.478421235984456" lon="7.878472123639152"><ele>363.0</ele><time>2026-03-23T16:48:22.998Z</time></trkpt><trkpt lat="44.478371080244884" lon="7.87853296542899"><ele>362.6666666666667</ele><time>2026-03-23T16:48:23.998Z</time></trkpt><trkpt lat="44.478300123896744" lon="7.878628823588448"><ele>362.33333333333337</ele><time>2026-03-23T16:48:25.998Z</time></trkpt><trkpt lat="44.4782271479074" lon="7.878645030478277"><ele>362.0</ele><time>2026-03-23T16:48:26.998Z</time></trkpt><trkpt lat="44.4781617513522" lon="7.878708723718882"><ele>362.0</ele><time>2026-03-23T16:48:27.998Z</time></trkpt><trkpt lat="44.47811568179862" lon="7.878802365673314"><ele>362.0</ele><time>2026-03-23T16:48:28.998Z</time></trkpt><trkpt lat="44.478064595372416" lon="7.878869277438375"><ele>362.0</ele><time>2026-03-23T16:48:30Z</time></trkpt><trkpt lat="44.4780139889627" lon="7.878947108666168"><ele>362.0</ele><time>2026-03-23T16:48:31Z</time></trkpt><trkpt lat="44.47796603106136" lon="7.8791041067247445"><ele>362.0</ele><time>2026-03-23T16:48:33Z</time></trkpt><trkpt lat="44.477962866245484" lon="7.87920384321865"><ele>362.0</ele><time>2026-03-23T16:48:34Z</time></trkpt><trkpt lat="44.47794844440276" lon="7.879314111082577"><ele>361.6666666666667</ele><time>2026-03-23T16:48:35Z</time></trkpt><trkpt lat="44.47799802333341" lon="7.879441618742599"><ele>361.33333333333337</ele><time>2026-03-23T16:48:36Z</time></trkpt><trkpt lat="44.477990099590414" lon="7.8795641891878905"><ele>361.0</ele><time>2026-03-23T16:48:37Z</time></trkpt><trkpt lat="44.477962684835234" lon="7.879677081651853"><ele>360.6666666666667</ele><time>2026-03-23T16:48:38Z</time></trkpt><trkpt lat="44.477924088464675" lon="7.879793516116815"><ele>360.3333333333333</ele><time>2026-03-23T16:48:39Z</time></trkpt><trkpt lat="44.47790353328834" lon="7.879896900554997"><ele>360.0</ele><time>2026-03-23T16:48:40Z</time></trkpt><trkpt lat="44.47788836023455" lon="7.879991331046958"><ele>357.5</ele><time>2026-03-23T16:48:41Z</time></trkpt><trkpt lat="44.477868432994654" lon="7.880210404858543"><ele>355.0</ele><time>2026-03-23T16:48:43Z</time></trkpt><trkpt lat="44.47788011061781" lon="7.880350750190147"><ele>352.5</ele><time>2026-03-23T16:48:44Z</time></trkpt><trkpt lat="44.47791162530941" lon="7.880491114668178"><ele>350.0</ele><time>2026-03-23T16:48:45Z</time></trkpt><trkpt lat="44.47794399259953" lon="7.880644936860444"><ele>350.0</ele><time>2026-03-23T16:48:46Z</time></trkpt><trkpt lat="44.477987651086735" lon="7.88082563744162"><ele>350.0</ele><time>2026-03-23T16:48:47Z</time></trkpt><trkpt lat="44.47801953627406" lon="7.880977535218292"><ele>350.0</ele><time>2026-03-23T16:48:48Z</time></trkpt><trkpt lat="44.47804890626039" lon="7.881118367047656"><ele>350.0</ele><time>2026-03-23T16:48:49Z</time></trkpt><trkpt lat="44.4781175371067" lon="7.881243698820122"><ele>347.0</ele><time>2026-03-23T16:48:50Z</time></trkpt><trkpt lat="44.478176551763966" lon="7.88138242940642"><ele>344.0</ele><time>2026-03-23T16:48:51Z</time></trkpt><trkpt lat="44.478238787098505" lon="7.8814957832583366"><ele>341.0</ele><time>2026-03-23T16:48:52Z</time></trkpt><trkpt lat="44.47831409120005" lon="7.881611752341221"><ele>338.0</ele><time>2026-03-23T16:48:53Z</time></trkpt><trkpt lat="44.47839397668043" lon="7.88169300663666"><ele>335.0</ele><time>2026-03-23T16:48:54Z</time></trkpt><trkpt lat="44.4784729345369" lon="7.881729052441628"><ele>331.6666666666667</ele><time>2026-03-23T16:48:55Z</time></trkpt><trkpt lat="44.478536831040984" lon="7.881789729961095"><ele>328.33333333333337</ele><time>2026-03-23T16:48:56Z</time></trkpt><trkpt lat="44.47859203494211" lon="7.881841599784266"><ele>325.0</ele><time>2026-03-23T16:48:57Z</time></trkpt><trkpt lat="44.47864568240122" lon="7.881889173938466"><ele>321.6666666666667</ele><time>2026-03-23T16:48:58Z</time></trkpt><trkpt lat="44.47869290746777" lon="7.881947849609897"><ele>318.3333333333333</ele><time>2026-03-23T16:49:00Z</time></trkpt><trkpt lat="44.47863609569089" lon="7.882037128581187"><ele>315.0</ele><time>2026-03-23T16:49:03Z</time></trkpt><trkpt lat="44.47854648233787" lon="7.881940932574209"><ele>315.0</ele><time>2026-03-23T16:49:05Z</time></trkpt><trkpt lat="44.478475063752114" lon="7.881896359368938"><ele>315.0</ele><time>2026-03-23T16:49:06Z</time></trkpt><trkpt lat="44.47839466330846" lon="7.881824054527719"><ele>315.0</ele><time>2026-03-23T16:49:07Z</time></trkpt><trkpt lat="44.47830219185402" lon="7.8817424452041704"><ele>315.0</ele><time>2026-03-23T16:49:08Z</time></trkpt><trkpt lat="44.47819647699431" lon="7.8816712403735645"><ele>315.0</ele><time>2026-03-23T16:49:09Z</time></trkpt><trkpt lat="44.47811940338541" lon="7.881581819411132"><ele>314.6</ele><time>2026-03-23T16:49:10Z</time></trkpt><trkpt lat="44.47802552388211" lon="7.881523589590656"><ele>314.2</ele><time>2026-03-23T16:49:11Z</time></trkpt><trkpt lat="44.47795963491385" lon="7.881416363604341"><ele>313.8</ele><time>2026-03-23T16:49:12Z</time></trkpt><trkpt lat="44.47789799308662" lon="7.8813132451765995"><ele>313.4</ele><time>2026-03-23T16:49:12.999Z</time></trkpt><trkpt lat="44.477852701185675" lon="7.8812180941671315"><ele>313.0</ele><time>2026-03-23T16:49:13.999Z</time></trkpt><trkpt lat="44.47781501351263" lon="7.881117551306483"><ele>313.0</ele><time>2026-03-23T16:49:14.999Z</time></trkpt><trkpt lat="44.47777817493708" lon="7.881010979956395"><ele>313.0</ele><time>2026-03-23T16:49:15.999Z</time></trkpt><trkpt lat="44.47774357341985" lon="7.880910744993162"><ele>313.0</ele><time>2026-03-23T16:49:16.999Z</time></trkpt><trkpt lat="44.47767379923408" lon="7.880787840058399"><ele>313.0</ele><time>2026-03-23T16:49:18.999Z</time></trkpt><trkpt lat="44.477582653791" lon="7.880834829321166"><ele>313.0</ele><time>2026-03-23T16:49:21.999Z</time></trkpt><trkpt lat="44.477581755992496" lon="7.880973028968674"><ele>313.0</ele><time>2026-03-23T16:49:23.999Z</time></trkpt><trkpt lat="44.47762060410295" lon="7.881087478723131"><ele>313.0</ele><time>2026-03-23T16:49:24.999Z</time></trkpt><trkpt lat="44.477667264249106" lon="7.881207668951209"><ele>313.0</ele><time>2026-03-23T16:49:25.999Z</time></trkpt><trkpt lat="44.47771896320098" lon="7.8813296675096165"><ele>313.0</ele><time>2026-03-23T16:49:26.999Z</time></trkpt><trkpt lat="44.47779399972028" lon="7.881500420745127"><ele>313.0</ele><time>2026-03-23T16:49:27.999Z</time></trkpt><trkpt lat="44.47786426362278" lon="7.88164552954138"><ele>313.5</ele><time>2026-03-23T16:49:28.999Z</time></trkpt><trkpt lat="44.477971200266595" lon="7.881779855221773"><ele>314.0</ele><time>2026-03-23T16:49:29.999Z</time></trkpt><trkpt lat="44.47806119765444" lon="7.881923463952552"><ele>314.5</ele><time>2026-03-23T16:49:30.999Z</time></trkpt><trkpt lat="44.4781779210879" lon="7.882049102945566"><ele>315.0</ele><time>2026-03-23T16:49:31.999Z</time></trkpt><trkpt lat="44.47827519410242" lon="7.882166961341898"><ele>315.0</ele><time>2026-03-23T16:49:32.999Z</time></trkpt><trkpt lat="44.47834288996294" lon="7.882257625189418"><ele>315.0</ele><time>2026-03-23T16:49:33.999Z</time></trkpt><trkpt lat="44.47841696681799" lon="7.8823444340821"><ele>315.0</ele><time>2026-03-23T16:49:34.999Z</time></trkpt><trkpt lat="44.47848054354262" lon="7.8824235012514485"><ele>315.0</ele><time>2026-03-23T16:49:35.999Z</time></trkpt><trkpt lat="44.47854164351177" lon="7.882491014808129"><ele>315.0</ele><time>2026-03-23T16:49:36.999Z</time></trkpt><trkpt lat="44.47860055048645" lon="7.882540500397025"><ele>315.0</ele><time>2026-03-23T16:49:37.999Z</time></trkpt><trkpt lat="44.478664252328656" lon="7.882563219880101"><ele>315.0</ele><time>2026-03-23T16:49:38.999Z</time></trkpt><trkpt lat="44.47873020053482" lon="7.882564817311128"><ele>315.0</ele><time>2026-03-23T16:49:39.999Z</time></trkpt><trkpt lat="44.4788055731557" lon="7.882514240506739"><ele>315.0</ele><time>2026-03-23T16:49:40.999Z</time></trkpt><trkpt lat="44.47887717173936" lon="7.882466103114345"><ele>315.0</ele><time>2026-03-23T16:49:41.999Z</time></trkpt><trkpt lat="44.478947825959665" lon="7.882422551139956"><ele>315.0</ele><time>2026-03-23T16:49:42.999Z</time></trkpt><trkpt lat="44.47901257458861" lon="7.88238270389253"><ele>315.0</ele><time>2026-03-23T16:49:43.999Z</time></trkpt><trkpt lat="44.47908061074003" lon="7.88236769753773"><ele>315.0</ele><time>2026-03-23T16:49:44.999Z</time></trkpt><trkpt lat="44.479208432633165" lon="7.882391138072288"><ele>316.5</ele><time>2026-03-23T16:49:46.999Z</time></trkpt><trkpt lat="44.47930680025933" lon="7.882444811904019"><ele>318.0</ele><time>2026-03-23T16:49:47.999Z</time></trkpt><trkpt lat="44.47932153145846" lon="7.882538649857725"><ele>319.5</ele><time>2026-03-23T16:49:48.999Z</time></trkpt><trkpt lat="44.47933213867024" lon="7.88264043911383"><ele>321.0</ele><time>2026-03-23T16:49:49.999Z</time></trkpt><trkpt lat="44.47926926846597" lon="7.882720536161114"><ele>322.5</ele><time>2026-03-23T16:49:50.999Z</time></trkpt><trkpt lat="44.479193339193884" lon="7.882816532868452"><ele>324.0</ele><time>2026-03-23T16:49:51.999Z</time></trkpt><trkpt lat="44.47912584996605" lon="7.882890603806107"><ele>324.0</ele><time>2026-03-23T16:49:52.999Z</time></trkpt><trkpt lat="44.47902508449546" lon="7.882974558593223"><ele>324.0</ele><time>2026-03-23T16:49:53.999Z</time></trkpt><trkpt lat="44.478920252978526" lon="7.883048454665801"><ele>324.0</ele><time>2026-03-23T16:49:54.999Z</time></trkpt><trkpt lat="44.47883390846466" lon="7.883106869555256"><ele>324.0</ele><time>2026-03-23T16:49:55.999Z</time></trkpt><trkpt lat="44.47875672897608" lon="7.883159120033169"><ele>324.0</ele><time>2026-03-23T16:49:56.999Z</time></trkpt><trkpt lat="44.47869980303312" lon="7.883219613893711"><ele>320.0</ele><time>2026-03-23T16:49:57.999Z</time></trkpt><trkpt lat="44.47864545758194" lon="7.88327188067944"><ele>316.0</ele><time>2026-03-23T16:49:58.999Z</time></trkpt><trkpt lat="44.47857939905442" lon="7.883406241725901"><ele>312.0</ele><time>2026-03-23T16:50:00.999Z</time></trkpt><trkpt lat="44.47856969293497" lon="7.883502456091894"><ele>308.0</ele><time>2026-03-23T16:50:01.999Z</time></trkpt><trkpt lat="44.47858988677132" lon="7.883624428297856"><ele>304.0</ele><time>2026-03-23T16:50:02.999Z</time></trkpt><trkpt lat="44.47862474744772" lon="7.8837479879383725"><ele>300.0</ele><time>2026-03-23T16:50:03.999Z</time></trkpt><trkpt lat="44.47867732643058" lon="7.883881142745953"><ele>300.25</ele><time>2026-03-23T16:50:04.999Z</time></trkpt><trkpt lat="44.47873601677178" lon="7.884017761462949"><ele>300.5</ele><time>2026-03-23T16:50:05.999Z</time></trkpt><trkpt lat="44.478825923620356" lon="7.884153107716949"><ele>300.75</ele><time>2026-03-23T16:50:06.999Z</time></trkpt><trkpt lat="44.478913032915514" lon="7.884286434791205"><ele>301.0</ele><time>2026-03-23T16:50:07.999Z</time></trkpt><trkpt lat="44.47901412260585" lon="7.884444258173193"><ele>301.0</ele><time>2026-03-23T16:50:08.998Z</time></trkpt><trkpt lat="44.479124315736286" lon="7.884613510381133"><ele>301.0</ele><time>2026-03-23T16:50:09.998Z</time></trkpt><trkpt lat="44.479228038345546" lon="7.884786590730804"><ele>301.0</ele><time>2026-03-23T16:50:10.998Z</time></trkpt><trkpt lat="44.47934110943831" lon="7.884993518724579"><ele>297.66666666666663</ele><time>2026-03-23T16:50:11.998Z</time></trkpt><trkpt lat="44.479436466899756" lon="7.885175151263831"><ele>294.3333333333333</ele><time>2026-03-23T16:50:12.998Z</time></trkpt><trkpt lat="44.479504408558114" lon="7.885383211694488"><ele>291.0</ele><time>2026-03-23T16:50:13.998Z</time></trkpt><trkpt lat="44.47955698122069" lon="7.885618306449348"><ele>295.6666666666667</ele><time>2026-03-23T16:50:14.998Z</time></trkpt><trkpt lat="44.47961706591718" lon="7.885877731225715"><ele>300.33333333333337</ele><time>2026-03-23T16:50:15.998Z</time></trkpt><trkpt lat="44.47968292688362" lon="7.886106989311332"><ele>305.0</ele><time>2026-03-23T16:50:16.998Z</time></trkpt><trkpt lat="44.47972190823854" lon="7.8863345168224654"><ele>305.0</ele><time>2026-03-23T16:50:17.998Z</time></trkpt><trkpt lat="44.47975684055605" lon="7.886535239041559"><ele>305.0</ele><time>2026-03-23T16:50:18.998Z</time></trkpt><trkpt lat="44.479789366513316" lon="7.886708830740232"><ele>305.0</ele><time>2026-03-23T16:50:19.998Z</time></trkpt><trkpt lat="44.47981019575489" lon="7.886881154032299"><ele>305.0</ele><time>2026-03-23T16:50:20.998Z</time></trkpt><trkpt lat="44.479826017624" lon="7.887024235562684"><ele>302.8</ele><time>2026-03-23T16:50:21.998Z</time></trkpt><trkpt lat="44.47985732174396" lon="7.887136646452588"><ele>300.6</ele><time>2026-03-23T16:50:22.998Z</time></trkpt><trkpt lat="44.47987576701477" lon="7.887256807866243"><ele>298.4</ele><time>2026-03-23T16:50:23.998Z</time></trkpt><trkpt lat="44.479864170792986" lon="7.887392735393726"><ele>296.2</ele><time>2026-03-23T16:50:24.998Z</time></trkpt><trkpt lat="44.479824017097286" lon="7.887511546399198"><ele>294.0</ele><time>2026-03-23T16:50:25.998Z</time></trkpt><trkpt lat="44.47974159581268" lon="7.8875850249110275"><ele>291.2</ele><time>2026-03-23T16:50:26.998Z</time></trkpt><trkpt lat="44.47968145574807" lon="7.8876979078520755"><ele>288.4</ele><time>2026-03-23T16:50:27.998Z</time></trkpt><trkpt lat="44.47957118758221" lon="7.887774241313976"><ele>285.6</ele><time>2026-03-23T16:50:28.998Z</time></trkpt><trkpt lat="44.479493037699825" lon="7.887858563552138"><ele>282.8</ele><time>2026-03-23T16:50:29.998Z</time></trkpt><trkpt lat="44.47944085898606" lon="7.887967993435984"><ele>280.0</ele><time>2026-03-23T16:50:30.998Z</time></trkpt><trkpt lat="44.47938425754799" lon="7.888051825217298"><ele>279.6</ele><time>2026-03-23T16:50:31.998Z</time></trkpt><trkpt lat="44.479348287467154" lon="7.8881536144339455"><ele>279.2</ele><time>2026-03-23T16:50:32.998Z</time></trkpt><trkpt lat="44.47933801416296" lon="7.8882772544795285"><ele>278.8</ele><time>2026-03-23T16:50:33.998Z</time></trkpt><trkpt lat="44.47933729118012" lon="7.888449663655607"><ele>278.4</ele><time>2026-03-23T16:50:34.998Z</time></trkpt><trkpt lat="44.47934828807155" lon="7.888620613651396"><ele>278.0</ele><time>2026-03-23T16:50:36Z</time></trkpt><trkpt lat="44.47935738804302" lon="7.888797110554602"><ele>277.6</ele><time>2026-03-23T16:50:37Z</time></trkpt><trkpt lat="44.47937590605725" lon="7.888959335763317"><ele>277.20000000000005</ele><time>2026-03-23T16:50:38Z</time></trkpt><trkpt lat="44.479390565143966" lon="7.889114139306849"><ele>276.8</ele><time>2026-03-23T16:50:39Z</time></trkpt><trkpt lat="44.47940225319827" lon="7.889236888993089"><ele>276.40000000000003</ele><time>2026-03-23T16:50:40Z</time></trkpt><trkpt lat="44.479407740011816" lon="7.889387504177532"><ele>276.0</ele><time>2026-03-23T16:50:41Z</time></trkpt><trkpt lat="44.47940210062717" lon="7.8895078253085575"><ele>275.6666666666667</ele><time>2026-03-23T16:50:42Z</time></trkpt><trkpt lat="44.479391250717555" lon="7.889602113494545"><ele>275.3333333333333</ele><time>2026-03-23T16:50:43Z</time></trkpt><trkpt lat="44.4793649956526" lon="7.889774205245384"><ele>275.0</ele><time>2026-03-23T16:50:45Z</time></trkpt><trkpt lat="44.47933668286021" lon="7.889867432547437"><ele>274.66666666666663</ele><time>2026-03-23T16:50:46Z</time></trkpt><trkpt lat="44.47929803505593" lon="7.889955279072762"><ele>274.3333333333333</ele><time>2026-03-23T16:50:47Z</time></trkpt><trkpt lat="44.47926743393557" lon="7.8900333973875005"><ele>274.0</ele><time>2026-03-23T16:50:48Z</time></trkpt><trkpt lat="44.47927307558405" lon="7.890206891239985"><ele>274.0</ele><time>2026-03-23T16:50:50Z</time></trkpt><trkpt lat="44.479319924778274" lon="7.890277852484312"><ele>274.0</ele><time>2026-03-23T16:50:51Z</time></trkpt><trkpt lat="44.47937268373515" lon="7.890360046051397"><ele>274.0</ele><time>2026-03-23T16:50:52Z</time></trkpt><trkpt lat="44.479429884187844" lon="7.890404200337395"><ele>274.0</ele><time>2026-03-23T16:50:53Z</time></trkpt><trkpt lat="44.479494730138285" lon="7.890572245997403"><ele>274.0</ele><time>2026-03-23T16:50:55Z</time></trkpt><trkpt lat="44.479501995266745" lon="7.890663795978141"><ele>274.0</ele><time>2026-03-23T16:50:56Z</time></trkpt><trkpt lat="44.47953833873085" lon="7.890828242981303"><ele>273.8</ele><time>2026-03-23T16:50:58Z</time></trkpt><trkpt lat="44.479645857674065" lon="7.890884344402384"><ele>273.59999999999997</ele><time>2026-03-23T16:51:00Z</time></trkpt><trkpt lat="44.47975711382673" lon="7.890831177171325"><ele>273.4</ele><time>2026-03-23T16:51:01Z</time></trkpt><trkpt lat="44.47985940160774" lon="7.890813371273692"><ele>273.2</ele><time>2026-03-23T16:51:02Z</time></trkpt><trkpt lat="44.479962692722424" lon="7.890797554653879"><ele>273.0</ele><time>2026-03-23T16:51:03Z</time></trkpt><trkpt lat="44.48008949610746" lon="7.890813685326792"><ele>273.0</ele><time>2026-03-23T16:51:04Z</time></trkpt><trkpt lat="44.480341734760096" lon="7.890779003714691"><ele>273.0</ele><time>2026-03-23T16:51:06Z</time></trkpt><trkpt lat="44.48048420081226" lon="7.890790048020378"><ele>273.0</ele><time>2026-03-23T16:51:07Z</time></trkpt><trkpt lat="44.48062327034991" lon="7.890781407602308"><ele>273.3333333333333</ele><time>2026-03-23T16:51:08Z</time></trkpt><trkpt lat="44.480774999320566" lon="7.8907802628370085"><ele>273.66666666666663</ele><time>2026-03-23T16:51:09Z</time></trkpt><trkpt lat="44.48091103225626" lon="7.890773900757195"><ele>274.0</ele><time>2026-03-23T16:51:10Z</time></trkpt><trkpt lat="44.481165301214695" lon="7.890768051681178"><ele>274.66666666666663</ele><time>2026-03-23T16:51:12Z</time></trkpt><trkpt lat="44.48141948150094" lon="7.890758060072265"><ele>275.3333333333333</ele><time>2026-03-23T16:51:15Z</time></trkpt><trkpt lat="44.48152441283137" lon="7.890800365989096"><ele>276.0</ele><time>2026-03-23T16:51:16Z</time></trkpt><trkpt lat="44.48161826818254" lon="7.890884788029045"><ele>275.0</ele><time>2026-03-23T16:51:17Z</time></trkpt><trkpt lat="44.48168019641998" lon="7.890954481507572"><ele>274.0</ele><time>2026-03-23T16:51:18Z</time></trkpt><trkpt lat="44.48172293602098" lon="7.891095732039456"><ele>273.0</ele><time>2026-03-23T16:51:18.999Z</time></trkpt><trkpt lat="44.4817884852544" lon="7.89125639537605"><ele>272.0</ele><time>2026-03-23T16:51:19.999Z</time></trkpt><trkpt lat="44.48183317706616" lon="7.891437998795382"><ele>272.0</ele><time>2026-03-23T16:51:20.999Z</time></trkpt><trkpt lat="44.48189029825695" lon="7.891597063830243"><ele>272.0</ele><time>2026-03-23T16:51:21.999Z</time></trkpt><trkpt lat="44.48194988587833" lon="7.891757125998628"><ele>272.0</ele><time>2026-03-23T16:51:22.999Z</time></trkpt><trkpt lat="44.48201189724239" lon="7.891968756039662"><ele>272.0</ele><time>2026-03-23T16:51:23.999Z</time></trkpt><trkpt lat="44.48206701460045" lon="7.892145139767152"><ele>273.25</ele><time>2026-03-23T16:51:24.999Z</time></trkpt><trkpt lat="44.48211840148032" lon="7.892316118224601"><ele>274.5</ele><time>2026-03-23T16:51:25.999Z</time></trkpt><trkpt lat="44.48217111438999" lon="7.892475609287617"><ele>275.75</ele><time>2026-03-23T16:51:26.999Z</time></trkpt><trkpt lat="44.482231504809214" lon="7.89265950467785"><ele>277.0</ele><time>2026-03-23T16:51:27.999Z</time></trkpt><trkpt lat="44.48229015224469" lon="7.892832510262195"><ele>277.0</ele><time>2026-03-23T16:51:28.999Z</time></trkpt><trkpt lat="44.48234749557138" lon="7.892960552335872"><ele>277.0</ele><time>2026-03-23T16:51:29.999Z</time></trkpt><trkpt lat="44.48240355563489" lon="7.893108092630793"><ele>277.0</ele><time>2026-03-23T16:51:30.999Z</time></trkpt><trkpt lat="44.48245120520046" lon="7.893236964235953"><ele>277.0</ele><time>2026-03-23T16:51:31.999Z</time></trkpt><trkpt lat="44.482498920469226" lon="7.8933716595327414"><ele>277.0</ele><time>2026-03-23T16:51:32.999Z</time></trkpt><trkpt lat="44.48253764065366" lon="7.893503430079877"><ele>276.16666666666663</ele><time>2026-03-23T16:51:33.999Z</time></trkpt><trkpt lat="44.48256787703898" lon="7.893603605813452"><ele>275.3333333333333</ele><time>2026-03-23T16:51:34.999Z</time></trkpt><trkpt lat="44.48258031225079" lon="7.89375302599409"><ele>274.5</ele><time>2026-03-23T16:51:36.999Z</time></trkpt><trkpt lat="44.48252259858507" lon="7.8938293739004655"><ele>273.6666666666667</ele><time>2026-03-23T16:51:38.999Z</time></trkpt><trkpt lat="44.48246144045256" lon="7.893903663679303"><ele>272.83333333333337</ele><time>2026-03-23T16:51:40.999Z</time></trkpt><trkpt lat="44.482408121799246" lon="7.894005753219298"><ele>272.0</ele><time>2026-03-23T16:51:41.999Z</time></trkpt><trkpt lat="44.48240125228983" lon="7.894137686083526"><ele>272.0</ele><time>2026-03-23T16:51:42.999Z</time></trkpt><trkpt lat="44.48243002130307" lon="7.894231689809884"><ele>272.0</ele><time>2026-03-23T16:51:43.999Z</time></trkpt><trkpt lat="44.48248936322079" lon="7.894313160161344"><ele>272.0</ele><time>2026-03-23T16:51:44.999Z</time></trkpt><trkpt lat="44.48255603467161" lon="7.894384097695749"><ele>272.0</ele><time>2026-03-23T16:51:45.999Z</time></trkpt><trkpt lat="44.482609286990524" lon="7.894473241549127"><ele>272.0</ele><time>2026-03-23T16:51:46.999Z</time></trkpt><trkpt lat="44.482664833558445" lon="7.894582880148957"><ele>272.0</ele><time>2026-03-23T16:51:47.999Z</time></trkpt><trkpt lat="44.48272638928931" lon="7.894685414263063"><ele>271.2</ele><time>2026-03-23T16:51:48.999Z</time></trkpt><trkpt lat="44.4827943932552" lon="7.894778718884315"><ele>270.4</ele><time>2026-03-23T16:51:49.999Z</time></trkpt><trkpt lat="44.482865336232436" lon="7.8948879243649115"><ele>269.6</ele><time>2026-03-23T16:51:50.999Z</time></trkpt><trkpt lat="44.48293115920555" lon="7.895009022293534"><ele>268.8</ele><time>2026-03-23T16:51:51.999Z</time></trkpt><trkpt lat="44.482999663342945" lon="7.895146308409463"><ele>268.0</ele><time>2026-03-23T16:51:52.999Z</time></trkpt><trkpt lat="44.4830625490277" lon="7.895290888218955"><ele>270.75</ele><time>2026-03-23T16:51:53.999Z</time></trkpt><trkpt lat="44.48312338414731" lon="7.895442046536761"><ele>273.5</ele><time>2026-03-23T16:51:54.999Z</time></trkpt><trkpt lat="44.483169284733734" lon="7.895601342855702"><ele>276.25</ele><time>2026-03-23T16:51:55.999Z</time></trkpt><trkpt lat="44.48320902530133" lon="7.895763113754672"><ele>279.0</ele><time>2026-03-23T16:51:56.999Z</time></trkpt><trkpt lat="44.483241050244395" lon="7.895951228557588"><ele>279.25</ele><time>2026-03-23T16:51:57.999Z</time></trkpt><trkpt lat="44.48327076903119" lon="7.896142120601044"><ele>279.5</ele><time>2026-03-23T16:51:58.999Z</time></trkpt><trkpt lat="44.48330152746121" lon="7.896337512288394"><ele>279.75</ele><time>2026-03-23T16:51:59.999Z</time></trkpt><trkpt lat="44.48334510725344" lon="7.896502304602192"><ele>280.0</ele><time>2026-03-23T16:52:00.999Z</time></trkpt><trkpt lat="44.483364791335376" lon="7.896662096418262"><ele>280.4</ele><time>2026-03-23T16:52:01.999Z</time></trkpt><trkpt lat="44.4833818546576" lon="7.8968341260235"><ele>280.8</ele><time>2026-03-23T16:52:02.999Z</time></trkpt><trkpt lat="44.48340299756331" lon="7.896997228326715"><ele>281.2</ele><time>2026-03-23T16:52:03.999Z</time></trkpt><trkpt lat="44.48342072310798" lon="7.897139602062869"><ele>281.6</ele><time>2026-03-23T16:52:04.999Z</time></trkpt><trkpt lat="44.48344368587589" lon="7.897252040880948"><ele>282.0</ele><time>2026-03-23T16:52:05.999Z</time></trkpt><trkpt lat="44.483453266370574" lon="7.897369754030668"><ele>282.0</ele><time>2026-03-23T16:52:06.999Z</time></trkpt><trkpt lat="44.48345596034556" lon="7.897460491269387"><ele>282.0</ele><time>2026-03-23T16:52:07.999Z</time></trkpt><trkpt lat="44.483477445339496" lon="7.897588473619797"><ele>282.0</ele><time>2026-03-23T16:52:09.999Z</time></trkpt><trkpt lat="44.4835195381918" lon="7.897705709142152"><ele>282.0</ele><time>2026-03-23T16:52:22.998Z</time></trkpt><trkpt lat="44.483508755693684" lon="7.897849570802531"><ele>282.0</ele><time>2026-03-23T16:52:24.998Z</time></trkpt><trkpt lat="44.483539467221554" lon="7.8979615151651"><ele>282.0</ele><time>2026-03-23T16:52:26.998Z</time></trkpt><trkpt lat="44.48361095813081" lon="7.898128013436851"><ele>281.5</ele><time>2026-03-23T16:52:28.998Z</time></trkpt><trkpt lat="44.48365260710085" lon="7.898216028509593"><ele>281.0</ele><time>2026-03-23T16:52:29.998Z</time></trkpt><trkpt lat="44.483684574650226" lon="7.898305162097519"><ele>280.5</ele><time>2026-03-23T16:52:30.998Z</time></trkpt><trkpt lat="44.48371118937787" lon="7.8984065659546046"><ele>280.0</ele><time>2026-03-23T16:52:31.998Z</time></trkpt><trkpt lat="44.48373833356686" lon="7.898532966160464"><ele>279.5</ele><time>2026-03-23T16:52:32.998Z</time></trkpt><trkpt lat="44.48374024026253" lon="7.898647198811066"><ele>279.0</ele><time>2026-03-23T16:52:33.998Z</time></trkpt><trkpt lat="44.48373162119269" lon="7.8987622591027655"><ele>278.59999999999997</ele><time>2026-03-23T16:52:34.998Z</time></trkpt><trkpt lat="44.48371193732833" lon="7.8988759765840655"><ele>278.2</ele><time>2026-03-23T16:52:35.998Z</time></trkpt><trkpt lat="44.48368020459239" lon="7.8990053552254755"><ele>277.79999999999995</ele><time>2026-03-23T16:52:36.998Z</time></trkpt><trkpt lat="44.48364796965159" lon="7.899141505871245"><ele>277.4</ele><time>2026-03-23T16:52:37.998Z</time></trkpt><trkpt lat="44.48361969239987" lon="7.899254313103959"><ele>277.0</ele><time>2026-03-23T16:52:38.998Z</time></trkpt><trkpt lat="44.48358834317582" lon="7.899360769548391"><ele>276.8</ele><time>2026-03-23T16:52:39.998Z</time></trkpt><trkpt lat="44.48356062424698" lon="7.899483202954954"><ele>276.6</ele><time>2026-03-23T16:52:40.998Z</time></trkpt><trkpt lat="44.48353416099057" lon="7.899591888097127"><ele>276.40000000000003</ele><time>2026-03-23T16:52:42Z</time></trkpt><trkpt lat="44.48350706302439" lon="7.899714481379206"><ele>276.2</ele><time>2026-03-23T16:52:43Z</time></trkpt><trkpt lat="44.48348008518014" lon="7.89982134349015"><ele>276.0</ele><time>2026-03-23T16:52:44Z</time></trkpt><trkpt lat="44.483455565329095" lon="7.899966339233757"><ele>275.8</ele><time>2026-03-23T16:52:45Z</time></trkpt><trkpt lat="44.48344366135083" lon="7.900086475915983"><ele>275.6</ele><time>2026-03-23T16:52:46Z</time></trkpt><trkpt lat="44.48343106719153" lon="7.900206296240909"><ele>275.4</ele><time>2026-03-23T16:52:47Z</time></trkpt><trkpt lat="44.48341636474408" lon="7.900330847909515"><ele>275.2</ele><time>2026-03-23T16:52:48Z</time></trkpt><trkpt lat="44.4834109089319" lon="7.900478703207664"><ele>275.0</ele><time>2026-03-23T16:52:49Z</time></trkpt><trkpt lat="44.48340860136747" lon="7.9006033898054095"><ele>275.0</ele><time>2026-03-23T16:52:50Z</time></trkpt><trkpt lat="44.48341108523559" lon="7.900737556354091"><ele>275.0</ele><time>2026-03-23T16:52:51Z</time></trkpt><trkpt lat="44.48340912073051" lon="7.900862175979425"><ele>275.0</ele><time>2026-03-23T16:52:52Z</time></trkpt><trkpt lat="44.48341122858922" lon="7.900967930640041"><ele>275.0</ele><time>2026-03-23T16:52:53Z</time></trkpt><trkpt lat="44.483413053294925" lon="7.901091705284212"><ele>275.0</ele><time>2026-03-23T16:52:54Z</time></trkpt><trkpt lat="44.48341735644897" lon="7.901193048697742"><ele>275.0</ele><time>2026-03-23T16:52:55Z</time></trkpt><trkpt lat="44.48342118837847" lon="7.901299086176311"><ele>274.8</ele><time>2026-03-23T16:52:56Z</time></trkpt><trkpt lat="44.483419195977326" lon="7.901421034811341"><ele>274.6</ele><time>2026-03-23T16:52:57Z</time></trkpt><trkpt lat="44.48342888141943" lon="7.901545898585331"><ele>274.4</ele><time>2026-03-23T16:52:58Z</time></trkpt><trkpt lat="44.483425536414984" lon="7.901667137401431"><ele>274.2</ele><time>2026-03-23T16:52:59Z</time></trkpt><trkpt lat="44.483437714158704" lon="7.901769085511003"><ele>274.0</ele><time>2026-03-23T16:53:00Z</time></trkpt><trkpt lat="44.48344087571842" lon="7.901987653994062"><ele>273.8</ele><time>2026-03-23T16:53:02Z</time></trkpt><trkpt lat="44.48343852530786" lon="7.9021194624966755"><ele>273.59999999999997</ele><time>2026-03-23T16:53:03Z</time></trkpt><trkpt lat="44.483440271346254" lon="7.902247689107921"><ele>273.4</ele><time>2026-03-23T16:53:04Z</time></trkpt><trkpt lat="44.48344569311966" lon="7.902387186080964"><ele>273.2</ele><time>2026-03-23T16:53:05Z</time></trkpt><trkpt lat="44.48345334006934" lon="7.90250998858578"><ele>273.0</ele><time>2026-03-23T16:53:06Z</time></trkpt><trkpt lat="44.48345452533969" lon="7.902629703431819"><ele>272.1666666666667</ele><time>2026-03-23T16:53:07Z</time></trkpt><trkpt lat="44.4834550818914" lon="7.902747083686766"><ele>271.3333333333333</ele><time>2026-03-23T16:53:08Z</time></trkpt><trkpt lat="44.48345189432735" lon="7.902873304197142"><ele>270.5</ele><time>2026-03-23T16:53:09Z</time></trkpt><trkpt lat="44.48344962132588" lon="7.902986301485952"><ele>269.66666666666663</ele><time>2026-03-23T16:53:10Z</time></trkpt><trkpt lat="44.48343427521643" lon="7.903109160630002"><ele>268.8333333333333</ele><time>2026-03-23T16:53:11Z</time></trkpt><trkpt lat="44.483411543002944" lon="7.90323296079441"><ele>268.0</ele><time>2026-03-23T16:53:12Z</time></trkpt><trkpt lat="44.483361942537776" lon="7.903339716656853"><ele>267.2</ele><time>2026-03-23T16:53:13Z</time></trkpt><trkpt lat="44.48333082723221" lon="7.903477070572983"><ele>266.4</ele><time>2026-03-23T16:53:14Z</time></trkpt><trkpt lat="44.48326277662498" lon="7.903594100589714"><ele>265.59999999999997</ele><time>2026-03-23T16:53:15Z</time></trkpt><trkpt lat="44.483207152648376" lon="7.903722709824865"><ele>264.8</ele><time>2026-03-23T16:53:16Z</time></trkpt><trkpt lat="44.48314730966417" lon="7.903856651665588"><ele>264.0</ele><time>2026-03-23T16:53:17Z</time></trkpt><trkpt lat="44.48309824071626" lon="7.903986890686519"><ele>264.0</ele><time>2026-03-23T16:53:18Z</time></trkpt><trkpt lat="44.48304857208532" lon="7.904091925599083"><ele>264.0</ele><time>2026-03-23T16:53:19Z</time></trkpt><trkpt lat="44.48300122821774" lon="7.9041992259139375"><ele>264.0</ele><time>2026-03-23T16:53:20Z</time></trkpt><trkpt lat="44.48295585786567" lon="7.9043067595743235"><ele>264.0</ele><time>2026-03-23T16:53:21Z</time></trkpt><trkpt lat="44.48292277751311" lon="7.90441785964901"><ele>264.0</ele><time>2026-03-23T16:53:22Z</time></trkpt><trkpt lat="44.4828904788201" lon="7.904547276338937"><ele>264.0</ele><time>2026-03-23T16:53:23Z</time></trkpt><trkpt lat="44.482906178538194" lon="7.904664043915312"><ele>264.0</ele><time>2026-03-23T16:53:24Z</time></trkpt><trkpt lat="44.482908269992365" lon="7.904834417372536"><ele>264.0</ele><time>2026-03-23T16:53:25Z</time></trkpt><trkpt lat="44.482938384094034" lon="7.904976077109847"><ele>264.0</ele><time>2026-03-23T16:53:25.999Z</time></trkpt><trkpt lat="44.482985273079436" lon="7.9050668823256585"><ele>264.0</ele><time>2026-03-23T16:53:26.999Z</time></trkpt><trkpt lat="44.48303088427737" lon="7.90520201242869"><ele>264.5</ele><time>2026-03-23T16:53:27.999Z</time></trkpt><trkpt lat="44.483077502094204" lon="7.905351191792618"><ele>265.0</ele><time>2026-03-23T16:53:28.999Z</time></trkpt><trkpt lat="44.4831293805635" lon="7.905514737813234"><ele>265.5</ele><time>2026-03-23T16:53:29.999Z</time></trkpt><trkpt lat="44.48318506570939" lon="7.905667154022397"><ele>266.0</ele><time>2026-03-23T16:53:30.999Z</time></trkpt><trkpt lat="44.48324658470267" lon="7.905829686716062"><ele>265.25</ele><time>2026-03-23T16:53:31.999Z</time></trkpt><trkpt lat="44.48330880451127" lon="7.906011274270182"><ele>264.5</ele><time>2026-03-23T16:53:32.999Z</time></trkpt><trkpt lat="44.48337627065117" lon="7.906197860970916"><ele>263.75</ele><time>2026-03-23T16:53:33.999Z</time></trkpt><trkpt lat="44.48343650170184" lon="7.906382426500356"><ele>263.0</ele><time>2026-03-23T16:53:34.999Z</time></trkpt><trkpt lat="44.48350955005116" lon="7.9065761440472135"><ele>262.0</ele><time>2026-03-23T16:53:35.999Z</time></trkpt><trkpt lat="44.48357089956053" lon="7.906784587802433"><ele>261.0</ele><time>2026-03-23T16:53:36.999Z</time></trkpt><trkpt lat="44.48363450514152" lon="7.906989425627453"><ele>260.0</ele><time>2026-03-23T16:53:37.999Z</time></trkpt><trkpt lat="44.48369420788663" lon="7.907187150077756"><ele>260.0</ele><time>2026-03-23T16:53:38.999Z</time></trkpt><trkpt lat="44.483753409685704" lon="7.907373438429511"><ele>260.0</ele><time>2026-03-23T16:53:39.999Z</time></trkpt><trkpt lat="44.48382148794483" lon="7.9075645891573805"><ele>260.0</ele><time>2026-03-23T16:53:40.999Z</time></trkpt><trkpt lat="44.48389394091297" lon="7.907760024748055"><ele>260.25</ele><time>2026-03-23T16:53:41.999Z</time></trkpt><trkpt lat="44.48395696985872" lon="7.907945193127476"><ele>260.5</ele><time>2026-03-23T16:53:42.999Z</time></trkpt><trkpt lat="44.48401414256367" lon="7.9081381481912345"><ele>260.75</ele><time>2026-03-23T16:53:43.999Z</time></trkpt><trkpt lat="44.48407596098469" lon="7.908322716630976"><ele>261.0</ele><time>2026-03-23T16:53:44.999Z</time></trkpt><trkpt lat="44.48413384381819" lon="7.908499041998796"><ele>262.5</ele><time>2026-03-23T16:53:45.999Z</time></trkpt><trkpt lat="44.48418263065552" lon="7.9086553626332075"><ele>264.0</ele><time>2026-03-23T16:53:46.999Z</time></trkpt><trkpt lat="44.48423566001563" lon="7.9088039470033635"><ele>265.5</ele><time>2026-03-23T16:53:47.999Z</time></trkpt><trkpt lat="44.48428151805655" lon="7.908949460065128"><ele>267.0</ele><time>2026-03-23T16:53:48.999Z</time></trkpt><trkpt lat="44.4843284133358" lon="7.909092481714974"><ele>267.0</ele><time>2026-03-23T16:53:49.999Z</time></trkpt><trkpt lat="44.48436571527705" lon="7.9092070923622595"><ele>267.0</ele><time>2026-03-23T16:53:50.999Z</time></trkpt><trkpt lat="44.48438986761955" lon="7.9093070667078225"><ele>267.0</ele><time>2026-03-23T16:53:51.999Z</time></trkpt><trkpt lat="44.48439890665858" lon="7.909405580142191"><ele>267.0</ele><time>2026-03-23T16:53:52.999Z</time></trkpt><trkpt lat="44.484397012864164" lon="7.909506538202523"><ele>267.0</ele><time>2026-03-23T16:53:53.999Z</time></trkpt><trkpt lat="44.48432583139793" lon="7.909654167454915"><ele>267.0</ele><time>2026-03-23T16:53:55.999Z</time></trkpt><trkpt lat="44.48426556736263" lon="7.909704895518905"><ele>267.6</ele><time>2026-03-23T16:53:56.999Z</time></trkpt><trkpt lat="44.48419718287517" lon="7.909752369879905"><ele>268.2</ele><time>2026-03-23T16:53:57.999Z</time></trkpt><trkpt lat="44.48411958367327" lon="7.9098061661006"><ele>268.8</ele><time>2026-03-23T16:53:58.999Z</time></trkpt><trkpt lat="44.484035942308516" lon="7.909865588967195"><ele>269.4</ele><time>2026-03-23T16:53:59.999Z</time></trkpt><trkpt lat="44.48394794061942" lon="7.9099216641747265"><ele>270.0</ele><time>2026-03-23T16:54:00.999Z</time></trkpt><trkpt lat="44.4838612064742" lon="7.909981148486006"><ele>270.0</ele><time>2026-03-23T16:54:01.999Z</time></trkpt><trkpt lat="44.48378652067158" lon="7.910036468658901"><ele>270.0</ele><time>2026-03-23T16:54:02.999Z</time></trkpt><trkpt lat="44.48371728190967" lon="7.910108335007742"><ele>270.0</ele><time>2026-03-23T16:54:03.999Z</time></trkpt><trkpt lat="44.48366180549702" lon="7.910201612160192"><ele>270.0</ele><time>2026-03-23T16:54:04.999Z</time></trkpt><trkpt lat="44.48361858394438" lon="7.910313369374653"><ele>270.0</ele><time>2026-03-23T16:54:05.999Z</time></trkpt><trkpt lat="44.483594420612576" lon="7.910439136093134"><ele>270.0</ele><time>2026-03-23T16:54:06.999Z</time></trkpt><trkpt lat="44.48357902045826" lon="7.910593656724652"><ele>274.2</ele><time>2026-03-23T16:54:07.999Z</time></trkpt><trkpt lat="44.48356364103227" lon="7.910750554876268"><ele>278.4</ele><time>2026-03-23T16:54:08.999Z</time></trkpt><trkpt lat="44.48354353362367" lon="7.910902155000268"><ele>282.6</ele><time>2026-03-23T16:54:09.999Z</time></trkpt><trkpt lat="44.48351469845891" lon="7.911053429077206"><ele>286.8</ele><time>2026-03-23T16:54:10.999Z</time></trkpt><trkpt lat="44.48346950645317" lon="7.911181603273193"><ele>291.0</ele><time>2026-03-23T16:54:11.999Z</time></trkpt><trkpt lat="44.48342554005868" lon="7.911289177459884"><ele>291.8333333333333</ele><time>2026-03-23T16:54:12.999Z</time></trkpt><trkpt lat="44.4833915315822" lon="7.911372235920163"><ele>292.6666666666667</ele><time>2026-03-23T16:54:13.999Z</time></trkpt><trkpt lat="44.4833495650797" lon="7.9114925786993755"><ele>293.5</ele><time>2026-03-23T16:54:15.999Z</time></trkpt><trkpt lat="44.483411146793884" lon="7.911631916814137"><ele>294.33333333333337</ele><time>2026-03-23T16:54:17.999Z</time></trkpt><trkpt lat="44.483476267076234" lon="7.911657373607632"><ele>295.1666666666667</ele><time>2026-03-23T16:54:18.999Z</time></trkpt><trkpt lat="44.48354626968748" lon="7.91161302926552"><ele>296.0</ele><time>2026-03-23T16:54:19.999Z</time></trkpt><trkpt lat="44.48360663865823" lon="7.911567038075963"><ele>296.0</ele><time>2026-03-23T16:54:20.999Z</time></trkpt><trkpt lat="44.483668446289215" lon="7.9115246124999565"><ele>296.0</ele><time>2026-03-23T16:54:21.998Z</time></trkpt><trkpt lat="44.483745351889496" lon="7.9115051362054425"><ele>296.0</ele><time>2026-03-23T16:54:22.998Z</time></trkpt><trkpt lat="44.483865813926826" lon="7.911557302040303"><ele>296.0</ele><time>2026-03-23T16:54:24.998Z</time></trkpt><trkpt lat="44.483950261013376" lon="7.911649030494323"><ele>296.0</ele><time>2026-03-23T16:54:25.998Z</time></trkpt><trkpt lat="44.48396083681046" lon="7.911812793166213"><ele>296.0</ele><time>2026-03-23T16:54:27.998Z</time></trkpt><trkpt lat="44.483885013074946" lon="7.911870063958558"><ele>296.0</ele><time>2026-03-23T16:54:28.998Z</time></trkpt><trkpt lat="44.48380352071342" lon="7.911822256910927"><ele>296.0</ele><time>2026-03-23T16:54:30.998Z</time></trkpt><trkpt lat="44.48373896085026" lon="7.911714525418032"><ele>296.0</ele><time>2026-03-23T16:54:32.998Z</time></trkpt><trkpt lat="44.4836612304526" lon="7.911697194441571"><ele>296.0</ele><time>2026-03-23T16:54:33.998Z</time></trkpt><trkpt lat="44.48357502954293" lon="7.911714178664781"><ele>296.0</ele><time>2026-03-23T16:54:34.998Z</time></trkpt><trkpt lat="44.483515781947055" lon="7.911840979387407"><ele>297.40000000000003</ele><time>2026-03-23T16:54:35.998Z</time></trkpt><trkpt lat="44.483454686839146" lon="7.911924518507977"><ele>298.8</ele><time>2026-03-23T16:54:36.998Z</time></trkpt><trkpt lat="44.48339334931896" lon="7.91204346291193"><ele>300.20000000000005</ele><time>2026-03-23T16:54:37.998Z</time></trkpt><trkpt lat="44.48330793166371" lon="7.912138322214171"><ele>301.6</ele><time>2026-03-23T16:54:38.998Z</time></trkpt><trkpt lat="44.48324800363115" lon="7.912254620696071"><ele>303.0</ele><time>2026-03-23T16:54:39.998Z</time></trkpt><trkpt lat="44.48315850716765" lon="7.912356014831574"><ele>303.0</ele><time>2026-03-23T16:54:40.998Z</time></trkpt><trkpt lat="44.48308167193573" lon="7.912472536866232"><ele>303.0</ele><time>2026-03-23T16:54:41.998Z</time></trkpt><trkpt lat="44.483032448688604" lon="7.912586506402193"><ele>303.0</ele><time>2026-03-23T16:54:42.998Z</time></trkpt><trkpt lat="44.48296899960396" lon="7.912698960367086"><ele>303.0</ele><time>2026-03-23T16:54:43.998Z</time></trkpt><trkpt lat="44.48292180158496" lon="7.91281204619006"><ele>303.0</ele><time>2026-03-23T16:54:44.998Z</time></trkpt><trkpt lat="44.48291068214295" lon="7.912918681856633"><ele>309.25</ele><time>2026-03-23T16:54:45.998Z</time></trkpt><trkpt lat="44.48286712587479" lon="7.913072791726781"><ele>315.5</ele><time>2026-03-23T16:54:48Z</time></trkpt><trkpt lat="44.482817075988045" lon="7.9131953188072215"><ele>321.75</ele><time>2026-03-23T16:54:50Z</time></trkpt><trkpt lat="44.48270432239203" lon="7.9131721479751125"><ele>328.0</ele><time>2026-03-23T16:54:52Z</time></trkpt><trkpt lat="44.48265118958672" lon="7.913009645696974"><ele>328.0</ele><time>2026-03-23T16:54:54Z</time></trkpt><trkpt lat="44.482665346825414" lon="7.912916876704931"><ele>328.0</ele><time>2026-03-23T16:54:55Z</time></trkpt><trkpt lat="44.48266865780832" lon="7.912827549551604"><ele>328.0</ele><time>2026-03-23T16:54:56Z</time></trkpt><trkpt lat="44.482668047608456" lon="7.912710466501413"><ele>328.0</ele><time>2026-03-23T16:54:57Z</time></trkpt><trkpt lat="44.48267339217731" lon="7.9125398231313655"><ele>328.0</ele><time>2026-03-23T16:54:58Z</time></trkpt><trkpt lat="44.48266769680405" lon="7.912411722125223"><ele>328.0</ele><time>2026-03-23T16:54:59Z</time></trkpt><trkpt lat="44.48269300991771" lon="7.912247565656195"><ele>327.3333333333333</ele><time>2026-03-23T16:55:00Z</time></trkpt><trkpt lat="44.48270633934768" lon="7.912112244689688"><ele>326.66666666666663</ele><time>2026-03-23T16:55:01Z</time></trkpt><trkpt lat="44.482723472661135" lon="7.911983920253394"><ele>326.0</ele><time>2026-03-23T16:55:02Z</time></trkpt><trkpt lat="44.4827289631546" lon="7.9118842934088"><ele>325.3333333333333</ele><time>2026-03-23T16:55:03Z</time></trkpt><trkpt lat="44.4827190154237" lon="7.911777506258628"><ele>324.6666666666667</ele><time>2026-03-23T16:55:04Z</time></trkpt><trkpt lat="44.48272177862323" lon="7.911657238947619"><ele>324.0</ele><time>2026-03-23T16:55:05Z</time></trkpt><trkpt lat="44.482712802215566" lon="7.911477348163475"><ele>323.5</ele><time>2026-03-23T16:55:07Z</time></trkpt><trkpt lat="44.48269971222708" lon="7.911377369868637"><ele>323.0</ele><time>2026-03-23T16:55:08Z</time></trkpt><trkpt lat="44.48268985501806" lon="7.911287992414625"><ele>322.5</ele><time>2026-03-23T16:55:09Z</time></trkpt><trkpt lat="44.48265964485889" lon="7.911181580148824"><ele>322.0</ele><time>2026-03-23T16:55:11Z</time></trkpt><trkpt lat="44.482597837202356" lon="7.911114617521124"><ele>321.5</ele><time>2026-03-23T16:55:13Z</time></trkpt><trkpt lat="44.48253761576413" lon="7.911297538584825"><ele>321.0</ele><time>2026-03-23T16:55:17Z</time></trkpt><trkpt lat="44.482571521741875" lon="7.911389072415766"><ele>320.99999999999994</ele><time>2026-03-23T16:55:18Z</time></trkpt><trkpt lat="44.48259100148509" lon="7.911474400874621"><ele>321.0</ele><time>2026-03-23T16:55:19Z</time></trkpt><trkpt lat="44.48260229494931" lon="7.911574482152181"><ele>321.0</ele><time>2026-03-23T16:55:20Z</time></trkpt><trkpt lat="44.48259356170577" lon="7.911665412685031"><ele>321.0</ele><time>2026-03-23T16:55:21Z</time></trkpt><trkpt lat="44.4825793753989" lon="7.9117722976991205"><ele>321.0</ele><time>2026-03-23T16:55:22Z</time></trkpt><trkpt lat="44.482550344020424" lon="7.911865146708302"><ele>320.99999999999994</ele><time>2026-03-23T16:55:23Z</time></trkpt><trkpt lat="44.4825204506698" lon="7.911955740738152"><ele>321.0</ele><time>2026-03-23T16:55:24Z</time></trkpt><trkpt lat="44.4824436482712" lon="7.91209300373162"><ele>321.5</ele><time>2026-03-23T16:55:26Z</time></trkpt><trkpt lat="44.48237278170739" lon="7.9121385891392855"><ele>322.0</ele><time>2026-03-23T16:55:27Z</time></trkpt><trkpt lat="44.48228758651013" lon="7.91219247292705"><ele>322.5</ele><time>2026-03-23T16:55:28Z</time></trkpt><trkpt lat="44.48221042172875" lon="7.912248750077799"><ele>323.0</ele><time>2026-03-23T16:55:29Z</time></trkpt><trkpt lat="44.48214023664205" lon="7.91230247793463"><ele>323.5</ele><time>2026-03-23T16:55:29.999Z</time></trkpt><trkpt lat="44.482078699980796" lon="7.912348951591879"><ele>324.0</ele><time>2026-03-23T16:55:30.999Z</time></trkpt><trkpt lat="44.48201008715123" lon="7.912387775047504"><ele>327.1666666666667</ele><time>2026-03-23T16:55:31.999Z</time></trkpt><trkpt lat="44.48193759829107" lon="7.91240903463933"><ele>330.3333333333333</ele><time>2026-03-23T16:55:32.999Z</time></trkpt><trkpt lat="44.4818597081761" lon="7.91240378986228"><ele>333.5</ele><time>2026-03-23T16:55:33.999Z</time></trkpt><trkpt lat="44.48180572380733" lon="7.912354614572633"><ele>336.66666666666663</ele><time>2026-03-23T16:55:34.999Z</time></trkpt><trkpt lat="44.48175142593414" lon="7.912292928864894"><ele>339.8333333333333</ele><time>2026-03-23T16:55:35.999Z</time></trkpt><trkpt lat="44.48170147952315" lon="7.912206488201761"><ele>343.0</ele><time>2026-03-23T16:55:36.999Z</time></trkpt><trkpt lat="44.481647274439" lon="7.912102644496513"><ele>343.0</ele><time>2026-03-23T16:55:37.999Z</time></trkpt><trkpt lat="44.48159843267411" lon="7.911992391929096"><ele>343.0</ele><time>2026-03-23T16:55:38.999Z</time></trkpt><trkpt lat="44.48156309544756" lon="7.911911927232781"><ele>343.0</ele><time>2026-03-23T16:55:39.999Z</time></trkpt><trkpt lat="44.48150593126709" lon="7.911828920210524"><ele>343.0</ele><time>2026-03-23T16:55:40.999Z</time></trkpt><trkpt lat="44.48147072846966" lon="7.911746020570805"><ele>343.0</ele><time>2026-03-23T16:55:41.999Z</time></trkpt><trkpt lat="44.48142508663046" lon="7.9116808167348145"><ele>343.0</ele><time>2026-03-23T16:55:42.999Z</time></trkpt><trkpt lat="44.48136880981017" lon="7.911623456752955"><ele>343.0</ele><time>2026-03-23T16:55:43.999Z</time></trkpt><trkpt lat="44.481252504857" lon="7.9116074314170985"><ele>343.0</ele><time>2026-03-23T16:55:45.999Z</time></trkpt><trkpt lat="44.48118333954892" lon="7.911709063782646"><ele>343.0</ele><time>2026-03-23T16:55:47.999Z</time></trkpt><trkpt lat="44.481207903678126" lon="7.911870031902527"><ele>343.0</ele><time>2026-03-23T16:55:49.999Z</time></trkpt><trkpt lat="44.4812536190244" lon="7.91193148408834"><ele>343.0</ele><time>2026-03-23T16:55:50.999Z</time></trkpt><trkpt lat="44.481314966340435" lon="7.912001487089122"><ele>343.0</ele><time>2026-03-23T16:55:51.999Z</time></trkpt><trkpt lat="44.48137444094547" lon="7.912082379904166"><ele>343.0</ele><time>2026-03-23T16:55:52.999Z</time></trkpt><trkpt lat="44.48141672646421" lon="7.912178510389443"><ele>343.0</ele><time>2026-03-23T16:55:53.999Z</time></trkpt><trkpt lat="44.481447561599886" lon="7.912283778922318"><ele>343.0</ele><time>2026-03-23T16:55:54.999Z</time></trkpt><trkpt lat="44.48148637796792" lon="7.9124099609194"><ele>343.0</ele><time>2026-03-23T16:55:56.999Z</time></trkpt><trkpt lat="44.48148023103269" lon="7.912507881064838"><ele>343.0</ele><time>2026-03-23T16:55:58.999Z</time></trkpt><trkpt lat="44.481401611995786" lon="7.9125697566147295"><ele>343.0</ele><time>2026-03-23T16:56:00.999Z</time></trkpt><trkpt lat="44.48136194865077" lon="7.912448461969418"><ele>343.0</ele><time>2026-03-23T16:56:02.999Z</time></trkpt><trkpt lat="44.481353870342794" lon="7.912352879065291"><ele>343.0</ele><time>2026-03-23T16:56:03.999Z</time></trkpt><trkpt lat="44.48132558295093" lon="7.912233538321009"><ele>343.0</ele><time>2026-03-23T16:56:04.999Z</time></trkpt><trkpt lat="44.481289301416645" lon="7.912133767168779"><ele>343.0</ele><time>2026-03-23T16:56:05.999Z</time></trkpt><trkpt lat="44.481253013276394" lon="7.912057532047881"><ele>343.0</ele><time>2026-03-23T16:56:06.999Z</time></trkpt><trkpt lat="44.48119634258259" lon="7.912013371123694"><ele>343.0</ele><time>2026-03-23T16:56:07.999Z</time></trkpt><trkpt lat="44.481063550601554" lon="7.912046170622562"><ele>343.0</ele><time>2026-03-23T16:56:09.999Z</time></trkpt><trkpt lat="44.48104476635117" lon="7.912136502760118"><ele>343.8333333333333</ele><time>2026-03-23T16:56:10.999Z</time></trkpt><trkpt lat="44.48104379988202" lon="7.912233965100422"><ele>344.66666666666663</ele><time>2026-03-23T16:56:11.999Z</time></trkpt><trkpt lat="44.48107024006272" lon="7.9123397866926295"><ele>345.5</ele><time>2026-03-23T16:56:12.999Z</time></trkpt><trkpt lat="44.48107013940754" lon="7.912445153772726"><ele>346.3333333333333</ele><time>2026-03-23T16:56:13.999Z</time></trkpt><trkpt lat="44.48114302112946" lon="7.912581059235159"><ele>347.1666666666667</ele><time>2026-03-23T16:56:14.999Z</time></trkpt><trkpt lat="44.48118125127155" lon="7.912695345876956"><ele>348.0</ele><time>2026-03-23T16:56:15.999Z</time></trkpt><trkpt lat="44.48122076186454" lon="7.912800886480719"><ele>349.1666666666667</ele><time>2026-03-23T16:56:16.999Z</time></trkpt><trkpt lat="44.48125711360029" lon="7.91289838763132"><ele>350.3333333333333</ele><time>2026-03-23T16:56:17.999Z</time></trkpt><trkpt lat="44.48129066484552" lon="7.913001534115071"><ele>351.5</ele><time>2026-03-23T16:56:18.999Z</time></trkpt><trkpt lat="44.48132001862398" lon="7.9130925346112395"><ele>352.66666666666663</ele><time>2026-03-23T16:56:19.999Z</time></trkpt><trkpt lat="44.48135174776487" lon="7.913169300681955"><ele>353.8333333333333</ele><time>2026-03-23T16:56:20.999Z</time></trkpt><trkpt lat="44.4814076074011" lon="7.913326456285325"><ele>355.0</ele><time>2026-03-23T16:56:22.999Z</time></trkpt><trkpt lat="44.48145566854803" lon="7.913482062969022"><ele>357.3333333333333</ele><time>2026-03-23T16:56:24.999Z</time></trkpt><trkpt lat="44.48148770968042" lon="7.913566899894337"><ele>359.66666666666663</ele><time>2026-03-23T16:56:25.998Z</time></trkpt><trkpt lat="44.48152466368923" lon="7.913662032484849"><ele>362.0</ele><time>2026-03-23T16:56:26.998Z</time></trkpt><trkpt lat="44.481558862237506" lon="7.913760183001676"><ele>364.3333333333333</ele><time>2026-03-23T16:56:27.998Z</time></trkpt><trkpt lat="44.48158796737725" lon="7.913869080582404"><ele>366.6666666666667</ele><time>2026-03-23T16:56:28.998Z</time></trkpt><trkpt lat="44.481609534273204" lon="7.913993885992767"><ele>369.0</ele><time>2026-03-23T16:56:29.998Z</time></trkpt><trkpt lat="44.48162923636467" lon="7.9141330142635375"><ele>371.6</ele><time>2026-03-23T16:56:30.998Z</time></trkpt><trkpt lat="44.48165144051336" lon="7.914273965112878"><ele>374.2</ele><time>2026-03-23T16:56:31.998Z</time></trkpt><trkpt lat="44.48167958690058" lon="7.914406693989934"><ele>376.8</ele><time>2026-03-23T16:56:32.998Z</time></trkpt><trkpt lat="44.48171189908828" lon="7.914523664362534"><ele>379.40000000000003</ele><time>2026-03-23T16:56:33.998Z</time></trkpt><trkpt lat="44.48175781132341" lon="7.914633242711938"><ele>382.0</ele><time>2026-03-23T16:56:34.998Z</time></trkpt><trkpt lat="44.481839757010974" lon="7.9147360547651715"><ele>382.0</ele><time>2026-03-23T16:56:35.998Z</time></trkpt><trkpt lat="44.481927203314484" lon="7.914845085665612"><ele>382.0</ele><time>2026-03-23T16:56:36.998Z</time></trkpt><trkpt lat="44.48200156501254" lon="7.914956279642947"><ele>382.0</ele><time>2026-03-23T16:56:37.998Z</time></trkpt><trkpt lat="44.4820702277787" lon="7.9150920350599225"><ele>382.0</ele><time>2026-03-23T16:56:38.998Z</time></trkpt><trkpt lat="44.48212433207793" lon="7.9152521906677284"><ele>381.0</ele><time>2026-03-23T16:56:39.998Z</time></trkpt><trkpt lat="44.482190642570075" lon="7.9153822688015705"><ele>380.0</ele><time>2026-03-23T16:56:40.998Z</time></trkpt><trkpt lat="44.482237642496656" lon="7.9154778089369655"><ele>379.0</ele><time>2026-03-23T16:56:41.998Z</time></trkpt><trkpt lat="44.482273972042066" lon="7.91561218710384"><ele>378.0</ele><time>2026-03-23T16:56:42.998Z</time></trkpt><trkpt lat="44.4823073006191" lon="7.915752516110951"><ele>377.0</ele><time>2026-03-23T16:56:43.998Z</time></trkpt><trkpt lat="44.48232447408224" lon="7.915909921307459"><ele>377.0</ele><time>2026-03-23T16:56:44.998Z</time></trkpt><trkpt lat="44.48232208970162" lon="7.916069223180075"><ele>377.0</ele><time>2026-03-23T16:56:45.998Z</time></trkpt><trkpt lat="44.48232194711462" lon="7.916244043019508"><ele>377.0</ele><time>2026-03-23T16:56:46.998Z</time></trkpt><trkpt lat="44.482325326910356" lon="7.916420239427179"><ele>377.0</ele><time>2026-03-23T16:56:47.998Z</time></trkpt><trkpt lat="44.482321954337124" lon="7.91660143885702"><ele>379.0</ele><time>2026-03-23T16:56:48.998Z</time></trkpt><trkpt lat="44.48232091454982" lon="7.916799666657933"><ele>381.0</ele><time>2026-03-23T16:56:49.998Z</time></trkpt><trkpt lat="44.48231655370365" lon="7.916994606302789"><ele>383.0</ele><time>2026-03-23T16:56:50.998Z</time></trkpt><trkpt lat="44.48230332624473" lon="7.917198980365286"><ele>385.0</ele><time>2026-03-23T16:56:51.998Z</time></trkpt><trkpt lat="44.48229850483009" lon="7.917355246267987"><ele>385.0</ele><time>2026-03-23T16:56:52.998Z</time></trkpt><trkpt lat="44.482295005213395" lon="7.917476011133854"><ele>385.0</ele><time>2026-03-23T16:56:54Z</time></trkpt><trkpt lat="44.48228584384462" lon="7.917571293487066"><ele>385.0</ele><time>2026-03-23T16:56:55Z</time></trkpt><trkpt lat="44.482218979680994" lon="7.917704034947272"><ele>385.0</ele><time>2026-03-23T16:56:57Z</time></trkpt><trkpt lat="44.4821072966143" lon="7.917733103318383"><ele>385.0</ele><time>2026-03-23T16:56:59Z</time></trkpt><trkpt lat="44.48206896420193" lon="7.917654854452035"><ele>387.8</ele><time>2026-03-23T16:57:00Z</time></trkpt><trkpt lat="44.482024484759" lon="7.9174532164475275"><ele>390.6</ele><time>2026-03-23T16:57:02Z</time></trkpt><trkpt lat="44.482034339232186" lon="7.917341639207384"><ele>393.4</ele><time>2026-03-23T16:57:03Z</time></trkpt><trkpt lat="44.48200005492088" lon="7.917221336652669"><ele>396.2</ele><time>2026-03-23T16:57:04Z</time></trkpt><trkpt lat="44.48196241893913" lon="7.917080184138312"><ele>399.0</ele><time>2026-03-23T16:57:05Z</time></trkpt><trkpt lat="44.481904073282834" lon="7.916964099280551"><ele>399.0</ele><time>2026-03-23T16:57:06Z</time></trkpt><trkpt lat="44.48182541711455" lon="7.916857092312105"><ele>399.0</ele><time>2026-03-23T16:57:07Z</time></trkpt><trkpt lat="44.4817428213097" lon="7.9167615951714545"><ele>399.0</ele><time>2026-03-23T16:57:08Z</time></trkpt><trkpt lat="44.48166455829793" lon="7.916689491342902"><ele>399.0</ele><time>2026-03-23T16:57:09Z</time></trkpt><trkpt lat="44.481582156831756" lon="7.916603779445547"><ele>399.0</ele><time>2026-03-23T16:57:10Z</time></trkpt><trkpt lat="44.48148977076683" lon="7.916512868534245"><ele>398.0</ele><time>2026-03-23T16:57:11Z</time></trkpt><trkpt lat="44.48139121241059" lon="7.91641353741885"><ele>397.0</ele><time>2026-03-23T16:57:12Z</time></trkpt><trkpt lat="44.481291135728924" lon="7.916308218907015"><ele>396.0</ele><time>2026-03-23T16:57:13Z</time></trkpt><trkpt lat="44.48118588895428" lon="7.916209921520484"><ele>395.0</ele><time>2026-03-23T16:57:14Z</time></trkpt><trkpt lat="44.48107242964958" lon="7.916106110685034"><ele>396.75</ele><time>2026-03-23T16:57:15Z</time></trkpt><trkpt lat="44.480945412349634" lon="7.915968194860587"><ele>398.5</ele><time>2026-03-23T16:57:16Z</time></trkpt><trkpt lat="44.48082942379683" lon="7.9158545905340265"><ele>400.25</ele><time>2026-03-23T16:57:17Z</time></trkpt><trkpt lat="44.48071613265675" lon="7.915752110927954"><ele>402.0</ele><time>2026-03-23T16:57:18Z</time></trkpt><trkpt lat="44.48059931711329" lon="7.915631988858536"><ele>402.0</ele><time>2026-03-23T16:57:19Z</time></trkpt><trkpt lat="44.480484365622516" lon="7.9155121077107"><ele>402.0</ele><time>2026-03-23T16:57:20Z</time></trkpt><trkpt lat="44.48036950965935" lon="7.9153995855691255"><ele>402.0</ele><time>2026-03-23T16:57:21Z</time></trkpt><trkpt lat="44.4802726241171" lon="7.915301855105198"><ele>402.0</ele><time>2026-03-23T16:57:22Z</time></trkpt><trkpt lat="44.48018516949335" lon="7.915227077253995"><ele>402.8</ele><time>2026-03-23T16:57:23Z</time></trkpt><trkpt lat="44.48011641708284" lon="7.915141999153833"><ele>403.6</ele><time>2026-03-23T16:57:24Z</time></trkpt><trkpt lat="44.480037162370564" lon="7.9150858274333515"><ele>404.40000000000003</ele><time>2026-03-23T16:57:25Z</time></trkpt><trkpt lat="44.479959148362354" lon="7.915020720723312"><ele>405.20000000000005</ele><time>2026-03-23T16:57:26Z</time></trkpt><trkpt lat="44.47987335247093" lon="7.914974893537262"><ele>406.0</ele><time>2026-03-23T16:57:27Z</time></trkpt><trkpt lat="44.479781387673455" lon="7.9149647000453935"><ele>406.0</ele><time>2026-03-23T16:57:28Z</time></trkpt><trkpt lat="44.479684866506076" lon="7.914968073642857"><ele>406.0</ele><time>2026-03-23T16:57:29Z</time></trkpt><trkpt lat="44.479587965654694" lon="7.915005725848424"><ele>406.0</ele><time>2026-03-23T16:57:30Z</time></trkpt><trkpt lat="44.47950626120353" lon="7.915087365194061"><ele>406.0</ele><time>2026-03-23T16:57:31Z</time></trkpt><trkpt lat="44.4794248218405" lon="7.915182841887788"><ele>406.0</ele><time>2026-03-23T16:57:32Z</time></trkpt><trkpt lat="44.47934706452948" lon="7.91526793035451"><ele>409.33333333333337</ele><time>2026-03-23T16:57:33Z</time></trkpt><trkpt lat="44.47928583422" lon="7.9153470697540875"><ele>412.6666666666667</ele><time>2026-03-23T16:57:34Z</time></trkpt><trkpt lat="44.47923644126432" lon="7.915416050501494"><ele>416.0</ele><time>2026-03-23T16:57:35Z</time></trkpt><trkpt lat="44.47918000331498" lon="7.915562587079815"><ele>419.33333333333337</ele><time>2026-03-23T16:57:36.999Z</time></trkpt><trkpt lat="44.479185212134915" lon="7.915658005580953"><ele>422.6666666666667</ele><time>2026-03-23T16:57:37.999Z</time></trkpt><trkpt lat="44.47921421334694" lon="7.915755347371142"><ele>426.0</ele><time>2026-03-23T16:57:38.999Z</time></trkpt><trkpt lat="44.47926806887346" lon="7.915841735044387"><ele>428.20000000000005</ele><time>2026-03-23T16:57:39.999Z</time></trkpt><trkpt lat="44.4793406229066" lon="7.915916543311523"><ele>430.40000000000003</ele><time>2026-03-23T16:57:40.999Z</time></trkpt><trkpt lat="44.47942195002452" lon="7.915984121927135"><ele>432.6</ele><time>2026-03-23T16:57:41.999Z</time></trkpt><trkpt lat="44.47946345913695" lon="7.916088672277104"><ele>434.8</ele><time>2026-03-23T16:57:42.999Z</time></trkpt><trkpt lat="44.47950063025656" lon="7.916218973824956"><ele>437.0</ele><time>2026-03-23T16:57:43.999Z</time></trkpt><trkpt lat="44.47953231403276" lon="7.916352629404166"><ele>437.0</ele><time>2026-03-23T16:57:44.999Z</time></trkpt><trkpt lat="44.479539365018965" lon="7.916515147597136"><ele>437.00000000000006</ele><time>2026-03-23T16:57:45.999Z</time></trkpt><trkpt lat="44.479520862259044" lon="7.916668109333148"><ele>437.00000000000006</ele><time>2026-03-23T16:57:46.999Z</time></trkpt><trkpt lat="44.47950663167465" lon="7.916818465333223"><ele>437.0</ele><time>2026-03-23T16:57:47.999Z</time></trkpt><trkpt lat="44.47948949511102" lon="7.916970751358614"><ele>437.0</ele><time>2026-03-23T16:57:48.999Z</time></trkpt><trkpt lat="44.47946855529164" lon="7.9171265117114515"><ele>437.75</ele><time>2026-03-23T16:57:49.999Z</time></trkpt><trkpt lat="44.479459653191974" lon="7.917299402289553"><ele>438.5</ele><time>2026-03-23T16:57:50.999Z</time></trkpt><trkpt lat="44.47942432110955" lon="7.9174742019290365"><ele>439.25</ele><time>2026-03-23T16:57:51.999Z</time></trkpt><trkpt lat="44.47939302275639" lon="7.917623370181355"><ele>440.0</ele><time>2026-03-23T16:57:52.999Z</time></trkpt><trkpt lat="44.479365463211174" lon="7.917758019790707"><ele>440.0</ele><time>2026-03-23T16:57:53.999Z</time></trkpt><trkpt lat="44.47932525445159" lon="7.9178925381295695"><ele>440.0</ele><time>2026-03-23T16:57:54.999Z</time></trkpt><trkpt lat="44.47927923600763" lon="7.91804555633409"><ele>440.0</ele><time>2026-03-23T16:57:55.999Z</time></trkpt><trkpt lat="44.479204060114334" lon="7.91817793545622"><ele>440.0</ele><time>2026-03-23T16:57:56.999Z</time></trkpt><trkpt lat="44.47913287617042" lon="7.91832951223875"><ele>440.25</ele><time>2026-03-23T16:57:57.999Z</time></trkpt><trkpt lat="44.47905297835306" lon="7.918495635095287"><ele>440.5</ele><time>2026-03-23T16:57:58.999Z</time></trkpt><trkpt lat="44.47899940656566" lon="7.918661093457101"><ele>440.75</ele><time>2026-03-23T16:57:59.999Z</time></trkpt><trkpt lat="44.47892769736936" lon="7.91881457371653"><ele>441.0</ele><time>2026-03-23T16:58:00.999Z</time></trkpt><trkpt lat="44.478898974735365" lon="7.918961003213612"><ele>441.0</ele><time>2026-03-23T16:58:01.999Z</time></trkpt><trkpt lat="44.47886288412943" lon="7.919151686803576"><ele>441.0</ele><time>2026-03-23T16:58:02.999Z</time></trkpt><trkpt lat="44.47885414702056" lon="7.919333308481322"><ele>441.0</ele><time>2026-03-23T16:58:03.999Z</time></trkpt><trkpt lat="44.4788511500711" lon="7.919521106104318"><ele>441.0</ele><time>2026-03-23T16:58:04.999Z</time></trkpt><trkpt lat="44.478874198065604" lon="7.919717538967262"><ele>442.0</ele><time>2026-03-23T16:58:05.999Z</time></trkpt><trkpt lat="44.478899365151186" lon="7.919909335736842"><ele>443.0</ele><time>2026-03-23T16:58:06.999Z</time></trkpt><trkpt lat="44.47892178860985" lon="7.920072602913062"><ele>444.0</ele><time>2026-03-23T16:58:07.999Z</time></trkpt><trkpt lat="44.4789465674773" lon="7.920241838700453"><ele>445.0</ele><time>2026-03-23T16:58:08.999Z</time></trkpt><trkpt lat="44.4789696583055" lon="7.9204122746476"><ele>445.25</ele><time>2026-03-23T16:58:09.999Z</time></trkpt><trkpt lat="44.47898899700207" lon="7.920579907170935"><ele>445.5</ele><time>2026-03-23T16:58:10.999Z</time></trkpt><trkpt lat="44.47898539353753" lon="7.920757726858468"><ele>445.75</ele><time>2026-03-23T16:58:11.999Z</time></trkpt><trkpt lat="44.47897494161584" lon="7.920938118494614"><ele>446.0</ele><time>2026-03-23T16:58:12.999Z</time></trkpt><trkpt lat="44.47895509253679" lon="7.921131432630903"><ele>448.5</ele><time>2026-03-23T16:58:13.999Z</time></trkpt><trkpt lat="44.47893580466429" lon="7.921323796553733"><ele>451.0</ele><time>2026-03-23T16:58:14.999Z</time></trkpt><trkpt lat="44.47892002453324" lon="7.921520880051377"><ele>453.5</ele><time>2026-03-23T16:58:15.999Z</time></trkpt><trkpt lat="44.47890125726008" lon="7.921723292285746"><ele>456.0</ele><time>2026-03-23T16:58:16.999Z</time></trkpt><trkpt lat="44.47887727574353" lon="7.921937048914627"><ele>458.5</ele><time>2026-03-23T16:58:17.999Z</time></trkpt><trkpt lat="44.47885556807692" lon="7.922152051825238"><ele>461.0</ele><time>2026-03-23T16:58:18.999Z</time></trkpt><trkpt lat="44.47881424548412" lon="7.922352097038148"><ele>463.5</ele><time>2026-03-23T16:58:19.999Z</time></trkpt><trkpt lat="44.47878536568619" lon="7.922526738765144"><ele>466.0</ele><time>2026-03-23T16:58:20.999Z</time></trkpt><trkpt lat="44.47875474914036" lon="7.9226855027945104"><ele>466.0</ele><time>2026-03-23T16:58:21.999Z</time></trkpt><trkpt lat="44.47871181203386" lon="7.922837273699986"><ele>466.0</ele><time>2026-03-23T16:58:22.999Z</time></trkpt><trkpt lat="44.478658358116185" lon="7.922947587039861"><ele>466.0</ele><time>2026-03-23T16:58:23.999Z</time></trkpt><trkpt lat="44.47858587563039" lon="7.923037138011566"><ele>466.0</ele><time>2026-03-23T16:58:24.999Z</time></trkpt><trkpt lat="44.47851645411252" lon="7.923108193742501"><ele>466.0</ele><time>2026-03-23T16:58:25.999Z</time></trkpt><trkpt lat="44.47845863446374" lon="7.923178153389008"><ele>466.00000000000006</ele><time>2026-03-23T16:58:26.999Z</time></trkpt><trkpt lat="44.478413221871804" lon="7.923255802687575"><ele>466.0</ele><time>2026-03-23T16:58:27.999Z</time></trkpt><trkpt lat="44.47839828223083" lon="7.923344387017721"><ele>466.0</ele><time>2026-03-23T16:58:28.999Z</time></trkpt><trkpt lat="44.47842231016841" lon="7.923490099260205"><ele>466.0</ele><time>2026-03-23T16:58:30.999Z</time></trkpt><trkpt lat="44.478495763982636" lon="7.92362535044618"><ele>466.00000000000006</ele><time>2026-03-23T16:58:32.998Z</time></trkpt><trkpt lat="44.47856319981367" lon="7.9236608682662055"><ele>466.0</ele><time>2026-03-23T16:58:33.998Z</time></trkpt><trkpt lat="44.478644026841124" lon="7.923687906300643"><ele>466.00000000000006</ele><time>2026-03-23T16:58:34.998Z</time></trkpt><trkpt lat="44.47871434816394" lon="7.923713692506797"><ele>466.0</ele><time>2026-03-23T16:58:35.998Z</time></trkpt><trkpt lat="44.47877137545501" lon="7.923754398199028"><ele>466.0</ele><time>2026-03-23T16:58:36.998Z</time></trkpt><trkpt lat="44.478819221223645" lon="7.923812726896351"><ele>466.0</ele><time>2026-03-23T16:58:37.998Z</time></trkpt><trkpt lat="44.47884891762872" lon="7.923902503976575"><ele>466.00000000000006</ele><time>2026-03-23T16:58:38.998Z</time></trkpt><trkpt lat="44.47886933781751" lon="7.924022125915933"><ele>466.0</ele><time>2026-03-23T16:58:39.998Z</time></trkpt><trkpt lat="44.47886989777612" lon="7.924150316159401"><ele>466.4</ele><time>2026-03-23T16:58:40.998Z</time></trkpt><trkpt lat="44.47887857156431" lon="7.924279996876531"><ele>466.8</ele><time>2026-03-23T16:58:41.998Z</time></trkpt><trkpt lat="44.47889063338489" lon="7.9244238089767745"><ele>467.19999999999993</ele><time>2026-03-23T16:58:42.998Z</time></trkpt><trkpt lat="44.4789082417192" lon="7.9245854917240415"><ele>467.59999999999997</ele><time>2026-03-23T16:58:43.998Z</time></trkpt><trkpt lat="44.47892023833763" lon="7.924762039221133"><ele>468.0</ele><time>2026-03-23T16:58:44.998Z</time></trkpt><trkpt lat="44.4789334955666" lon="7.924933721823725"><ele>467.0</ele><time>2026-03-23T16:58:45.998Z</time></trkpt><trkpt lat="44.478948273956455" lon="7.925133727455611"><ele>466.0</ele><time>2026-03-23T16:58:46.998Z</time></trkpt><trkpt lat="44.478940767918765" lon="7.92529086031464"><ele>465.0</ele><time>2026-03-23T16:58:47.998Z</time></trkpt><trkpt lat="44.47888722903438" lon="7.925414738236827"><ele>464.0</ele><time>2026-03-23T16:58:48.998Z</time></trkpt><trkpt lat="44.47883117337111" lon="7.9255590032358905"><ele>464.0</ele><time>2026-03-23T16:58:49.998Z</time></trkpt><trkpt lat="44.47877862412749" lon="7.925716094825462"><ele>464.0</ele><time>2026-03-23T16:58:50.998Z</time></trkpt><trkpt lat="44.47871669336564" lon="7.925845794511732"><ele>464.0</ele><time>2026-03-23T16:58:51.998Z</time></trkpt><trkpt lat="44.478663393000815" lon="7.925960684029677"><ele>464.0</ele><time>2026-03-23T16:58:52.998Z</time></trkpt><trkpt lat="44.478616382451854" lon="7.926095800242202"><ele>464.0</ele><time>2026-03-23T16:58:53.998Z</time></trkpt><trkpt lat="44.47859094103002" lon="7.926265898235866"><ele>470.25</ele><time>2026-03-23T16:58:54.998Z</time></trkpt><trkpt lat="44.47857778127744" lon="7.926457345017208"><ele>476.5</ele><time>2026-03-23T16:58:55.998Z</time></trkpt><trkpt lat="44.478593311278416" lon="7.926659177643152"><ele>482.75</ele><time>2026-03-23T16:58:56.998Z</time></trkpt><trkpt lat="44.47863632460292" lon="7.926849840087744"><ele>489.0</ele><time>2026-03-23T16:58:57.998Z</time></trkpt><trkpt lat="44.4786687536104" lon="7.927016051785208"><ele>489.25</ele><time>2026-03-23T16:58:58.998Z</time></trkpt><trkpt lat="44.47868369492408" lon="7.92717646322791"><ele>489.5</ele><time>2026-03-23T16:59:00Z</time></trkpt><trkpt lat="44.47870790757982" lon="7.927330108345211"><ele>489.75</ele><time>2026-03-23T16:59:01Z</time></trkpt><trkpt lat="44.47874919890766" lon="7.927487184001199"><ele>490.0</ele><time>2026-03-23T16:59:02Z</time></trkpt><trkpt lat="44.47879968577291" lon="7.927631746848593"><ele>490.0</ele><time>2026-03-23T16:59:03Z</time></trkpt><trkpt lat="44.4788650727313" lon="7.927759563481453"><ele>490.0</ele><time>2026-03-23T16:59:04Z</time></trkpt><trkpt lat="44.47895758039697" lon="7.92785670009007"><ele>490.0</ele><time>2026-03-23T16:59:05Z</time></trkpt><trkpt lat="44.47906217720034" lon="7.9279570741411485"><ele>490.0</ele><time>2026-03-23T16:59:06Z</time></trkpt><trkpt lat="44.47914481345856" lon="7.928076266868354"><ele>490.0</ele><time>2026-03-23T16:59:07Z</time></trkpt><trkpt lat="44.47923843350162" lon="7.928161655605223"><ele>490.0</ele><time>2026-03-23T16:59:08Z</time></trkpt><trkpt lat="44.479320147405275" lon="7.928270495181897"><ele>490.0</ele><time>2026-03-23T16:59:09Z</time></trkpt><trkpt lat="44.479404899788754" lon="7.928367561021381"><ele>490.0</ele><time>2026-03-23T16:59:10Z</time></trkpt><trkpt lat="44.47949043767115" lon="7.928468827714579"><ele>490.0</ele><time>2026-03-23T16:59:11Z</time></trkpt><trkpt lat="44.479574035326564" lon="7.928573639044538"><ele>490.8</ele><time>2026-03-23T16:59:12Z</time></trkpt><trkpt lat="44.47965317568384" lon="7.928665919300494"><ele>491.6</ele><time>2026-03-23T16:59:13Z</time></trkpt><trkpt lat="44.479745122257945" lon="7.928773008494457"><ele>492.4</ele><time>2026-03-23T16:59:14Z</time></trkpt><trkpt lat="44.479831129817676" lon="7.928874724801698"><ele>493.2</ele><time>2026-03-23T16:59:15Z</time></trkpt><trkpt lat="44.479909300643726" lon="7.928972514296754"><ele>494.0</ele><time>2026-03-23T16:59:16Z</time></trkpt><trkpt lat="44.47998826250826" lon="7.9290683931948776"><ele>494.0</ele><time>2026-03-23T16:59:17Z</time></trkpt><trkpt lat="44.48006850327021" lon="7.929179378646221"><ele>494.0</ele><time>2026-03-23T16:59:18Z</time></trkpt><trkpt lat="44.480155955866515" lon="7.929292462179691"><ele>494.0</ele><time>2026-03-23T16:59:19Z</time></trkpt><trkpt lat="44.480253232769094" lon="7.929402555801465"><ele>494.0</ele><time>2026-03-23T16:59:20Z</time></trkpt><trkpt lat="44.480334117822714" lon="7.92951307606266"><ele>494.6</ele><time>2026-03-23T16:59:21Z</time></trkpt><trkpt lat="44.48040372662318" lon="7.929618823424951"><ele>495.2</ele><time>2026-03-23T16:59:22Z</time></trkpt><trkpt lat="44.480477688959695" lon="7.929725139011569"><ele>495.80000000000007</ele><time>2026-03-23T16:59:23Z</time></trkpt><trkpt lat="44.48054678792712" lon="7.9298333282525615"><ele>496.40000000000003</ele><time>2026-03-23T16:59:24Z</time></trkpt><trkpt lat="44.4806158517312" lon="7.929950741197011"><ele>497.0</ele><time>2026-03-23T16:59:25Z</time></trkpt><trkpt lat="44.48067119749247" lon="7.9300526610147095"><ele>496.99999999999994</ele><time>2026-03-23T16:59:26Z</time></trkpt><trkpt lat="44.48072991881028" lon="7.930154147462433"><ele>497.0</ele><time>2026-03-23T16:59:27Z</time></trkpt><trkpt lat="44.48078093976467" lon="7.930248345141673"><ele>497.0</ele><time>2026-03-23T16:59:28Z</time></trkpt><trkpt lat="44.480825624134866" lon="7.930328581697314"><ele>497.0</ele><time>2026-03-23T16:59:29Z</time></trkpt><trkpt lat="44.48087259246168" lon="7.930419465667946"><ele>496.99999999999994</ele><time>2026-03-23T16:59:30Z</time></trkpt><trkpt lat="44.48091975127154" lon="7.93051489969888"><ele>497.0</ele><time>2026-03-23T16:59:31Z</time></trkpt><trkpt lat="44.48097239326522" lon="7.930610048459568"><ele>496.99999999999994</ele><time>2026-03-23T16:59:32Z</time></trkpt><trkpt lat="44.48102859099295" lon="7.930697300165347"><ele>497.0</ele><time>2026-03-23T16:59:33Z</time></trkpt><trkpt lat="44.481074587560094" lon="7.9307844305465425"><ele>497.0</ele><time>2026-03-23T16:59:34Z</time></trkpt><trkpt lat="44.4811279827735" lon="7.930871551476552"><ele>497.0</ele><time>2026-03-23T16:59:35Z</time></trkpt><trkpt lat="44.481187031957944" lon="7.9309618768484755"><ele>496.99999999999994</ele><time>2026-03-23T16:59:36Z</time></trkpt><trkpt lat="44.48124583013549" lon="7.931055328026336"><ele>497.0</ele><time>2026-03-23T16:59:37Z</time></trkpt><trkpt lat="44.48129909980231" lon="7.931137123705074"><ele>497.66666666666663</ele><time>2026-03-23T16:59:38Z</time></trkpt><trkpt lat="44.48134356446645" lon="7.931211960519218"><ele>498.3333333333333</ele><time>2026-03-23T16:59:39Z</time></trkpt><trkpt lat="44.481400806478774" lon="7.9312960109300255"><ele>499.0</ele><time>2026-03-23T16:59:40Z</time></trkpt><trkpt lat="44.4814565079522" lon="7.931377444777328"><ele>499.66666666666663</ele><time>2026-03-23T16:59:41Z</time></trkpt><trkpt lat="44.481502774080695" lon="7.931454378148113"><ele>500.3333333333333</ele><time>2026-03-23T16:59:41.999Z</time></trkpt><trkpt lat="44.48154630418126" lon="7.931534371161661"><ele>501.0</ele><time>2026-03-23T16:59:42.999Z</time></trkpt><trkpt lat="44.481596336625415" lon="7.931618846035065"><ele>501.0</ele><time>2026-03-23T16:59:43.999Z</time></trkpt><trkpt lat="44.4816499879422" lon="7.931710048614995"><ele>501.0</ele><time>2026-03-23T16:59:44.999Z</time></trkpt><trkpt lat="44.48170815219692" lon="7.931800793340691"><ele>501.0</ele><time>2026-03-23T16:59:45.999Z</time></trkpt><trkpt lat="44.48175142342696" lon="7.931873721904565"><ele>501.0</ele><time>2026-03-23T16:59:46.999Z</time></trkpt><trkpt lat="44.48180522478704" lon="7.93195832073455"><ele>501.0</ele><time>2026-03-23T16:59:47.999Z</time></trkpt><trkpt lat="44.48185212135647" lon="7.932047115903101"><ele>501.0</ele><time>2026-03-23T16:59:48.999Z</time></trkpt><trkpt lat="44.48189973302296" lon="7.932146822264353"><ele>500.5</ele><time>2026-03-23T16:59:49.999Z</time></trkpt><trkpt lat="44.481936229958734" lon="7.932236957054505"><ele>500.0</ele><time>2026-03-23T16:59:50.999Z</time></trkpt><trkpt lat="44.481974370468485" lon="7.932339935851769"><ele>499.5</ele><time>2026-03-23T16:59:51.999Z</time></trkpt><trkpt lat="44.48201559030645" lon="7.932453652362781"><ele>499.0</ele><time>2026-03-23T16:59:52.999Z</time></trkpt><trkpt lat="44.48205323175957" lon="7.932559940771542"><ele>498.5</ele><time>2026-03-23T16:59:53.999Z</time></trkpt><trkpt lat="44.48208595171559" lon="7.932666712095573"><ele>498.0</ele><time>2026-03-23T16:59:54.999Z</time></trkpt><trkpt lat="44.482123759872565" lon="7.932783877307105"><ele>497.6666666666667</ele><time>2026-03-23T16:59:55.999Z</time></trkpt><trkpt lat="44.48216326326838" lon="7.932884862284455"><ele>497.33333333333337</ele><time>2026-03-23T16:59:56.999Z</time></trkpt><trkpt lat="44.48219832786545" lon="7.933001321647323"><ele>497.0</ele><time>2026-03-23T16:59:57.999Z</time></trkpt><trkpt lat="44.48222570591538" lon="7.933104726702517"><ele>496.6666666666667</ele><time>2026-03-23T16:59:58.999Z</time></trkpt><trkpt lat="44.482269762190256" lon="7.93321694955335"><ele>496.33333333333337</ele><time>2026-03-23T16:59:59.999Z</time></trkpt><trkpt lat="44.48230731013793" lon="7.933336478329023"><ele>496.0</ele><time>2026-03-23T17:00:00.999Z</time></trkpt><trkpt lat="44.48233740838809" lon="7.933459581734134"><ele>496.0</ele><time>2026-03-23T17:00:01.999Z</time></trkpt><trkpt lat="44.48236655745712" lon="7.933577037464928"><ele>496.0</ele><time>2026-03-23T17:00:02.999Z</time></trkpt><trkpt lat="44.482389026297746" lon="7.933698435259626"><ele>496.0</ele><time>2026-03-23T17:00:03.999Z</time></trkpt><trkpt lat="44.48241546211261" lon="7.933826435188347"><ele>496.0</ele><time>2026-03-23T17:00:04.999Z</time></trkpt><trkpt lat="44.48244948770478" lon="7.933964282024314"><ele>496.0</ele><time>2026-03-23T17:00:05.999Z</time></trkpt><trkpt lat="44.482503687926" lon="7.934076093282677"><ele>496.00000000000006</ele><time>2026-03-23T17:00:06.999Z</time></trkpt><trkpt lat="44.482541979770495" lon="7.9341758234643605"><ele>496.0</ele><time>2026-03-23T17:00:07.999Z</time></trkpt><trkpt lat="44.48255734582645" lon="7.934268070494454"><ele>496.0</ele><time>2026-03-23T17:00:08.999Z</time></trkpt><trkpt lat="44.4825812830963" lon="7.934375747495386"><ele>496.0</ele><time>2026-03-23T17:00:09.999Z</time></trkpt><trkpt lat="44.482600329980905" lon="7.934494249219816"><ele>496.00000000000006</ele><time>2026-03-23T17:00:10.999Z</time></trkpt><trkpt lat="44.48261236267827" lon="7.934613997169298"><ele>496.0</ele><time>2026-03-23T17:00:11.999Z</time></trkpt><trkpt lat="44.48261934142605" lon="7.934740982311631"><ele>496.50000000000006</ele><time>2026-03-23T17:00:12.999Z</time></trkpt><trkpt lat="44.482615545579655" lon="7.93487547211029"><ele>497.0</ele><time>2026-03-23T17:00:13.999Z</time></trkpt><trkpt lat="44.482627216234874" lon="7.9350223832282385"><ele>497.5</ele><time>2026-03-23T17:00:14.999Z</time></trkpt><trkpt lat="44.48262990065373" lon="7.935128431260989"><ele>498.0</ele><time>2026-03-23T17:00:15.999Z</time></trkpt><trkpt lat="44.4826296486912" lon="7.935245438110513"><ele>498.50000000000006</ele><time>2026-03-23T17:00:16.999Z</time></trkpt><trkpt lat="44.48264046153107" lon="7.9353690193635"><ele>499.0</ele><time>2026-03-23T17:00:17.999Z</time></trkpt><trkpt lat="44.48266528096452" lon="7.93549296429691"><ele>499.2</ele><time>2026-03-23T17:00:18.999Z</time></trkpt><trkpt lat="44.48269881681108" lon="7.935611449813718"><ele>499.4</ele><time>2026-03-23T17:00:19.999Z</time></trkpt><trkpt lat="44.4827485263583" lon="7.935728628941592"><ele>499.6</ele><time>2026-03-23T17:00:20.999Z</time></trkpt><trkpt lat="44.482804970436774" lon="7.935839133449352"><ele>499.8</ele><time>2026-03-23T17:00:21.999Z</time></trkpt><trkpt lat="44.48286168145896" lon="7.935950315791929"><ele>500.0</ele><time>2026-03-23T17:00:22.999Z</time></trkpt><trkpt lat="44.4829255212505" lon="7.93607309507577"><ele>500.6</ele><time>2026-03-23T17:00:23.999Z</time></trkpt><trkpt lat="44.48299521677989" lon="7.936191574907874"><ele>501.2</ele><time>2026-03-23T17:00:24.999Z</time></trkpt><trkpt lat="44.483064407390074" lon="7.936306763739698"><ele>501.79999999999995</ele><time>2026-03-23T17:00:25.999Z</time></trkpt><trkpt lat="44.48313071545352" lon="7.936411003226271"><ele>502.4</ele><time>2026-03-23T17:00:26.999Z</time></trkpt><trkpt lat="44.48320056773903" lon="7.9365136561140766"><ele>503.0</ele><time>2026-03-23T17:00:27.999Z</time></trkpt><trkpt lat="44.48327938253261" lon="7.936617356679409"><ele>503.0</ele><time>2026-03-23T17:00:28.999Z</time></trkpt><trkpt lat="44.483355554457205" lon="7.936711596348381"><ele>503.0</ele><time>2026-03-23T17:00:29.999Z</time></trkpt><trkpt lat="44.483431948895166" lon="7.936835901453533"><ele>503.0</ele><time>2026-03-23T17:00:30.999Z</time></trkpt><trkpt lat="44.48351117131612" lon="7.936976634953543"><ele>503.0</ele><time>2026-03-23T17:00:31.999Z</time></trkpt><trkpt lat="44.48359738296414" lon="7.937125690907897"><ele>503.0</ele><time>2026-03-23T17:00:32.999Z</time></trkpt><trkpt lat="44.48366042755265" lon="7.937281333073208"><ele>503.0</ele><time>2026-03-23T17:00:33.999Z</time></trkpt><trkpt lat="44.483744166683266" lon="7.937442698806508"><ele>503.0</ele><time>2026-03-23T17:00:34.999Z</time></trkpt><trkpt lat="44.483821112163945" lon="7.937621293404077"><ele>503.0</ele><time>2026-03-23T17:00:35.999Z</time></trkpt><trkpt lat="44.483908807704054" lon="7.937809457244924"><ele>503.0</ele><time>2026-03-23T17:00:36.998Z</time></trkpt><trkpt lat="44.483991562992564" lon="7.937978285633185"><ele>503.0</ele><time>2026-03-23T17:00:37.998Z</time></trkpt><trkpt lat="44.484076531381085" lon="7.938135528867272"><ele>503.0</ele><time>2026-03-23T17:00:38.998Z</time></trkpt><trkpt lat="44.4841570210149" lon="7.938321180337045"><ele>503.0</ele><time>2026-03-23T17:00:39.998Z</time></trkpt><trkpt lat="44.48423348299131" lon="7.938493132434096"><ele>502.0</ele><time>2026-03-23T17:00:40.998Z</time></trkpt><trkpt lat="44.48430568790105" lon="7.938673316308362"><ele>501.0</ele><time>2026-03-23T17:00:41.998Z</time></trkpt><trkpt lat="44.4843715590522" lon="7.938863367197322"><ele>500.0</ele><time>2026-03-23T17:00:42.998Z</time></trkpt><trkpt lat="44.484435647368116" lon="7.939060216683188"><ele>497.66666666666663</ele><time>2026-03-23T17:00:43.998Z</time></trkpt><trkpt lat="44.48449094028719" lon="7.939256275564303"><ele>495.33333333333337</ele><time>2026-03-23T17:00:44.998Z</time></trkpt><trkpt lat="44.48453017144373" lon="7.939465524023515"><ele>493.0</ele><time>2026-03-23T17:00:45.998Z</time></trkpt><trkpt lat="44.48457189482165" lon="7.939685557937109"><ele>500.33333333333337</ele><time>2026-03-23T17:00:46.998Z</time></trkpt><trkpt lat="44.484608297024884" lon="7.9399053473337995"><ele>507.66666666666663</ele><time>2026-03-23T17:00:47.998Z</time></trkpt><trkpt lat="44.48464519055299" lon="7.940137252542103"><ele>515.0</ele><time>2026-03-23T17:00:48.998Z</time></trkpt><trkpt lat="44.484683117031" lon="7.940369340897097"><ele>516.3333333333333</ele><time>2026-03-23T17:00:49.998Z</time></trkpt><trkpt lat="44.48472077454618" lon="7.940607616244022"><ele>517.6666666666666</ele><time>2026-03-23T17:00:50.998Z</time></trkpt><trkpt lat="44.48475617115517" lon="7.940838775339821"><ele>519.0</ele><time>2026-03-23T17:00:51.998Z</time></trkpt><trkpt lat="44.484788338247" lon="7.941048080219235"><ele>519.25</ele><time>2026-03-23T17:00:52.998Z</time></trkpt><trkpt lat="44.48480347618365" lon="7.941239567594111"><ele>519.5</ele><time>2026-03-23T17:00:53.998Z</time></trkpt><trkpt lat="44.48483362319478" lon="7.941423752182628"><ele>519.75</ele><time>2026-03-23T17:00:54.998Z</time></trkpt><trkpt lat="44.484860324128604" lon="7.941617280313118"><ele>520.0</ele><time>2026-03-23T17:00:55.998Z</time></trkpt><trkpt lat="44.484885357594614" lon="7.941820317947639"><ele>521.3333333333334</ele><time>2026-03-23T17:00:56.998Z</time></trkpt><trkpt lat="44.48490185652482" lon="7.942028177538329"><ele>522.6666666666666</ele><time>2026-03-23T17:00:57.998Z</time></trkpt><trkpt lat="44.484885348170735" lon="7.942243998381772"><ele>524.0</ele><time>2026-03-23T17:00:58.998Z</time></trkpt><trkpt lat="44.48485872273467" lon="7.942461300972366"><ele>524.6666666666666</ele><time>2026-03-23T17:00:59.998Z</time></trkpt><trkpt lat="44.48484614426538" lon="7.942684322044267"><ele>525.3333333333334</ele><time>2026-03-23T17:01:00.998Z</time></trkpt><trkpt lat="44.48481318236491" lon="7.94289863850094"><ele>526.0</ele><time>2026-03-23T17:01:01.998Z</time></trkpt><trkpt lat="44.48478610267245" lon="7.943119658683626"><ele>526.0</ele><time>2026-03-23T17:01:02.998Z</time></trkpt><trkpt lat="44.48476110489786" lon="7.943343947378123"><ele>526.0</ele><time>2026-03-23T17:01:03.998Z</time></trkpt><trkpt lat="44.48473903877647" lon="7.943569070132709"><ele>526.0</ele><time>2026-03-23T17:01:04.998Z</time></trkpt><trkpt lat="44.48471595224519" lon="7.943784582349947"><ele>525.0</ele><time>2026-03-23T17:01:06Z</time></trkpt><trkpt lat="44.484698081925444" lon="7.943973081000463"><ele>524.0</ele><time>2026-03-23T17:01:07Z</time></trkpt><trkpt lat="44.484682230900255" lon="7.944140099754143"><ele>523.0</ele><time>2026-03-23T17:01:08Z</time></trkpt><trkpt lat="44.4846598768053" lon="7.944294955041437"><ele>522.0</ele><time>2026-03-23T17:01:09Z</time></trkpt><trkpt lat="44.48462956943841" lon="7.94443563236463"><ele>520.8333333333334</ele><time>2026-03-23T17:01:10Z</time></trkpt><trkpt lat="44.48461831774277" lon="7.944553287789137"><ele>519.6666666666666</ele><time>2026-03-23T17:01:11Z</time></trkpt><trkpt lat="44.48461308414989" lon="7.94465161566692"><ele>518.5</ele><time>2026-03-23T17:01:12Z</time></trkpt><trkpt lat="44.48460204056153" lon="7.944765934788221"><ele>517.3333333333333</ele><time>2026-03-23T17:01:13Z</time></trkpt><trkpt lat="44.48457758752156" lon="7.9448706398571005"><ele>516.1666666666666</ele><time>2026-03-23T17:01:14Z</time></trkpt><trkpt lat="44.48453510368663" lon="7.944964817417535"><ele>515.0</ele><time>2026-03-23T17:01:15Z</time></trkpt><trkpt lat="44.484471832266394" lon="7.945016505272956"><ele>518.5</ele><time>2026-03-23T17:01:16Z</time></trkpt><trkpt lat="44.48439799325621" lon="7.945061187132332"><ele>522.0</ele><time>2026-03-23T17:01:17Z</time></trkpt><trkpt lat="44.484312176452875" lon="7.945047286084203"><ele>525.5</ele><time>2026-03-23T17:01:18Z</time></trkpt><trkpt lat="44.484227020329286" lon="7.945071429654884"><ele>529.0</ele><time>2026-03-23T17:01:19Z</time></trkpt><trkpt lat="44.48413379977005" lon="7.945075758318572"><ele>532.5</ele><time>2026-03-23T17:01:20Z</time></trkpt><trkpt lat="44.48403868808528" lon="7.945096738349586"><ele>536.0</ele><time>2026-03-23T17:01:21Z</time></trkpt><trkpt lat="44.48393554784863" lon="7.945135657209222"><ele>536.0</ele><time>2026-03-23T17:01:22Z</time></trkpt><trkpt lat="44.48383921106242" lon="7.945166155364621"><ele>536.0</ele><time>2026-03-23T17:01:23Z</time></trkpt><trkpt lat="44.48374851476176" lon="7.945186539029969"><ele>536.0</ele><time>2026-03-23T17:01:24Z</time></trkpt><trkpt lat="44.483654908019176" lon="7.945187596875186"><ele>536.0</ele><time>2026-03-23T17:01:25Z</time></trkpt><trkpt lat="44.4835589690127" lon="7.945165058887988"><ele>536.0</ele><time>2026-03-23T17:01:26Z</time></trkpt><trkpt lat="44.48346329551565" lon="7.94511059151081"><ele>536.25</ele><time>2026-03-23T17:01:27Z</time></trkpt><trkpt lat="44.483366518345626" lon="7.945042552032889"><ele>536.5</ele><time>2026-03-23T17:01:28Z</time></trkpt><trkpt lat="44.48326223287235" lon="7.944962358664297"><ele>536.75</ele><time>2026-03-23T17:01:29Z</time></trkpt><trkpt lat="44.483152970037104" lon="7.944880859959953"><ele>537.0</ele><time>2026-03-23T17:01:30Z</time></trkpt><trkpt lat="44.483066219137896" lon="7.944811673886865"><ele>537.0</ele><time>2026-03-23T17:01:31Z</time></trkpt><trkpt lat="44.48297741681657" lon="7.944749562498569"><ele>537.0</ele><time>2026-03-23T17:01:32Z</time></trkpt><trkpt lat="44.48288330025839" lon="7.944702462252943"><ele>537.0</ele><time>2026-03-23T17:01:33Z</time></trkpt><trkpt lat="44.48279933157902" lon="7.9446931654463935"><ele>537.0</ele><time>2026-03-23T17:01:34Z</time></trkpt><trkpt lat="44.482732103488665" lon="7.944684652290348"><ele>537.0</ele><time>2026-03-23T17:01:35Z</time></trkpt><trkpt lat="44.482633051844296" lon="7.944828410228459"><ele>537.0</ele><time>2026-03-23T17:01:37Z</time></trkpt><trkpt lat="44.48260855592252" lon="7.9449347688253535"><ele>537.0</ele><time>2026-03-23T17:01:38Z</time></trkpt><trkpt lat="44.482601186623654" lon="7.945054248627439"><ele>537.0</ele><time>2026-03-23T17:01:39Z</time></trkpt><trkpt lat="44.48261637937075" lon="7.945181575805031"><ele>537.0</ele><time>2026-03-23T17:01:40Z</time></trkpt><trkpt lat="44.482645700330295" lon="7.945314290894541"><ele>537.0</ele><time>2026-03-23T17:01:41Z</time></trkpt><trkpt lat="44.482667145371174" lon="7.945447931351819"><ele>536.6</ele><time>2026-03-23T17:01:42Z</time></trkpt><trkpt lat="44.48269534066907" lon="7.945594843340842"><ele>536.2</ele><time>2026-03-23T17:01:43Z</time></trkpt><trkpt lat="44.48271770432063" lon="7.945743195307675"><ele>535.8</ele><time>2026-03-23T17:01:44Z</time></trkpt><trkpt lat="44.48274365231095" lon="7.945883565637245"><ele>535.4</ele><time>2026-03-23T17:01:45Z</time></trkpt><trkpt lat="44.48277129660424" lon="7.946004021996572"><ele>535.0</ele><time>2026-03-23T17:01:46Z</time></trkpt><trkpt lat="44.48281688032727" lon="7.946118521559637"><ele>535.0</ele><time>2026-03-23T17:01:47Z</time></trkpt><trkpt lat="44.48288353806951" lon="7.946236869250106"><ele>535.0</ele><time>2026-03-23T17:01:47.999Z</time></trkpt><trkpt lat="44.48296085206291" lon="7.946364479223445"><ele>535.0</ele><time>2026-03-23T17:01:48.999Z</time></trkpt><trkpt lat="44.48302934058222" lon="7.946500290548519"><ele>535.0</ele><time>2026-03-23T17:01:49.999Z</time></trkpt><trkpt lat="44.48311038392877" lon="7.946641461435562"><ele>539.25</ele><time>2026-03-23T17:01:50.999Z</time></trkpt><trkpt lat="44.48319607871059" lon="7.946786051763022"><ele>543.5</ele><time>2026-03-23T17:01:51.999Z</time></trkpt><trkpt lat="44.48327842179819" lon="7.9469435144358735"><ele>547.75</ele><time>2026-03-23T17:01:52.999Z</time></trkpt><trkpt lat="44.483354273815095" lon="7.9471030837739915"><ele>552.0</ele><time>2026-03-23T17:01:53.999Z</time></trkpt><trkpt lat="44.48343248140669" lon="7.947253153899418"><ele>552.0</ele><time>2026-03-23T17:01:54.999Z</time></trkpt><trkpt lat="44.48350808762038" lon="7.947420147043826"><ele>552.0</ele><time>2026-03-23T17:01:55.999Z</time></trkpt><trkpt lat="44.48358312058967" lon="7.947588531865987"><ele>552.0</ele><time>2026-03-23T17:01:56.999Z</time></trkpt><trkpt lat="44.48366750505766" lon="7.9477409957157015"><ele>552.0</ele><time>2026-03-23T17:01:57.999Z</time></trkpt><trkpt lat="44.4837586046974" lon="7.947883406786321"><ele>554.5</ele><time>2026-03-23T17:01:58.999Z</time></trkpt><trkpt lat="44.48386023241012" lon="7.948018426394858"><ele>557.0</ele><time>2026-03-23T17:01:59.999Z</time></trkpt><trkpt lat="44.48396214938702" lon="7.948141828441083"><ele>559.5</ele><time>2026-03-23T17:02:00.999Z</time></trkpt><trkpt lat="44.48404599691915" lon="7.948241289197394"><ele>562.0</ele><time>2026-03-23T17:02:01.999Z</time></trkpt><trkpt lat="44.48411282549009" lon="7.948328825775651"><ele>562.3333333333334</ele><time>2026-03-23T17:02:02.999Z</time></trkpt><trkpt lat="44.48416890054693" lon="7.94843157916238"><ele>562.6666666666667</ele><time>2026-03-23T17:02:03.999Z</time></trkpt><trkpt lat="44.4842060314099" lon="7.948530068825628"><ele>563.0</ele><time>2026-03-23T17:02:04.999Z</time></trkpt><trkpt lat="44.48421944370533" lon="7.948644483329893"><ele>563.3333333333334</ele><time>2026-03-23T17:02:05.999Z</time></trkpt><trkpt lat="44.48422589365958" lon="7.948759321259903"><ele>563.6666666666666</ele><time>2026-03-23T17:02:06.999Z</time></trkpt><trkpt lat="44.484207051835064" lon="7.9488748714037385"><ele>564.0</ele><time>2026-03-23T17:02:07.999Z</time></trkpt><trkpt lat="44.48416715978643" lon="7.949003592282195"><ele>564.0</ele><time>2026-03-23T17:02:08.999Z</time></trkpt><trkpt lat="44.484090457437134" lon="7.949113953111386"><ele>564.0</ele><time>2026-03-23T17:02:09.999Z</time></trkpt><trkpt lat="44.484016041357435" lon="7.949239114246696"><ele>564.0</ele><time>2026-03-23T17:02:10.999Z</time></trkpt><trkpt lat="44.48395889433834" lon="7.949383772058072"><ele>564.0</ele><time>2026-03-23T17:02:11.999Z</time></trkpt><trkpt lat="44.483891798276105" lon="7.949523388364409"><ele>563.75</ele><time>2026-03-23T17:02:12.999Z</time></trkpt><trkpt lat="44.483812033010366" lon="7.949685505842668"><ele>563.5</ele><time>2026-03-23T17:02:13.999Z</time></trkpt><trkpt lat="44.483752168567456" lon="7.949850777287335"><ele>563.25</ele><time>2026-03-23T17:02:14.999Z</time></trkpt><trkpt lat="44.48370293894586" lon="7.94999101204893"><ele>563.0</ele><time>2026-03-23T17:02:15.999Z</time></trkpt><trkpt lat="44.483663981941746" lon="7.950138352994602"><ele>564.25</ele><time>2026-03-23T17:02:16.999Z</time></trkpt><trkpt lat="44.483606079415765" lon="7.950279179393741"><ele>565.5</ele><time>2026-03-23T17:02:17.999Z</time></trkpt><trkpt lat="44.48352557237329" lon="7.950394504649431"><ele>566.75</ele><time>2026-03-23T17:02:18.999Z</time></trkpt><trkpt lat="44.48344578214585" lon="7.950505524483098"><ele>568.0</ele><time>2026-03-23T17:02:19.999Z</time></trkpt><trkpt lat="44.48334403427787" lon="7.950605065427193"><ele>568.0</ele><time>2026-03-23T17:02:20.999Z</time></trkpt><trkpt lat="44.483231697693924" lon="7.9507006845778925"><ele>568.0</ele><time>2026-03-23T17:02:21.999Z</time></trkpt><trkpt lat="44.48311233716744" lon="7.950787333324952"><ele>568.0</ele><time>2026-03-23T17:02:22.999Z</time></trkpt><trkpt lat="44.48299388381538" lon="7.950879119988952"><ele>568.0</ele><time>2026-03-23T17:02:23.999Z</time></trkpt><trkpt lat="44.482872803914745" lon="7.950920997543269"><ele>568.0</ele><time>2026-03-23T17:02:24.999Z</time></trkpt><trkpt lat="44.48274239123504" lon="7.9509476730128394"><ele>568.0</ele><time>2026-03-23T17:02:25.999Z</time></trkpt><trkpt lat="44.482604031168954" lon="7.950957375320129"><ele>568.0</ele><time>2026-03-23T17:02:26.999Z</time></trkpt><trkpt lat="44.48246440517613" lon="7.950948221717893"><ele>568.0</ele><time>2026-03-23T17:02:27.999Z</time></trkpt><trkpt lat="44.48231016955819" lon="7.9509399344488605"><ele>568.0</ele><time>2026-03-23T17:02:28.999Z</time></trkpt><trkpt lat="44.48216077026943" lon="7.950920074250745"><ele>568.0</ele><time>2026-03-23T17:02:29.999Z</time></trkpt><trkpt lat="44.48203149651071" lon="7.950891827835714"><ele>568.0</ele><time>2026-03-23T17:02:30.999Z</time></trkpt><trkpt lat="44.48190634522694" lon="7.950861233402017"><ele>568.0</ele><time>2026-03-23T17:02:31.999Z</time></trkpt><trkpt lat="44.48179746734149" lon="7.950845845286769"><ele>568.0</ele><time>2026-03-23T17:02:32.999Z</time></trkpt><trkpt lat="44.481692594128674" lon="7.950838342012762"><ele>568.0</ele><time>2026-03-23T17:02:33.999Z</time></trkpt><trkpt lat="44.48159962292736" lon="7.950835704413582"><ele>568.0</ele><time>2026-03-23T17:02:34.999Z</time></trkpt><trkpt lat="44.48151025544312" lon="7.950844147500139"><ele>568.0</ele><time>2026-03-23T17:02:35.999Z</time></trkpt><trkpt lat="44.481416768372476" lon="7.950859594189153"><ele>568.0</ele><time>2026-03-23T17:02:36.999Z</time></trkpt><trkpt lat="44.48132223141468" lon="7.950886018628369"><ele>570.6666666666667</ele><time>2026-03-23T17:02:37.999Z</time></trkpt><trkpt lat="44.48122816186821" lon="7.950915263294395"><ele>573.3333333333334</ele><time>2026-03-23T17:02:38.999Z</time></trkpt><trkpt lat="44.48114943376565" lon="7.950963906734237"><ele>576.0</ele><time>2026-03-23T17:02:39.999Z</time></trkpt><trkpt lat="44.48107370451357" lon="7.951022399698194"><ele>578.6666666666666</ele><time>2026-03-23T17:02:40.999Z</time></trkpt><trkpt lat="44.48100484857413" lon="7.951080154501721"><ele>581.3333333333333</ele><time>2026-03-23T17:02:41.999Z</time></trkpt><trkpt lat="44.48093716614492" lon="7.951167012654051"><ele>584.0</ele><time>2026-03-23T17:02:42.999Z</time></trkpt><trkpt lat="44.480861480462245" lon="7.951267040103848"><ele>584.0</ele><time>2026-03-23T17:02:43.998Z</time></trkpt><trkpt lat="44.4807749601907" lon="7.951377633228907"><ele>584.0</ele><time>2026-03-23T17:02:44.998Z</time></trkpt><trkpt lat="44.4806891626743" lon="7.951492972790061"><ele>584.0</ele><time>2026-03-23T17:02:45.998Z</time></trkpt><trkpt lat="44.48060360688985" lon="7.95162321692113"><ele>584.0</ele><time>2026-03-23T17:02:46.998Z</time></trkpt><trkpt lat="44.480516748579596" lon="7.9517460386392775"><ele>583.8</ele><time>2026-03-23T17:02:47.998Z</time></trkpt><trkpt lat="44.48043543600629" lon="7.951852514504953"><ele>583.5999999999999</ele><time>2026-03-23T17:02:48.998Z</time></trkpt><trkpt lat="44.48035934081548" lon="7.9519490191069675"><ele>583.4</ele><time>2026-03-23T17:02:49.998Z</time></trkpt><trkpt lat="44.48028839994756" lon="7.9520345992957475"><ele>583.1999999999999</ele><time>2026-03-23T17:02:50.998Z</time></trkpt><trkpt lat="44.48020737240099" lon="7.952108796501277"><ele>583.0</ele><time>2026-03-23T17:02:51.998Z</time></trkpt><trkpt lat="44.4800968748736" lon="7.952170064507844"><ele>583.0</ele><time>2026-03-23T17:02:52.998Z</time></trkpt><trkpt lat="44.47996891688945" lon="7.952202370200428"><ele>583.0</ele><time>2026-03-23T17:02:53.998Z</time></trkpt><trkpt lat="44.47983496536917" lon="7.952217063840452"><ele>583.0</ele><time>2026-03-23T17:02:54.998Z</time></trkpt><trkpt lat="44.4797069058808" lon="7.952254415608374"><ele>583.0</ele><time>2026-03-23T17:02:55.998Z</time></trkpt><trkpt lat="44.47958758244661" lon="7.952305847203241"><ele>585.25</ele><time>2026-03-23T17:02:56.998Z</time></trkpt><trkpt lat="44.47945664358617" lon="7.952396070328594"><ele>587.5</ele><time>2026-03-23T17:02:57.998Z</time></trkpt><trkpt lat="44.479344679240164" lon="7.95246938342634"><ele>589.75</ele><time>2026-03-23T17:02:58.998Z</time></trkpt><trkpt lat="44.47924051562995" lon="7.952527698219418"><ele>592.0</ele><time>2026-03-23T17:02:59.998Z</time></trkpt><trkpt lat="44.479146229120545" lon="7.952590059830272"><ele>589.4</ele><time>2026-03-23T17:03:00.998Z</time></trkpt><trkpt lat="44.479046490752026" lon="7.952639972442596"><ele>586.8000000000001</ele><time>2026-03-23T17:03:01.998Z</time></trkpt><trkpt lat="44.47895266299567" lon="7.952651516958305"><ele>584.2</ele><time>2026-03-23T17:03:02.998Z</time></trkpt><trkpt lat="44.478872072111926" lon="7.95268318907428"><ele>581.6</ele><time>2026-03-23T17:03:03.998Z</time></trkpt><trkpt lat="44.478789352670184" lon="7.952664309026495"><ele>579.0</ele><time>2026-03-23T17:03:04.998Z</time></trkpt><trkpt lat="44.478704199695606" lon="7.9526336567665155"><ele>579.0</ele><time>2026-03-23T17:03:05.998Z</time></trkpt><trkpt lat="44.478623344323836" lon="7.952565208111979"><ele>579.0</ele><time>2026-03-23T17:03:06.998Z</time></trkpt><trkpt lat="44.47852175885491" lon="7.952515959093221"><ele>579.0</ele><time>2026-03-23T17:03:07.998Z</time></trkpt><trkpt lat="44.47842261722632" lon="7.952497542841395"><ele>579.0</ele><time>2026-03-23T17:03:08.998Z</time></trkpt><trkpt lat="44.478312292560034" lon="7.9525028803576205"><ele>579.0</ele><time>2026-03-23T17:03:09.998Z</time></trkpt><trkpt lat="44.478201255275735" lon="7.952511561226071"><ele>579.0</ele><time>2026-03-23T17:03:10.998Z</time></trkpt><trkpt lat="44.478096930037196" lon="7.952541061480964"><ele>579.0</ele><time>2026-03-23T17:03:12Z</time></trkpt><trkpt lat="44.477980999555534" lon="7.952585373556681"><ele>579.0</ele><time>2026-03-23T17:03:13Z</time></trkpt><trkpt lat="44.477859151161134" lon="7.952638020941209"><ele>579.0</ele><time>2026-03-23T17:03:14Z</time></trkpt><trkpt lat="44.47772661953914" lon="7.9526983692115705"><ele>581.25</ele><time>2026-03-23T17:03:15Z</time></trkpt><trkpt lat="44.47759443567943" lon="7.952756979134987"><ele>583.5</ele><time>2026-03-23T17:03:16Z</time></trkpt><trkpt lat="44.477465402512756" lon="7.952816671122369"><ele>585.75</ele><time>2026-03-23T17:03:17Z</time></trkpt><trkpt lat="44.47735748574536" lon="7.952883100193141"><ele>588.0</ele><time>2026-03-23T17:03:18Z</time></trkpt><trkpt lat="44.4772549768667" lon="7.95294408701951"><ele>588.0</ele><time>2026-03-23T17:03:19Z</time></trkpt><trkpt lat="44.47715042457326" lon="7.953030826844398"><ele>588.0</ele><time>2026-03-23T17:03:20Z</time></trkpt><trkpt lat="44.477049560956054" lon="7.95309383509361"><ele>588.0</ele><time>2026-03-23T17:03:21Z</time></trkpt><trkpt lat="44.47694409392505" lon="7.953173604846003"><ele>588.0</ele><time>2026-03-23T17:03:22Z</time></trkpt><trkpt lat="44.476835745369655" lon="7.953253755554333"><ele>588.5</ele><time>2026-03-23T17:03:23Z</time></trkpt><trkpt lat="44.476725638215676" lon="7.953345387478987"><ele>589.0</ele><time>2026-03-23T17:03:24Z</time></trkpt><trkpt lat="44.47662859070676" lon="7.953437238537366"><ele>589.5</ele><time>2026-03-23T17:03:25Z</time></trkpt><trkpt lat="44.47653877655031" lon="7.953515210020251"><ele>590.0</ele><time>2026-03-23T17:03:26Z</time></trkpt><trkpt lat="44.476448624235964" lon="7.953609216187908"><ele>590.0</ele><time>2026-03-23T17:03:27Z</time></trkpt><trkpt lat="44.47635383958491" lon="7.953700592333414"><ele>590.0</ele><time>2026-03-23T17:03:28Z</time></trkpt><trkpt lat="44.47625059250523" lon="7.953758234678446"><ele>590.0</ele><time>2026-03-23T17:03:29Z</time></trkpt><trkpt lat="44.47616925547436" lon="7.953841631333306"><ele>590.0</ele><time>2026-03-23T17:03:30Z</time></trkpt><trkpt lat="44.476098742305254" lon="7.95389424495012"><ele>590.0</ele><time>2026-03-23T17:03:31Z</time></trkpt><trkpt lat="44.47601825408265" lon="7.953939088783623"><ele>593.1666666666666</ele><time>2026-03-23T17:03:32Z</time></trkpt><trkpt lat="44.47593422983792" lon="7.953979398126757"><ele>596.3333333333333</ele><time>2026-03-23T17:03:33Z</time></trkpt><trkpt lat="44.475850482757174" lon="7.954002709585341"><ele>599.5</ele><time>2026-03-23T17:03:34Z</time></trkpt><trkpt lat="44.47576306060283" lon="7.954011831021562"><ele>602.6666666666666</ele><time>2026-03-23T17:03:35Z</time></trkpt><trkpt lat="44.475676906706624" lon="7.954011210655287"><ele>605.8333333333334</ele><time>2026-03-23T17:03:36Z</time></trkpt><trkpt lat="44.47559924296162" lon="7.953957874971691"><ele>609.0</ele><time>2026-03-23T17:03:37Z</time></trkpt><trkpt lat="44.47554317482951" lon="7.953909717517908"><ele>609.0</ele><time>2026-03-23T17:03:38Z</time></trkpt><trkpt lat="44.475488319856744" lon="7.953835290830413"><ele>609.0</ele><time>2026-03-23T17:03:39Z</time></trkpt><trkpt lat="44.47542252509461" lon="7.953744554189615"><ele>609.0</ele><time>2026-03-23T17:03:40Z</time></trkpt><trkpt lat="44.47536078431879" lon="7.953625818313371"><ele>609.0</ele><time>2026-03-23T17:03:41Z</time></trkpt><trkpt lat="44.47528666382692" lon="7.953487634743153"><ele>609.0</ele><time>2026-03-23T17:03:42Z</time></trkpt><trkpt lat="44.475199077826886" lon="7.953326120249857"><ele>608.0</ele><time>2026-03-23T17:03:43Z</time></trkpt><trkpt lat="44.47512211282741" lon="7.953184588239432"><ele>607.0</ele><time>2026-03-23T17:03:44Z</time></trkpt><trkpt lat="44.475049014865434" lon="7.9530501673483585"><ele>606.0</ele><time>2026-03-23T17:03:45Z</time></trkpt><trkpt lat="44.474973843765724" lon="7.952918261728995"><ele>605.0</ele><time>2026-03-23T17:03:46Z</time></trkpt><trkpt lat="44.47489526719095" lon="7.952811376770114"><ele>605.0</ele><time>2026-03-23T17:03:47Z</time></trkpt><trkpt lat="44.47482380402318" lon="7.952684342586882"><ele>605.0</ele><time>2026-03-23T17:03:48Z</time></trkpt><trkpt lat="44.47474183386299" lon="7.952558820327613"><ele>605.0</ele><time>2026-03-23T17:03:49Z</time></trkpt><trkpt lat="44.47464857999287" lon="7.952442968751044"><ele>605.0</ele><time>2026-03-23T17:03:50Z</time></trkpt><trkpt lat="44.4745533409144" lon="7.95233872741248"><ele>602.25</ele><time>2026-03-23T17:03:51Z</time></trkpt><trkpt lat="44.4744569396493" lon="7.952243672149905"><ele>599.5</ele><time>2026-03-23T17:03:52Z</time></trkpt><trkpt lat="44.474365478655216" lon="7.952158910785406"><ele>596.75</ele><time>2026-03-23T17:03:53Z</time></trkpt><trkpt lat="44.47426372181172" lon="7.9520648947609835"><ele>594.0</ele><time>2026-03-23T17:03:53.999Z</time></trkpt><trkpt lat="44.47416098043134" lon="7.951969311835036"><ele>594.0</ele><time>2026-03-23T17:03:54.999Z</time></trkpt><trkpt lat="44.474063187020434" lon="7.951880802028791"><ele>594.0</ele><time>2026-03-23T17:03:55.999Z</time></trkpt><trkpt lat="44.47396529587903" lon="7.951795909774568"><ele>594.0</ele><time>2026-03-23T17:03:56.999Z</time></trkpt><trkpt lat="44.473867148188596" lon="7.951710758382321"><ele>594.0</ele><time>2026-03-23T17:03:57.999Z</time></trkpt><trkpt lat="44.47377353298435" lon="7.951622162170064"><ele>593.75</ele><time>2026-03-23T17:03:58.999Z</time></trkpt><trkpt lat="44.47367847950494" lon="7.951542404802689"><ele>593.5</ele><time>2026-03-23T17:03:59.999Z</time></trkpt><trkpt lat="44.47358226820489" lon="7.951471679392427"><ele>593.25</ele><time>2026-03-23T17:04:00.999Z</time></trkpt><trkpt lat="44.473484946886686" lon="7.95139416964674"><ele>593.0</ele><time>2026-03-23T17:04:01.999Z</time></trkpt><trkpt lat="44.47337550870601" lon="7.9513272802457235"><ele>593.0</ele><time>2026-03-23T17:04:02.999Z</time></trkpt><trkpt lat="44.473250628466815" lon="7.951268303976108"><ele>593.0</ele><time>2026-03-23T17:04:03.999Z</time></trkpt><trkpt lat="44.4731323594961" lon="7.9512288573717145"><ele>593.0</ele><time>2026-03-23T17:04:04.999Z</time></trkpt><trkpt lat="44.473012898850605" lon="7.951199409001445"><ele>593.0</ele><time>2026-03-23T17:04:05.999Z</time></trkpt><trkpt lat="44.4729021060905" lon="7.9511660025549125"><ele>590.25</ele><time>2026-03-23T17:04:06.999Z</time></trkpt><trkpt lat="44.47278005933661" lon="7.951138622549262"><ele>587.5</ele><time>2026-03-23T17:04:07.999Z</time></trkpt><trkpt lat="44.47265243654753" lon="7.951110817727975"><ele>584.75</ele><time>2026-03-23T17:04:08.999Z</time></trkpt><trkpt lat="44.47251425307661" lon="7.951084238129502"><ele>582.0</ele><time>2026-03-23T17:04:09.999Z</time></trkpt><trkpt lat="44.47237843747181" lon="7.9510555534241245"><ele>582.0</ele><time>2026-03-23T17:04:10.999Z</time></trkpt><trkpt lat="44.47224308461828" lon="7.951021549405573"><ele>582.0</ele><time>2026-03-23T17:04:11.999Z</time></trkpt><trkpt lat="44.47210547032425" lon="7.950996844466302"><ele>582.0</ele><time>2026-03-23T17:04:12.999Z</time></trkpt><trkpt lat="44.4719722139854" lon="7.950978805832194"><ele>582.0</ele><time>2026-03-23T17:04:13.999Z</time></trkpt><trkpt lat="44.47183647176892" lon="7.950956247140235"><ele>581.75</ele><time>2026-03-23T17:04:14.999Z</time></trkpt><trkpt lat="44.471693007579624" lon="7.95093165995595"><ele>581.5</ele><time>2026-03-23T17:04:15.999Z</time></trkpt><trkpt lat="44.47154499391889" lon="7.950905504101889"><ele>581.25</ele><time>2026-03-23T17:04:16.999Z</time></trkpt><trkpt lat="44.47140370635649" lon="7.950875559042782"><ele>581.0</ele><time>2026-03-23T17:04:17.999Z</time></trkpt><trkpt lat="44.471273621822625" lon="7.9508482089322134"><ele>581.0</ele><time>2026-03-23T17:04:18.999Z</time></trkpt><trkpt lat="44.471134072073596" lon="7.950815881156803"><ele>581.0</ele><time>2026-03-23T17:04:19.999Z</time></trkpt><trkpt lat="44.47100031148123" lon="7.9507850644244185"><ele>581.0</ele><time>2026-03-23T17:04:20.999Z</time></trkpt><trkpt lat="44.4708686668142" lon="7.950746721783594"><ele>581.0</ele><time>2026-03-23T17:04:21.999Z</time></trkpt><trkpt lat="44.47074327303662" lon="7.95069691339206"><ele>581.0</ele><time>2026-03-23T17:04:22.999Z</time></trkpt><trkpt lat="44.47061938138699" lon="7.950630294207473"><ele>581.0</ele><time>2026-03-23T17:04:23.999Z</time></trkpt><trkpt lat="44.470510663492504" lon="7.950553846866483"><ele>581.0</ele><time>2026-03-23T17:04:24.999Z</time></trkpt><trkpt lat="44.47041028914394" lon="7.950458792842903"><ele>581.0</ele><time>2026-03-23T17:04:25.999Z</time></trkpt><trkpt lat="44.47031326426653" lon="7.950362986853159"><ele>580.8</ele><time>2026-03-23T17:04:26.999Z</time></trkpt><trkpt lat="44.47023166177153" lon="7.950277741268462"><ele>580.6</ele><time>2026-03-23T17:04:27.999Z</time></trkpt><trkpt lat="44.470154066812114" lon="7.950201702702724"><ele>580.4</ele><time>2026-03-23T17:04:28.999Z</time></trkpt><trkpt lat="44.4700782170022" lon="7.950132685383673"><ele>580.2</ele><time>2026-03-23T17:04:29.999Z</time></trkpt><trkpt lat="44.47000384416703" lon="7.950072084678612"><ele>580.0</ele><time>2026-03-23T17:04:30.999Z</time></trkpt><trkpt lat="44.46991442662709" lon="7.95002856745606"><ele>581.8333333333334</ele><time>2026-03-23T17:04:31.999Z</time></trkpt><trkpt lat="44.46982611328126" lon="7.949992845643762"><ele>583.6666666666667</ele><time>2026-03-23T17:04:32.999Z</time></trkpt><trkpt lat="44.46974063436059" lon="7.949969626492694"><ele>585.5</ele><time>2026-03-23T17:04:33.999Z</time></trkpt><trkpt lat="44.46964905061071" lon="7.94995228986159"><ele>587.3333333333334</ele><time>2026-03-23T17:04:34.999Z</time></trkpt><trkpt lat="44.469564020230465" lon="7.949955494285158"><ele>589.1666666666666</ele><time>2026-03-23T17:04:35.999Z</time></trkpt><trkpt lat="44.46948074592856" lon="7.94995586284348"><ele>591.0</ele><time>2026-03-23T17:04:36.999Z</time></trkpt><trkpt lat="44.469411482961064" lon="7.94995589984599"><ele>591.0</ele><time>2026-03-23T17:04:37.999Z</time></trkpt><trkpt lat="44.46934097126375" lon="7.949961142406342"><ele>591.0</ele><time>2026-03-23T17:04:38.999Z</time></trkpt><trkpt lat="44.469272505401285" lon="7.94997256108476"><ele>591.0</ele><time>2026-03-23T17:04:39.999Z</time></trkpt><trkpt lat="44.46915927881889" lon="7.950003867291804"><ele>591.0</ele><time>2026-03-23T17:04:41.999Z</time></trkpt><trkpt lat="44.46903214762314" lon="7.9500625727958845"><ele>591.0</ele><time>2026-03-23T17:04:43.999Z</time></trkpt><trkpt lat="44.46895905274935" lon="7.95009670287813"><ele>589.0</ele><time>2026-03-23T17:04:44.999Z</time></trkpt><trkpt lat="44.46889195366527" lon="7.950131599336331"><ele>587.0</ele><time>2026-03-23T17:04:45.999Z</time></trkpt><trkpt lat="44.468827109739095" lon="7.950159893661763"><ele>585.0</ele><time>2026-03-23T17:04:46.999Z</time></trkpt><trkpt lat="44.46873696698594" lon="7.950203629771771"><ele>583.0</ele><time>2026-03-23T17:04:47.999Z</time></trkpt><trkpt lat="44.46864678240432" lon="7.950242506664582"><ele>581.0</ele><time>2026-03-23T17:04:48.999Z</time></trkpt><trkpt lat="44.468569233310056" lon="7.950271309946906"><ele>579.0</ele><time>2026-03-23T17:04:49.998Z</time></trkpt><trkpt lat="44.46849110879101" lon="7.950302213089312"><ele>579.0</ele><time>2026-03-23T17:04:50.998Z</time></trkpt><trkpt lat="44.46839940151889" lon="7.950343327940232"><ele>579.0</ele><time>2026-03-23T17:04:51.998Z</time></trkpt><trkpt lat="44.46830843383688" lon="7.950384182538808"><ele>579.0</ele><time>2026-03-23T17:04:52.998Z</time></trkpt><trkpt lat="44.468222069485314" lon="7.9504350315855215"><ele>579.0</ele><time>2026-03-23T17:04:53.998Z</time></trkpt><trkpt lat="44.46812478202807" lon="7.950490712647918"><ele>579.0</ele><time>2026-03-23T17:04:54.998Z</time></trkpt><trkpt lat="44.46803367770246" lon="7.950545409801335"><ele>579.0</ele><time>2026-03-23T17:04:55.998Z</time></trkpt><trkpt lat="44.46794643774135" lon="7.950601296589536"><ele>579.0</ele><time>2026-03-23T17:04:56.998Z</time></trkpt><trkpt lat="44.46786057219661" lon="7.950664828724113"><ele>579.0</ele><time>2026-03-23T17:04:57.998Z</time></trkpt><trkpt lat="44.467770278676014" lon="7.950734930133865"><ele>579.0</ele><time>2026-03-23T17:04:58.998Z</time></trkpt><trkpt lat="44.46768384358093" lon="7.9508090660791035"><ele>579.0</ele><time>2026-03-23T17:04:59.998Z</time></trkpt><trkpt lat="44.467593070771684" lon="7.950886386717396"><ele>578.5</ele><time>2026-03-23T17:05:00.998Z</time></trkpt><trkpt lat="44.46750058255873" lon="7.9509694118272405"><ele>578.0</ele><time>2026-03-23T17:05:01.998Z</time></trkpt><trkpt lat="44.46740716071429" lon="7.951060242745339"><ele>577.5</ele><time>2026-03-23T17:05:02.998Z</time></trkpt><trkpt lat="44.467310572924596" lon="7.951158126378493"><ele>577.0</ele><time>2026-03-23T17:05:03.998Z</time></trkpt><trkpt lat="44.46722510368321" lon="7.951252150968887"><ele>577.0</ele><time>2026-03-23T17:05:04.998Z</time></trkpt><trkpt lat="44.467141296590086" lon="7.951339845531747"><ele>577.0</ele><time>2026-03-23T17:05:05.998Z</time></trkpt><trkpt lat="44.467050016819044" lon="7.95143975758385"><ele>577.0</ele><time>2026-03-23T17:05:06.998Z</time></trkpt><trkpt lat="44.46696067660106" lon="7.951521256989507"><ele>577.0</ele><time>2026-03-23T17:05:07.998Z</time></trkpt><trkpt lat="44.46686488175949" lon="7.951602438702427"><ele>577.0</ele><time>2026-03-23T17:05:08.998Z</time></trkpt><trkpt lat="44.466758508165256" lon="7.951687622864364"><ele>576.4</ele><time>2026-03-23T17:05:09.998Z</time></trkpt><trkpt lat="44.4666481118166" lon="7.951753328864792"><ele>575.8000000000001</ele><time>2026-03-23T17:05:10.998Z</time></trkpt><trkpt lat="44.46654855836507" lon="7.951802256876184"><ele>575.2</ele><time>2026-03-23T17:05:11.998Z</time></trkpt><trkpt lat="44.46646335143456" lon="7.951851537931502"><ele>574.6</ele><time>2026-03-23T17:05:12.998Z</time></trkpt><trkpt lat="44.466373580293066" lon="7.951869887936766"><ele>574.0</ele><time>2026-03-23T17:05:13.998Z</time></trkpt><trkpt lat="44.4662754719369" lon="7.951875994844521"><ele>573.8</ele><time>2026-03-23T17:05:14.998Z</time></trkpt><trkpt lat="44.46617639824198" lon="7.951851393148557"><ele>573.5999999999999</ele><time>2026-03-23T17:05:15.998Z</time></trkpt><trkpt lat="44.46607693287814" lon="7.951794952979174"><ele>573.4</ele><time>2026-03-23T17:05:16.998Z</time></trkpt><trkpt lat="44.46598560701137" lon="7.95171797327807"><ele>573.1999999999999</ele><time>2026-03-23T17:05:18Z</time></trkpt><trkpt lat="44.465896809024784" lon="7.951610092095921"><ele>573.0</ele><time>2026-03-23T17:05:19Z</time></trkpt><trkpt lat="44.465807141008" lon="7.951482180299322"><ele>575.75</ele><time>2026-03-23T17:05:20Z</time></trkpt><trkpt lat="44.46572063798675" lon="7.951330866531761"><ele>578.5</ele><time>2026-03-23T17:05:21Z</time></trkpt><trkpt lat="44.46562602260676" lon="7.95116821588118"><ele>581.25</ele><time>2026-03-23T17:05:22Z</time></trkpt><trkpt lat="44.46554238116456" lon="7.951011257150621"><ele>584.0</ele><time>2026-03-23T17:05:23Z</time></trkpt><trkpt lat="44.465458092823006" lon="7.950860593416022"><ele>586.25</ele><time>2026-03-23T17:05:24Z</time></trkpt><trkpt lat="44.465372786341106" lon="7.950704595017097"><ele>588.5</ele><time>2026-03-23T17:05:25Z</time></trkpt><trkpt lat="44.46528448604254" lon="7.950553633986893"><ele>590.75</ele><time>2026-03-23T17:05:26Z</time></trkpt><trkpt lat="44.46518447463002" lon="7.950415591421761"><ele>593.0</ele><time>2026-03-23T17:05:27Z</time></trkpt><trkpt lat="44.4650821980275" lon="7.950291719722826"><ele>593.0</ele><time>2026-03-23T17:05:28Z</time></trkpt><trkpt lat="44.46495953466664" lon="7.950174835838827"><ele>593.0</ele><time>2026-03-23T17:05:29Z</time></trkpt><trkpt lat="44.464837143134446" lon="7.950064104078756"><ele>593.0</ele><time>2026-03-23T17:05:30Z</time></trkpt><trkpt lat="44.46469815369476" lon="7.949956933169728"><ele>591.6666666666666</ele><time>2026-03-23T17:05:31Z</time></trkpt><trkpt lat="44.46455308608498" lon="7.949846045577522"><ele>590.3333333333334</ele><time>2026-03-23T17:05:32Z</time></trkpt><trkpt lat="44.46440425210194" lon="7.949736844468349"><ele>589.0</ele><time>2026-03-23T17:05:33Z</time></trkpt><trkpt lat="44.464254580549266" lon="7.949618343317228"><ele>589.0</ele><time>2026-03-23T17:05:34Z</time></trkpt><trkpt lat="44.464105772960856" lon="7.949497869535493"><ele>589.0</ele><time>2026-03-23T17:05:35Z</time></trkpt><trkpt lat="44.4639629891749" lon="7.949364254249296"><ele>589.0</ele><time>2026-03-23T17:05:36Z</time></trkpt><trkpt lat="44.46382864559646" lon="7.949240780075343"><ele>588.0</ele><time>2026-03-23T17:05:37Z</time></trkpt><trkpt lat="44.463711891570085" lon="7.9491187913114265"><ele>587.0</ele><time>2026-03-23T17:05:38Z</time></trkpt><trkpt lat="44.46361049979817" lon="7.949005094624649"><ele>586.0</ele><time>2026-03-23T17:05:39Z</time></trkpt><trkpt lat="44.46351438404058" lon="7.94887683011077"><ele>585.0</ele><time>2026-03-23T17:05:40Z</time></trkpt><trkpt lat="44.46341624890819" lon="7.94874001111459"><ele>585.0</ele><time>2026-03-23T17:05:41Z</time></trkpt><trkpt lat="44.46331574103253" lon="7.948608466054717"><ele>585.0</ele><time>2026-03-23T17:05:42Z</time></trkpt><trkpt lat="44.46319867419682" lon="7.948467117090422"><ele>585.0</ele><time>2026-03-23T17:05:43Z</time></trkpt><trkpt lat="44.463061114025194" lon="7.948324098745215"><ele>583.0</ele><time>2026-03-23T17:05:44Z</time></trkpt><trkpt lat="44.462910944586966" lon="7.948205958838643"><ele>581.0</ele><time>2026-03-23T17:05:45Z</time></trkpt><trkpt lat="44.46275208347048" lon="7.948087192868231"><ele>579.0</ele><time>2026-03-23T17:05:46Z</time></trkpt><trkpt lat="44.46258752983714" lon="7.947960689922534"><ele>579.0</ele><time>2026-03-23T17:05:47Z</time></trkpt><trkpt lat="44.46241819224736" lon="7.947834896347024"><ele>579.0</ele><time>2026-03-23T17:05:48Z</time></trkpt><trkpt lat="44.4622560587856" lon="7.947711939707248"><ele>579.0</ele><time>2026-03-23T17:05:49Z</time></trkpt><trkpt lat="44.462111924766766" lon="7.947598252452557"><ele>580.6666666666666</ele><time>2026-03-23T17:05:50Z</time></trkpt><trkpt lat="44.46197303059348" lon="7.947495084653783"><ele>582.3333333333333</ele><time>2026-03-23T17:05:51Z</time></trkpt><trkpt lat="44.461836990190896" lon="7.947401130333428"><ele>584.0</ele><time>2026-03-23T17:05:52Z</time></trkpt><trkpt lat="44.46171440885155" lon="7.947303796337254"><ele>584.0</ele><time>2026-03-23T17:05:53Z</time></trkpt><trkpt lat="44.46160239380924" lon="7.9472063201980205"><ele>584.0</ele><time>2026-03-23T17:05:54Z</time></trkpt><trkpt lat="44.46149141512463" lon="7.947108066489628"><ele>584.0</ele><time>2026-03-23T17:05:55Z</time></trkpt><trkpt lat="44.46139293785803" lon="7.9470305965627"><ele>584.0</ele><time>2026-03-23T17:05:56Z</time></trkpt><trkpt lat="44.46129291390926" lon="7.946965335655745"><ele>581.75</ele><time>2026-03-23T17:05:57Z</time></trkpt><trkpt lat="44.46118139023117" lon="7.946911564134411"><ele>579.5</ele><time>2026-03-23T17:05:58Z</time></trkpt><trkpt lat="44.461066321732716" lon="7.946863310679284"><ele>577.25</ele><time>2026-03-23T17:05:59Z</time></trkpt><trkpt lat="44.46095395984124" lon="7.946832196881586"><ele>575.0</ele><time>2026-03-23T17:05:59.999Z</time></trkpt><trkpt lat="44.46084304902446" lon="7.946814894288864"><ele>575.0</ele><time>2026-03-23T17:06:00.999Z</time></trkpt><trkpt lat="44.46074351822919" lon="7.946824614283342"><ele>575.0</ele><time>2026-03-23T17:06:01.999Z</time></trkpt><trkpt lat="44.460651616946016" lon="7.946827342588463"><ele>575.0</ele><time>2026-03-23T17:06:02.999Z</time></trkpt><trkpt lat="44.46055680125141" lon="7.946831159389135"><ele>575.0</ele><time>2026-03-23T17:06:03.999Z</time></trkpt><trkpt lat="44.460460853823975" lon="7.946826766226319"><ele>575.0</ele><time>2026-03-23T17:06:04.999Z</time></trkpt><trkpt lat="44.46035638921034" lon="7.946832493870987"><ele>573.8</ele><time>2026-03-23T17:06:05.999Z</time></trkpt><trkpt lat="44.46024609495924" lon="7.94683287755245"><ele>572.6</ele><time>2026-03-23T17:06:06.999Z</time></trkpt><trkpt lat="44.460143934970944" lon="7.9468336546337435"><ele>571.4</ele><time>2026-03-23T17:06:07.999Z</time></trkpt><trkpt lat="44.4600496951689" lon="7.946839627971058"><ele>570.2</ele><time>2026-03-23T17:06:08.999Z</time></trkpt><trkpt lat="44.45994769989709" lon="7.946882125083243"><ele>569.0</ele><time>2026-03-23T17:06:09.999Z</time></trkpt><trkpt lat="44.45984582536063" lon="7.946909577377382"><ele>569.0</ele><time>2026-03-23T17:06:10.999Z</time></trkpt><trkpt lat="44.45975430853787" lon="7.946949003083831"><ele>569.0</ele><time>2026-03-23T17:06:11.999Z</time></trkpt><trkpt lat="44.45966285095621" lon="7.946996558398126"><ele>569.0</ele><time>2026-03-23T17:06:12.999Z</time></trkpt><trkpt lat="44.45956628163467" lon="7.947077882798942"><ele>569.0</ele><time>2026-03-23T17:06:13.999Z</time></trkpt><trkpt lat="44.45947317994879" lon="7.947152278275168"><ele>569.0</ele><time>2026-03-23T17:06:14.999Z</time></trkpt><trkpt lat="44.45938423484895" lon="7.947226882114042"><ele>570.2</ele><time>2026-03-23T17:06:15.999Z</time></trkpt><trkpt lat="44.45929130779297" lon="7.947286464897156"><ele>571.4</ele><time>2026-03-23T17:06:16.999Z</time></trkpt><trkpt lat="44.45918864138947" lon="7.947324693156256"><ele>572.6</ele><time>2026-03-23T17:06:17.999Z</time></trkpt><trkpt lat="44.45907833099974" lon="7.94734482927185"><ele>573.8</ele><time>2026-03-23T17:06:18.999Z</time></trkpt><trkpt lat="44.45896045189632" lon="7.947338964809371"><ele>575.0</ele><time>2026-03-23T17:06:19.999Z</time></trkpt><trkpt lat="44.458844097198934" lon="7.947321543688985"><ele>575.75</ele><time>2026-03-23T17:06:20.999Z</time></trkpt><trkpt lat="44.45873602485626" lon="7.9472871829139295"><ele>576.5</ele><time>2026-03-23T17:06:21.999Z</time></trkpt><trkpt lat="44.45862349104836" lon="7.947260876121892"><ele>577.25</ele><time>2026-03-23T17:06:22.999Z</time></trkpt><trkpt lat="44.45850416849433" lon="7.947235773303467"><ele>578.0</ele><time>2026-03-23T17:06:23.999Z</time></trkpt><trkpt lat="44.45837595978393" lon="7.947216646874064"><ele>578.0</ele><time>2026-03-23T17:06:24.999Z</time></trkpt><trkpt lat="44.45825441734916" lon="7.947194497648133"><ele>578.0</ele><time>2026-03-23T17:06:25.999Z</time></trkpt><trkpt lat="44.45814149679913" lon="7.947174628604456"><ele>578.0</ele><time>2026-03-23T17:06:26.999Z</time></trkpt><trkpt lat="44.4580308213911" lon="7.947154837175045"><ele>578.0</ele><time>2026-03-23T17:06:27.999Z</time></trkpt><trkpt lat="44.45792084537762" lon="7.947135541097332"><ele>579.0</ele><time>2026-03-23T17:06:28.999Z</time></trkpt><trkpt lat="44.45781430201257" lon="7.947118827640659"><ele>580.0</ele><time>2026-03-23T17:06:29.999Z</time></trkpt><trkpt lat="44.45770185732532" lon="7.947093035060293"><ele>581.0</ele><time>2026-03-23T17:06:30.999Z</time></trkpt><trkpt lat="44.457601455622125" lon="7.947077706774571"><ele>582.0</ele><time>2026-03-23T17:06:31.999Z</time></trkpt><trkpt lat="44.4575066890357" lon="7.947057552396218"><ele>583.0</ele><time>2026-03-23T17:06:32.999Z</time></trkpt><trkpt lat="44.45741287765394" lon="7.947042440772688"><ele>583.0</ele><time>2026-03-23T17:06:33.999Z</time></trkpt><trkpt lat="44.457316263572366" lon="7.947026975251064"><ele>583.0</ele><time>2026-03-23T17:06:34.999Z</time></trkpt><trkpt lat="44.45723034652423" lon="7.947010193780734"><ele>583.0</ele><time>2026-03-23T17:06:35.999Z</time></trkpt><trkpt lat="44.457147360438334" lon="7.9469909137297865"><ele>583.0</ele><time>2026-03-23T17:06:36.999Z</time></trkpt><trkpt lat="44.45707086233314" lon="7.946969767280751"><ele>583.0</ele><time>2026-03-23T17:06:37.999Z</time></trkpt><trkpt lat="44.456998125507994" lon="7.946949542188066"><ele>583.0</ele><time>2026-03-23T17:06:38.999Z</time></trkpt><trkpt lat="44.456877192869946" lon="7.94691794213146"><ele>582.6</ele><time>2026-03-23T17:06:40.999Z</time></trkpt><trkpt lat="44.45676149381932" lon="7.946891860969532"><ele>582.1999999999999</ele><time>2026-03-23T17:06:42.999Z</time></trkpt><trkpt lat="44.45667651698476" lon="7.946862702687615"><ele>581.8</ele><time>2026-03-23T17:06:44.999Z</time></trkpt><trkpt lat="44.456626543684116" lon="7.946759473714391"><ele>581.4</ele><time>2026-03-23T17:06:47.999Z</time></trkpt><trkpt lat="44.456743798166755" lon="7.946676911770085"><ele>581.0</ele><time>2026-03-23T17:06:50.999Z</time></trkpt><trkpt lat="44.45681797574951" lon="7.946678712222763"><ele>581.0</ele><time>2026-03-23T17:06:51.999Z</time></trkpt><trkpt lat="44.456915626456784" lon="7.946730064817301"><ele>581.0</ele><time>2026-03-23T17:06:52.999Z</time></trkpt><trkpt lat="44.45699963885833" lon="7.9467572803549995"><ele>581.0</ele><time>2026-03-23T17:06:53.999Z</time></trkpt><trkpt lat="44.457101028472486" lon="7.946770840144275"><ele>581.0</ele><time>2026-03-23T17:06:54.999Z</time></trkpt><trkpt lat="44.45721963181629" lon="7.946786665344903"><ele>581.0</ele><time>2026-03-23T17:06:55.998Z</time></trkpt><trkpt lat="44.45732968088788" lon="7.946800904792664"><ele>581.4</ele><time>2026-03-23T17:06:56.998Z</time></trkpt><trkpt lat="44.457434827010744" lon="7.94681192637473"><ele>581.8</ele><time>2026-03-23T17:06:57.998Z</time></trkpt><trkpt lat="44.45753162757334" lon="7.946822620887835"><ele>582.1999999999999</ele><time>2026-03-23T17:06:58.998Z</time></trkpt><trkpt lat="44.45762931634207" lon="7.946832286676682"><ele>582.6</ele><time>2026-03-23T17:06:59.998Z</time></trkpt><trkpt lat="44.45771833038805" lon="7.946845456789349"><ele>583.0</ele><time>2026-03-23T17:07:00.998Z</time></trkpt><trkpt lat="44.457812273401174" lon="7.9468550659098485"><ele>583.0</ele><time>2026-03-23T17:07:01.998Z</time></trkpt><trkpt lat="44.45790579489768" lon="7.946854911091122"><ele>583.0</ele><time>2026-03-23T17:07:02.998Z</time></trkpt><trkpt lat="44.457999575045946" lon="7.946844068834226"><ele>583.0</ele><time>2026-03-23T17:07:03.998Z</time></trkpt><trkpt lat="44.45810303648141" lon="7.9468083964813925"><ele>583.0</ele><time>2026-03-23T17:07:04.998Z</time></trkpt><trkpt lat="44.458201433267995" lon="7.9467521990910495"><ele>583.0</ele><time>2026-03-23T17:07:05.998Z</time></trkpt><trkpt lat="44.458308531267" lon="7.946674025335598"><ele>578.75</ele><time>2026-03-23T17:07:06.998Z</time></trkpt><trkpt lat="44.45841712144022" lon="7.946599129284843"><ele>574.5</ele><time>2026-03-23T17:07:07.998Z</time></trkpt><trkpt lat="44.45851740931029" lon="7.946525740556051"><ele>570.25</ele><time>2026-03-23T17:07:08.998Z</time></trkpt><trkpt lat="44.45861342838037" lon="7.946447544852709"><ele>566.0</ele><time>2026-03-23T17:07:09.998Z</time></trkpt><trkpt lat="44.45870707730393" lon="7.946377077263456"><ele>567.0</ele><time>2026-03-23T17:07:10.998Z</time></trkpt><trkpt lat="44.45878771807294" lon="7.946288995533282"><ele>568.0</ele><time>2026-03-23T17:07:11.998Z</time></trkpt><trkpt lat="44.45886604906512" lon="7.946178284073083"><ele>569.0</ele><time>2026-03-23T17:07:12.998Z</time></trkpt><trkpt lat="44.45895000038414" lon="7.946039532316386"><ele>570.0</ele><time>2026-03-23T17:07:13.998Z</time></trkpt><trkpt lat="44.45902506289099" lon="7.945858980673348"><ele>567.0</ele><time>2026-03-23T17:07:14.998Z</time></trkpt><trkpt lat="44.459083961182614" lon="7.945697064329347"><ele>564.0</ele><time>2026-03-23T17:07:15.998Z</time></trkpt><trkpt lat="44.45913742905113" lon="7.945553055695735"><ele>561.0</ele><time>2026-03-23T17:07:16.998Z</time></trkpt><trkpt lat="44.45918245797408" lon="7.945398190091875"><ele>558.0</ele><time>2026-03-23T17:07:17.998Z</time></trkpt><trkpt lat="44.45921543435495" lon="7.945211994237204"><ele>557.0</ele><time>2026-03-23T17:07:18.998Z</time></trkpt><trkpt lat="44.45923619058831" lon="7.944998796242716"><ele>556.0</ele><time>2026-03-23T17:07:19.998Z</time></trkpt><trkpt lat="44.45925440042657" lon="7.94479534354833"><ele>555.0</ele><time>2026-03-23T17:07:20.998Z</time></trkpt><trkpt lat="44.45927372836675" lon="7.944616878922167"><ele>554.0</ele><time>2026-03-23T17:07:21.998Z</time></trkpt><trkpt lat="44.4593127701983" lon="7.9444604011147595"><ele>554.0</ele><time>2026-03-23T17:07:22.998Z</time></trkpt><trkpt lat="44.45933162834334" lon="7.94430792941058"><ele>554.0</ele><time>2026-03-23T17:07:24Z</time></trkpt><trkpt lat="44.45936543967202" lon="7.944173266486942"><ele>554.0</ele><time>2026-03-23T17:07:25Z</time></trkpt><trkpt lat="44.459401520883524" lon="7.944068562256839"><ele>554.0</ele><time>2026-03-23T17:07:26Z</time></trkpt><trkpt lat="44.45944789713827" lon="7.943965883418136"><ele>554.0</ele><time>2026-03-23T17:07:27Z</time></trkpt><trkpt lat="44.4595131032647" lon="7.94387393630569"><ele>554.8</ele><time>2026-03-23T17:07:28Z</time></trkpt><trkpt lat="44.459610957575876" lon="7.9438235095668555"><ele>555.5999999999999</ele><time>2026-03-23T17:07:29Z</time></trkpt><trkpt lat="44.45970183289673" lon="7.943802695147643"><ele>556.4</ele><time>2026-03-23T17:07:30Z</time></trkpt><trkpt lat="44.459804943188836" lon="7.943784010139465"><ele>557.1999999999999</ele><time>2026-03-23T17:07:31Z</time></trkpt><trkpt lat="44.45991479092032" lon="7.943769616866662"><ele>558.0</ele><time>2026-03-23T17:07:32Z</time></trkpt><trkpt lat="44.46003828479781" lon="7.943755594029456"><ele>558.0</ele><time>2026-03-23T17:07:33Z</time></trkpt><trkpt lat="44.460137824410666" lon="7.943725421534873"><ele>558.0</ele><time>2026-03-23T17:07:34Z</time></trkpt><trkpt lat="44.46023615618061" lon="7.943713072677919"><ele>558.0</ele><time>2026-03-23T17:07:35Z</time></trkpt><trkpt lat="44.460325425062166" lon="7.943688580812162"><ele>558.0</ele><time>2026-03-23T17:07:36Z</time></trkpt><trkpt lat="44.4604100649076" lon="7.943658075981159"><ele>558.0</ele><time>2026-03-23T17:07:37Z</time></trkpt><trkpt lat="44.46048230979124" lon="7.943601282537799"><ele>558.6</ele><time>2026-03-23T17:07:38Z</time></trkpt><trkpt lat="44.46055156140963" lon="7.943521318491408"><ele>559.1999999999999</ele><time>2026-03-23T17:07:39Z</time></trkpt><trkpt lat="44.460587406346306" lon="7.943416440618196"><ele>559.8</ele><time>2026-03-23T17:07:40Z</time></trkpt><trkpt lat="44.46061192808162" lon="7.943305031402184"><ele>560.4</ele><time>2026-03-23T17:07:41Z</time></trkpt><trkpt lat="44.46062299166688" lon="7.943170818723923"><ele>561.0</ele><time>2026-03-23T17:07:42Z</time></trkpt><trkpt lat="44.460620963931476" lon="7.94302390665916"><ele>561.0</ele><time>2026-03-23T17:07:43Z</time></trkpt><trkpt lat="44.46061384149656" lon="7.942869280323139"><ele>561.0</ele><time>2026-03-23T17:07:44Z</time></trkpt><trkpt lat="44.460610306041055" lon="7.942704416975129"><ele>561.0</ele><time>2026-03-23T17:07:45Z</time></trkpt><trkpt lat="44.46060645529378" lon="7.942523567239376"><ele>561.0</ele><time>2026-03-23T17:07:46Z</time></trkpt><trkpt lat="44.46059467101658" lon="7.942349443434285"><ele>561.2</ele><time>2026-03-23T17:07:47Z</time></trkpt><trkpt lat="44.46057906421062" lon="7.942195804726276"><ele>561.4000000000001</ele><time>2026-03-23T17:07:48Z</time></trkpt><trkpt lat="44.46055771801884" lon="7.942049585079178"><ele>561.6</ele><time>2026-03-23T17:07:49Z</time></trkpt><trkpt lat="44.460530979233035" lon="7.941918582022894"><ele>561.8000000000001</ele><time>2026-03-23T17:07:50Z</time></trkpt><trkpt lat="44.460511283409694" lon="7.941792645338006"><ele>562.0</ele><time>2026-03-23T17:07:51Z</time></trkpt><trkpt lat="44.46050172873497" lon="7.941663819946465"><ele>561.6</ele><time>2026-03-23T17:07:52Z</time></trkpt><trkpt lat="44.46052786166571" lon="7.941512968203173"><ele>561.2</ele><time>2026-03-23T17:07:53Z</time></trkpt><trkpt lat="44.460546188023244" lon="7.941376857097889"><ele>560.8</ele><time>2026-03-23T17:07:54Z</time></trkpt><trkpt lat="44.46054602687228" lon="7.941244097645557"><ele>560.4</ele><time>2026-03-23T17:07:55Z</time></trkpt><trkpt lat="44.46056232803139" lon="7.941119972956163"><ele>560.0</ele><time>2026-03-23T17:07:56Z</time></trkpt><trkpt lat="44.460564434992456" lon="7.941003244327339"><ele>558.4</ele><time>2026-03-23T17:07:57Z</time></trkpt><trkpt lat="44.4605561206138" lon="7.940875021296311"><ele>556.8</ele><time>2026-03-23T17:07:58Z</time></trkpt><trkpt lat="44.46053638510967" lon="7.940747759965226"><ele>555.2</ele><time>2026-03-23T17:07:59Z</time></trkpt><trkpt lat="44.46050688445205" lon="7.940593916802856"><ele>553.6</ele><time>2026-03-23T17:08:00Z</time></trkpt><trkpt lat="44.46047875377674" lon="7.940446368190265"><ele>552.0</ele><time>2026-03-23T17:08:01Z</time></trkpt><trkpt lat="44.46044998293294" lon="7.940283336803983"><ele>551.5</ele><time>2026-03-23T17:08:02Z</time></trkpt><trkpt lat="44.46042205169601" lon="7.940118801037672"><ele>551.0</ele><time>2026-03-23T17:08:03Z</time></trkpt><trkpt lat="44.460392300545855" lon="7.939938930584085"><ele>550.5</ele><time>2026-03-23T17:08:04Z</time></trkpt><trkpt lat="44.460353830511174" lon="7.939742392374233"><ele>550.0</ele><time>2026-03-23T17:08:04.999Z</time></trkpt><trkpt lat="44.46032167650582" lon="7.939566579394769"><ele>553.3333333333334</ele><time>2026-03-23T17:08:05.999Z</time></trkpt><trkpt lat="44.460293683406604" lon="7.9393786963642405"><ele>556.6666666666666</ele><time>2026-03-23T17:08:06.999Z</time></trkpt><trkpt lat="44.46025376872706" lon="7.939169255741738"><ele>560.0</ele><time>2026-03-23T17:08:07.999Z</time></trkpt><trkpt lat="44.460216940074524" lon="7.93893899651132"><ele>560.0</ele><time>2026-03-23T17:08:08.999Z</time></trkpt><trkpt lat="44.46018001858175" lon="7.938711590399975"><ele>560.0</ele><time>2026-03-23T17:08:09.999Z</time></trkpt><trkpt lat="44.460151565448896" lon="7.938480636541684"><ele>560.0</ele><time>2026-03-23T17:08:10.999Z</time></trkpt><trkpt lat="44.460119185510194" lon="7.938267467792641"><ele>558.5</ele><time>2026-03-23T17:08:11.999Z</time></trkpt><trkpt lat="44.46009072240956" lon="7.938067320372086"><ele>557.0</ele><time>2026-03-23T17:08:12.999Z</time></trkpt><trkpt lat="44.46006245074034" lon="7.937877529847911"><ele>555.5</ele><time>2026-03-23T17:08:13.999Z</time></trkpt><trkpt lat="44.460041076628286" lon="7.937710970139547"><ele>554.0</ele><time>2026-03-23T17:08:14.999Z</time></trkpt><trkpt lat="44.46001903621138" lon="7.937543775494153"><ele>552.4</ele><time>2026-03-23T17:08:15.999Z</time></trkpt><trkpt lat="44.460001432540146" lon="7.937373902839907"><ele>550.8</ele><time>2026-03-23T17:08:16.999Z</time></trkpt><trkpt lat="44.45998471293036" lon="7.937227863110072"><ele>549.2</ele><time>2026-03-23T17:08:17.999Z</time></trkpt><trkpt lat="44.45997657591429" lon="7.9370858595523"><ele>547.6</ele><time>2026-03-23T17:08:18.999Z</time></trkpt><trkpt lat="44.45997288802078" lon="7.936935015233323"><ele>546.0</ele><time>2026-03-23T17:08:19.999Z</time></trkpt><trkpt lat="44.45998462728482" lon="7.936770566760025"><ele>545.5</ele><time>2026-03-23T17:08:20.999Z</time></trkpt><trkpt lat="44.46002699236495" lon="7.936597365773981"><ele>545.0</ele><time>2026-03-23T17:08:21.999Z</time></trkpt><trkpt lat="44.46006839255814" lon="7.936428407949609"><ele>544.5</ele><time>2026-03-23T17:08:22.999Z</time></trkpt><trkpt lat="44.46012945655974" lon="7.936284516438565"><ele>544.0</ele><time>2026-03-23T17:08:23.999Z</time></trkpt><trkpt lat="44.46016865964853" lon="7.936126171234827"><ele>544.0</ele><time>2026-03-23T17:08:24.999Z</time></trkpt><trkpt lat="44.46023915512902" lon="7.936001435059349"><ele>544.0</ele><time>2026-03-23T17:08:25.999Z</time></trkpt><trkpt lat="44.460295012821" lon="7.935882755637601"><ele>544.0</ele><time>2026-03-23T17:08:26.999Z</time></trkpt><trkpt lat="44.4603508503239" lon="7.93577100695529"><ele>544.0</ele><time>2026-03-23T17:08:27.999Z</time></trkpt><trkpt lat="44.460405817637316" lon="7.935659239927614"><ele>544.0</ele><time>2026-03-23T17:08:28.999Z</time></trkpt><trkpt lat="44.46045143999988" lon="7.935538220370685"><ele>544.5</ele><time>2026-03-23T17:08:29.999Z</time></trkpt><trkpt lat="44.46046880756506" lon="7.935391848832775"><ele>545.0</ele><time>2026-03-23T17:08:30.999Z</time></trkpt><trkpt lat="44.46048677197191" lon="7.935236638496181"><ele>545.5</ele><time>2026-03-23T17:08:31.999Z</time></trkpt><trkpt lat="44.46049433547171" lon="7.935063579968261"><ele>546.0</ele><time>2026-03-23T17:08:32.999Z</time></trkpt><trkpt lat="44.46049370315085" lon="7.9348701480481845"><ele>546.0</ele><time>2026-03-23T17:08:33.999Z</time></trkpt><trkpt lat="44.46049922698173" lon="7.934701191637265"><ele>546.0</ele><time>2026-03-23T17:08:34.999Z</time></trkpt><trkpt lat="44.460501718010555" lon="7.934543258837658"><ele>546.0</ele><time>2026-03-23T17:08:35.999Z</time></trkpt><trkpt lat="44.46050322248233" lon="7.934385787308995"><ele>546.0</ele><time>2026-03-23T17:08:36.999Z</time></trkpt><trkpt lat="44.46050784230092" lon="7.934233022517359"><ele>547.0</ele><time>2026-03-23T17:08:37.999Z</time></trkpt><trkpt lat="44.46050235102754" lon="7.934087313719116"><ele>548.0</ele><time>2026-03-23T17:08:38.999Z</time></trkpt><trkpt lat="44.46049334133554" lon="7.933946094082929"><ele>549.0</ele><time>2026-03-23T17:08:39.999Z</time></trkpt><trkpt lat="44.46047953016788" lon="7.933826459329023"><ele>550.0</ele><time>2026-03-23T17:08:40.999Z</time></trkpt><trkpt lat="44.460453184819464" lon="7.933710500679523"><ele>551.0</ele><time>2026-03-23T17:08:41.999Z</time></trkpt><trkpt lat="44.46041771401886" lon="7.933598397718142"><ele>548.8333333333333</ele><time>2026-03-23T17:08:42.999Z</time></trkpt><trkpt lat="44.46037954725178" lon="7.933506550426092"><ele>546.6666666666666</ele><time>2026-03-23T17:08:43.999Z</time></trkpt><trkpt lat="44.46033239653918" lon="7.9334263629987145"><ele>544.5</ele><time>2026-03-23T17:08:44.999Z</time></trkpt><trkpt lat="44.46024091781261" lon="7.933336805655789"><ele>542.3333333333334</ele><time>2026-03-23T17:08:46.999Z</time></trkpt><trkpt lat="44.460177840814914" lon="7.933315213251523"><ele>540.1666666666667</ele><time>2026-03-23T17:08:47.999Z</time></trkpt><trkpt lat="44.46010458768652" lon="7.933311668815486"><ele>538.0</ele><time>2026-03-23T17:08:48.999Z</time></trkpt><trkpt lat="44.4600230271751" lon="7.9333192245524815"><ele>538.0</ele><time>2026-03-23T17:08:49.999Z</time></trkpt><trkpt lat="44.45992544708316" lon="7.933347114280621"><ele>538.0</ele><time>2026-03-23T17:08:50.999Z</time></trkpt><trkpt lat="44.459815414784885" lon="7.933371650010691"><ele>538.0</ele><time>2026-03-23T17:08:51.999Z</time></trkpt><trkpt lat="44.459719510575894" lon="7.933395468449218"><ele>538.0</ele><time>2026-03-23T17:08:52.999Z</time></trkpt><trkpt lat="44.45962615725937" lon="7.93341924437814"><ele>538.0</ele><time>2026-03-23T17:08:53.999Z</time></trkpt><trkpt lat="44.45952064284962" lon="7.933443411596019"><ele>535.6</ele><time>2026-03-23T17:08:54.999Z</time></trkpt><trkpt lat="44.45941872950363" lon="7.933477371495762"><ele>533.1999999999999</ele><time>2026-03-23T17:08:55.999Z</time></trkpt><trkpt lat="44.459324461772326" lon="7.933505051561536"><ele>530.8</ele><time>2026-03-23T17:08:56.999Z</time></trkpt><trkpt lat="44.459231885461826" lon="7.933536146077874"><ele>528.4</ele><time>2026-03-23T17:08:57.999Z</time></trkpt><trkpt lat="44.45913175007832" lon="7.933560639546158"><ele>526.0</ele><time>2026-03-23T17:08:58.999Z</time></trkpt><trkpt lat="44.459041677462935" lon="7.933579170299665"><ele>526.0</ele><time>2026-03-23T17:08:59.999Z</time></trkpt><trkpt lat="44.45895008766896" lon="7.933582696802949"><ele>526.0</ele><time>2026-03-23T17:09:00.998Z</time></trkpt><trkpt lat="44.45885457523406" lon="7.933575825581295"><ele>526.0</ele><time>2026-03-23T17:09:01.998Z</time></trkpt><trkpt lat="44.45875758219478" lon="7.9335577467805685"><ele>526.0</ele><time>2026-03-23T17:09:02.998Z</time></trkpt><trkpt lat="44.45865903883435" lon="7.933534321856436"><ele>526.0</ele><time>2026-03-23T17:09:03.998Z</time></trkpt><trkpt lat="44.45857714013099" lon="7.933503025292843"><ele>526.0</ele><time>2026-03-23T17:09:04.998Z</time></trkpt><trkpt lat="44.458482518006974" lon="7.933466168589095"><ele>526.0</ele><time>2026-03-23T17:09:05.998Z</time></trkpt><trkpt lat="44.45839027031396" lon="7.933430923642513"><ele>526.0</ele><time>2026-03-23T17:09:06.998Z</time></trkpt><trkpt lat="44.45829304941421" lon="7.933388504756799"><ele>526.0</ele><time>2026-03-23T17:09:07.998Z</time></trkpt><trkpt lat="44.45820109599414" lon="7.933340795577617"><ele>526.0</ele><time>2026-03-23T17:09:08.998Z</time></trkpt><trkpt lat="44.458104427120105" lon="7.933286165400697"><ele>526.0</ele><time>2026-03-23T17:09:09.998Z</time></trkpt><trkpt lat="44.45801965255377" lon="7.933236220565366"><ele>526.0</ele><time>2026-03-23T17:09:10.998Z</time></trkpt><trkpt lat="44.45791824760077" lon="7.933171514646491"><ele>526.0</ele><time>2026-03-23T17:09:11.998Z</time></trkpt><trkpt lat="44.45781367742352" lon="7.933095890850864"><ele>526.0</ele><time>2026-03-23T17:09:12.998Z</time></trkpt><trkpt lat="44.45771652838951" lon="7.933017080260232"><ele>526.0</ele><time>2026-03-23T17:09:13.998Z</time></trkpt><trkpt lat="44.45763148894041" lon="7.932941722891201"><ele>526.0</ele><time>2026-03-23T17:09:14.998Z</time></trkpt><trkpt lat="44.457524251078794" lon="7.932860488402169"><ele>526.0</ele><time>2026-03-23T17:09:15.998Z</time></trkpt><trkpt lat="44.457418362438986" lon="7.932793480660641"><ele>526.0</ele><time>2026-03-23T17:09:16.998Z</time></trkpt><trkpt lat="44.457296216322376" lon="7.932727939679622"><ele>526.0</ele><time>2026-03-23T17:09:17.998Z</time></trkpt><trkpt lat="44.457172993216126" lon="7.932667453331169"><ele>527.0</ele><time>2026-03-23T17:09:18.998Z</time></trkpt><trkpt lat="44.457035450664485" lon="7.932614980282017"><ele>528.0</ele><time>2026-03-23T17:09:19.998Z</time></trkpt><trkpt lat="44.45689824492449" lon="7.9325718301901675"><ele>529.0</ele><time>2026-03-23T17:09:20.998Z</time></trkpt><trkpt lat="44.45676583317877" lon="7.932538781241129"><ele>530.0</ele><time>2026-03-23T17:09:21.998Z</time></trkpt><trkpt lat="44.45664990734981" lon="7.932510075769538"><ele>530.0</ele><time>2026-03-23T17:09:22.998Z</time></trkpt><trkpt lat="44.45653823721072" lon="7.932489964460531"><ele>530.0</ele><time>2026-03-23T17:09:23.998Z</time></trkpt><trkpt lat="44.4564321519" lon="7.932460339757277"><ele>530.0</ele><time>2026-03-23T17:09:24.998Z</time></trkpt><trkpt lat="44.4563292624105" lon="7.9324291617643405"><ele>530.0</ele><time>2026-03-23T17:09:25.998Z</time></trkpt><trkpt lat="44.456232966665155" lon="7.932380758908879"><ele>530.0</ele><time>2026-03-23T17:09:26.998Z</time></trkpt><trkpt lat="44.45612583495392" lon="7.932324751067284"><ele>531.0</ele><time>2026-03-23T17:09:27.998Z</time></trkpt><trkpt lat="44.4560136174739" lon="7.932268790153277"><ele>532.0</ele><time>2026-03-23T17:09:28.998Z</time></trkpt><trkpt lat="44.45590810846873" lon="7.932209976438187"><ele>533.0</ele><time>2026-03-23T17:09:30Z</time></trkpt><trkpt lat="44.45580980868849" lon="7.9321514322945275"><ele>534.0</ele><time>2026-03-23T17:09:31Z</time></trkpt><trkpt lat="44.45570953355671" lon="7.932089439899221"><ele>535.0</ele><time>2026-03-23T17:09:32Z</time></trkpt><trkpt lat="44.455610842862484" lon="7.932022440139295"><ele>535.0</ele><time>2026-03-23T17:09:33Z</time></trkpt><trkpt lat="44.455518031378034" lon="7.931964162106519"><ele>535.0</ele><time>2026-03-23T17:09:34Z</time></trkpt><trkpt lat="44.45543215454219" lon="7.931905147125804"><ele>535.0</ele><time>2026-03-23T17:09:35Z</time></trkpt><trkpt lat="44.45533885080026" lon="7.931793527802298"><ele>535.0</ele><time>2026-03-23T17:09:36Z</time></trkpt><trkpt lat="44.455256523863795" lon="7.931665401727479"><ele>535.0</ele><time>2026-03-23T17:09:37Z</time></trkpt><trkpt lat="44.45518534121599" lon="7.93152140114291"><ele>535.0</ele><time>2026-03-23T17:09:38Z</time></trkpt><trkpt lat="44.45512541361935" lon="7.931367231983095"><ele>535.0</ele><time>2026-03-23T17:09:39Z</time></trkpt><trkpt lat="44.45505464019631" lon="7.931211960277717"><ele>535.0</ele><time>2026-03-23T17:09:40Z</time></trkpt><trkpt lat="44.45499431214091" lon="7.931037598449483"><ele>535.0</ele><time>2026-03-23T17:09:41Z</time></trkpt><trkpt lat="44.4549326427001" lon="7.930869679564605"><ele>533.0</ele><time>2026-03-23T17:09:42Z</time></trkpt><trkpt lat="44.45486818331685" lon="7.930705180696155"><ele>531.0</ele><time>2026-03-23T17:09:43Z</time></trkpt><trkpt lat="44.45481539211408" lon="7.930553633155439"><ele>529.0</ele><time>2026-03-23T17:09:44Z</time></trkpt><trkpt lat="44.454766267501896" lon="7.930409779264687"><ele>527.0</ele><time>2026-03-23T17:09:45Z</time></trkpt><trkpt lat="44.45471767047996" lon="7.930268922979361"><ele>527.0</ele><time>2026-03-23T17:09:46Z</time></trkpt><trkpt lat="44.454668974052666" lon="7.930130101659823"><ele>527.0</ele><time>2026-03-23T17:09:47Z</time></trkpt><trkpt lat="44.454625120431814" lon="7.930006132360091"><ele>527.0</ele><time>2026-03-23T17:09:48Z</time></trkpt><trkpt lat="44.454575910329474" lon="7.929877772856329"><ele>527.0</ele><time>2026-03-23T17:09:49Z</time></trkpt><trkpt lat="44.45452255951569" lon="7.929760731274191"><ele>527.0</ele><time>2026-03-23T17:09:50Z</time></trkpt><trkpt lat="44.4544723380074" lon="7.929646821514644"><ele>526.6</ele><time>2026-03-23T17:09:51Z</time></trkpt><trkpt lat="44.454405619010416" lon="7.9295256285201985"><ele>526.2</ele><time>2026-03-23T17:09:52Z</time></trkpt><trkpt lat="44.4543302138106" lon="7.929412617639839"><ele>525.8</ele><time>2026-03-23T17:09:53Z</time></trkpt><trkpt lat="44.45424528085621" lon="7.929312848450648"><ele>525.4</ele><time>2026-03-23T17:09:54Z</time></trkpt><trkpt lat="44.45416193901892" lon="7.929219745155164"><ele>525.0</ele><time>2026-03-23T17:09:55Z</time></trkpt><trkpt lat="44.45408366299514" lon="7.929142807429435"><ele>525.0</ele><time>2026-03-23T17:09:56Z</time></trkpt><trkpt lat="44.454004270297915" lon="7.929074499910426"><ele>525.0</ele><time>2026-03-23T17:09:57Z</time></trkpt><trkpt lat="44.45392893753011" lon="7.929005111946738"><ele>525.0</ele><time>2026-03-23T17:09:58Z</time></trkpt><trkpt lat="44.45385356772878" lon="7.9289153748173185"><ele>525.0</ele><time>2026-03-23T17:09:59Z</time></trkpt><trkpt lat="44.45377496346449" lon="7.928795246490534"><ele>525.0</ele><time>2026-03-23T17:10:00Z</time></trkpt><trkpt lat="44.45370071921913" lon="7.928656789335582"><ele>524.2</ele><time>2026-03-23T17:10:01Z</time></trkpt><trkpt lat="44.45363530634985" lon="7.928509942412399"><ele>523.4</ele><time>2026-03-23T17:10:02Z</time></trkpt><trkpt lat="44.453591858369045" lon="7.928384511061392"><ele>522.6</ele><time>2026-03-23T17:10:03Z</time></trkpt><trkpt lat="44.453546705872284" lon="7.928262637307519"><ele>521.8</ele><time>2026-03-23T17:10:04Z</time></trkpt><trkpt lat="44.45349912362472" lon="7.92813960323834"><ele>521.0</ele><time>2026-03-23T17:10:05Z</time></trkpt><trkpt lat="44.45345635120581" lon="7.928020607871653"><ele>521.0</ele><time>2026-03-23T17:10:06Z</time></trkpt><trkpt lat="44.453410806970645" lon="7.927910564752797"><ele>521.0</ele><time>2026-03-23T17:10:07Z</time></trkpt><trkpt lat="44.45336501846263" lon="7.927810070513913"><ele>521.0</ele><time>2026-03-23T17:10:08Z</time></trkpt><trkpt lat="44.45331538147637" lon="7.927707917746001"><ele>521.0</ele><time>2026-03-23T17:10:09Z</time></trkpt><trkpt lat="44.45325287702113" lon="7.927592169147627"><ele>521.0</ele><time>2026-03-23T17:10:10Z</time></trkpt><trkpt lat="44.45318671106767" lon="7.92748656595025"><ele>520.2</ele><time>2026-03-23T17:10:10.999Z</time></trkpt><trkpt lat="44.45312271536998" lon="7.927386594531969"><ele>519.4000000000001</ele><time>2026-03-23T17:10:11.999Z</time></trkpt><trkpt lat="44.45305051397384" lon="7.9272721098877765"><ele>518.6</ele><time>2026-03-23T17:10:12.999Z</time></trkpt><trkpt lat="44.45297525557001" lon="7.927155250313094"><ele>517.8000000000001</ele><time>2026-03-23T17:10:13.999Z</time></trkpt><trkpt lat="44.45289663639131" lon="7.927015988170492"><ele>517.0</ele><time>2026-03-23T17:10:14.999Z</time></trkpt><trkpt lat="44.45281644891401" lon="7.9268808361101915"><ele>518.0</ele><time>2026-03-23T17:10:15.999Z</time></trkpt><trkpt lat="44.45272676291936" lon="7.926725087786423"><ele>519.0</ele><time>2026-03-23T17:10:16.999Z</time></trkpt><trkpt lat="44.45264542666117" lon="7.926564648947726"><ele>520.0</ele><time>2026-03-23T17:10:17.999Z</time></trkpt><trkpt lat="44.452570723255846" lon="7.926424537267338"><ele>521.0</ele><time>2026-03-23T17:10:18.999Z</time></trkpt><trkpt lat="44.45251060119225" lon="7.926284741054412"><ele>521.0</ele><time>2026-03-23T17:10:19.999Z</time></trkpt><trkpt lat="44.45245561467736" lon="7.926147789474061"><ele>521.0</ele><time>2026-03-23T17:10:20.999Z</time></trkpt><trkpt lat="44.452401950432524" lon="7.925990323569528"><ele>521.0</ele><time>2026-03-23T17:10:21.999Z</time></trkpt><trkpt lat="44.45236652302408" lon="7.925815526493242"><ele>521.0</ele><time>2026-03-23T17:10:22.999Z</time></trkpt><trkpt lat="44.45233105507318" lon="7.92565008815296"><ele>520.5</ele><time>2026-03-23T17:10:23.999Z</time></trkpt><trkpt lat="44.45229967624568" lon="7.9254781056151185"><ele>520.0</ele><time>2026-03-23T17:10:24.999Z</time></trkpt><trkpt lat="44.45227210737181" lon="7.925301923291062"><ele>519.5</ele><time>2026-03-23T17:10:25.999Z</time></trkpt><trkpt lat="44.45225481965282" lon="7.9251271388262"><ele>519.0</ele><time>2026-03-23T17:10:26.999Z</time></trkpt><trkpt lat="44.45225470603241" lon="7.924935524759668"><ele>518.0</ele><time>2026-03-23T17:10:27.999Z</time></trkpt><trkpt lat="44.45225380448511" lon="7.924747792841065"><ele>517.0</ele><time>2026-03-23T17:10:28.999Z</time></trkpt><trkpt lat="44.45228343830702" lon="7.924574234368337"><ele>516.0</ele><time>2026-03-23T17:10:29.999Z</time></trkpt><trkpt lat="44.45230258841606" lon="7.924386201942342"><ele>515.0</ele><time>2026-03-23T17:10:30.999Z</time></trkpt><trkpt lat="44.45231924574502" lon="7.924216782916283"><ele>514.75</ele><time>2026-03-23T17:10:31.999Z</time></trkpt><trkpt lat="44.45231967146014" lon="7.924037690375385"><ele>514.5</ele><time>2026-03-23T17:10:32.999Z</time></trkpt><trkpt lat="44.4523393952821" lon="7.9238562672252195"><ele>514.25</ele><time>2026-03-23T17:10:33.999Z</time></trkpt><trkpt lat="44.45235078835728" lon="7.9236671417641515"><ele>514.0</ele><time>2026-03-23T17:10:34.999Z</time></trkpt><trkpt lat="44.45235865132566" lon="7.923478191807212"><ele>513.5</ele><time>2026-03-23T17:10:35.999Z</time></trkpt><trkpt lat="44.45236382864727" lon="7.923297695477757"><ele>513.0</ele><time>2026-03-23T17:10:36.999Z</time></trkpt><trkpt lat="44.45236997722549" lon="7.923123880724925"><ele>512.5</ele><time>2026-03-23T17:10:37.999Z</time></trkpt><trkpt lat="44.45237637105989" lon="7.922958974111186"><ele>512.0</ele><time>2026-03-23T17:10:38.999Z</time></trkpt><trkpt lat="44.452385289561626" lon="7.9227961534345495"><ele>512.0</ele><time>2026-03-23T17:10:39.999Z</time></trkpt><trkpt lat="44.45239289287959" lon="7.922645679870462"><ele>512.0</ele><time>2026-03-23T17:10:40.999Z</time></trkpt><trkpt lat="44.45239422177277" lon="7.922510152870372"><ele>512.0</ele><time>2026-03-23T17:10:41.999Z</time></trkpt><trkpt lat="44.45239172043995" lon="7.922387668839598"><ele>512.0</ele><time>2026-03-23T17:10:42.999Z</time></trkpt><trkpt lat="44.45237971969408" lon="7.922252421084486"><ele>512.0</ele><time>2026-03-23T17:10:43.999Z</time></trkpt><trkpt lat="44.45235693682453" lon="7.922138449611403"><ele>511.25</ele><time>2026-03-23T17:10:44.999Z</time></trkpt><trkpt lat="44.45231735308528" lon="7.921994772044159"><ele>510.5</ele><time>2026-03-23T17:10:45.999Z</time></trkpt><trkpt lat="44.45226368759122" lon="7.921853200231057"><ele>509.75</ele><time>2026-03-23T17:10:46.999Z</time></trkpt><trkpt lat="44.452199003825264" lon="7.921711639417866"><ele>509.0</ele><time>2026-03-23T17:10:47.999Z</time></trkpt><trkpt lat="44.45214414922132" lon="7.92157488251699"><ele>507.2</ele><time>2026-03-23T17:10:48.999Z</time></trkpt><trkpt lat="44.45208978224928" lon="7.921438141489037"><ele>505.4</ele><time>2026-03-23T17:10:49.999Z</time></trkpt><trkpt lat="44.45202741653384" lon="7.921298269831506"><ele>503.6</ele><time>2026-03-23T17:10:50.999Z</time></trkpt><trkpt lat="44.451972443419436" lon="7.921173733407523"><ele>501.8</ele><time>2026-03-23T17:10:51.999Z</time></trkpt><trkpt lat="44.45192010544636" lon="7.921054637628076"><ele>500.0</ele><time>2026-03-23T17:10:52.999Z</time></trkpt><trkpt lat="44.451868820330695" lon="7.920936316878699"><ele>500.6</ele><time>2026-03-23T17:10:53.999Z</time></trkpt><trkpt lat="44.45182291924329" lon="7.920828856671779"><ele>501.2</ele><time>2026-03-23T17:10:54.999Z</time></trkpt><trkpt lat="44.451775254020895" lon="7.920718682082148"><ele>501.79999999999995</ele><time>2026-03-23T17:10:55.999Z</time></trkpt><trkpt lat="44.45173351627461" lon="7.920599422023829"><ele>502.4</ele><time>2026-03-23T17:10:56.999Z</time></trkpt><trkpt lat="44.45171088020342" lon="7.920467615108501"><ele>503.0</ele><time>2026-03-23T17:10:57.999Z</time></trkpt><trkpt lat="44.451703846837816" lon="7.9203475094157145"><ele>503.0</ele><time>2026-03-23T17:10:58.999Z</time></trkpt><trkpt lat="44.45171027159453" lon="7.92021619024411"><ele>502.99999999999994</ele><time>2026-03-23T17:10:59.999Z</time></trkpt><trkpt lat="44.451728181037204" lon="7.920067288408792"><ele>502.99999999999994</ele><time>2026-03-23T17:11:00.999Z</time></trkpt><trkpt lat="44.45173666853317" lon="7.919913930624549"><ele>503.0</ele><time>2026-03-23T17:11:01.999Z</time></trkpt><trkpt lat="44.45174515074433" lon="7.919776092050071"><ele>503.0</ele><time>2026-03-23T17:11:02.999Z</time></trkpt><trkpt lat="44.45175918675621" lon="7.919661388530846"><ele>503.8333333333333</ele><time>2026-03-23T17:11:03.999Z</time></trkpt><trkpt lat="44.45177783125731" lon="7.919539319659631"><ele>504.66666666666663</ele><time>2026-03-23T17:11:04.999Z</time></trkpt><trkpt lat="44.451819443202034" lon="7.919436318931656"><ele>505.5</ele><time>2026-03-23T17:11:05.999Z</time></trkpt><trkpt lat="44.451869675380784" lon="7.919349349378389"><ele>506.33333333333337</ele><time>2026-03-23T17:11:06.998Z</time></trkpt><trkpt lat="44.45192763970127" lon="7.9192757256331765"><ele>507.1666666666667</ele><time>2026-03-23T17:11:07.998Z</time></trkpt><trkpt lat="44.4519991106513" lon="7.919247140159578"><ele>508.0</ele><time>2026-03-23T17:11:08.998Z</time></trkpt><trkpt lat="44.45206550707965" lon="7.919213498321641"><ele>506.59999999999997</ele><time>2026-03-23T17:11:09.998Z</time></trkpt><trkpt lat="44.45215495466853" lon="7.919193058574727"><ele>505.19999999999993</ele><time>2026-03-23T17:11:10.998Z</time></trkpt><trkpt lat="44.45226092519066" lon="7.919172368500599"><ele>503.8</ele><time>2026-03-23T17:11:11.998Z</time></trkpt><trkpt lat="44.45236537088559" lon="7.919155301487392"><ele>502.4</ele><time>2026-03-23T17:11:12.998Z</time></trkpt><trkpt lat="44.45247160075087" lon="7.919136610686497"><ele>501.0</ele><time>2026-03-23T17:11:13.998Z</time></trkpt><trkpt lat="44.452570255589684" lon="7.919116809382753"><ele>501.0</ele><time>2026-03-23T17:11:14.998Z</time></trkpt><trkpt lat="44.45266297104839" lon="7.919098200204362"><ele>501.0</ele><time>2026-03-23T17:11:15.998Z</time></trkpt><trkpt lat="44.452756786336465" lon="7.9190745048862965"><ele>501.0</ele><time>2026-03-23T17:11:16.998Z</time></trkpt><trkpt lat="44.45284541484575" lon="7.9190366531339595"><ele>501.0</ele><time>2026-03-23T17:11:17.998Z</time></trkpt><trkpt lat="44.452921551508545" lon="7.918983022956803"><ele>501.0</ele><time>2026-03-23T17:11:18.998Z</time></trkpt><trkpt lat="44.452996574378844" lon="7.918885734481269"><ele>497.75</ele><time>2026-03-23T17:11:19.998Z</time></trkpt><trkpt lat="44.45308565376542" lon="7.9187815070182666"><ele>494.5</ele><time>2026-03-23T17:11:20.998Z</time></trkpt><trkpt lat="44.453157338729014" lon="7.918652064133753"><ele>491.25</ele><time>2026-03-23T17:11:21.998Z</time></trkpt><trkpt lat="44.45324279015557" lon="7.918530370296827"><ele>488.0</ele><time>2026-03-23T17:11:22.998Z</time></trkpt><trkpt lat="44.45331433373541" lon="7.918416795469853"><ele>490.5</ele><time>2026-03-23T17:11:23.998Z</time></trkpt><trkpt lat="44.453412657181005" lon="7.91833844851682"><ele>493.0</ele><time>2026-03-23T17:11:24.998Z</time></trkpt><trkpt lat="44.45351155670369" lon="7.91825237323088"><ele>495.5</ele><time>2026-03-23T17:11:25.998Z</time></trkpt><trkpt lat="44.45362068704615" lon="7.918178135351412"><ele>498.0</ele><time>2026-03-23T17:11:26.998Z</time></trkpt><trkpt lat="44.45372857717972" lon="7.918115007762137"><ele>495.79999999999995</ele><time>2026-03-23T17:11:27.998Z</time></trkpt><trkpt lat="44.45382771672033" lon="7.918065408313025"><ele>493.59999999999997</ele><time>2026-03-23T17:11:28.998Z</time></trkpt><trkpt lat="44.453918433662515" lon="7.918018180863504"><ele>491.40000000000003</ele><time>2026-03-23T17:11:29.998Z</time></trkpt><trkpt lat="44.453992486030955" lon="7.91797289084544"><ele>489.20000000000005</ele><time>2026-03-23T17:11:30.998Z</time></trkpt><trkpt lat="44.45406398314637" lon="7.917920668090093"><ele>487.0</ele><time>2026-03-23T17:11:31.998Z</time></trkpt><trkpt lat="44.45414279095127" lon="7.917853862579532"><ele>487.0</ele><time>2026-03-23T17:11:32.998Z</time></trkpt><trkpt lat="44.454206114907294" lon="7.917788174477639"><ele>487.00000000000006</ele><time>2026-03-23T17:11:33.998Z</time></trkpt><trkpt lat="44.45426619555518" lon="7.917715643244493"><ele>487.00000000000006</ele><time>2026-03-23T17:11:34.998Z</time></trkpt><trkpt lat="44.45429696173891" lon="7.917623974741023"><ele>487.0</ele><time>2026-03-23T17:11:36Z</time></trkpt><trkpt lat="44.45435189334075" lon="7.917456473381806"><ele>487.0</ele><time>2026-03-23T17:11:38Z</time></trkpt><trkpt lat="44.45437743939534" lon="7.9173389101299785"><ele>487.6666666666667</ele><time>2026-03-23T17:11:39Z</time></trkpt><trkpt lat="44.45439339580673" lon="7.91720452259608"><ele>488.33333333333337</ele><time>2026-03-23T17:11:40Z</time></trkpt><trkpt lat="44.45440540457714" lon="7.9170808859337125"><ele>489.0</ele><time>2026-03-23T17:11:41Z</time></trkpt><trkpt lat="44.454412035067385" lon="7.9169695364588195"><ele>489.66666666666663</ele><time>2026-03-23T17:11:42Z</time></trkpt><trkpt lat="44.454413464735175" lon="7.9168609075583865"><ele>490.3333333333333</ele><time>2026-03-23T17:11:43Z</time></trkpt><trkpt lat="44.45444264268867" lon="7.916757554475405"><ele>491.0</ele><time>2026-03-23T17:11:44Z</time></trkpt><trkpt lat="44.45446320103939" lon="7.916648342287731"><ele>491.0</ele><time>2026-03-23T17:11:45Z</time></trkpt><trkpt lat="44.454494981201115" lon="7.9165596284660635"><ele>491.0</ele><time>2026-03-23T17:11:46Z</time></trkpt><trkpt lat="44.45460050186641" lon="7.916405601039141"><ele>491.0</ele><time>2026-03-23T17:11:48Z</time></trkpt><trkpt lat="44.45466392651035" lon="7.916310164207725"><ele>491.0</ele><time>2026-03-23T17:11:49Z</time></trkpt><trkpt lat="44.45473288037768" lon="7.916221869663997"><ele>491.0</ele><time>2026-03-23T17:11:50Z</time></trkpt><trkpt lat="44.45480743052829" lon="7.916136583819484"><ele>489.49999999999994</ele><time>2026-03-23T17:11:51Z</time></trkpt><trkpt lat="44.45488398668882" lon="7.916057689837554"><ele>488.0</ele><time>2026-03-23T17:11:52Z</time></trkpt><trkpt lat="44.454946201895055" lon="7.916003665250481"><ele>486.5</ele><time>2026-03-23T17:11:53Z</time></trkpt><trkpt lat="44.45501192935427" lon="7.91595439374974"><ele>485.0</ele><time>2026-03-23T17:11:54Z</time></trkpt><trkpt lat="44.45507705223961" lon="7.91591344380102"><ele>483.49999999999994</ele><time>2026-03-23T17:11:55Z</time></trkpt><trkpt lat="44.45519249505823" lon="7.9158583506363005"><ele>482.0</ele><time>2026-03-23T17:11:57Z</time></trkpt><trkpt lat="44.455285969968706" lon="7.915806734290083"><ele>482.0</ele><time>2026-03-23T17:11:59Z</time></trkpt><trkpt lat="44.45534779627748" lon="7.915686986920116"><ele>482.00000000000006</ele><time>2026-03-23T17:12:01Z</time></trkpt><trkpt lat="44.45530513199018" lon="7.915534249325967"><ele>482.00000000000006</ele><time>2026-03-23T17:12:03Z</time></trkpt><trkpt lat="44.455204921536485" lon="7.915415900020017"><ele>482.0</ele><time>2026-03-23T17:12:05Z</time></trkpt><trkpt lat="44.455135162766645" lon="7.9153672154880645"><ele>482.0</ele><time>2026-03-23T17:12:06Z</time></trkpt><trkpt lat="44.455060252818704" lon="7.915311588653149"><ele>482.0</ele><time>2026-03-23T17:12:07Z</time></trkpt><trkpt lat="44.45498607852859" lon="7.9152434871186035"><ele>482.00000000000006</ele><time>2026-03-23T17:12:08Z</time></trkpt><trkpt lat="44.454906495450665" lon="7.915172098244555"><ele>482.00000000000006</ele><time>2026-03-23T17:12:09Z</time></trkpt><trkpt lat="44.45482778962134" lon="7.915101023174931"><ele>482.0</ele><time>2026-03-23T17:12:10Z</time></trkpt><trkpt lat="44.45475605478631" lon="7.91503129177106"><ele>482.0</ele><time>2026-03-23T17:12:11Z</time></trkpt><trkpt lat="44.45467694841165" lon="7.914956394710375"><ele>480.99999999999994</ele><time>2026-03-23T17:12:12Z</time></trkpt><trkpt lat="44.45460102563777" lon="7.914885703803374"><ele>480.0</ele><time>2026-03-23T17:12:13Z</time></trkpt><trkpt lat="44.45453396115645" lon="7.9148235184813664"><ele>479.0</ele><time>2026-03-23T17:12:14Z</time></trkpt><trkpt lat="44.45446117916646" lon="7.914758301712984"><ele>478.0</ele><time>2026-03-23T17:12:15Z</time></trkpt><trkpt lat="44.45438544470096" lon="7.9146859241364105"><ele>476.99999999999994</ele><time>2026-03-23T17:12:16Z</time></trkpt><trkpt lat="44.45431352458556" lon="7.914613144384834"><ele>476.0</ele><time>2026-03-23T17:12:16.999Z</time></trkpt><trkpt lat="44.45423828766911" lon="7.91453748187771"><ele>475.99999999999994</ele><time>2026-03-23T17:12:17.999Z</time></trkpt><trkpt lat="44.45415978853622" lon="7.914466393247624"><ele>476.0</ele><time>2026-03-23T17:12:18.999Z</time></trkpt><trkpt lat="44.454084567776455" lon="7.9144010655473265"><ele>476.0</ele><time>2026-03-23T17:12:19.999Z</time></trkpt><trkpt lat="44.454008690395845" lon="7.914344536492232"><ele>476.0</ele><time>2026-03-23T17:12:20.999Z</time></trkpt><trkpt lat="44.45392495815535" lon="7.914285693217698"><ele>475.99999999999994</ele><time>2026-03-23T17:12:21.999Z</time></trkpt><trkpt lat="44.453848730445564" lon="7.9142322491376715"><ele>476.0</ele><time>2026-03-23T17:12:22.999Z</time></trkpt><trkpt lat="44.45376999670326" lon="7.914165201235877"><ele>474.6</ele><time>2026-03-23T17:12:23.999Z</time></trkpt><trkpt lat="44.45368406729549" lon="7.914094609234699"><ele>473.20000000000005</ele><time>2026-03-23T17:12:24.999Z</time></trkpt><trkpt lat="44.45360147029908" lon="7.914026394262566"><ele>471.79999999999995</ele><time>2026-03-23T17:12:25.999Z</time></trkpt><trkpt lat="44.45352240040592" lon="7.913965219390831"><ele>470.4</ele><time>2026-03-23T17:12:26.999Z</time></trkpt><trkpt lat="44.4534436247404" lon="7.9139023687795405"><ele>469.0</ele><time>2026-03-23T17:12:27.999Z</time></trkpt><trkpt lat="44.4533605091089" lon="7.913839350586782"><ele>469.0</ele><time>2026-03-23T17:12:28.999Z</time></trkpt><trkpt lat="44.45327983970459" lon="7.913779401321225"><ele>469.0</ele><time>2026-03-23T17:12:29.999Z</time></trkpt><trkpt lat="44.45320456632347" lon="7.913719204191077"><ele>469.0</ele><time>2026-03-23T17:12:30.999Z</time></trkpt><trkpt lat="44.453122247903835" lon="7.913658244675471"><ele>469.0</ele><time>2026-03-23T17:12:31.999Z</time></trkpt><trkpt lat="44.45303924724232" lon="7.913606368015471"><ele>469.0</ele><time>2026-03-23T17:12:32.999Z</time></trkpt><trkpt lat="44.45293932380123" lon="7.913553174811697"><ele>469.6</ele><time>2026-03-23T17:12:33.999Z</time></trkpt><trkpt lat="44.45284561257805" lon="7.913519435398698"><ele>470.2</ele><time>2026-03-23T17:12:34.999Z</time></trkpt><trkpt lat="44.452758397256616" lon="7.913491736162996"><ele>470.80000000000007</ele><time>2026-03-23T17:12:35.999Z</time></trkpt><trkpt lat="44.45266977285113" lon="7.9134665400868895"><ele>471.40000000000003</ele><time>2026-03-23T17:12:36.999Z</time></trkpt><trkpt lat="44.45256673124588" lon="7.913432794924249"><ele>472.0</ele><time>2026-03-23T17:12:37.999Z</time></trkpt><trkpt lat="44.452468360289366" lon="7.913418651311889"><ele>472.00000000000006</ele><time>2026-03-23T17:12:38.999Z</time></trkpt><trkpt lat="44.45238754607167" lon="7.913414156010038"><ele>472.0</ele><time>2026-03-23T17:12:39.999Z</time></trkpt><trkpt lat="44.45230881128321" lon="7.913420836030014"><ele>472.0</ele><time>2026-03-23T17:12:40.999Z</time></trkpt><trkpt lat="44.452238621479545" lon="7.913431487353196"><ele>472.0</ele><time>2026-03-23T17:12:41.999Z</time></trkpt><trkpt lat="44.45217228612387" lon="7.913451852157881"><ele>472.00000000000006</ele><time>2026-03-23T17:12:42.999Z</time></trkpt><trkpt lat="44.45210322721989" lon="7.913482703610872"><ele>472.0</ele><time>2026-03-23T17:12:43.999Z</time></trkpt><trkpt lat="44.45202967464725" lon="7.913531917222786"><ele>470.6</ele><time>2026-03-23T17:12:44.999Z</time></trkpt><trkpt lat="44.45196614845307" lon="7.9135841437159025"><ele>469.20000000000005</ele><time>2026-03-23T17:12:45.999Z</time></trkpt><trkpt lat="44.45189876075511" lon="7.913644641205991"><ele>467.8</ele><time>2026-03-23T17:12:46.999Z</time></trkpt><trkpt lat="44.45182666525062" lon="7.9137238670610675"><ele>466.4</ele><time>2026-03-23T17:12:47.999Z</time></trkpt><trkpt lat="44.451743786331576" lon="7.913816027357994"><ele>465.0</ele><time>2026-03-23T17:12:48.999Z</time></trkpt><trkpt lat="44.45165923207678" lon="7.913886893632858"><ele>465.0</ele><time>2026-03-23T17:12:49.999Z</time></trkpt><trkpt lat="44.451571198778765" lon="7.913948990689542"><ele>465.0</ele><time>2026-03-23T17:12:50.999Z</time></trkpt><trkpt lat="44.45145405383134" lon="7.914001375793233"><ele>465.0</ele><time>2026-03-23T17:12:51.999Z</time></trkpt><trkpt lat="44.45132117001276" lon="7.914025192819768"><ele>465.0</ele><time>2026-03-23T17:12:52.999Z</time></trkpt><trkpt lat="44.45120860860641" lon="7.914035185244732"><ele>464.3333333333333</ele><time>2026-03-23T17:12:53.999Z</time></trkpt><trkpt lat="44.451108973523496" lon="7.9140466687453985"><ele>463.66666666666663</ele><time>2026-03-23T17:12:54.999Z</time></trkpt><trkpt lat="44.45101910703161" lon="7.914063553959934"><ele>463.0</ele><time>2026-03-23T17:12:55.999Z</time></trkpt><trkpt lat="44.450932568473675" lon="7.914109499224651"><ele>462.3333333333333</ele><time>2026-03-23T17:12:56.999Z</time></trkpt><trkpt lat="44.45085464544144" lon="7.9141602334739565"><ele>461.66666666666663</ele><time>2026-03-23T17:12:57.999Z</time></trkpt><trkpt lat="44.45078814936872" lon="7.91420825044506"><ele>461.0</ele><time>2026-03-23T17:12:58.999Z</time></trkpt><trkpt lat="44.450728750272575" lon="7.914251556611013"><ele>461.0</ele><time>2026-03-23T17:12:59.999Z</time></trkpt><trkpt lat="44.45062319998165" lon="7.9142676060617045"><ele>461.0</ele><time>2026-03-23T17:13:01.999Z</time></trkpt><trkpt lat="44.450567613246164" lon="7.914178536939539"><ele>461.0</ele><time>2026-03-23T17:13:03.999Z</time></trkpt><trkpt lat="44.45053656951756" lon="7.914006883286966"><ele>461.0</ele><time>2026-03-23T17:13:05.999Z</time></trkpt><trkpt lat="44.45055376465978" lon="7.9139206787109995"><ele>461.0</ele><time>2026-03-23T17:13:06.999Z</time></trkpt><trkpt lat="44.45057095273748" lon="7.913810662247419"><ele>460.99999999999994</ele><time>2026-03-23T17:13:07.999Z</time></trkpt><trkpt lat="44.45058587828821" lon="7.913688222235513"><ele>461.0</ele><time>2026-03-23T17:13:08.999Z</time></trkpt><trkpt lat="44.45059923516609" lon="7.913588672524087"><ele>461.0</ele><time>2026-03-23T17:13:09.999Z</time></trkpt><trkpt lat="44.45062043772386" lon="7.913485365513405"><ele>461.0</ele><time>2026-03-23T17:13:10.999Z</time></trkpt><trkpt lat="44.45063377238818" lon="7.91339486431806"><ele>460.99999999999994</ele><time>2026-03-23T17:13:11.999Z</time></trkpt><trkpt lat="44.45064264349118" lon="7.913288283194521"><ele>461.0</ele><time>2026-03-23T17:13:12.998Z</time></trkpt><trkpt lat="44.45063849168719" lon="7.913174667996181"><ele>461.4</ele><time>2026-03-23T17:13:13.998Z</time></trkpt><trkpt lat="44.45062572920912" lon="7.913071194107237"><ele>461.8</ele><time>2026-03-23T17:13:14.998Z</time></trkpt><trkpt lat="44.45058300426207" lon="7.9129538342303665"><ele>462.19999999999993</ele><time>2026-03-23T17:13:15.998Z</time></trkpt><trkpt lat="44.450530586813485" lon="7.912846887261414"><ele>462.59999999999997</ele><time>2026-03-23T17:13:16.998Z</time></trkpt><trkpt lat="44.45046406902678" lon="7.912732653024585"><ele>463.0</ele><time>2026-03-23T17:13:17.998Z</time></trkpt><trkpt lat="44.45040471586592" lon="7.912634811188823"><ele>460.33333333333337</ele><time>2026-03-23T17:13:18.998Z</time></trkpt><trkpt lat="44.45034159563996" lon="7.912561176240209"><ele>457.6666666666667</ele><time>2026-03-23T17:13:19.998Z</time></trkpt><trkpt lat="44.450273752922115" lon="7.912497760193171"><ele>455.0</ele><time>2026-03-23T17:13:20.998Z</time></trkpt><trkpt lat="44.450205247095134" lon="7.912446840162571"><ele>452.33333333333337</ele><time>2026-03-23T17:13:21.998Z</time></trkpt><trkpt lat="44.45009860863329" lon="7.912397463756711"><ele>449.6666666666667</ele><time>2026-03-23T17:13:23.998Z</time></trkpt><trkpt lat="44.450027242972254" lon="7.912401807493247"><ele>447.0</ele><time>2026-03-23T17:13:24.998Z</time></trkpt><trkpt lat="44.44994536224238" lon="7.912429905051862"><ele>447.0</ele><time>2026-03-23T17:13:25.998Z</time></trkpt><trkpt lat="44.449852310513144" lon="7.91247583070532"><ele>447.00000000000006</ele><time>2026-03-23T17:13:26.998Z</time></trkpt><trkpt lat="44.44975908965978" lon="7.91253899631214"><ele>447.00000000000006</ele><time>2026-03-23T17:13:27.998Z</time></trkpt><trkpt lat="44.44966638400321" lon="7.912606557944349"><ele>447.0</ele><time>2026-03-23T17:13:28.998Z</time></trkpt><trkpt lat="44.4495820504836" lon="7.912652777627216"><ele>447.0</ele><time>2026-03-23T17:13:29.998Z</time></trkpt><trkpt lat="44.44949401063353" lon="7.912697433696508"><ele>449.20000000000005</ele><time>2026-03-23T17:13:30.998Z</time></trkpt><trkpt lat="44.44941805971262" lon="7.9127461962425025"><ele>451.40000000000003</ele><time>2026-03-23T17:13:31.998Z</time></trkpt><trkpt lat="44.44934561873629" lon="7.912797401151258"><ele>453.59999999999997</ele><time>2026-03-23T17:13:32.998Z</time></trkpt><trkpt lat="44.449286497893226" lon="7.912835045801624"><ele>455.79999999999995</ele><time>2026-03-23T17:13:33.998Z</time></trkpt><trkpt lat="44.44921768021858" lon="7.91287849966408"><ele>458.0</ele><time>2026-03-23T17:13:35.998Z</time></trkpt><trkpt lat="44.44907262065301" lon="7.912982356961118"><ele>458.0</ele><time>2026-03-23T17:15:24.998Z</time></trkpt><trkpt lat="44.44901251242253" lon="7.913063966946317"><ele>457.99999999999994</ele><time>2026-03-23T17:15:31.998Z</time></trkpt><trkpt lat="44.44893164138397" lon="7.913154264980559"><ele>457.99999999999994</ele><time>2026-03-23T17:15:33.998Z</time></trkpt><trkpt lat="44.448844062830034" lon="7.913212830302913"><ele>458.0</ele><time>2026-03-23T17:15:35.998Z</time></trkpt><trkpt lat="44.44877613674565" lon="7.913276327614552"><ele>458.0</ele><time>2026-03-23T17:15:37.998Z</time></trkpt><trkpt lat="44.44867631104654" lon="7.913384008872494"><ele>459.0</ele><time>2026-03-23T17:15:39.998Z</time></trkpt><trkpt lat="44.44857352660331" lon="7.9134644162446905"><ele>460.0</ele><time>2026-03-23T17:15:41.998Z</time></trkpt><trkpt lat="44.448463448377694" lon="7.913475260142477"><ele>461.0</ele><time>2026-03-23T17:15:43.998Z</time></trkpt><trkpt lat="44.44837128518057" lon="7.913414610311477"><ele>462.0</ele><time>2026-03-23T17:15:45.998Z</time></trkpt><trkpt lat="44.44836539981436" lon="7.913241112326"><ele>462.0</ele><time>2026-03-23T17:15:48Z</time></trkpt><trkpt lat="44.44842547198687" lon="7.913113964938406"><ele>462.00000000000006</ele><time>2026-03-23T17:15:50Z</time></trkpt><trkpt lat="44.44846490339625" lon="7.913017762586167"><ele>462.00000000000006</ele><time>2026-03-23T17:15:51Z</time></trkpt><trkpt lat="44.44851061054315" lon="7.912917058232521"><ele>462.0</ele><time>2026-03-23T17:15:52Z</time></trkpt><trkpt lat="44.44856591382079" lon="7.912811706605323"><ele>462.0</ele><time>2026-03-23T17:15:53Z</time></trkpt><trkpt lat="44.44863326536496" lon="7.9126968522719245"><ele>462.0</ele><time>2026-03-23T17:15:54Z</time></trkpt><trkpt lat="44.44871539806353" lon="7.912587522500372"><ele>462.00000000000006</ele><time>2026-03-23T17:15:55Z</time></trkpt><trkpt lat="44.448798706231486" lon="7.912488106913387"><ele>462.00000000000006</ele><time>2026-03-23T17:15:56Z</time></trkpt><trkpt lat="44.44889080231978" lon="7.912387673707216"><ele>462.0</ele><time>2026-03-23T17:15:57Z</time></trkpt><trkpt lat="44.448973241540266" lon="7.912293714133089"><ele>462.0</ele><time>2026-03-23T17:15:58Z</time></trkpt><trkpt lat="44.44904004363668" lon="7.912217040198999"><ele>459.6666666666667</ele><time>2026-03-23T17:15:59Z</time></trkpt><trkpt lat="44.449110931171255" lon="7.912129620032559"><ele>457.33333333333337</ele><time>2026-03-23T17:16:00Z</time></trkpt><trkpt lat="44.44916564236506" lon="7.912047039794136"><ele>455.0</ele><time>2026-03-23T17:16:01Z</time></trkpt><trkpt lat="44.4492121041179" lon="7.911955616716162"><ele>452.6666666666667</ele><time>2026-03-23T17:16:02Z</time></trkpt><trkpt lat="44.449251686692335" lon="7.911847092619657"><ele>450.33333333333337</ele><time>2026-03-23T17:16:03Z</time></trkpt><trkpt lat="44.44928330039586" lon="7.911737908954873"><ele>448.0</ele><time>2026-03-23T17:16:04Z</time></trkpt><trkpt lat="44.449308896316886" lon="7.911620811926975"><ele>447.59999999999997</ele><time>2026-03-23T17:16:05Z</time></trkpt><trkpt lat="44.44932820505319" lon="7.9114859041865"><ele>447.19999999999993</ele><time>2026-03-23T17:16:06Z</time></trkpt><trkpt lat="44.44933463950946" lon="7.911352836568702"><ele>446.8</ele><time>2026-03-23T17:16:07Z</time></trkpt><trkpt lat="44.449331149002" lon="7.911239517283001"><ele>446.4</ele><time>2026-03-23T17:16:08Z</time></trkpt><trkpt lat="44.44929189195887" lon="7.911109708014133"><ele>446.0</ele><time>2026-03-23T17:16:09Z</time></trkpt><trkpt lat="44.44925756090282" lon="7.910967243392217"><ele>445.25</ele><time>2026-03-23T17:16:10Z</time></trkpt><trkpt lat="44.4492114547019" lon="7.910835431956721"><ele>444.5</ele><time>2026-03-23T17:16:11Z</time></trkpt><trkpt lat="44.44916074800509" lon="7.910691660037932"><ele>443.75</ele><time>2026-03-23T17:16:12Z</time></trkpt><trkpt lat="44.44910030636993" lon="7.910530618474478"><ele>443.0</ele><time>2026-03-23T17:16:13Z</time></trkpt><trkpt lat="44.44903542538669" lon="7.910373136784897"><ele>443.0</ele><time>2026-03-23T17:16:14Z</time></trkpt><trkpt lat="44.44896644805946" lon="7.910199427441783"><ele>443.0</ele><time>2026-03-23T17:16:15Z</time></trkpt><trkpt lat="44.448894089694974" lon="7.910023922326922"><ele>443.0</ele><time>2026-03-23T17:16:16Z</time></trkpt><trkpt lat="44.448831194113" lon="7.90986522325146"><ele>443.0</ele><time>2026-03-23T17:16:17Z</time></trkpt><trkpt lat="44.4487706360808" lon="7.909716846099201"><ele>442.75</ele><time>2026-03-23T17:16:18Z</time></trkpt><trkpt lat="44.4487122512493" lon="7.909568439441902"><ele>442.5</ele><time>2026-03-23T17:16:19Z</time></trkpt><trkpt lat="44.44865350070346" lon="7.909415419198453"><ele>442.25</ele><time>2026-03-23T17:16:20Z</time></trkpt><trkpt lat="44.44858849609016" lon="7.909280624361963"><ele>442.0</ele><time>2026-03-23T17:16:21Z</time></trkpt><trkpt lat="44.44852650856368" lon="7.909171927676147"><ele>442.00000000000006</ele><time>2026-03-23T17:16:22Z</time></trkpt><trkpt lat="44.44847223898897" lon="7.9090765191794326"><ele>442.0</ele><time>2026-03-23T17:16:23Z</time></trkpt><trkpt lat="44.448413802421015" lon="7.908995225914029"><ele>442.0</ele><time>2026-03-23T17:16:24Z</time></trkpt><trkpt lat="44.448351098171486" lon="7.908910300239689"><ele>442.0</ele><time>2026-03-23T17:16:25Z</time></trkpt><trkpt lat="44.448287794575535" lon="7.908847310070334"><ele>442.00000000000006</ele><time>2026-03-23T17:16:26Z</time></trkpt><trkpt lat="44.4482209937312" lon="7.908786723146445"><ele>442.0</ele><time>2026-03-23T17:16:27Z</time></trkpt><trkpt lat="44.44814770506606" lon="7.908742173019163"><ele>442.00000000000006</ele><time>2026-03-23T17:16:28Z</time></trkpt><trkpt lat="44.44807895339011" lon="7.908712601130832"><ele>442.0</ele><time>2026-03-23T17:16:29Z</time></trkpt><trkpt lat="44.44799300891418" lon="7.908693008737467"><ele>442.0</ele><time>2026-03-23T17:16:29.999Z</time></trkpt><trkpt lat="44.44790342911212" lon="7.9087022780741245"><ele>442.0</ele><time>2026-03-23T17:16:30.999Z</time></trkpt><trkpt lat="44.44781606952154" lon="7.908710763924017"><ele>442.00000000000006</ele><time>2026-03-23T17:16:31.999Z</time></trkpt><trkpt lat="44.447730189639" lon="7.908724934467934"><ele>442.0</ele><time>2026-03-23T17:16:32.999Z</time></trkpt><trkpt lat="44.44765084862081" lon="7.908746822024207"><ele>442.83333333333337</ele><time>2026-03-23T17:16:33.999Z</time></trkpt><trkpt lat="44.44756910939874" lon="7.90875937405737"><ele>443.6666666666667</ele><time>2026-03-23T17:16:34.999Z</time></trkpt><trkpt lat="44.44748832844163" lon="7.908759170839405"><ele>444.5</ele><time>2026-03-23T17:16:35.999Z</time></trkpt><trkpt lat="44.447415129004895" lon="7.908740174889497"><ele>445.33333333333337</ele><time>2026-03-23T17:16:36.999Z</time></trkpt><trkpt lat="44.447328393470336" lon="7.908697245451243"><ele>446.1666666666667</ele><time>2026-03-23T17:16:37.999Z</time></trkpt><trkpt lat="44.4472742257331" lon="7.9086201654403805"><ele>447.0</ele><time>2026-03-23T17:16:38.999Z</time></trkpt><trkpt lat="44.447209162029786" lon="7.90853205689196"><ele>447.0</ele><time>2026-03-23T17:16:39.999Z</time></trkpt><trkpt lat="44.44715086938525" lon="7.908420408925458"><ele>447.00000000000006</ele><time>2026-03-23T17:16:40.999Z</time></trkpt><trkpt lat="44.447097491151546" lon="7.908303333520591"><ele>447.00000000000006</ele><time>2026-03-23T17:16:41.999Z</time></trkpt><trkpt lat="44.44704441656576" lon="7.908176134154912"><ele>447.0</ele><time>2026-03-23T17:16:42.999Z</time></trkpt><trkpt lat="44.44699814938389" lon="7.908035505481465"><ele>447.0</ele><time>2026-03-23T17:16:43.999Z</time></trkpt><trkpt lat="44.44696561804156" lon="7.907872546057104"><ele>447.25</ele><time>2026-03-23T17:16:44.999Z</time></trkpt><trkpt lat="44.44692988892549" lon="7.907685662485744"><ele>447.5</ele><time>2026-03-23T17:16:45.999Z</time></trkpt><trkpt lat="44.44689313004537" lon="7.907501735287295"><ele>447.75</ele><time>2026-03-23T17:16:46.999Z</time></trkpt><trkpt lat="44.446850888774385" lon="7.907304069956357"><ele>448.0</ele><time>2026-03-23T17:16:47.999Z</time></trkpt><trkpt lat="44.4468036628429" lon="7.907100739542674"><ele>446.0</ele><time>2026-03-23T17:16:48.999Z</time></trkpt><trkpt lat="44.446734614841745" lon="7.906882405890069"><ele>444.0</ele><time>2026-03-23T17:16:49.999Z</time></trkpt><trkpt lat="44.44667716939308" lon="7.906689875626983"><ele>442.0</ele><time>2026-03-23T17:16:50.999Z</time></trkpt><trkpt lat="44.446630437915836" lon="7.90649350334589"><ele>440.75</ele><time>2026-03-23T17:16:51.999Z</time></trkpt><trkpt lat="44.44657769466495" lon="7.906315156958994"><ele>439.5</ele><time>2026-03-23T17:16:52.999Z</time></trkpt><trkpt lat="44.446525876344296" lon="7.9061410335738795"><ele>438.25</ele><time>2026-03-23T17:16:53.999Z</time></trkpt><trkpt lat="44.44647966179824" lon="7.905977320334212"><ele>437.0</ele><time>2026-03-23T17:16:54.999Z</time></trkpt><trkpt lat="44.44642772113755" lon="7.905817993163316"><ele>437.75</ele><time>2026-03-23T17:16:55.999Z</time></trkpt><trkpt lat="44.44637933834352" lon="7.905665297761249"><ele>438.5</ele><time>2026-03-23T17:16:56.999Z</time></trkpt><trkpt lat="44.44633432953303" lon="7.905512471498595"><ele>439.25</ele><time>2026-03-23T17:16:57.999Z</time></trkpt><trkpt lat="44.446275778529866" lon="7.905354867827011"><ele>440.0</ele><time>2026-03-23T17:16:58.999Z</time></trkpt><trkpt lat="44.446228146491215" lon="7.905182928583138"><ele>438.0</ele><time>2026-03-23T17:16:59.999Z</time></trkpt><trkpt lat="44.44617016759836" lon="7.905011253323854"><ele>436.0</ele><time>2026-03-23T17:17:00.999Z</time></trkpt><trkpt lat="44.44611822777575" lon="7.904865358552593"><ele>434.0</ele><time>2026-03-23T17:17:01.999Z</time></trkpt><trkpt lat="44.446062574164976" lon="7.9047002353962785"><ele>432.0</ele><time>2026-03-23T17:17:02.999Z</time></trkpt><trkpt lat="44.44599435819123" lon="7.904532783832681"><ele>432.0</ele><time>2026-03-23T17:17:03.999Z</time></trkpt><trkpt lat="44.44593271198539" lon="7.904371854018512"><ele>432.0</ele><time>2026-03-23T17:17:04.999Z</time></trkpt><trkpt lat="44.445881107319664" lon="7.904226535571011"><ele>432.0</ele><time>2026-03-23T17:17:05.999Z</time></trkpt><trkpt lat="44.44583870374362" lon="7.904092938481585"><ele>432.0</ele><time>2026-03-23T17:17:06.999Z</time></trkpt><trkpt lat="44.44579235782345" lon="7.903957639302576"><ele>431.6666666666667</ele><time>2026-03-23T17:17:07.999Z</time></trkpt><trkpt lat="44.44574576510516" lon="7.903830358660046"><ele>431.33333333333337</ele><time>2026-03-23T17:17:08.999Z</time></trkpt><trkpt lat="44.44569930984199" lon="7.903721364547575"><ele>431.0</ele><time>2026-03-23T17:17:09.999Z</time></trkpt><trkpt lat="44.44565083548956" lon="7.903618614878113"><ele>430.6666666666667</ele><time>2026-03-23T17:17:10.999Z</time></trkpt><trkpt lat="44.445601359638786" lon="7.903524375331855"><ele>430.33333333333337</ele><time>2026-03-23T17:17:11.999Z</time></trkpt><trkpt lat="44.44555466077351" lon="7.9034432919175055"><ele>430.0</ele><time>2026-03-23T17:17:12.999Z</time></trkpt><trkpt lat="44.445502888323226" lon="7.903371817530619"><ele>429.0</ele><time>2026-03-23T17:17:13.999Z</time></trkpt><trkpt lat="44.445433998096824" lon="7.903310642560064"><ele>428.0</ele><time>2026-03-23T17:17:14.999Z</time></trkpt><trkpt lat="44.445355492892304" lon="7.903262828519541"><ele>427.0</ele><time>2026-03-23T17:17:15.999Z</time></trkpt><trkpt lat="44.44526339578623" lon="7.903226798253678"><ele>426.0</ele><time>2026-03-23T17:17:16.999Z</time></trkpt><trkpt lat="44.44516364931784" lon="7.903192695151549"><ele>425.0</ele><time>2026-03-23T17:17:17.999Z</time></trkpt><trkpt lat="44.445071236048335" lon="7.903159026255919"><ele>424.99999999999994</ele><time>2026-03-23T17:17:18.999Z</time></trkpt><trkpt lat="44.44498275672904" lon="7.903132774036482"><ele>425.0</ele><time>2026-03-23T17:17:19.999Z</time></trkpt><trkpt lat="44.444899249143944" lon="7.903099062811692"><ele>425.0</ele><time>2026-03-23T17:17:20.999Z</time></trkpt><trkpt lat="44.44482334404318" lon="7.903059383282671"><ele>425.0</ele><time>2026-03-23T17:17:21.999Z</time></trkpt><trkpt lat="44.44474141324496" lon="7.903016107655589"><ele>424.99999999999994</ele><time>2026-03-23T17:17:22.999Z</time></trkpt><trkpt lat="44.44467101236219" lon="7.902970550298299"><ele>425.0</ele><time>2026-03-23T17:17:23.999Z</time></trkpt><trkpt lat="44.44458065299379" lon="7.9029029305425285"><ele>423.8333333333333</ele><time>2026-03-23T17:17:24.999Z</time></trkpt><trkpt lat="44.4445011291936" lon="7.902837940197949"><ele>422.66666666666663</ele><time>2026-03-23T17:17:25.998Z</time></trkpt><trkpt lat="44.44442531266641" lon="7.902770995065325"><ele>421.5</ele><time>2026-03-23T17:17:26.998Z</time></trkpt><trkpt lat="44.4443524941201" lon="7.9027038148141395"><ele>420.33333333333337</ele><time>2026-03-23T17:17:27.998Z</time></trkpt><trkpt lat="44.444282619413976" lon="7.902642004389485"><ele>419.1666666666667</ele><time>2026-03-23T17:17:28.998Z</time></trkpt><trkpt lat="44.44422056151169" lon="7.90256989483975"><ele>418.0</ele><time>2026-03-23T17:17:29.998Z</time></trkpt><trkpt lat="44.44414674993204" lon="7.902472497429585"><ele>418.0</ele><time>2026-03-23T17:17:30.998Z</time></trkpt><trkpt lat="44.44408999519197" lon="7.902365812817407"><ele>418.0</ele><time>2026-03-23T17:17:31.998Z</time></trkpt><trkpt lat="44.44403082180994" lon="7.902258988315688"><ele>418.0</ele><time>2026-03-23T17:17:32.998Z</time></trkpt><trkpt lat="44.4439806803718" lon="7.902157600225225"><ele>418.0</ele><time>2026-03-23T17:17:33.998Z</time></trkpt><trkpt lat="44.44393534798505" lon="7.90204544754909"><ele>418.0</ele><time>2026-03-23T17:17:34.998Z</time></trkpt><trkpt lat="44.44388743322869" lon="7.901949384025792"><ele>418.00000000000006</ele><time>2026-03-23T17:17:35.998Z</time></trkpt><trkpt lat="44.443834422413566" lon="7.901862149277372"><ele>418.0</ele><time>2026-03-23T17:17:36.998Z</time></trkpt><trkpt lat="44.443779151439976" lon="7.901786623946911"><ele>418.0</ele><time>2026-03-23T17:17:37.998Z</time></trkpt><trkpt lat="44.44371053786264" lon="7.9017197163036625"><ele>418.0</ele><time>2026-03-23T17:17:38.998Z</time></trkpt><trkpt lat="44.443651863041666" lon="7.901650661103995"><ele>418.00000000000006</ele><time>2026-03-23T17:17:39.998Z</time></trkpt><trkpt lat="44.44359368750271" lon="7.901588455384766"><ele>418.0</ele><time>2026-03-23T17:17:40.998Z</time></trkpt><trkpt lat="44.44353562353792" lon="7.9015421088190445"><ele>416.00000000000006</ele><time>2026-03-23T17:17:41.998Z</time></trkpt><trkpt lat="44.443442528067244" lon="7.901495920380642"><ele>414.0</ele><time>2026-03-23T17:17:43.998Z</time></trkpt><trkpt lat="44.44332573506352" lon="7.901499314070696"><ele>412.0</ele><time>2026-03-23T17:17:45.998Z</time></trkpt><trkpt lat="44.44325303582618" lon="7.901516568995485"><ele>410.0</ele><time>2026-03-23T17:17:46.998Z</time></trkpt><trkpt lat="44.443183827168795" lon="7.901549947091775"><ele>408.00000000000006</ele><time>2026-03-23T17:17:47.998Z</time></trkpt><trkpt lat="44.443115103013945" lon="7.90159457451832"><ele>406.0</ele><time>2026-03-23T17:17:48.998Z</time></trkpt><trkpt lat="44.44304368871136" lon="7.901614686372145"><ele>406.0</ele><time>2026-03-23T17:17:49.998Z</time></trkpt><trkpt lat="44.442993830582175" lon="7.901710205064119"><ele>406.0</ele><time>2026-03-23T17:17:50.998Z</time></trkpt><trkpt lat="44.442915486632145" lon="7.901812126585575"><ele>406.0</ele><time>2026-03-23T17:17:52.998Z</time></trkpt><trkpt lat="44.44285643346674" lon="7.901992719918492"><ele>406.0</ele><time>2026-03-23T17:17:55Z</time></trkpt><trkpt lat="44.44286073155624" lon="7.902129759299582"><ele>406.0</ele><time>2026-03-23T17:17:56Z</time></trkpt><trkpt lat="44.44285049034932" lon="7.902255332117465"><ele>406.0</ele><time>2026-03-23T17:17:57Z</time></trkpt><trkpt lat="44.442822501627006" lon="7.902370989154647"><ele>406.0</ele><time>2026-03-23T17:17:58Z</time></trkpt><trkpt lat="44.442747300078096" lon="7.902456637540176"><ele>406.0</ele><time>2026-03-23T17:17:59Z</time></trkpt><trkpt lat="44.44269074776073" lon="7.902552516503053"><ele>406.0</ele><time>2026-03-23T17:18:00Z</time></trkpt><trkpt lat="44.442624371211586" lon="7.902647827449836"><ele>406.0</ele><time>2026-03-23T17:18:01Z</time></trkpt><trkpt lat="44.442549636374984" lon="7.902745119686903"><ele>406.0</ele><time>2026-03-23T17:18:02Z</time></trkpt><trkpt lat="44.442490913292254" lon="7.902817472974783"><ele>406.0</ele><time>2026-03-23T17:18:03Z</time></trkpt><trkpt lat="44.44244733852154" lon="7.902891397143608"><ele>406.0</ele><time>2026-03-23T17:18:04Z</time></trkpt><trkpt lat="44.442400140766566" lon="7.9029537372983025"><ele>406.0</ele><time>2026-03-23T17:18:05Z</time></trkpt><trkpt lat="44.44236417653512" lon="7.903026114955112"><ele>406.0</ele><time>2026-03-23T17:18:06Z</time></trkpt><trkpt lat="44.44233057684818" lon="7.90311813188814"><ele>406.0</ele><time>2026-03-23T17:18:07Z</time></trkpt><trkpt lat="44.4422935406378" lon="7.903237604199378"><ele>406.0</ele><time>2026-03-23T17:18:08Z</time></trkpt><trkpt lat="44.44228513140323" lon="7.903377440409007"><ele>407.6666666666667</ele><time>2026-03-23T17:18:09Z</time></trkpt><trkpt lat="44.44228180824731" lon="7.903504311927473"><ele>409.33333333333337</ele><time>2026-03-23T17:18:10Z</time></trkpt><trkpt lat="44.44227852324595" lon="7.903620619604329"><ele>411.0</ele><time>2026-03-23T17:18:11Z</time></trkpt><trkpt lat="44.442289159582735" lon="7.90373645864075"><ele>412.66666666666663</ele><time>2026-03-23T17:18:12Z</time></trkpt><trkpt lat="44.44225742707955" lon="7.9038371941629215"><ele>414.3333333333333</ele><time>2026-03-23T17:18:13Z</time></trkpt><trkpt lat="44.442232947293064" lon="7.903924194098638"><ele>416.0</ele><time>2026-03-23T17:18:14Z</time></trkpt><trkpt lat="44.442208446707276" lon="7.904017466126349"><ele>415.99999999999994</ele><time>2026-03-23T17:18:15Z</time></trkpt><trkpt lat="44.442134200837764" lon="7.904059475432718"><ele>416.0</ele><time>2026-03-23T17:18:16Z</time></trkpt><trkpt lat="44.44206663860156" lon="7.904102935645663"><ele>416.0</ele><time>2026-03-23T17:18:17Z</time></trkpt><trkpt lat="44.441995627149474" lon="7.9041138618126645"><ele>416.0</ele><time>2026-03-23T17:18:18Z</time></trkpt><trkpt lat="44.44192680946179" lon="7.904106138596749"><ele>415.99999999999994</ele><time>2026-03-23T17:18:19Z</time></trkpt><trkpt lat="44.44185252904732" lon="7.90409916601657"><ele>416.0</ele><time>2026-03-23T17:18:20Z</time></trkpt><trkpt lat="44.44177129336053" lon="7.904083748807615"><ele>410.8</ele><time>2026-03-23T17:18:21Z</time></trkpt><trkpt lat="44.44170341669808" lon="7.904064186073572"><ele>405.6</ele><time>2026-03-23T17:18:22Z</time></trkpt><trkpt lat="44.44163165629307" lon="7.904047759030263"><ele>400.4</ele><time>2026-03-23T17:18:23Z</time></trkpt><trkpt lat="44.44150889585537" lon="7.904052973804828"><ele>395.2</ele><time>2026-03-23T17:18:25Z</time></trkpt><trkpt lat="44.441379661935876" lon="7.904123333013217"><ele>390.0</ele><time>2026-03-23T17:18:27Z</time></trkpt><trkpt lat="44.441317933587996" lon="7.904233400802204"><ele>389.0</ele><time>2026-03-23T17:18:28Z</time></trkpt><trkpt lat="44.44125608743893" lon="7.904343519520509"><ele>388.0</ele><time>2026-03-23T17:18:29Z</time></trkpt><trkpt lat="44.44119918945772" lon="7.904444419989656"><ele>387.0</ele><time>2026-03-23T17:18:30Z</time></trkpt><trkpt lat="44.441132023686784" lon="7.904542594700555"><ele>386.0</ele><time>2026-03-23T17:18:31Z</time></trkpt><trkpt lat="44.44106647619927" lon="7.9046251606063755"><ele>385.0</ele><time>2026-03-23T17:18:32Z</time></trkpt><trkpt lat="44.44099909220422" lon="7.904683705132686"><ele>385.00000000000006</ele><time>2026-03-23T17:18:33Z</time></trkpt><trkpt lat="44.44093425453004" lon="7.904743524654596"><ele>385.0</ele><time>2026-03-23T17:18:34Z</time></trkpt><trkpt lat="44.44086833842317" lon="7.904809520443339"><ele>385.0</ele><time>2026-03-23T17:18:35Z</time></trkpt><trkpt lat="44.44081981529118" lon="7.904872851251581"><ele>385.0</ele><time>2026-03-23T17:18:35.999Z</time></trkpt><trkpt lat="44.4407782071577" lon="7.904947880653013"><ele>385.00000000000006</ele><time>2026-03-23T17:18:36.999Z</time></trkpt><trkpt lat="44.44074421530748" lon="7.9050347273124"><ele>385.0</ele><time>2026-03-23T17:18:37.999Z</time></trkpt><trkpt lat="44.44069557782132" lon="7.905140848213252"><ele>385.0</ele><time>2026-03-23T17:18:39.999Z</time></trkpt><trkpt lat="44.44062544560884" lon="7.905200079750472"><ele>385.0</ele><time>2026-03-23T17:18:42.999Z</time></trkpt><trkpt lat="44.440574504119766" lon="7.905121933161677"><ele>385.0</ele><time>2026-03-23T17:18:44.999Z</time></trkpt><trkpt lat="44.44061532536919" lon="7.904952363066455"><ele>385.0</ele><time>2026-03-23T17:18:46.999Z</time></trkpt><trkpt lat="44.440681105180325" lon="7.904863928363937"><ele>385.0</ele><time>2026-03-23T17:18:47.999Z</time></trkpt><trkpt lat="44.440745589141315" lon="7.90477901626777"><ele>385.0</ele><time>2026-03-23T17:18:48.999Z</time></trkpt><trkpt lat="44.44082264489166" lon="7.90468151163933"><ele>385.0</ele><time>2026-03-23T17:18:49.999Z</time></trkpt><trkpt lat="44.44089192491212" lon="7.904553867155402"><ele>385.0</ele><time>2026-03-23T17:18:50.999Z</time></trkpt><trkpt lat="44.44098217255744" lon="7.904420249815299"><ele>385.0</ele><time>2026-03-23T17:18:51.999Z</time></trkpt><trkpt lat="44.44106475505126" lon="7.9042620612176195"><ele>386.25</ele><time>2026-03-23T17:18:52.999Z</time></trkpt><trkpt lat="44.44113649047362" lon="7.904109961036712"><ele>387.5</ele><time>2026-03-23T17:18:53.999Z</time></trkpt><trkpt lat="44.44121051859582" lon="7.903954352734702"><ele>388.75</ele><time>2026-03-23T17:18:54.999Z</time></trkpt><trkpt lat="44.441287138420236" lon="7.903832984302762"><ele>390.0</ele><time>2026-03-23T17:18:55.999Z</time></trkpt><trkpt lat="44.44136029177885" lon="7.903710072690955"><ele>390.0</ele><time>2026-03-23T17:18:56.999Z</time></trkpt><trkpt lat="44.441443843517284" lon="7.90358973551731"><ele>390.0</ele><time>2026-03-23T17:18:57.999Z</time></trkpt><trkpt lat="44.44152168571904" lon="7.9034716943310475"><ele>390.0</ele><time>2026-03-23T17:18:58.999Z</time></trkpt><trkpt lat="44.4415971459763" lon="7.903370224891492"><ele>390.0</ele><time>2026-03-23T17:18:59.999Z</time></trkpt><trkpt lat="44.44168089256356" lon="7.903280573027689"><ele>390.0</ele><time>2026-03-23T17:19:00.999Z</time></trkpt><trkpt lat="44.44173783681907" lon="7.903151368047965"><ele>385.0</ele><time>2026-03-23T17:19:01.999Z</time></trkpt><trkpt lat="44.44180447943223" lon="7.903015702308512"><ele>380.0</ele><time>2026-03-23T17:19:02.999Z</time></trkpt><trkpt lat="44.44186144066896" lon="7.902840859603039"><ele>375.0</ele><time>2026-03-23T17:19:03.999Z</time></trkpt><trkpt lat="44.4419201610711" lon="7.902651566162163"><ele>370.0</ele><time>2026-03-23T17:19:04.999Z</time></trkpt><trkpt lat="44.441972381263206" lon="7.902477937476918"><ele>365.75</ele><time>2026-03-23T17:19:05.999Z</time></trkpt><trkpt lat="44.44201621752377" lon="7.902309388043022"><ele>361.5</ele><time>2026-03-23T17:19:06.999Z</time></trkpt><trkpt lat="44.44206274752185" lon="7.902139417260662"><ele>357.25</ele><time>2026-03-23T17:19:07.999Z</time></trkpt><trkpt lat="44.44212040463047" lon="7.9019864339035735"><ele>353.0</ele><time>2026-03-23T17:19:08.999Z</time></trkpt><trkpt lat="44.44216651530965" lon="7.90182454859928"><ele>358.5</ele><time>2026-03-23T17:19:09.999Z</time></trkpt><trkpt lat="44.44221199816508" lon="7.901657828452594"><ele>364.0</ele><time>2026-03-23T17:19:10.999Z</time></trkpt><trkpt lat="44.44225121165225" lon="7.901510417324416"><ele>369.5</ele><time>2026-03-23T17:19:11.999Z</time></trkpt><trkpt lat="44.442295213441334" lon="7.901355589349402"><ele>375.0</ele><time>2026-03-23T17:19:12.999Z</time></trkpt><trkpt lat="44.44233643442479" lon="7.901199886419003"><ele>375.0</ele><time>2026-03-23T17:19:13.999Z</time></trkpt><trkpt lat="44.442381926024844" lon="7.901054572129791"><ele>375.0</ele><time>2026-03-23T17:19:14.999Z</time></trkpt><trkpt lat="44.44242040075831" lon="7.900905001465793"><ele>375.0</ele><time>2026-03-23T17:19:15.999Z</time></trkpt><trkpt lat="44.44245559964658" lon="7.90075146812407"><ele>375.0</ele><time>2026-03-23T17:19:16.999Z</time></trkpt><trkpt lat="44.44249295567241" lon="7.900621343822449"><ele>375.0</ele><time>2026-03-23T17:19:17.999Z</time></trkpt><trkpt lat="44.442542785801905" lon="7.900523704406563"><ele>371.6666666666667</ele><time>2026-03-23T17:19:18.999Z</time></trkpt><trkpt lat="44.442579660423796" lon="7.9003964104514"><ele>368.3333333333333</ele><time>2026-03-23T17:19:19.999Z</time></trkpt><trkpt lat="44.44261390131617" lon="7.900281307994972"><ele>365.0</ele><time>2026-03-23T17:19:20.999Z</time></trkpt><trkpt lat="44.44264500634807" lon="7.900184821300325"><ele>361.66666666666663</ele><time>2026-03-23T17:19:21.999Z</time></trkpt><trkpt lat="44.44266457268328" lon="7.900094432882141"><ele>358.3333333333333</ele><time>2026-03-23T17:19:22.999Z</time></trkpt><trkpt lat="44.4426619952595" lon="7.899984646864543"><ele>355.0</ele><time>2026-03-23T17:19:23.999Z</time></trkpt><trkpt lat="44.44263037165052" lon="7.899783137132457"><ele>352.3333333333333</ele><time>2026-03-23T17:19:25.999Z</time></trkpt><trkpt lat="44.44264882454461" lon="7.899678094488717"><ele>349.66666666666663</ele><time>2026-03-23T17:19:26.999Z</time></trkpt><trkpt lat="44.442644777928706" lon="7.899563374091555"><ele>347.0</ele><time>2026-03-23T17:19:27.999Z</time></trkpt><trkpt lat="44.44264583556233" lon="7.899448487606892"><ele>344.3333333333333</ele><time>2026-03-23T17:19:28.999Z</time></trkpt><trkpt lat="44.44265219801234" lon="7.899319077634946"><ele>341.6666666666667</ele><time>2026-03-23T17:19:29.999Z</time></trkpt><trkpt lat="44.442668232396" lon="7.899209880326935"><ele>339.0</ele><time>2026-03-23T17:19:30.999Z</time></trkpt><trkpt lat="44.44266411788037" lon="7.899092895540035"><ele>337.7142857142857</ele><time>2026-03-23T17:19:31.998Z</time></trkpt><trkpt lat="44.44266453483775" lon="7.898985575263135"><ele>336.42857142857144</ele><time>2026-03-23T17:19:32.998Z</time></trkpt><trkpt lat="44.44265841072734" lon="7.898888147321449"><ele>335.14285714285717</ele><time>2026-03-23T17:19:33.998Z</time></trkpt><trkpt lat="44.44265620896269" lon="7.898790385653268"><ele>333.8571428571429</ele><time>2026-03-23T17:19:34.998Z</time></trkpt><trkpt lat="44.44265720055272" lon="7.89868562116097"><ele>332.57142857142856</ele><time>2026-03-23T17:19:35.998Z</time></trkpt><trkpt lat="44.44263059696945" lon="7.898580724147412"><ele>331.28571428571433</ele><time>2026-03-23T17:19:36.998Z</time></trkpt><trkpt lat="44.44260783778503" lon="7.898486239210225"><ele>330.0</ele><time>2026-03-23T17:19:37.998Z</time></trkpt><trkpt lat="44.44259312394831" lon="7.898388919604711"><ele>329.4</ele><time>2026-03-23T17:19:38.998Z</time></trkpt><trkpt lat="44.442534992883004" lon="7.898231908298844"><ele>328.8</ele><time>2026-03-23T17:19:40.998Z</time></trkpt><trkpt lat="44.4425113576701" lon="7.898147594927486"><ele>328.20000000000005</ele><time>2026-03-23T17:19:41.998Z</time></trkpt><trkpt lat="44.44247389264657" lon="7.897999632596054"><ele>327.6</ele><time>2026-03-23T17:19:43.998Z</time></trkpt><trkpt lat="44.44243604830006" lon="7.8978662967396085"><ele>327.0</ele><time>2026-03-23T17:19:45.998Z</time></trkpt><trkpt lat="44.44241524444051" lon="7.8977304434581965"><ele>327.0</ele><time>2026-03-23T17:19:47.998Z</time></trkpt><trkpt lat="44.44239294519207" lon="7.897597591251541"><ele>327.0</ele><time>2026-03-23T17:19:49.998Z</time></trkpt><trkpt lat="44.44237191523927" lon="7.897469849575713"><ele>327.0</ele><time>2026-03-23T17:19:51.998Z</time></trkpt><trkpt lat="44.442356010615676" lon="7.897328024371482"><ele>327.0</ele><time>2026-03-23T17:19:53.998Z</time></trkpt><trkpt lat="44.442323964554504" lon="7.897168078678985"><ele>327.0</ele><time>2026-03-23T17:19:55.998Z</time></trkpt><trkpt lat="44.442262037887225" lon="7.897019363482658"><ele>327.1666666666667</ele><time>2026-03-23T17:19:57.998Z</time></trkpt><trkpt lat="44.44223174601793" lon="7.896891436720419"><ele>327.3333333333333</ele><time>2026-03-23T17:20:00Z</time></trkpt><trkpt lat="44.44219556051137" lon="7.896765938874101"><ele>327.5</ele><time>2026-03-23T17:20:02Z</time></trkpt><trkpt lat="44.44214919668574" lon="7.896660531084779"><ele>327.66666666666663</ele><time>2026-03-23T17:20:05Z</time></trkpt><trkpt lat="44.44211804266029" lon="7.896582622638224"><ele>327.8333333333333</ele><time>2026-03-23T17:20:07Z</time></trkpt><trkpt lat="44.44205005486108" lon="7.896498120736627"><ele>328.0</ele><time>2026-03-23T17:20:10Z</time></trkpt><trkpt lat="44.4419958944439" lon="7.896436724218153"><ele>324.71428571428567</ele><time>2026-03-23T17:20:13Z</time></trkpt><trkpt lat="44.44192581534219" lon="7.896414752138217"><ele>321.42857142857144</ele><time>2026-03-23T17:20:15Z</time></trkpt><trkpt lat="44.441861033599956" lon="7.896382045549102"><ele>318.1428571428571</ele><time>2026-03-23T17:20:17Z</time></trkpt><trkpt lat="44.44180343376315" lon="7.896341464084737"><ele>314.85714285714283</ele><time>2026-03-23T17:20:19Z</time></trkpt><trkpt lat="44.44177457449209" lon="7.8962630536554235"><ele>311.57142857142856</ele><time>2026-03-23T17:20:22Z</time></trkpt><trkpt lat="44.44178983044502" lon="7.896156687924312"><ele>308.2857142857143</ele><time>2026-03-23T17:20:25Z</time></trkpt><trkpt lat="44.44183599510502" lon="7.896088962273149"><ele>305.0</ele><time>2026-03-23T17:20:26Z</time></trkpt><trkpt lat="44.44188069149369" lon="7.896015815403401"><ele>305.0</ele><time>2026-03-23T17:20:27Z</time></trkpt><trkpt lat="44.44192325095223" lon="7.895946114899022"><ele>305.0</ele><time>2026-03-23T17:20:28Z</time></trkpt><trkpt lat="44.44201751826488" lon="7.895857550882745"><ele>305.0</ele><time>2026-03-23T17:20:30Z</time></trkpt><trkpt lat="44.442106214226186" lon="7.895781743291817"><ele>305.0</ele><time>2026-03-23T17:20:32Z</time></trkpt><trkpt lat="44.44218739289733" lon="7.895664319391147"><ele>305.0</ele><time>2026-03-23T17:20:34Z</time></trkpt><trkpt lat="44.44227717472783" lon="7.895550358236406"><ele>307.2</ele><time>2026-03-23T17:20:36Z</time></trkpt><trkpt lat="44.44235354286674" lon="7.895440416674889"><ele>309.4</ele><time>2026-03-23T17:20:38Z</time></trkpt><trkpt lat="44.442418824406644" lon="7.895329789744451"><ele>311.6</ele><time>2026-03-23T17:20:40Z</time></trkpt><trkpt lat="44.44248865820389" lon="7.895232374721654"><ele>313.8</ele><time>2026-03-23T17:20:41.999Z</time></trkpt><trkpt lat="44.44257870952204" lon="7.895177276137241"><ele>316.0</ele><time>2026-03-23T17:20:43.999Z</time></trkpt><trkpt lat="44.442670112211275" lon="7.895208699174484"><ele>316.0</ele><time>2026-03-23T17:20:45.999Z</time></trkpt><trkpt lat="44.44270737283688" lon="7.89534066572034"><ele>316.0</ele><time>2026-03-23T17:20:47.999Z</time></trkpt><trkpt lat="44.442774772037104" lon="7.895425771560616"><ele>316.0</ele><time>2026-03-23T17:20:49.999Z</time></trkpt><trkpt lat="44.442839472642206" lon="7.895510708943772"><ele>316.0</ele><time>2026-03-23T17:20:52.999Z</time></trkpt><trkpt lat="44.44291114935659" lon="7.895510572998041"><ele>316.0</ele><time>2026-03-23T17:20:54.999Z</time></trkpt><trkpt lat="44.44293235936586" lon="7.8953719512464415"><ele>316.0</ele><time>2026-03-23T17:20:56.999Z</time></trkpt><trkpt lat="44.442862698155714" lon="7.895224932086355"><ele>316.0</ele><time>2026-03-23T17:20:58.999Z</time></trkpt><trkpt lat="44.442820710085876" lon="7.895149196326509"><ele>316.0</ele><time>2026-03-23T17:20:59.999Z</time></trkpt><trkpt lat="44.442796160097295" lon="7.895065639418086"><ele>316.0</ele><time>2026-03-23T17:21:00.999Z</time></trkpt><trkpt lat="44.44275009451609" lon="7.894957768092742"><ele>316.0</ele><time>2026-03-23T17:21:02.999Z</time></trkpt><trkpt lat="44.442676301846824" lon="7.894821057841406"><ele>312.75</ele><time>2026-03-23T17:21:04.999Z</time></trkpt><trkpt lat="44.44263391611734" lon="7.894671631273845"><ele>309.5</ele><time>2026-03-23T17:21:06.999Z</time></trkpt><trkpt lat="44.44258622561692" lon="7.894525057550079"><ele>306.25</ele><time>2026-03-23T17:21:08.999Z</time></trkpt><trkpt lat="44.442530462015974" lon="7.894370660900986"><ele>303.0</ele><time>2026-03-23T17:21:10.999Z</time></trkpt><trkpt lat="44.44247700156455" lon="7.894227502702248"><ele>301.8</ele><time>2026-03-23T17:21:12.999Z</time></trkpt><trkpt lat="44.44245312446257" lon="7.894090979010517"><ele>300.6</ele><time>2026-03-23T17:21:14.999Z</time></trkpt><trkpt lat="44.44239470309317" lon="7.893971739683346"><ele>299.4</ele><time>2026-03-23T17:21:16.999Z</time></trkpt><trkpt lat="44.4423092588209" lon="7.893854447023575"><ele>298.2</ele><time>2026-03-23T17:21:18.999Z</time></trkpt><trkpt lat="44.44223242697967" lon="7.8937300506929775"><ele>297.0</ele><time>2026-03-23T17:21:20.999Z</time></trkpt><trkpt lat="44.44213440870357" lon="7.893654886145414"><ele>297.0</ele><time>2026-03-23T17:21:22.999Z</time></trkpt><trkpt lat="44.44205990448531" lon="7.893624718299527"><ele>297.0</ele><time>2026-03-23T17:21:23.999Z</time></trkpt><trkpt lat="44.44197628971346" lon="7.893590939084445"><ele>297.0</ele><time>2026-03-23T17:21:24.999Z</time></trkpt><trkpt lat="44.441896731946095" lon="7.8935510209569495"><ele>297.0</ele><time>2026-03-23T17:21:25.999Z</time></trkpt><trkpt lat="44.441802822420705" lon="7.8934711267614945"><ele>297.0</ele><time>2026-03-23T17:21:27.999Z</time></trkpt><trkpt lat="44.441695228969834" lon="7.893410416478908"><ele>297.0</ele><time>2026-03-23T17:21:29.999Z</time></trkpt><trkpt lat="44.44161014943538" lon="7.893345434873836"><ele>297.0</ele><time>2026-03-23T17:21:31.999Z</time></trkpt><trkpt lat="44.44153391266499" lon="7.893301815480108"><ele>297.0</ele><time>2026-03-23T17:21:33.999Z</time></trkpt><trkpt lat="44.441458484802794" lon="7.8932438932095215"><ele>297.0</ele><time>2026-03-23T17:21:35.999Z</time></trkpt><trkpt lat="44.44143597392939" lon="7.893346697334302"><ele>297.0</ele><time>2026-03-23T17:21:36.999Z</time></trkpt><trkpt lat="44.44137445860859" lon="7.893504253318662"><ele>297.0</ele><time>2026-03-23T17:21:38.998Z</time></trkpt><trkpt lat="44.441326007937334" lon="7.893647930584449"><ele>297.0</ele><time>2026-03-23T17:21:40.998Z</time></trkpt><trkpt lat="44.441285559273574" lon="7.893730123254616"><ele>297.0</ele><time>2026-03-23T17:21:42.998Z</time></trkpt><trkpt lat="44.4412243920638" lon="7.893793291021573"><ele>297.0</ele><time>2026-03-23T17:21:52.998Z</time></trkpt><trkpt lat="44.44114309569061" lon="7.893873218988291"><ele>297.0</ele><time>2026-03-23T17:21:54.998Z</time></trkpt><trkpt lat="44.441131730395284" lon="7.8939796430289615"><ele>297.0</ele><time>2026-03-23T17:21:56.998Z</time></trkpt><trkpt lat="44.44108407542247" lon="7.894057629242304"><ele>295.8</ele><time>2026-03-23T17:21:59.998Z</time></trkpt><trkpt lat="44.44097515508875" lon="7.8940397617215154"><ele>294.6</ele><time>2026-03-23T17:22:00.998Z</time></trkpt><trkpt lat="44.44087009724407" lon="7.894012594939912"><ele>293.40000000000003</ele><time>2026-03-23T17:22:02.998Z</time></trkpt><trkpt lat="44.44079692700499" lon="7.893982339510073"><ele>292.2</ele><time>2026-03-23T17:22:03.998Z</time></trkpt><trkpt lat="44.44072744937418" lon="7.893946050607305"><ele>291.0</ele><time>2026-03-23T17:22:04.998Z</time></trkpt><trkpt lat="44.44060415613955" lon="7.893906228693753"><ele>291.0</ele><time>2026-03-23T17:22:07Z</time></trkpt><trkpt lat="44.440531025272605" lon="7.893881736445126"><ele>291.0</ele><time>2026-03-23T17:22:08Z</time></trkpt><trkpt lat="44.44044887152936" lon="7.893855850272797"><ele>291.0</ele><time>2026-03-23T17:22:09Z</time></trkpt><trkpt lat="44.44038591820863" lon="7.8938324518299225"><ele>291.0</ele><time>2026-03-23T17:22:10Z</time></trkpt><trkpt lat="44.44026647529155" lon="7.8937913115437075"><ele>291.0</ele><time>2026-03-23T17:22:12Z</time></trkpt><trkpt lat="44.44017540695243" lon="7.893764587136009"><ele>291.0</ele><time>2026-03-23T17:22:14Z</time></trkpt><trkpt lat="44.440092976507984" lon="7.893717357947057"><ele>291.8</ele><time>2026-03-23T17:22:16Z</time></trkpt><trkpt lat="44.44004901277848" lon="7.893635673330044"><ele>292.6</ele><time>2026-03-23T17:22:18Z</time></trkpt><trkpt lat="44.44000030128918" lon="7.893524781675107"><ele>293.4</ele><time>2026-03-23T17:22:20Z</time></trkpt><trkpt lat="44.440030066791444" lon="7.893390295407969"><ele>294.2</ele><time>2026-03-23T17:22:22Z</time></trkpt><trkpt lat="44.4400273977929" lon="7.893247612088532"><ele>295.0</ele><time>2026-03-23T17:22:24Z</time></trkpt><trkpt lat="44.44003851294957" lon="7.893084425894247"><ele>295.0</ele><time>2026-03-23T17:22:26Z</time></trkpt><trkpt lat="44.44005428159192" lon="7.892991587844193"><ele>295.0</ele><time>2026-03-23T17:22:27Z</time></trkpt><trkpt lat="44.440074783385484" lon="7.892895454710637"><ele>295.0</ele><time>2026-03-23T17:22:28Z</time></trkpt><trkpt lat="44.44008567847469" lon="7.892807394831289"><ele>295.0</ele><time>2026-03-23T17:22:29Z</time></trkpt><trkpt lat="44.4401215289242" lon="7.892626935821763"><ele>295.0</ele><time>2026-03-23T17:22:31Z</time></trkpt><trkpt lat="44.44015626793235" lon="7.8924344705988405"><ele>294.8333333333333</ele><time>2026-03-23T17:22:33Z</time></trkpt><trkpt lat="44.440177176945845" lon="7.892336618533046"><ele>294.66666666666663</ele><time>2026-03-23T17:22:34Z</time></trkpt><trkpt lat="44.44021262605086" lon="7.8921609522562495"><ele>294.5</ele><time>2026-03-23T17:22:36Z</time></trkpt><trkpt lat="44.440238344169025" lon="7.892049982459754"><ele>294.3333333333333</ele><time>2026-03-23T17:22:37Z</time></trkpt><trkpt lat="44.44025749377223" lon="7.891952969524403"><ele>294.1666666666667</ele><time>2026-03-23T17:22:38Z</time></trkpt><trkpt lat="44.440279300251014" lon="7.891848467051065"><ele>294.0</ele><time>2026-03-23T17:22:39Z</time></trkpt><trkpt lat="44.44030461164669" lon="7.891740039723774"><ele>294.0</ele><time>2026-03-23T17:22:40Z</time></trkpt><trkpt lat="44.440324590687275" lon="7.891632683899602"><ele>294.0</ele><time>2026-03-23T17:22:41Z</time></trkpt><trkpt lat="44.44035865820078" lon="7.891549490330786"><ele>294.0</ele><time>2026-03-23T17:22:42Z</time></trkpt><trkpt lat="44.440394251679734" lon="7.891391612537458"><ele>294.0</ele><time>2026-03-23T17:22:44Z</time></trkpt><trkpt lat="44.44043078028234" lon="7.891224387386333"><ele>294.0</ele><time>2026-03-23T17:22:46Z</time></trkpt><trkpt lat="44.44045994298654" lon="7.891090880245013"><ele>292.59999999999997</ele><time>2026-03-23T17:22:47.999Z</time></trkpt><trkpt lat="44.44048141885692" lon="7.890996005566456"><ele>291.2</ele><time>2026-03-23T17:22:49.999Z</time></trkpt><trkpt lat="44.44051888881142" lon="7.890834122048006"><ele>289.79999999999995</ele><time>2026-03-23T17:22:51.999Z</time></trkpt><trkpt lat="44.44054700406345" lon="7.890717802108029"><ele>288.4</ele><time>2026-03-23T17:22:52.999Z</time></trkpt><trkpt lat="44.44056287518944" lon="7.890581203062216"><ele>287.0</ele><time>2026-03-23T17:22:53.999Z</time></trkpt><trkpt lat="44.44061967077261" lon="7.890437632296695"><ele>287.0</ele><time>2026-03-23T17:22:54.999Z</time></trkpt><trkpt lat="44.440666439670395" lon="7.890271641219617"><ele>287.0</ele><time>2026-03-23T17:22:55.999Z</time></trkpt><trkpt lat="44.44070403234755" lon="7.890144105218822"><ele>287.0</ele><time>2026-03-23T17:22:56.999Z</time></trkpt><trkpt lat="44.440739759169304" lon="7.8900261282380875"><ele>287.0</ele><time>2026-03-23T17:22:57.999Z</time></trkpt><trkpt lat="44.44077059097191" lon="7.8899182899000095"><ele>287.0</ele><time>2026-03-23T17:22:58.999Z</time></trkpt><trkpt lat="44.440798490314044" lon="7.889818220157224"><ele>287.0</ele><time>2026-03-23T17:22:59.999Z</time></trkpt><trkpt lat="44.440823224417365" lon="7.889721053617639"><ele>287.0</ele><time>2026-03-23T17:23:00.999Z</time></trkpt><trkpt lat="44.44084510305917" lon="7.889622811138224"><ele>287.0</ele><time>2026-03-23T17:23:01.999Z</time></trkpt><trkpt lat="44.44086274673348" lon="7.889513870793269"><ele>287.0</ele><time>2026-03-23T17:23:02.999Z</time></trkpt><trkpt lat="44.440867414904226" lon="7.8893961790825475"><ele>287.0</ele><time>2026-03-23T17:23:03.999Z</time></trkpt><trkpt lat="44.440837387770955" lon="7.889269563293578"><ele>287.0</ele><time>2026-03-23T17:23:04.999Z</time></trkpt><trkpt lat="44.44081949125524" lon="7.889142650042947"><ele>287.33333333333337</ele><time>2026-03-23T17:23:05.999Z</time></trkpt><trkpt lat="44.44080260051359" lon="7.889016312847405"><ele>287.6666666666667</ele><time>2026-03-23T17:23:06.999Z</time></trkpt><trkpt lat="44.44078033199985" lon="7.888884059336431"><ele>288.0</ele><time>2026-03-23T17:23:07.999Z</time></trkpt><trkpt lat="44.44075719577957" lon="7.888753376299085"><ele>288.3333333333333</ele><time>2026-03-23T17:23:08.999Z</time></trkpt><trkpt lat="44.44073768534623" lon="7.888638904698383"><ele>288.66666666666663</ele><time>2026-03-23T17:23:09.999Z</time></trkpt><trkpt lat="44.440723195635165" lon="7.888528155726993"><ele>289.0</ele><time>2026-03-23T17:23:10.999Z</time></trkpt><trkpt lat="44.44070439754198" lon="7.88841356725951"><ele>289.0</ele><time>2026-03-23T17:23:11.999Z</time></trkpt><trkpt lat="44.440686775674905" lon="7.888281470110245"><ele>289.0</ele><time>2026-03-23T17:23:12.999Z</time></trkpt><trkpt lat="44.440664580829086" lon="7.888147257018539"><ele>289.0</ele><time>2026-03-23T17:23:13.999Z</time></trkpt><trkpt lat="44.44064430860844" lon="7.888017492961035"><ele>289.0</ele><time>2026-03-23T17:23:14.999Z</time></trkpt><trkpt lat="44.44062344349162" lon="7.887903115777943"><ele>289.0</ele><time>2026-03-23T17:23:15.999Z</time></trkpt><trkpt lat="44.44060636474245" lon="7.887786042107736"><ele>289.0</ele><time>2026-03-23T17:23:16.999Z</time></trkpt><trkpt lat="44.440588752682174" lon="7.887657556733636"><ele>289.0</ele><time>2026-03-23T17:23:17.999Z</time></trkpt><trkpt lat="44.44057465477384" lon="7.887531001683384"><ele>289.0</ele><time>2026-03-23T17:23:18.999Z</time></trkpt><trkpt lat="44.44057234492847" lon="7.887419988680901"><ele>289.0</ele><time>2026-03-23T17:23:19.999Z</time></trkpt><trkpt lat="44.44057575009502" lon="7.887324628476973"><ele>289.0</ele><time>2026-03-23T17:23:20.999Z</time></trkpt><trkpt lat="44.440596650847525" lon="7.887222075659126"><ele>289.0</ele><time>2026-03-23T17:23:21.999Z</time></trkpt><trkpt lat="44.44064275034098" lon="7.887128350233879"><ele>289.8333333333333</ele><time>2026-03-23T17:23:22.999Z</time></trkpt><trkpt lat="44.440686900419564" lon="7.887009359044669"><ele>290.66666666666663</ele><time>2026-03-23T17:23:23.999Z</time></trkpt><trkpt lat="44.44073777290046" lon="7.886894577347824"><ele>291.5</ele><time>2026-03-23T17:23:24.999Z</time></trkpt><trkpt lat="44.44078503624738" lon="7.8867942192852505"><ele>292.3333333333333</ele><time>2026-03-23T17:23:25.999Z</time></trkpt><trkpt lat="44.44081436219316" lon="7.886692865116908"><ele>293.1666666666667</ele><time>2026-03-23T17:23:26.999Z</time></trkpt><trkpt lat="44.44086879299196" lon="7.886625119932425"><ele>294.0</ele><time>2026-03-23T17:23:27.999Z</time></trkpt><trkpt lat="44.44091988940569" lon="7.886482969684608"><ele>294.5</ele><time>2026-03-23T17:23:29.999Z</time></trkpt><trkpt lat="44.44095620427735" lon="7.886357316328024"><ele>295.0</ele><time>2026-03-23T17:23:31.999Z</time></trkpt><trkpt lat="44.440933808884225" lon="7.886264233081677"><ele>295.5</ele><time>2026-03-23T17:23:33.999Z</time></trkpt><trkpt lat="44.44087479511178" lon="7.886187179892521"><ele>296.0</ele><time>2026-03-23T17:23:35.999Z</time></trkpt><trkpt lat="44.44082431223476" lon="7.8861137092052"><ele>296.5</ele><time>2026-03-23T17:23:37.999Z</time></trkpt><trkpt lat="44.44074418417632" lon="7.885993278703676"><ele>297.0</ele><time>2026-03-23T17:23:39.999Z</time></trkpt><trkpt lat="44.4406368431049" lon="7.8858327121320935"><ele>297.4</ele><time>2026-03-23T17:23:40.999Z</time></trkpt><trkpt lat="44.44053308558271" lon="7.885710528600436"><ele>297.79999999999995</ele><time>2026-03-23T17:23:41.999Z</time></trkpt><trkpt lat="44.44046476954821" lon="7.885558741389848"><ele>298.2</ele><time>2026-03-23T17:23:42.999Z</time></trkpt><trkpt lat="44.44041281686602" lon="7.8854258520227605"><ele>298.59999999999997</ele><time>2026-03-23T17:23:43.998Z</time></trkpt><trkpt lat="44.440377692167885" lon="7.885330745394629"><ele>299.0</ele><time>2026-03-23T17:23:44.998Z</time></trkpt><trkpt lat="44.440354863544464" lon="7.885220393589858"><ele>299.5</ele><time>2026-03-23T17:23:45.998Z</time></trkpt><trkpt lat="44.44033703787087" lon="7.885134297658028"><ele>300.0</ele><time>2026-03-23T17:23:46.998Z</time></trkpt><trkpt lat="44.44032043545134" lon="7.885031283602476"><ele>300.5</ele><time>2026-03-23T17:23:47.998Z</time></trkpt><trkpt lat="44.44032112363087" lon="7.884925221295221"><ele>301.0</ele><time>2026-03-23T17:23:48.998Z</time></trkpt><trkpt lat="44.44031704885951" lon="7.884826881709307"><ele>301.5</ele><time>2026-03-23T17:23:49.998Z</time></trkpt><trkpt lat="44.44035738520539" lon="7.884670038421984"><ele>302.0</ele><time>2026-03-23T17:23:51.998Z</time></trkpt><trkpt lat="44.44040751401345" lon="7.884529017451967"><ele>300.83333333333337</ele><time>2026-03-23T17:23:53.998Z</time></trkpt><trkpt lat="44.44046649392986" lon="7.884465680178611"><ele>299.6666666666667</ele><time>2026-03-23T17:23:54.998Z</time></trkpt><trkpt lat="44.440520620528005" lon="7.88438238180785"><ele>298.5</ele><time>2026-03-23T17:23:55.998Z</time></trkpt><trkpt lat="44.44057182994756" lon="7.884303572698798"><ele>297.3333333333333</ele><time>2026-03-23T17:23:56.998Z</time></trkpt><trkpt lat="44.44060563445859" lon="7.884217818272221"><ele>296.16666666666663</ele><time>2026-03-23T17:23:57.998Z</time></trkpt><trkpt lat="44.4406588837396" lon="7.88414332754699"><ele>295.0</ele><time>2026-03-23T17:23:58.998Z</time></trkpt><trkpt lat="44.44071642464836" lon="7.88405238400764"><ele>294.4</ele><time>2026-03-23T17:23:59.998Z</time></trkpt><trkpt lat="44.440789148685546" lon="7.883970394964004"><ele>293.8</ele><time>2026-03-23T17:24:00.998Z</time></trkpt><trkpt lat="44.44085593436729" lon="7.883868362180002"><ele>293.2</ele><time>2026-03-23T17:24:01.998Z</time></trkpt><trkpt lat="44.440923190817024" lon="7.883765297743222"><ele>292.6</ele><time>2026-03-23T17:24:02.998Z</time></trkpt><trkpt lat="44.4409796041069" lon="7.8836786285298555"><ele>292.0</ele><time>2026-03-23T17:24:03.998Z</time></trkpt><trkpt lat="44.441040954530116" lon="7.883584374194919"><ele>292.0</ele><time>2026-03-23T17:24:04.998Z</time></trkpt><trkpt lat="44.44110593168043" lon="7.883484430285964"><ele>292.0</ele><time>2026-03-23T17:24:05.998Z</time></trkpt><trkpt lat="44.44116693598118" lon="7.8833903655882684"><ele>292.0</ele><time>2026-03-23T17:24:06.998Z</time></trkpt><trkpt lat="44.441221499387424" lon="7.88330623232284"><ele>292.0</ele><time>2026-03-23T17:24:07.998Z</time></trkpt><trkpt lat="44.44127041951854" lon="7.88322962896408"><ele>292.0</ele><time>2026-03-23T17:24:08.998Z</time></trkpt><trkpt lat="44.44130788194056" lon="7.883133384607309"><ele>292.0</ele><time>2026-03-23T17:24:09.998Z</time></trkpt><trkpt lat="44.44135577749668" lon="7.883054597340527"><ele>291.66666666666663</ele><time>2026-03-23T17:24:10.998Z</time></trkpt><trkpt lat="44.44139898146109" lon="7.882985082773493"><ele>291.3333333333333</ele><time>2026-03-23T17:24:12Z</time></trkpt><trkpt lat="44.44145428683256" lon="7.882905987200632"><ele>291.0</ele><time>2026-03-23T17:24:13Z</time></trkpt><trkpt lat="44.44148057011189" lon="7.882776616961647"><ele>290.6666666666667</ele><time>2026-03-23T17:24:14Z</time></trkpt><trkpt lat="44.44152080781447" lon="7.882659002107512"><ele>290.33333333333337</ele><time>2026-03-23T17:24:15Z</time></trkpt><trkpt lat="44.441557503521665" lon="7.882526865611457"><ele>290.0</ele><time>2026-03-23T17:24:16Z</time></trkpt><trkpt lat="44.44159380272694" lon="7.882376133965263"><ele>290.8</ele><time>2026-03-23T17:24:17Z</time></trkpt><trkpt lat="44.44163223767733" lon="7.882228796508818"><ele>291.6</ele><time>2026-03-23T17:24:18Z</time></trkpt><trkpt lat="44.44165129981547" lon="7.882104939565292"><ele>292.4</ele><time>2026-03-23T17:24:19Z</time></trkpt><trkpt lat="44.44167832549031" lon="7.881976431063537"><ele>293.2</ele><time>2026-03-23T17:24:20Z</time></trkpt><trkpt lat="44.44169174673136" lon="7.881856478009324"><ele>294.0</ele><time>2026-03-23T17:24:21Z</time></trkpt><trkpt lat="44.44170044373428" lon="7.881755717261686"><ele>294.5</ele><time>2026-03-23T17:24:22Z</time></trkpt><trkpt lat="44.44171110741699" lon="7.881648055118986"><ele>295.0</ele><time>2026-03-23T17:24:23Z</time></trkpt><trkpt lat="44.44169464010345" lon="7.881532121260757"><ele>295.5</ele><time>2026-03-23T17:24:24Z</time></trkpt><trkpt lat="44.441679045055" lon="7.8814046536063325"><ele>296.0</ele><time>2026-03-23T17:24:25Z</time></trkpt><trkpt lat="44.44165319683367" lon="7.881279754273727"><ele>296.5</ele><time>2026-03-23T17:24:26Z</time></trkpt><trkpt lat="44.441630550444955" lon="7.881146139350069"><ele>297.0</ele><time>2026-03-23T17:24:27Z</time></trkpt><trkpt lat="44.44161619050541" lon="7.881039074539594"><ele>297.0</ele><time>2026-03-23T17:24:28Z</time></trkpt><trkpt lat="44.44161986018362" lon="7.880941814920999"><ele>297.0</ele><time>2026-03-23T17:24:29Z</time></trkpt><trkpt lat="44.44162356709845" lon="7.880837645069581"><ele>297.0</ele><time>2026-03-23T17:24:30Z</time></trkpt><trkpt lat="44.44164413338969" lon="7.880736111497918"><ele>297.0</ele><time>2026-03-23T17:24:31Z</time></trkpt><trkpt lat="44.44166886286635" lon="7.8806135484036695"><ele>297.0</ele><time>2026-03-23T17:24:32Z</time></trkpt><trkpt lat="44.44169642815998" lon="7.880475857584036"><ele>297.0</ele><time>2026-03-23T17:24:33Z</time></trkpt><trkpt lat="44.44172199550497" lon="7.880348146802599"><ele>297.1666666666667</ele><time>2026-03-23T17:24:34Z</time></trkpt><trkpt lat="44.441747113142355" lon="7.880218053179502"><ele>297.3333333333333</ele><time>2026-03-23T17:24:35Z</time></trkpt><trkpt lat="44.44176724583275" lon="7.880093934973682"><ele>297.5</ele><time>2026-03-23T17:24:36Z</time></trkpt><trkpt lat="44.44178272950973" lon="7.879969088076552"><ele>297.66666666666663</ele><time>2026-03-23T17:24:37Z</time></trkpt><trkpt lat="44.44178230908301" lon="7.879854417850957"><ele>297.8333333333333</ele><time>2026-03-23T17:24:38Z</time></trkpt><trkpt lat="44.44177980605389" lon="7.87973914610226"><ele>298.0</ele><time>2026-03-23T17:24:39Z</time></trkpt><trkpt lat="44.441768162411634" lon="7.879631154298402"><ele>298.0</ele><time>2026-03-23T17:24:40Z</time></trkpt><trkpt lat="44.44175090049262" lon="7.879541200178311"><ele>298.0</ele><time>2026-03-23T17:24:41Z</time></trkpt><trkpt lat="44.44173691011097" lon="7.87944786237059"><ele>298.0</ele><time>2026-03-23T17:24:42Z</time></trkpt><trkpt lat="44.44171343903809" lon="7.879353098595308"><ele>298.0</ele><time>2026-03-23T17:24:43Z</time></trkpt><trkpt lat="44.441704009413826" lon="7.87919228861812"><ele>298.0</ele><time>2026-03-23T17:24:45Z</time></trkpt><trkpt lat="44.441717824454216" lon="7.879104711603089"><ele>298.0</ele><time>2026-03-23T17:24:46Z</time></trkpt><trkpt lat="44.44174184077622" lon="7.879016019198798"><ele>298.3333333333333</ele><time>2026-03-23T17:24:47Z</time></trkpt><trkpt lat="44.44177965058446" lon="7.878915224577315"><ele>298.66666666666663</ele><time>2026-03-23T17:24:48Z</time></trkpt><trkpt lat="44.441812343764234" lon="7.878818921968498"><ele>299.0</ele><time>2026-03-23T17:24:49Z</time></trkpt><trkpt lat="44.44184159295335" lon="7.878720649158406"><ele>299.3333333333333</ele><time>2026-03-23T17:24:50Z</time></trkpt><trkpt lat="44.441850154812" lon="7.878609486964346"><ele>299.6666666666667</ele><time>2026-03-23T17:24:51Z</time></trkpt><trkpt lat="44.441844283725544" lon="7.878451364697413"><ele>300.0</ele><time>2026-03-23T17:24:52Z</time></trkpt><trkpt lat="44.44183060561765" lon="7.8783202547468285"><ele>300.5</ele><time>2026-03-23T17:24:53Z</time></trkpt><trkpt lat="44.44182996033463" lon="7.878206827896029"><ele>301.0</ele><time>2026-03-23T17:24:53.999Z</time></trkpt><trkpt lat="44.44182719356913" lon="7.8781181984909106"><ele>301.5</ele><time>2026-03-23T17:24:54.999Z</time></trkpt><trkpt lat="44.44182384374807" lon="7.878009810179504"><ele>302.0</ele><time>2026-03-23T17:24:55.999Z</time></trkpt><trkpt lat="44.441825716097995" lon="7.877887262662898"><ele>302.5</ele><time>2026-03-23T17:24:56.999Z</time></trkpt><trkpt lat="44.44182077380367" lon="7.877769475568914"><ele>303.0</ele><time>2026-03-23T17:24:57.999Z</time></trkpt><trkpt lat="44.441815214793564" lon="7.877656305101164"><ele>302.6666666666667</ele><time>2026-03-23T17:24:58.999Z</time></trkpt><trkpt lat="44.44181665073068" lon="7.877540054082934"><ele>302.3333333333333</ele><time>2026-03-23T17:24:59.999Z</time></trkpt><trkpt lat="44.44181258258003" lon="7.877451849220758"><ele>302.0</ele><time>2026-03-23T17:25:00.999Z</time></trkpt><trkpt lat="44.44181863194558" lon="7.877347809773854"><ele>301.66666666666663</ele><time>2026-03-23T17:25:01.999Z</time></trkpt><trkpt lat="44.44184562505656" lon="7.877233990507869"><ele>301.3333333333333</ele><time>2026-03-23T17:25:02.999Z</time></trkpt><trkpt lat="44.44189334405815" lon="7.87711506172404"><ele>301.0</ele><time>2026-03-23T17:25:03.999Z</time></trkpt><trkpt lat="44.44193924121926" lon="7.876969119111138"><ele>301.0</ele><time>2026-03-23T17:25:04.999Z</time></trkpt><trkpt lat="44.44197766783297" lon="7.876817866268138"><ele>301.0</ele><time>2026-03-23T17:25:05.999Z</time></trkpt><trkpt lat="44.44202887869275" lon="7.876645215630442"><ele>301.0</ele><time>2026-03-23T17:25:06.999Z</time></trkpt><trkpt lat="44.44209180714287" lon="7.87647210984991"><ele>301.0</ele><time>2026-03-23T17:25:07.999Z</time></trkpt><trkpt lat="44.44215871075347" lon="7.876284869565332"><ele>301.25</ele><time>2026-03-23T17:25:08.999Z</time></trkpt><trkpt lat="44.442222626850736" lon="7.876101201620933"><ele>301.5</ele><time>2026-03-23T17:25:09.999Z</time></trkpt><trkpt lat="44.44228524939481" lon="7.875907627865183"><ele>301.75</ele><time>2026-03-23T17:25:10.999Z</time></trkpt><trkpt lat="44.44233956354116" lon="7.875714459629273"><ele>302.0</ele><time>2026-03-23T17:25:11.999Z</time></trkpt><trkpt lat="44.44239708594793" lon="7.8755429216369075"><ele>302.0</ele><time>2026-03-23T17:25:12.999Z</time></trkpt><trkpt lat="44.44243213645782" lon="7.875406063308822"><ele>302.0</ele><time>2026-03-23T17:25:13.999Z</time></trkpt><trkpt lat="44.442470120580225" lon="7.875281204490337"><ele>302.0</ele><time>2026-03-23T17:25:14.999Z</time></trkpt><trkpt lat="44.442498770326466" lon="7.875158384458543"><ele>302.0</ele><time>2026-03-23T17:25:15.999Z</time></trkpt><trkpt lat="44.44253360065913" lon="7.875012026816524"><ele>302.0</ele><time>2026-03-23T17:25:16.999Z</time></trkpt><trkpt lat="44.44256127678505" lon="7.874876111069957"><ele>304.6666666666667</ele><time>2026-03-23T17:25:17.999Z</time></trkpt><trkpt lat="44.44258222051189" lon="7.8747583464246285"><ele>307.33333333333337</ele><time>2026-03-23T17:25:18.999Z</time></trkpt><trkpt lat="44.44259508524846" lon="7.87463928684404"><ele>310.0</ele><time>2026-03-23T17:25:19.999Z</time></trkpt><trkpt lat="44.44261874106675" lon="7.874545009306051"><ele>312.6666666666667</ele><time>2026-03-23T17:25:20.999Z</time></trkpt><trkpt lat="44.44266137141914" lon="7.874458174679085"><ele>315.3333333333333</ele><time>2026-03-23T17:25:21.999Z</time></trkpt><trkpt lat="44.44272544689506" lon="7.874383125106894"><ele>318.0</ele><time>2026-03-23T17:25:22.999Z</time></trkpt><trkpt lat="44.44278920022126" lon="7.874319663307189"><ele>318.0</ele><time>2026-03-23T17:25:23.999Z</time></trkpt><trkpt lat="44.442869140892014" lon="7.874254347323741"><ele>318.0</ele><time>2026-03-23T17:25:24.999Z</time></trkpt><trkpt lat="44.442961530717916" lon="7.874189172161545"><ele>318.0</ele><time>2026-03-23T17:25:25.999Z</time></trkpt><trkpt lat="44.44306777841825" lon="7.874126814309553"><ele>318.0</ele><time>2026-03-23T17:25:26.999Z</time></trkpt><trkpt lat="44.44317054917241" lon="7.874075324779447"><ele>318.0</ele><time>2026-03-23T17:25:27.999Z</time></trkpt><trkpt lat="44.443274938066835" lon="7.874034766792314"><ele>318.0</ele><time>2026-03-23T17:25:28.999Z</time></trkpt><trkpt lat="44.44339425384561" lon="7.87399574176932"><ele>318.0</ele><time>2026-03-23T17:25:29.999Z</time></trkpt><trkpt lat="44.44351036590313" lon="7.873966845640151"><ele>318.0</ele><time>2026-03-23T17:25:30.999Z</time></trkpt><trkpt lat="44.44362475758376" lon="7.873931588669223"><ele>318.0</ele><time>2026-03-23T17:25:31.999Z</time></trkpt><trkpt lat="44.44375510910598" lon="7.873967888390025"><ele>320.5</ele><time>2026-03-23T17:25:32.999Z</time></trkpt><trkpt lat="44.44387478833454" lon="7.87398630429476"><ele>323.0</ele><time>2026-03-23T17:25:33.999Z</time></trkpt><trkpt lat="44.444008400089274" lon="7.873996504196491"><ele>325.5</ele><time>2026-03-23T17:25:34.999Z</time></trkpt><trkpt lat="44.44413567716531" lon="7.874036072919215"><ele>328.0</ele><time>2026-03-23T17:25:35.999Z</time></trkpt><trkpt lat="44.44425022437093" lon="7.874079378176418"><ele>328.0</ele><time>2026-03-23T17:25:36.999Z</time></trkpt><trkpt lat="44.444346563543746" lon="7.874128720428967"><ele>328.0</ele><time>2026-03-23T17:25:37.999Z</time></trkpt><trkpt lat="44.44444345619458" lon="7.874170233916309"><ele>328.0</ele><time>2026-03-23T17:25:38.999Z</time></trkpt><trkpt lat="44.44453721164944" lon="7.8742303474603395"><ele>328.0</ele><time>2026-03-23T17:25:39.999Z</time></trkpt><trkpt lat="44.444643998621856" lon="7.874307073476924"><ele>328.0</ele><time>2026-03-23T17:25:40.999Z</time></trkpt><trkpt lat="44.44472044776852" lon="7.87438231759005"><ele>328.0</ele><time>2026-03-23T17:25:41.999Z</time></trkpt><trkpt lat="44.44479618917703" lon="7.874455421930361"><ele>328.0</ele><time>2026-03-23T17:25:42.999Z</time></trkpt><trkpt lat="44.44485161281255" lon="7.874533965120251"><ele>328.0</ele><time>2026-03-23T17:25:43.999Z</time></trkpt><trkpt lat="44.444901294585506" lon="7.874602886361621"><ele>328.0</ele><time>2026-03-23T17:25:44.999Z</time></trkpt><trkpt lat="44.444950131033615" lon="7.8746646894397925"><ele>328.0</ele><time>2026-03-23T17:25:45.999Z</time></trkpt><trkpt lat="44.44503009296114" lon="7.874754684215503"><ele>328.0</ele><time>2026-03-23T17:25:47.999Z</time></trkpt><trkpt lat="44.445111004530546" lon="7.874800161279856"><ele>328.0</ele><time>2026-03-23T17:25:50.998Z</time></trkpt><trkpt lat="44.445181791480195" lon="7.8748158010349"><ele>328.0</ele><time>2026-03-23T17:25:53.998Z</time></trkpt><trkpt lat="44.4451868121918" lon="7.874931278765126"><ele>328.0</ele><time>2026-03-23T17:25:54.998Z</time></trkpt><trkpt lat="44.44523498134835" lon="7.87499036721352"><ele>328.0</ele><time>2026-03-23T17:26:02.998Z</time></trkpt><trkpt lat="44.44529144830531" lon="7.875140989766142"><ele>328.0</ele><time>2026-03-23T17:26:04.998Z</time></trkpt><trkpt lat="44.445331297899386" lon="7.875255586991973"><ele>328.0</ele><time>2026-03-23T17:26:05.998Z</time></trkpt><trkpt lat="44.4453736053888" lon="7.875377828366522"><ele>329.5</ele><time>2026-03-23T17:26:06.998Z</time></trkpt><trkpt lat="44.44541325663059" lon="7.875526835967571"><ele>331.0</ele><time>2026-03-23T17:26:07.998Z</time></trkpt><trkpt lat="44.445446336857906" lon="7.875699562154837"><ele>332.5</ele><time>2026-03-23T17:26:08.998Z</time></trkpt><trkpt lat="44.44547881576501" lon="7.875887641232848"><ele>334.0</ele><time>2026-03-23T17:26:09.998Z</time></trkpt><trkpt lat="44.445507709597635" lon="7.876064564006867"><ele>334.0</ele><time>2026-03-23T17:26:10.998Z</time></trkpt><trkpt lat="44.44552876165012" lon="7.876231265271629"><ele>334.0</ele><time>2026-03-23T17:26:11.998Z</time></trkpt><trkpt lat="44.44555327225137" lon="7.876375707414969"><ele>334.0</ele><time>2026-03-23T17:26:12.998Z</time></trkpt><trkpt lat="44.44557295730519" lon="7.8765196128859625"><ele>334.0</ele><time>2026-03-23T17:26:13.998Z</time></trkpt><trkpt lat="44.44559868909159" lon="7.876653723255744"><ele>334.0</ele><time>2026-03-23T17:26:14.998Z</time></trkpt><trkpt lat="44.4456240767863" lon="7.8767807389617"><ele>331.4</ele><time>2026-03-23T17:26:15.998Z</time></trkpt><trkpt lat="44.44565440687163" lon="7.876923214663836"><ele>328.79999999999995</ele><time>2026-03-23T17:26:16.998Z</time></trkpt><trkpt lat="44.445694080594464" lon="7.87706496031194"><ele>326.20000000000005</ele><time>2026-03-23T17:26:18Z</time></trkpt><trkpt lat="44.445736905711684" lon="7.877189746774511"><ele>323.6</ele><time>2026-03-23T17:26:19Z</time></trkpt><trkpt lat="44.44578350693716" lon="7.877311752205427"><ele>321.0</ele><time>2026-03-23T17:26:20Z</time></trkpt><trkpt lat="44.44583049384776" lon="7.877440982874302"><ele>321.0</ele><time>2026-03-23T17:26:21Z</time></trkpt><trkpt lat="44.445890187989036" lon="7.877563590226288"><ele>321.0</ele><time>2026-03-23T17:26:22Z</time></trkpt><trkpt lat="44.445957037247595" lon="7.877693097482747"><ele>321.0</ele><time>2026-03-23T17:26:23Z</time></trkpt><trkpt lat="44.446050174106205" lon="7.877814203140825"><ele>321.0</ele><time>2026-03-23T17:26:24Z</time></trkpt><trkpt lat="44.44616088746494" lon="7.877937301997429"><ele>322.0</ele><time>2026-03-23T17:26:25Z</time></trkpt><trkpt lat="44.44626166987413" lon="7.878041307858675"><ele>323.0</ele><time>2026-03-23T17:26:26Z</time></trkpt><trkpt lat="44.44636161525018" lon="7.8781655706049944"><ele>324.0</ele><time>2026-03-23T17:26:27Z</time></trkpt><trkpt lat="44.44645711182183" lon="7.878264493327419"><ele>325.0</ele><time>2026-03-23T17:26:28Z</time></trkpt><trkpt lat="44.44654339228426" lon="7.878371819557796"><ele>319.5</ele><time>2026-03-23T17:26:29Z</time></trkpt><trkpt lat="44.44663459888978" lon="7.878480291520047"><ele>314.0</ele><time>2026-03-23T17:26:30Z</time></trkpt><trkpt lat="44.44671847713852" lon="7.8785865911173945"><ele>308.5</ele><time>2026-03-23T17:26:31Z</time></trkpt><trkpt lat="44.44679563481756" lon="7.878708145061709"><ele>303.0</ele><time>2026-03-23T17:26:32Z</time></trkpt><trkpt lat="44.446871132936515" lon="7.87883422744251"><ele>303.0</ele><time>2026-03-23T17:26:33Z</time></trkpt><trkpt lat="44.44694440577341" lon="7.878976099521204"><ele>303.0</ele><time>2026-03-23T17:26:34Z</time></trkpt><trkpt lat="44.44699769010872" lon="7.879145944145726"><ele>303.0</ele><time>2026-03-23T17:26:35Z</time></trkpt><trkpt lat="44.447043314823546" lon="7.879299089293714"><ele>303.0</ele><time>2026-03-23T17:26:36Z</time></trkpt><trkpt lat="44.44708249511384" lon="7.879467050828677"><ele>300.6666666666667</ele><time>2026-03-23T17:26:37Z</time></trkpt><trkpt lat="44.4471164170143" lon="7.879665071224641"><ele>298.33333333333337</ele><time>2026-03-23T17:26:38Z</time></trkpt><trkpt lat="44.44714035165566" lon="7.879876087030864"><ele>296.0</ele><time>2026-03-23T17:26:39Z</time></trkpt><trkpt lat="44.44715336645783" lon="7.8801317558121955"><ele>302.6666666666667</ele><time>2026-03-23T17:26:40Z</time></trkpt><trkpt lat="44.447161155696236" lon="7.880389202962483"><ele>309.3333333333333</ele><time>2026-03-23T17:26:41Z</time></trkpt><trkpt lat="44.447173321189" lon="7.8806510003532315"><ele>316.0</ele><time>2026-03-23T17:26:42Z</time></trkpt><trkpt lat="44.447189418388476" lon="7.8809118287321835"><ele>313.66666666666663</ele><time>2026-03-23T17:26:43Z</time></trkpt><trkpt lat="44.44720373730639" lon="7.881195885472651"><ele>311.3333333333333</ele><time>2026-03-23T17:26:44Z</time></trkpt><trkpt lat="44.44722399986668" lon="7.88149967207937"><ele>309.0</ele><time>2026-03-23T17:26:45Z</time></trkpt><trkpt lat="44.44723263802183" lon="7.881816165734821"><ele>308.0</ele><time>2026-03-23T17:26:46Z</time></trkpt><trkpt lat="44.44725624612481" lon="7.882096972182375"><ele>307.0</ele><time>2026-03-23T17:26:47Z</time></trkpt><trkpt lat="44.447276774780946" lon="7.882359894827715"><ele>306.0</ele><time>2026-03-23T17:26:48Z</time></trkpt><trkpt lat="44.44729702818507" lon="7.882602983159952"><ele>304.6666666666667</ele><time>2026-03-23T17:26:49Z</time></trkpt><trkpt lat="44.44731085629388" lon="7.8828314065110066"><ele>303.33333333333337</ele><time>2026-03-23T17:26:50Z</time></trkpt><trkpt lat="44.44732812809566" lon="7.8830615118983784"><ele>302.0</ele><time>2026-03-23T17:26:51Z</time></trkpt><trkpt lat="44.447346967656486" lon="7.8832915988061725"><ele>299.6666666666667</ele><time>2026-03-23T17:26:52Z</time></trkpt><trkpt lat="44.44736960993131" lon="7.883501353053992"><ele>297.3333333333333</ele><time>2026-03-23T17:26:53Z</time></trkpt><trkpt lat="44.44739949933845" lon="7.883718527153924"><ele>295.0</ele><time>2026-03-23T17:26:54Z</time></trkpt><trkpt lat="44.44744113935891" lon="7.88394848690287"><ele>295.0</ele><time>2026-03-23T17:26:55Z</time></trkpt><trkpt lat="44.44749148990528" lon="7.884176330306028"><ele>295.0</ele><time>2026-03-23T17:26:56Z</time></trkpt><trkpt lat="44.44756292244213" lon="7.884384592054629"><ele>295.0</ele><time>2026-03-23T17:26:57Z</time></trkpt><trkpt lat="44.447641578190876" lon="7.8846168218715915"><ele>294.3333333333333</ele><time>2026-03-23T17:26:58Z</time></trkpt><trkpt lat="44.44772178342424" lon="7.8848406606027925"><ele>293.6666666666667</ele><time>2026-03-23T17:26:59Z</time></trkpt><trkpt lat="44.44780852347334" lon="7.885069047934816"><ele>293.0</ele><time>2026-03-23T17:26:59.999Z</time></trkpt><trkpt lat="44.447906803232684" lon="7.885304421605273"><ele>293.0</ele><time>2026-03-23T17:27:00.999Z</time></trkpt><trkpt lat="44.44801629931061" lon="7.885534395072947"><ele>293.0</ele><time>2026-03-23T17:27:01.999Z</time></trkpt><trkpt lat="44.44812809702159" lon="7.885778001220506"><ele>293.0</ele><time>2026-03-23T17:27:02.999Z</time></trkpt><trkpt lat="44.44823736793359" lon="7.886003565385798"><ele>293.0</ele><time>2026-03-23T17:27:03.999Z</time></trkpt><trkpt lat="44.44833278233119" lon="7.88619693573609"><ele>293.0</ele><time>2026-03-23T17:27:04.999Z</time></trkpt><trkpt lat="44.44841544673491" lon="7.886381300247518"><ele>293.0</ele><time>2026-03-23T17:27:05.999Z</time></trkpt><trkpt lat="44.44849748128144" lon="7.8865570181835745"><ele>293.0</ele><time>2026-03-23T17:27:06.999Z</time></trkpt><trkpt lat="44.44857271966978" lon="7.88671872800101"><ele>293.0</ele><time>2026-03-23T17:27:07.999Z</time></trkpt><trkpt lat="44.448650394954996" lon="7.886881091775806"><ele>293.0</ele><time>2026-03-23T17:27:08.999Z</time></trkpt><trkpt lat="44.44872663983708" lon="7.887042905636067"><ele>293.0</ele><time>2026-03-23T17:27:09.999Z</time></trkpt><trkpt lat="44.448810142258424" lon="7.887214791504918"><ele>293.0</ele><time>2026-03-23T17:27:10.999Z</time></trkpt><trkpt lat="44.44889647358785" lon="7.887373446125125"><ele>293.0</ele><time>2026-03-23T17:27:11.999Z</time></trkpt><trkpt lat="44.448986614189884" lon="7.887546170915609"><ele>293.0</ele><time>2026-03-23T17:27:12.999Z</time></trkpt><trkpt lat="44.44907554588415" lon="7.887734028175084"><ele>293.0</ele><time>2026-03-23T17:27:13.999Z</time></trkpt><trkpt lat="44.44917109813133" lon="7.887928088141746"><ele>293.0</ele><time>2026-03-23T17:27:14.999Z</time></trkpt><trkpt lat="44.44927736098134" lon="7.8881309002323485"><ele>293.0</ele><time>2026-03-23T17:27:15.999Z</time></trkpt><trkpt lat="44.449383032226926" lon="7.8883449757001705"><ele>291.0</ele><time>2026-03-23T17:27:16.999Z</time></trkpt><trkpt lat="44.44948787950299" lon="7.888557882803026"><ele>289.0</ele><time>2026-03-23T17:27:17.999Z</time></trkpt><trkpt lat="44.44958500643846" lon="7.8887541005035455"><ele>287.0</ele><time>2026-03-23T17:27:18.999Z</time></trkpt><trkpt lat="44.44968054916143" lon="7.888944249094031"><ele>287.0</ele><time>2026-03-23T17:27:19.999Z</time></trkpt><trkpt lat="44.449770991451544" lon="7.889140108625033"><ele>287.0</ele><time>2026-03-23T17:27:20.999Z</time></trkpt><trkpt lat="44.449873378919364" lon="7.889351734996216"><ele>287.0</ele><time>2026-03-23T17:27:21.999Z</time></trkpt><trkpt lat="44.449975415339395" lon="7.889550387718178"><ele>287.6666666666667</ele><time>2026-03-23T17:27:22.999Z</time></trkpt><trkpt lat="44.45006747192199" lon="7.889735075613099"><ele>288.3333333333333</ele><time>2026-03-23T17:27:23.999Z</time></trkpt><trkpt lat="44.4501521467053" lon="7.889911968497452"><ele>289.0</ele><time>2026-03-23T17:27:24.999Z</time></trkpt><trkpt lat="44.45024292065969" lon="7.8900860276339415"><ele>288.66666666666663</ele><time>2026-03-23T17:27:25.999Z</time></trkpt><trkpt lat="44.450336594307856" lon="7.890271510008461"><ele>288.3333333333333</ele><time>2026-03-23T17:27:26.999Z</time></trkpt><trkpt lat="44.45044188134044" lon="7.890462592694567"><ele>288.0</ele><time>2026-03-23T17:27:27.999Z</time></trkpt><trkpt lat="44.45053498903043" lon="7.890632080709693"><ele>287.0</ele><time>2026-03-23T17:27:28.999Z</time></trkpt><trkpt lat="44.45061934326702" lon="7.890798997907984"><ele>286.0</ele><time>2026-03-23T17:27:29.999Z</time></trkpt><trkpt lat="44.45069590105514" lon="7.890953651184776"><ele>285.0</ele><time>2026-03-23T17:27:30.999Z</time></trkpt><trkpt lat="44.450776083719134" lon="7.891109804822147"><ele>284.0</ele><time>2026-03-23T17:27:31.999Z</time></trkpt><trkpt lat="44.45084781124974" lon="7.891257445076975"><ele>284.0</ele><time>2026-03-23T17:27:32.999Z</time></trkpt><trkpt lat="44.450918846970225" lon="7.8913992625970675"><ele>284.0</ele><time>2026-03-23T17:27:33.999Z</time></trkpt><trkpt lat="44.45098203467513" lon="7.891526387748181"><ele>284.0</ele><time>2026-03-23T17:27:34.999Z</time></trkpt><trkpt lat="44.45104194096136" lon="7.891637434492343"><ele>284.0</ele><time>2026-03-23T17:27:35.999Z</time></trkpt><trkpt lat="44.45108961088508" lon="7.891746803539174"><ele>284.0</ele><time>2026-03-23T17:27:36.999Z</time></trkpt><trkpt lat="44.45113528259597" lon="7.891841181667202"><ele>284.0</ele><time>2026-03-23T17:27:37.999Z</time></trkpt><trkpt lat="44.451171267029814" lon="7.891933184572559"><ele>284.0</ele><time>2026-03-23T17:27:38.999Z</time></trkpt><trkpt lat="44.45120492960207" lon="7.892043384201669"><ele>284.0</ele><time>2026-03-23T17:27:39.999Z</time></trkpt><trkpt lat="44.45122339943869" lon="7.8921460390894875"><ele>284.0</ele><time>2026-03-23T17:27:40.999Z</time></trkpt><trkpt lat="44.451249557236075" lon="7.892316946412856"><ele>284.0</ele><time>2026-03-23T17:27:42.999Z</time></trkpt><trkpt lat="44.451254687253794" lon="7.892422082886202"><ele>284.0</ele><time>2026-03-23T17:27:43.999Z</time></trkpt><trkpt lat="44.45127637985002" lon="7.892591534590894"><ele>283.6666666666667</ele><time>2026-03-23T17:27:45.999Z</time></trkpt><trkpt lat="44.45129096984263" lon="7.8926824164887615"><ele>283.33333333333337</ele><time>2026-03-23T17:27:46.999Z</time></trkpt><trkpt lat="44.45129637725723" lon="7.892797557458619"><ele>283.0</ele><time>2026-03-23T17:27:48.999Z</time></trkpt><trkpt lat="44.45140214175292" lon="7.892832775341534"><ele>282.6666666666667</ele><time>2026-03-23T17:27:49.999Z</time></trkpt><trkpt lat="44.45146420677227" lon="7.892852315442009"><ele>282.3333333333333</ele><time>2026-03-23T17:27:50.999Z</time></trkpt><trkpt lat="44.45153884929899" lon="7.892834634029381"><ele>282.0</ele><time>2026-03-23T17:27:51.999Z</time></trkpt><trkpt lat="44.451617261601804" lon="7.892786417633387"><ele>282.0</ele><time>2026-03-23T17:27:52.999Z</time></trkpt><trkpt lat="44.4517031046222" lon="7.892735192265111"><ele>282.0</ele><time>2026-03-23T17:27:53.999Z</time></trkpt><trkpt lat="44.451796492686874" lon="7.892668602215676"><ele>282.0</ele><time>2026-03-23T17:27:54.999Z</time></trkpt><trkpt lat="44.45189980726053" lon="7.892607693479175"><ele>282.0</ele><time>2026-03-23T17:27:55.999Z</time></trkpt><trkpt lat="44.452017411608104" lon="7.892546238546534"><ele>282.0</ele><time>2026-03-23T17:27:56.998Z</time></trkpt><trkpt lat="44.45214006950962" lon="7.892497129353556"><ele>281.5</ele><time>2026-03-23T17:27:57.998Z</time></trkpt><trkpt lat="44.452275502297724" lon="7.8924602599897495"><ele>281.0</ele><time>2026-03-23T17:27:58.998Z</time></trkpt><trkpt lat="44.45241713287296" lon="7.892408789797811"><ele>280.5</ele><time>2026-03-23T17:27:59.998Z</time></trkpt><trkpt lat="44.45256829652509" lon="7.892360680916266"><ele>280.0</ele><time>2026-03-23T17:28:00.998Z</time></trkpt><trkpt lat="44.45271132633538" lon="7.892312376128034"><ele>280.0</ele><time>2026-03-23T17:28:01.998Z</time></trkpt><trkpt lat="44.452870319205935" lon="7.892261458711083"><ele>280.0</ele><time>2026-03-23T17:28:02.998Z</time></trkpt><trkpt lat="44.45305294823938" lon="7.892201337303673"><ele>280.0</ele><time>2026-03-23T17:28:03.998Z</time></trkpt><trkpt lat="44.45322742957496" lon="7.8921475428648025"><ele>279.3333333333333</ele><time>2026-03-23T17:28:04.998Z</time></trkpt><trkpt lat="44.453402285499834" lon="7.892088631964342"><ele>278.6666666666667</ele><time>2026-03-23T17:28:05.998Z</time></trkpt><trkpt lat="44.453590226269895" lon="7.8920149734668374"><ele>278.0</ele><time>2026-03-23T17:28:06.998Z</time></trkpt><trkpt lat="44.453780380785155" lon="7.891945147307753"><ele>279.33333333333337</ele><time>2026-03-23T17:28:07.998Z</time></trkpt><trkpt lat="44.453978270569834" lon="7.891886067721015"><ele>280.6666666666667</ele><time>2026-03-23T17:28:08.998Z</time></trkpt><trkpt lat="44.45418476531573" lon="7.891815604567178"><ele>282.0</ele><time>2026-03-23T17:28:09.998Z</time></trkpt><trkpt lat="44.45439942392615" lon="7.8917310702802865"><ele>282.0</ele><time>2026-03-23T17:28:10.998Z</time></trkpt><trkpt lat="44.454612658767324" lon="7.891658483322853"><ele>282.0</ele><time>2026-03-23T17:28:11.998Z</time></trkpt><trkpt lat="44.4548481706877" lon="7.891582426440641"><ele>283.5</ele><time>2026-03-23T17:28:12.998Z</time></trkpt><trkpt lat="44.45507672285984" lon="7.891501029084085"><ele>285.0</ele><time>2026-03-23T17:28:13.998Z</time></trkpt><trkpt lat="44.45531779393491" lon="7.8914188161319485"><ele>283.5</ele><time>2026-03-23T17:28:14.998Z</time></trkpt><trkpt lat="44.45555570573621" lon="7.891324940827233"><ele>282.0</ele><time>2026-03-23T17:28:15.998Z</time></trkpt><trkpt lat="44.4558009332781" lon="7.8912444542613684"><ele>282.0</ele><time>2026-03-23T17:28:16.998Z</time></trkpt><trkpt lat="44.45602877842754" lon="7.891176879274847"><ele>282.0</ele><time>2026-03-23T17:28:17.998Z</time></trkpt><trkpt lat="44.456250734292944" lon="7.8910953988980035"><ele>280.0</ele><time>2026-03-23T17:28:18.998Z</time></trkpt><trkpt lat="44.45646621469065" lon="7.89100543683776"><ele>278.0</ele><time>2026-03-23T17:28:19.998Z</time></trkpt><trkpt lat="44.45668160324146" lon="7.890926625029517"><ele>276.0</ele><time>2026-03-23T17:28:20.998Z</time></trkpt><trkpt lat="44.456899142512285" lon="7.890852376954493"><ele>274.0</ele><time>2026-03-23T17:28:21.998Z</time></trkpt><trkpt lat="44.45711991774635" lon="7.890780077928198"><ele>272.0</ele><time>2026-03-23T17:28:22.998Z</time></trkpt><trkpt lat="44.457352777899004" lon="7.890690491195503"><ele>272.0</ele><time>2026-03-23T17:28:24Z</time></trkpt><trkpt lat="44.457579016779995" lon="7.890636782882825"><ele>272.0</ele><time>2026-03-23T17:28:25Z</time></trkpt><trkpt lat="44.45778427127336" lon="7.890544052798227"><ele>272.0</ele><time>2026-03-23T17:28:26Z</time></trkpt><trkpt lat="44.457973044318216" lon="7.890481004274833"><ele>272.33333333333337</ele><time>2026-03-23T17:28:27Z</time></trkpt><trkpt lat="44.45815770916049" lon="7.890436486494755"><ele>272.6666666666667</ele><time>2026-03-23T17:28:28Z</time></trkpt><trkpt lat="44.45832931579931" lon="7.890376976486368"><ele>273.0</ele><time>2026-03-23T17:28:29Z</time></trkpt><trkpt lat="44.458492358970936" lon="7.890319866329548"><ele>273.0</ele><time>2026-03-23T17:28:30Z</time></trkpt><trkpt lat="44.45863501113208" lon="7.890245161830935"><ele>273.0</ele><time>2026-03-23T17:28:31Z</time></trkpt><trkpt lat="44.45878969260773" lon="7.890193197123043"><ele>273.0</ele><time>2026-03-23T17:28:32Z</time></trkpt><trkpt lat="44.458940714525816" lon="7.890127516625306"><ele>274.3333333333333</ele><time>2026-03-23T17:28:33Z</time></trkpt><trkpt lat="44.459083879216706" lon="7.890081565448657"><ele>275.66666666666663</ele><time>2026-03-23T17:28:34Z</time></trkpt><trkpt lat="44.45923297973096" lon="7.889992439952652"><ele>277.0</ele><time>2026-03-23T17:28:35Z</time></trkpt><trkpt lat="44.459385273118635" lon="7.889892762022249"><ele>277.0</ele><time>2026-03-23T17:28:36Z</time></trkpt><trkpt lat="44.45952636756427" lon="7.889770316958704"><ele>277.0</ele><time>2026-03-23T17:28:37Z</time></trkpt><trkpt lat="44.4596863285717" lon="7.8896645214551"><ele>277.0</ele><time>2026-03-23T17:28:38Z</time></trkpt><trkpt lat="44.45983081525639" lon="7.889529745110912"><ele>277.0</ele><time>2026-03-23T17:28:39Z</time></trkpt><trkpt lat="44.45998650071511" lon="7.889380299693707"><ele>277.0</ele><time>2026-03-23T17:28:40Z</time></trkpt><trkpt lat="44.46012944108428" lon="7.889226245949098"><ele>277.0</ele><time>2026-03-23T17:28:41Z</time></trkpt><trkpt lat="44.4602774131846" lon="7.88905172397697"><ele>277.66666666666663</ele><time>2026-03-23T17:28:42Z</time></trkpt><trkpt lat="44.46041751777123" lon="7.888871126143474"><ele>278.3333333333333</ele><time>2026-03-23T17:28:43Z</time></trkpt><trkpt lat="44.460563941361585" lon="7.888694634824456"><ele>279.0</ele><time>2026-03-23T17:28:44Z</time></trkpt><trkpt lat="44.46070912210184" lon="7.888509279195407"><ele>279.6666666666667</ele><time>2026-03-23T17:28:45Z</time></trkpt><trkpt lat="44.460861253121024" lon="7.8883197589340615"><ele>280.33333333333337</ele><time>2026-03-23T17:28:46Z</time></trkpt><trkpt lat="44.46101610624826" lon="7.888123338384944"><ele>281.0</ele><time>2026-03-23T17:28:47Z</time></trkpt><trkpt lat="44.461172228350215" lon="7.8879265185842735"><ele>281.33333333333337</ele><time>2026-03-23T17:28:48Z</time></trkpt><trkpt lat="44.46133467969041" lon="7.887725424371784"><ele>281.6666666666667</ele><time>2026-03-23T17:28:49Z</time></trkpt><trkpt lat="44.46150315085435" lon="7.887516731863322"><ele>282.0</ele><time>2026-03-23T17:28:50Z</time></trkpt><trkpt lat="44.46168127927047" lon="7.887303188319702"><ele>282.0</ele><time>2026-03-23T17:28:51Z</time></trkpt><trkpt lat="44.461842633789786" lon="7.887104713311491"><ele>282.0</ele><time>2026-03-23T17:28:52Z</time></trkpt><trkpt lat="44.46198863585403" lon="7.886923084422896"><ele>282.0</ele><time>2026-03-23T17:28:53Z</time></trkpt><trkpt lat="44.46212097651479" lon="7.886750642353638"><ele>283.3333333333333</ele><time>2026-03-23T17:28:54Z</time></trkpt><trkpt lat="44.462244589804634" lon="7.886586872494372"><ele>284.66666666666663</ele><time>2026-03-23T17:28:55Z</time></trkpt><trkpt lat="44.462357377199204" lon="7.8864376187739325"><ele>286.0</ele><time>2026-03-23T17:28:56Z</time></trkpt><trkpt lat="44.462481040620084" lon="7.886326510565123"><ele>286.0</ele><time>2026-03-23T17:28:57Z</time></trkpt><trkpt lat="44.46259364382178" lon="7.886184405884349"><ele>286.0</ele><time>2026-03-23T17:28:58Z</time></trkpt><trkpt lat="44.46270695286724" lon="7.886045008132943"><ele>286.0</ele><time>2026-03-23T17:28:59Z</time></trkpt><trkpt lat="44.462822119800606" lon="7.885906141185998"><ele>286.3333333333333</ele><time>2026-03-23T17:29:00Z</time></trkpt><trkpt lat="44.46294220738337" lon="7.885762667202152"><ele>286.6666666666667</ele><time>2026-03-23T17:29:01Z</time></trkpt><trkpt lat="44.46307047004573" lon="7.885603617436201"><ele>287.0</ele><time>2026-03-23T17:29:02Z</time></trkpt><trkpt lat="44.46320427973221" lon="7.8854531868686415"><ele>283.33333333333337</ele><time>2026-03-23T17:29:03Z</time></trkpt><trkpt lat="44.46334839509038" lon="7.885312698352048"><ele>279.6666666666667</ele><time>2026-03-23T17:29:04Z</time></trkpt><trkpt lat="44.46349571190551" lon="7.885177050277594"><ele>276.0</ele><time>2026-03-23T17:29:04.999Z</time></trkpt><trkpt lat="44.46365444704373" lon="7.885040748496984"><ele>276.3333333333333</ele><time>2026-03-23T17:29:05.999Z</time></trkpt><trkpt lat="44.46381977685091" lon="7.884909281277863"><ele>276.66666666666663</ele><time>2026-03-23T17:29:06.999Z</time></trkpt><trkpt lat="44.463992693111344" lon="7.884786075939144"><ele>277.0</ele><time>2026-03-23T17:29:07.999Z</time></trkpt><trkpt lat="44.46417533431326" lon="7.884672714241831"><ele>277.0</ele><time>2026-03-23T17:29:08.999Z</time></trkpt><trkpt lat="44.46436184282364" lon="7.88456451101968"><ele>277.0</ele><time>2026-03-23T17:29:09.999Z</time></trkpt><trkpt lat="44.46455808853975" lon="7.884482437048021"><ele>277.0</ele><time>2026-03-23T17:29:10.999Z</time></trkpt><trkpt lat="44.464732393238876" lon="7.884381256556265"><ele>276.3333333333333</ele><time>2026-03-23T17:29:11.999Z</time></trkpt><trkpt lat="44.4649131365602" lon="7.884314175938599"><ele>275.6666666666667</ele><time>2026-03-23T17:29:12.999Z</time></trkpt><trkpt lat="44.46508685190529" lon="7.88425944043936"><ele>275.0</ele><time>2026-03-23T17:29:13.999Z</time></trkpt><trkpt lat="44.46527364278375" lon="7.884195354068161"><ele>276.6666666666667</ele><time>2026-03-23T17:29:14.999Z</time></trkpt><trkpt lat="44.46545994713532" lon="7.8841727692515615"><ele>278.3333333333333</ele><time>2026-03-23T17:29:15.999Z</time></trkpt><trkpt lat="44.46563995794983" lon="7.884137159392741"><ele>280.0</ele><time>2026-03-23T17:29:16.999Z</time></trkpt><trkpt lat="44.46580648563032" lon="7.8841137392497265"><ele>280.0</ele><time>2026-03-23T17:29:17.999Z</time></trkpt><trkpt lat="44.465975319746384" lon="7.884096776050981"><ele>280.0</ele><time>2026-03-23T17:29:18.999Z</time></trkpt><trkpt lat="44.46614878931725" lon="7.884087973407028"><ele>280.0</ele><time>2026-03-23T17:29:19.999Z</time></trkpt><trkpt lat="44.46632065083166" lon="7.884087615813607"><ele>281.66666666666663</ele><time>2026-03-23T17:29:20.999Z</time></trkpt><trkpt lat="44.4664859877905" lon="7.8840931611759935"><ele>283.3333333333333</ele><time>2026-03-23T17:29:21.999Z</time></trkpt><trkpt lat="44.46665142077293" lon="7.8841067229991255"><ele>285.0</ele><time>2026-03-23T17:29:22.999Z</time></trkpt><trkpt lat="44.46680610978794" lon="7.884124860759711"><ele>285.0</ele><time>2026-03-23T17:29:23.999Z</time></trkpt><trkpt lat="44.466967364423716" lon="7.884153182477742"><ele>285.0</ele><time>2026-03-23T17:29:24.999Z</time></trkpt><trkpt lat="44.467128851190054" lon="7.884189626797346"><ele>285.0</ele><time>2026-03-23T17:29:25.999Z</time></trkpt><trkpt lat="44.46729066647029" lon="7.884229664067548"><ele>285.0</ele><time>2026-03-23T17:29:26.999Z</time></trkpt><trkpt lat="44.46746289943499" lon="7.884277539473599"><ele>285.0</ele><time>2026-03-23T17:29:27.999Z</time></trkpt><trkpt lat="44.467617753281985" lon="7.884331329467443"><ele>285.0</ele><time>2026-03-23T17:29:28.999Z</time></trkpt><trkpt lat="44.46776015053537" lon="7.884389108143372"><ele>285.0</ele><time>2026-03-23T17:29:29.999Z</time></trkpt><trkpt lat="44.467915813657264" lon="7.884459655058842"><ele>285.0</ele><time>2026-03-23T17:29:30.999Z</time></trkpt><trkpt lat="44.468070070763474" lon="7.8845369144225295"><ele>285.0</ele><time>2026-03-23T17:29:31.999Z</time></trkpt><trkpt lat="44.46821746426805" lon="7.884617127510536"><ele>285.0</ele><time>2026-03-23T17:29:32.999Z</time></trkpt><trkpt lat="44.46835494058848" lon="7.884697277294787"><ele>285.0</ele><time>2026-03-23T17:29:33.999Z</time></trkpt><trkpt lat="44.46849602419329" lon="7.884787105387877"><ele>285.0</ele><time>2026-03-23T17:29:34.999Z</time></trkpt><trkpt lat="44.46863553944211" lon="7.884881473841377"><ele>285.0</ele><time>2026-03-23T17:29:35.999Z</time></trkpt><trkpt lat="44.468762778940814" lon="7.884975691089046"><ele>285.0</ele><time>2026-03-23T17:29:36.999Z</time></trkpt><trkpt lat="44.46888005068246" lon="7.885066894455054"><ele>285.0</ele><time>2026-03-23T17:29:37.999Z</time></trkpt><trkpt lat="44.468996635390866" lon="7.885164978636879"><ele>285.0</ele><time>2026-03-23T17:29:38.999Z</time></trkpt><trkpt lat="44.469113560081006" lon="7.885268684593942"><ele>285.25</ele><time>2026-03-23T17:29:39.999Z</time></trkpt><trkpt lat="44.46921370981744" lon="7.885364103482869"><ele>285.5</ele><time>2026-03-23T17:29:40.999Z</time></trkpt><trkpt lat="44.46931610356983" lon="7.885461208842485"><ele>285.75</ele><time>2026-03-23T17:29:41.999Z</time></trkpt><trkpt lat="44.46941423072449" lon="7.885558030904777"><ele>286.0</ele><time>2026-03-23T17:29:42.999Z</time></trkpt><trkpt lat="44.46950674994309" lon="7.885658714164826"><ele>286.0</ele><time>2026-03-23T17:29:43.999Z</time></trkpt><trkpt lat="44.469600099842864" lon="7.885766971008554"><ele>286.0</ele><time>2026-03-23T17:29:44.999Z</time></trkpt><trkpt lat="44.46968829133288" lon="7.885873770109534"><ele>286.0</ele><time>2026-03-23T17:29:45.999Z</time></trkpt><trkpt lat="44.46977361497854" lon="7.885977096395309"><ele>286.0</ele><time>2026-03-23T17:29:46.999Z</time></trkpt><trkpt lat="44.469862476947085" lon="7.886059209343988"><ele>286.25</ele><time>2026-03-23T17:29:47.999Z</time></trkpt><trkpt lat="44.46994512070135" lon="7.886167017133157"><ele>286.5</ele><time>2026-03-23T17:29:48.999Z</time></trkpt><trkpt lat="44.47001938331118" lon="7.886302788947018"><ele>286.75</ele><time>2026-03-23T17:29:49.999Z</time></trkpt><trkpt lat="44.470117047379304" lon="7.886407189213421"><ele>287.0</ele><time>2026-03-23T17:29:50.999Z</time></trkpt><trkpt lat="44.47020243985037" lon="7.8865320644883425"><ele>287.0</ele><time>2026-03-23T17:29:51.999Z</time></trkpt><trkpt lat="44.47029578226792" lon="7.886670167110879"><ele>287.0</ele><time>2026-03-23T17:29:52.999Z</time></trkpt><trkpt lat="44.470394984606095" lon="7.886809774928001"><ele>287.0</ele><time>2026-03-23T17:29:53.999Z</time></trkpt><trkpt lat="44.470498565434234" lon="7.88696086552595"><ele>287.0</ele><time>2026-03-23T17:29:54.999Z</time></trkpt><trkpt lat="44.47062131808641" lon="7.887135011424847"><ele>286.33333333333337</ele><time>2026-03-23T17:29:55.999Z</time></trkpt><trkpt lat="44.47074506235918" lon="7.8873036451793395"><ele>285.6666666666667</ele><time>2026-03-23T17:29:56.999Z</time></trkpt><trkpt lat="44.47086937078292" lon="7.8874717602040265"><ele>285.0</ele><time>2026-03-23T17:29:57.999Z</time></trkpt><trkpt lat="44.471007849443716" lon="7.887649513288348"><ele>284.0</ele><time>2026-03-23T17:29:58.999Z</time></trkpt><trkpt lat="44.47113125620466" lon="7.887805155666455"><ele>283.0</ele><time>2026-03-23T17:29:59.999Z</time></trkpt><trkpt lat="44.471265220123705" lon="7.887944089836038"><ele>282.0</ele><time>2026-03-23T17:30:00.999Z</time></trkpt><trkpt lat="44.471401158805634" lon="7.88810045232599"><ele>281.6666666666667</ele><time>2026-03-23T17:30:01.998Z</time></trkpt><trkpt lat="44.47154313995275" lon="7.888251828973541"><ele>281.33333333333337</ele><time>2026-03-23T17:30:02.998Z</time></trkpt><trkpt lat="44.47168663797074" lon="7.888397820830497"><ele>281.0</ele><time>2026-03-23T17:30:03.998Z</time></trkpt><trkpt lat="44.47183545445422" lon="7.8885199252436236"><ele>280.33333333333337</ele><time>2026-03-23T17:30:04.998Z</time></trkpt><trkpt lat="44.47199009567741" lon="7.888632417912724"><ele>279.6666666666667</ele><time>2026-03-23T17:30:05.998Z</time></trkpt><trkpt lat="44.47213581742241" lon="7.888740524918244"><ele>279.0</ele><time>2026-03-23T17:30:06.998Z</time></trkpt><trkpt lat="44.47228103536082" lon="7.888842152532046"><ele>279.0</ele><time>2026-03-23T17:30:07.998Z</time></trkpt><trkpt lat="44.47244607086057" lon="7.888926802795861"><ele>279.0</ele><time>2026-03-23T17:30:08.998Z</time></trkpt><trkpt lat="44.472602665350315" lon="7.889031648648495"><ele>279.0</ele><time>2026-03-23T17:30:09.998Z</time></trkpt><trkpt lat="44.47277350741751" lon="7.8891248921579455"><ele>279.0</ele><time>2026-03-23T17:30:10.998Z</time></trkpt><trkpt lat="44.47293140376271" lon="7.889205651813405"><ele>279.0</ele><time>2026-03-23T17:30:11.998Z</time></trkpt><trkpt lat="44.473089898483494" lon="7.889278387642344"><ele>279.0</ele><time>2026-03-23T17:30:12.998Z</time></trkpt><trkpt lat="44.47324770585624" lon="7.889372668971233"><ele>278.3333333333333</ele><time>2026-03-23T17:30:13.998Z</time></trkpt><trkpt lat="44.47342073143734" lon="7.8894372184568615"><ele>277.66666666666663</ele><time>2026-03-23T17:30:14.998Z</time></trkpt><trkpt lat="44.47358444049778" lon="7.889493298529118"><ele>277.0</ele><time>2026-03-23T17:30:15.998Z</time></trkpt><trkpt lat="44.473746838865345" lon="7.889524800508054"><ele>277.3333333333333</ele><time>2026-03-23T17:30:16.998Z</time></trkpt><trkpt lat="44.4739303102" lon="7.889570941860471"><ele>277.6666666666667</ele><time>2026-03-23T17:30:17.998Z</time></trkpt><trkpt lat="44.47412061430568" lon="7.88963367636822"><ele>278.0</ele><time>2026-03-23T17:30:18.998Z</time></trkpt><trkpt lat="44.47430631821357" lon="7.88964357851973"><ele>278.0</ele><time>2026-03-23T17:30:19.998Z</time></trkpt><trkpt lat="44.47450094021326" lon="7.8896710020996235"><ele>278.0</ele><time>2026-03-23T17:30:20.998Z</time></trkpt><trkpt lat="44.47470382481791" lon="7.889704377237594"><ele>278.0</ele><time>2026-03-23T17:30:21.998Z</time></trkpt><trkpt lat="44.47491136720656" lon="7.889706917225459"><ele>277.33333333333337</ele><time>2026-03-23T17:30:22.998Z</time></trkpt><trkpt lat="44.475127616250546" lon="7.889703938583728"><ele>276.6666666666667</ele><time>2026-03-23T17:30:23.998Z</time></trkpt><trkpt lat="44.47532688485224" lon="7.889675920814653"><ele>276.0</ele><time>2026-03-23T17:30:24.998Z</time></trkpt><trkpt lat="44.47551920280812" lon="7.889694058791844"><ele>275.3333333333333</ele><time>2026-03-23T17:30:25.998Z</time></trkpt><trkpt lat="44.475695707156845" lon="7.889684071380296"><ele>274.66666666666663</ele><time>2026-03-23T17:30:26.998Z</time></trkpt><trkpt lat="44.47587615286389" lon="7.889690778689059"><ele>274.0</ele><time>2026-03-23T17:30:27.998Z</time></trkpt><trkpt lat="44.47608385668539" lon="7.8896964803373555"><ele>274.0</ele><time>2026-03-23T17:30:28.998Z</time></trkpt><trkpt lat="44.476291690226326" lon="7.889724444018345"><ele>274.0</ele><time>2026-03-23T17:30:30Z</time></trkpt><trkpt lat="44.47650465372466" lon="7.889766897663489"><ele>274.0</ele><time>2026-03-23T17:30:31Z</time></trkpt><trkpt lat="44.47672630958242" lon="7.8898216566607315"><ele>274.0</ele><time>2026-03-23T17:30:32Z</time></trkpt><trkpt lat="44.47693054739103" lon="7.889880904266506"><ele>274.0</ele><time>2026-03-23T17:30:33Z</time></trkpt><trkpt lat="44.47712340968348" lon="7.889946066295476"><ele>274.0</ele><time>2026-03-23T17:30:34Z</time></trkpt><trkpt lat="44.4773034955299" lon="7.890017142349045"><ele>274.66666666666663</ele><time>2026-03-23T17:30:35Z</time></trkpt><trkpt lat="44.47746850996851" lon="7.890099138470777"><ele>275.3333333333333</ele><time>2026-03-23T17:30:36Z</time></trkpt><trkpt lat="44.47763196863597" lon="7.890157955360222"><ele>276.0</ele><time>2026-03-23T17:30:37Z</time></trkpt><trkpt lat="44.477784974204425" lon="7.890206484516725"><ele>276.0</ele><time>2026-03-23T17:30:38Z</time></trkpt><trkpt lat="44.47791674219803" lon="7.89022917050549"><ele>276.0</ele><time>2026-03-23T17:30:39Z</time></trkpt><trkpt lat="44.47803922153793" lon="7.890290045718079"><ele>276.0</ele><time>2026-03-23T17:30:40Z</time></trkpt><trkpt lat="44.478159037357095" lon="7.890323205953571"><ele>276.0</ele><time>2026-03-23T17:30:41Z</time></trkpt><trkpt lat="44.478266674706255" lon="7.8903474464501295"><ele>275.6</ele><time>2026-03-23T17:30:42Z</time></trkpt><trkpt lat="44.47837321402962" lon="7.890347458599784"><ele>275.20000000000005</ele><time>2026-03-23T17:30:43Z</time></trkpt><trkpt lat="44.4784808809851" lon="7.890376830752501"><ele>274.79999999999995</ele><time>2026-03-23T17:30:44Z</time></trkpt><trkpt lat="44.47859862137087" lon="7.890348518693629"><ele>274.4</ele><time>2026-03-23T17:30:45Z</time></trkpt><trkpt lat="44.47871111676504" lon="7.890331914670925"><ele>274.0</ele><time>2026-03-23T17:30:46Z</time></trkpt><trkpt lat="44.47880797100481" lon="7.890318242750637"><ele>274.0</ele><time>2026-03-23T17:30:47Z</time></trkpt><trkpt lat="44.47889713805013" lon="7.890301693873265"><ele>274.0</ele><time>2026-03-23T17:30:48Z</time></trkpt><trkpt lat="44.478973569005234" lon="7.890278994499959"><ele>274.0</ele><time>2026-03-23T17:30:49Z</time></trkpt><trkpt lat="44.47904339257973" lon="7.890255710512931"><ele>274.0</ele><time>2026-03-23T17:30:50Z</time></trkpt><trkpt lat="44.479112430314345" lon="7.890243174717371"><ele>274.0</ele><time>2026-03-23T17:30:51Z</time></trkpt><trkpt lat="44.47921558025603" lon="7.890241671344324"><ele>274.0</ele><time>2026-03-23T17:30:53Z</time></trkpt><trkpt lat="44.47933534448394" lon="7.890268431145333"><ele>274.0</ele><time>2026-03-23T17:30:55Z</time></trkpt><trkpt lat="44.47944422686916" lon="7.890322306913558"><ele>274.0</ele><time>2026-03-23T17:30:57Z</time></trkpt><trkpt lat="44.47956382173123" lon="7.890284374968314"><ele>274.0</ele><time>2026-03-23T17:30:59Z</time></trkpt><trkpt lat="44.479635608002056" lon="7.89013412754639"><ele>274.0</ele><time>2026-03-23T17:31:01Z</time></trkpt><trkpt lat="44.47964839575583" lon="7.889965584921109"><ele>274.0</ele><time>2026-03-23T17:31:03Z</time></trkpt><trkpt lat="44.47951963330897" lon="7.889753053385853"><ele>274.0</ele><time>2026-03-23T17:31:05Z</time></trkpt><trkpt lat="44.479480610217166" lon="7.889626958109353"><ele>274.0</ele><time>2026-03-23T17:31:06Z</time></trkpt><trkpt lat="44.47945052468428" lon="7.8894897633505385"><ele>274.0</ele><time>2026-03-23T17:31:07Z</time></trkpt><trkpt lat="44.47943491292988" lon="7.88933030996603"><ele>274.5</ele><time>2026-03-23T17:31:08Z</time></trkpt><trkpt lat="44.479431089446095" lon="7.889135953686802"><ele>275.0</ele><time>2026-03-23T17:31:09Z</time></trkpt><trkpt lat="44.47942503126847" lon="7.888935119928898"><ele>275.5</ele><time>2026-03-23T17:31:10Z</time></trkpt><trkpt lat="44.47940662718515" lon="7.888731437281892"><ele>276.0</ele><time>2026-03-23T17:31:10.999Z</time></trkpt><trkpt lat="44.479392382355215" lon="7.888542762676506"><ele>276.40000000000003</ele><time>2026-03-23T17:31:11.999Z</time></trkpt><trkpt lat="44.479380101493845" lon="7.888398810784737"><ele>276.8</ele><time>2026-03-23T17:31:12.999Z</time></trkpt><trkpt lat="44.479371738510224" lon="7.888201035763227"><ele>277.20000000000005</ele><time>2026-03-23T17:31:14.999Z</time></trkpt><trkpt lat="44.47939758461679" lon="7.88808284899293"><ele>277.6</ele><time>2026-03-23T17:31:15.999Z</time></trkpt><trkpt lat="44.47944133858043" lon="7.887975149619743"><ele>278.0</ele><time>2026-03-23T17:31:16.999Z</time></trkpt><trkpt lat="44.47950949392994" lon="7.887872039811538"><ele>278.4</ele><time>2026-03-23T17:31:17.999Z</time></trkpt><trkpt lat="44.47960763411177" lon="7.887794850599668"><ele>278.8</ele><time>2026-03-23T17:31:18.999Z</time></trkpt><trkpt lat="44.47969315829728" lon="7.887700239156917"><ele>279.2</ele><time>2026-03-23T17:31:19.999Z</time></trkpt><trkpt lat="44.47975861993311" lon="7.887622142436357"><ele>279.6</ele><time>2026-03-23T17:31:20.999Z</time></trkpt><trkpt lat="44.47982084967926" lon="7.887546755756644"><ele>280.0</ele><time>2026-03-23T17:31:21.999Z</time></trkpt><trkpt lat="44.479866280989356" lon="7.887429353364395"><ele>282.8</ele><time>2026-03-23T17:31:22.999Z</time></trkpt><trkpt lat="44.47990781112807" lon="7.887321990802768"><ele>285.6</ele><time>2026-03-23T17:31:23.999Z</time></trkpt><trkpt lat="44.479927287637516" lon="7.887195426547471"><ele>288.4</ele><time>2026-03-23T17:31:24.999Z</time></trkpt><trkpt lat="44.47992493725471" lon="7.887063126240497"><ele>291.2</ele><time>2026-03-23T17:31:25.999Z</time></trkpt><trkpt lat="44.47988570647257" lon="7.886916460290442"><ele>294.0</ele><time>2026-03-23T17:31:26.999Z</time></trkpt><trkpt lat="44.47985620365023" lon="7.886766519123113"><ele>296.75</ele><time>2026-03-23T17:31:27.999Z</time></trkpt><trkpt lat="44.479831361001025" lon="7.8866050576489055"><ele>299.5</ele><time>2026-03-23T17:31:28.999Z</time></trkpt><trkpt lat="44.47978932186617" lon="7.886433288281074"><ele>302.25</ele><time>2026-03-23T17:31:29.999Z</time></trkpt><trkpt lat="44.47974738410786" lon="7.886257233664232"><ele>305.0</ele><time>2026-03-23T17:31:30.999Z</time></trkpt><trkpt lat="44.479708873271335" lon="7.88608089243265"><ele>307.75</ele><time>2026-03-23T17:31:31.999Z</time></trkpt><trkpt lat="44.47966486403235" lon="7.885880065712761"><ele>310.5</ele><time>2026-03-23T17:31:32.999Z</time></trkpt><trkpt lat="44.479618850905695" lon="7.885694701312445"><ele>313.25</ele><time>2026-03-23T17:31:33.999Z</time></trkpt><trkpt lat="44.47957343132054" lon="7.885493934203221"><ele>316.0</ele><time>2026-03-23T17:31:34.999Z</time></trkpt><trkpt lat="44.47951843536058" lon="7.885296950502595"><ele>311.0</ele><time>2026-03-23T17:31:35.999Z</time></trkpt><trkpt lat="44.47945297506769" lon="7.88510349527639"><ele>306.0</ele><time>2026-03-23T17:31:36.999Z</time></trkpt><trkpt lat="44.47935862566084" lon="7.884924986731561"><ele>301.0</ele><time>2026-03-23T17:31:37.999Z</time></trkpt><trkpt lat="44.47925827640366" lon="7.884744778504378"><ele>301.0</ele><time>2026-03-23T17:31:38.999Z</time></trkpt><trkpt lat="44.47914701321159" lon="7.884557878048715"><ele>301.0</ele><time>2026-03-23T17:31:39.999Z</time></trkpt><trkpt lat="44.47902836842501" lon="7.88438678316042"><ele>301.0</ele><time>2026-03-23T17:31:40.999Z</time></trkpt><trkpt lat="44.47892246436891" lon="7.8842371878267095"><ele>299.6</ele><time>2026-03-23T17:31:41.999Z</time></trkpt><trkpt lat="44.478833801596366" lon="7.884104953394824"><ele>298.20000000000005</ele><time>2026-03-23T17:31:42.999Z</time></trkpt><trkpt lat="44.478773480619395" lon="7.88398417698196"><ele>296.79999999999995</ele><time>2026-03-23T17:31:43.999Z</time></trkpt><trkpt lat="44.478720763169974" lon="7.883858150146198"><ele>295.4</ele><time>2026-03-23T17:31:44.999Z</time></trkpt><trkpt lat="44.47866947284989" lon="7.883755159020894"><ele>294.0</ele><time>2026-03-23T17:31:45.999Z</time></trkpt><trkpt lat="44.478639823817346" lon="7.883656846336528"><ele>294.0</ele><time>2026-03-23T17:31:46.999Z</time></trkpt><trkpt lat="44.47861241433359" lon="7.883556890867639"><ele>294.0</ele><time>2026-03-23T17:31:47.999Z</time></trkpt><trkpt lat="44.47860498891967" lon="7.883401743501793"><ele>294.0</ele><time>2026-03-23T17:31:49.999Z</time></trkpt><trkpt lat="44.478659609676605" lon="7.8832867009276395"><ele>294.0</ele><time>2026-03-23T17:31:51.999Z</time></trkpt><trkpt lat="44.47870969294127" lon="7.883227183759912"><ele>294.0</ele><time>2026-03-23T17:31:52.999Z</time></trkpt><trkpt lat="44.478770833673266" lon="7.883179720762638"><ele>294.0</ele><time>2026-03-23T17:31:53.999Z</time></trkpt><trkpt lat="44.47883955315799" lon="7.883135875339511"><ele>299.0</ele><time>2026-03-23T17:31:54.999Z</time></trkpt><trkpt lat="44.47891663860854" lon="7.883091017808059"><ele>304.0</ele><time>2026-03-23T17:31:55.999Z</time></trkpt><trkpt lat="44.478994486621815" lon="7.883041196687722"><ele>309.0</ele><time>2026-03-23T17:31:56.999Z</time></trkpt><trkpt lat="44.47906426939825" lon="7.883000417863808"><ele>314.0</ele><time>2026-03-23T17:31:57.999Z</time></trkpt><trkpt lat="44.47912562165206" lon="7.882954805825977"><ele>319.0</ele><time>2026-03-23T17:31:58.999Z</time></trkpt><trkpt lat="44.479180230095984" lon="7.882892511785182"><ele>324.0</ele><time>2026-03-23T17:31:59.999Z</time></trkpt><trkpt lat="44.47922934488054" lon="7.88282966606216"><ele>324.0</ele><time>2026-03-23T17:32:00.999Z</time></trkpt><trkpt lat="44.47929529168933" lon="7.882696844649172"><ele>324.0</ele><time>2026-03-23T17:32:02.999Z</time></trkpt><trkpt lat="44.479334133331974" lon="7.882536704364168"><ele>324.0</ele><time>2026-03-23T17:32:04.999Z</time></trkpt><trkpt lat="44.479298704759316" lon="7.882452442813343"><ele>324.0</ele><time>2026-03-23T17:32:05.999Z</time></trkpt><trkpt lat="44.47923984417104" lon="7.8823129535602305"><ele>324.0</ele><time>2026-03-23T17:32:07.998Z</time></trkpt><trkpt lat="44.47917422185574" lon="7.882288514257498"><ele>324.3333333333333</ele><time>2026-03-23T17:32:08.998Z</time></trkpt><trkpt lat="44.47905914147878" lon="7.882303386971835"><ele>324.6666666666667</ele><time>2026-03-23T17:32:10.998Z</time></trkpt><trkpt lat="44.47899447892622" lon="7.882338608636861"><ele>325.0</ele><time>2026-03-23T17:32:11.998Z</time></trkpt><trkpt lat="44.478925082344084" lon="7.88238936543443"><ele>325.33333333333337</ele><time>2026-03-23T17:32:12.998Z</time></trkpt><trkpt lat="44.47885735117661" lon="7.88243723472835"><ele>325.6666666666667</ele><time>2026-03-23T17:32:13.998Z</time></trkpt><trkpt lat="44.478783409406454" lon="7.882476826431028"><ele>326.0</ele><time>2026-03-23T17:32:14.998Z</time></trkpt><trkpt lat="44.478713403377405" lon="7.882487273744003"><ele>323.8</ele><time>2026-03-23T17:32:15.998Z</time></trkpt><trkpt lat="44.47859525021548" lon="7.8824548717325085"><ele>321.6</ele><time>2026-03-23T17:32:17.998Z</time></trkpt><trkpt lat="44.47852785641345" lon="7.882400662808903"><ele>319.4</ele><time>2026-03-23T17:32:18.998Z</time></trkpt><trkpt lat="44.478454482014484" lon="7.882332451669869"><ele>317.2</ele><time>2026-03-23T17:32:19.998Z</time></trkpt><trkpt lat="44.47838325881618" lon="7.882236482611458"><ele>315.0</ele><time>2026-03-23T17:32:20.998Z</time></trkpt><trkpt lat="44.47830055328068" lon="7.882130929142617"><ele>315.0</ele><time>2026-03-23T17:32:21.998Z</time></trkpt><trkpt lat="44.47821388224221" lon="7.882018470400435"><ele>315.0</ele><time>2026-03-23T17:32:22.998Z</time></trkpt><trkpt lat="44.478099048223534" lon="7.881918188473669"><ele>315.0</ele><time>2026-03-23T17:32:23.998Z</time></trkpt><trkpt lat="44.47800643048986" lon="7.881801569272173"><ele>315.0</ele><time>2026-03-23T17:32:24.998Z</time></trkpt><trkpt lat="44.47790360760406" lon="7.881668898541197"><ele>314.6</ele><time>2026-03-23T17:32:25.998Z</time></trkpt><trkpt lat="44.477834278587366" lon="7.881504602778647"><ele>314.2</ele><time>2026-03-23T17:32:26.998Z</time></trkpt><trkpt lat="44.47777439768101" lon="7.881368609908424"><ele>313.8</ele><time>2026-03-23T17:32:27.998Z</time></trkpt><trkpt lat="44.47771757444678" lon="7.881253170074271"><ele>313.4</ele><time>2026-03-23T17:32:28.998Z</time></trkpt><trkpt lat="44.47768375192527" lon="7.881159881476426"><ele>313.0</ele><time>2026-03-23T17:32:29.998Z</time></trkpt><trkpt lat="44.47764957044032" lon="7.881071435700874"><ele>313.0</ele><time>2026-03-23T17:32:30.998Z</time></trkpt><trkpt lat="44.47761264980716" lon="7.880954042911704"><ele>313.0</ele><time>2026-03-23T17:32:32.998Z</time></trkpt><trkpt lat="44.477639246545884" lon="7.8808668511488715"><ele>313.0</ele><time>2026-03-23T17:32:34.998Z</time></trkpt><trkpt lat="44.477703169404855" lon="7.880846459217108"><ele>313.0</ele><time>2026-03-23T17:32:37Z</time></trkpt><trkpt lat="44.47772784612652" lon="7.880959746411486"><ele>313.0</ele><time>2026-03-23T17:32:39Z</time></trkpt><trkpt lat="44.477766927120825" lon="7.881032287611027"><ele>313.0</ele><time>2026-03-23T17:32:40Z</time></trkpt><trkpt lat="44.47780318381524" lon="7.881145376394803"><ele>313.0</ele><time>2026-03-23T17:32:41Z</time></trkpt><trkpt lat="44.47785223537518" lon="7.881282925012326"><ele>313.0</ele><time>2026-03-23T17:32:42Z</time></trkpt><trkpt lat="44.4779176278791" lon="7.881391681512367"><ele>313.0</ele><time>2026-03-23T17:32:43Z</time></trkpt><trkpt lat="44.47798911165725" lon="7.881502325028948"><ele>313.0</ele><time>2026-03-23T17:32:44Z</time></trkpt><trkpt lat="44.47808358385093" lon="7.88160949981481"><ele>313.0</ele><time>2026-03-23T17:32:45Z</time></trkpt><trkpt lat="44.478195087664595" lon="7.881715803886173"><ele>313.4</ele><time>2026-03-23T17:32:46Z</time></trkpt><trkpt lat="44.47830190066334" lon="7.881812028097376"><ele>313.8</ele><time>2026-03-23T17:32:47Z</time></trkpt><trkpt lat="44.478396458478656" lon="7.881862913960099"><ele>314.2</ele><time>2026-03-23T17:32:48Z</time></trkpt><trkpt lat="44.47847486547138" lon="7.881924166877158"><ele>314.6</ele><time>2026-03-23T17:32:49Z</time></trkpt><trkpt lat="44.47853023707888" lon="7.881984351698332"><ele>315.0</ele><time>2026-03-23T17:32:50Z</time></trkpt><trkpt lat="44.47861561295572" lon="7.882068037596201"><ele>315.0</ele><time>2026-03-23T17:32:52Z</time></trkpt><trkpt lat="44.478687016540405" lon="7.882066945216334"><ele>315.0</ele><time>2026-03-23T17:32:54Z</time></trkpt><trkpt lat="44.47861184913048" lon="7.881798812084032"><ele>315.0</ele><time>2026-03-23T17:33:00Z</time></trkpt><trkpt lat="44.47853605750316" lon="7.881730172995297"><ele>315.0</ele><time>2026-03-23T17:33:01Z</time></trkpt><trkpt lat="44.47845877786631" lon="7.881656040471607"><ele>319.0</ele><time>2026-03-23T17:33:02Z</time></trkpt><trkpt lat="44.47837814255298" lon="7.881572916883398"><ele>323.0</ele><time>2026-03-23T17:33:03Z</time></trkpt><trkpt lat="44.478299151247136" lon="7.881488061892851"><ele>327.0</ele><time>2026-03-23T17:33:04Z</time></trkpt><trkpt lat="44.47821666786952" lon="7.881388845461877"><ele>331.0</ele><time>2026-03-23T17:33:05Z</time></trkpt><trkpt lat="44.478135583868784" lon="7.8812881430679"><ele>335.0</ele><time>2026-03-23T17:33:06Z</time></trkpt><trkpt lat="44.47808461476447" lon="7.881111803983567"><ele>335.0</ele><time>2026-03-23T17:33:07Z</time></trkpt><trkpt lat="44.47805106766761" lon="7.880990438975573"><ele>335.0</ele><time>2026-03-23T17:33:08Z</time></trkpt><trkpt lat="44.478023156317334" lon="7.880860866518341"><ele>335.0</ele><time>2026-03-23T17:33:09Z</time></trkpt><trkpt lat="44.477999349411526" lon="7.880727592054154"><ele>335.0</ele><time>2026-03-23T17:33:10Z</time></trkpt><trkpt lat="44.47797537440564" lon="7.880596020859531"><ele>335.0</ele><time>2026-03-23T17:33:11Z</time></trkpt><trkpt lat="44.47794604693122" lon="7.8804975210476975"><ele>333.6</ele><time>2026-03-23T17:33:12Z</time></trkpt><trkpt lat="44.47793083113106" lon="7.880397553785239"><ele>332.2</ele><time>2026-03-23T17:33:13Z</time></trkpt><trkpt lat="44.47791000046293" lon="7.8803116345534585"><ele>330.79999999999995</ele><time>2026-03-23T17:33:14Z</time></trkpt><trkpt lat="44.47789188043827" lon="7.880131377783307"><ele>329.4</ele><time>2026-03-23T17:33:16Z</time></trkpt><trkpt lat="44.47792810884925" lon="7.880033476045732"><ele>328.0</ele><time>2026-03-23T17:33:17Z</time></trkpt><trkpt lat="44.477933693290765" lon="7.879849494332691"><ele>333.3333333333333</ele><time>2026-03-23T17:33:18.999Z</time></trkpt><trkpt lat="44.47798427055979" lon="7.879766801221308"><ele>338.66666666666663</ele><time>2026-03-23T17:33:19.999Z</time></trkpt><trkpt lat="44.47799825239467" lon="7.879672337100573"><ele>344.0</ele><time>2026-03-23T17:33:20.999Z</time></trkpt><trkpt lat="44.47802100910563" lon="7.879485609962752"><ele>349.3333333333333</ele><time>2026-03-23T17:33:22.999Z</time></trkpt><trkpt lat="44.478021168636154" lon="7.879385441892147"><ele>354.6666666666667</ele><time>2026-03-23T17:33:23.999Z</time></trkpt><trkpt lat="44.47803056942059" lon="7.879279093649192"><ele>360.0</ele><time>2026-03-23T17:33:24.999Z</time></trkpt><trkpt lat="44.47805012251147" lon="7.879187648361111"><ele>360.4</ele><time>2026-03-23T17:33:25.999Z</time></trkpt><trkpt lat="44.47801468279906" lon="7.879069904841564"><ele>360.8</ele><time>2026-03-23T17:33:27.999Z</time></trkpt><trkpt lat="44.47801056639902" lon="7.878949153339326"><ele>361.20000000000005</ele><time>2026-03-23T17:33:29.999Z</time></trkpt><trkpt lat="44.47805683575166" lon="7.878879220070668"><ele>361.6</ele><time>2026-03-23T17:33:31.999Z</time></trkpt><trkpt lat="44.478144649990334" lon="7.878802980591129"><ele>362.0</ele><time>2026-03-23T17:33:33.999Z</time></trkpt><trkpt lat="44.47822915795419" lon="7.878705216005433"><ele>362.0</ele><time>2026-03-23T17:33:35.999Z</time></trkpt><trkpt lat="44.47828798676365" lon="7.878649207010782"><ele>362.0</ele><time>2026-03-23T17:33:37.999Z</time></trkpt><trkpt lat="44.478316345804146" lon="7.878735800261056"><ele>362.0</ele><time>2026-03-23T17:33:43.999Z</time></trkpt><trkpt lat="44.478318792176175" lon="7.87885236047809"><ele>362.0</ele><time>2026-03-23T17:33:44.999Z</time></trkpt><trkpt lat="44.478348133075336" lon="7.878977512025338"><ele>362.0</ele><time>2026-03-23T17:33:45.999Z</time></trkpt><trkpt lat="44.478363802984596" lon="7.879094906359112"><ele>362.0</ele><time>2026-03-23T17:33:47.999Z</time></trkpt><trkpt lat="44.47835670645044" lon="7.8792545896719535"><ele>361.6666666666667</ele><time>2026-03-23T17:33:49.999Z</time></trkpt><trkpt lat="44.47837499686595" lon="7.879350377106831"><ele>361.33333333333337</ele><time>2026-03-23T17:33:50.999Z</time></trkpt><trkpt lat="44.47839165765555" lon="7.879474009647666"><ele>361.0</ele><time>2026-03-23T17:33:52.999Z</time></trkpt><trkpt lat="44.4784814291836" lon="7.8794988312482355"><ele>360.6666666666667</ele><time>2026-03-23T17:33:55.999Z</time></trkpt><trkpt lat="44.47855959426225" lon="7.879500752125318"><ele>360.3333333333333</ele><time>2026-03-23T17:33:57.999Z</time></trkpt><trkpt lat="44.4785772269646" lon="7.879646174668518"><ele>360.0</ele><time>2026-03-23T17:34:00.999Z</time></trkpt><trkpt lat="44.478567158752675" lon="7.879792722029982"><ele>360.0</ele><time>2026-03-23T17:34:02.999Z</time></trkpt><trkpt lat="44.47853456844549" lon="7.8799182664099865"><ele>360.0</ele><time>2026-03-23T17:34:04.999Z</time></trkpt><trkpt lat="44.478563131242396" lon="7.8800080556885606"><ele>360.0</ele><time>2026-03-23T17:34:07.999Z</time></trkpt><trkpt lat="44.47862674826751" lon="7.880053663364451"><ele>360.0</ele><time>2026-03-23T17:34:09.999Z</time></trkpt><trkpt lat="44.47869137215511" lon="7.880064784362199"><ele>360.0</ele><time>2026-03-23T17:34:10.999Z</time></trkpt><trkpt lat="44.47876406425967" lon="7.880087744142991"><ele>360.0</ele><time>2026-03-23T17:34:11.999Z</time></trkpt><trkpt lat="44.47883914960835" lon="7.8801354801243155"><ele>359.2</ele><time>2026-03-23T17:34:12.999Z</time></trkpt><trkpt lat="44.4789297485334" lon="7.880171154581934"><ele>358.4</ele><time>2026-03-23T17:34:14.998Z</time></trkpt><trkpt lat="44.47901161976053" lon="7.880181559278515"><ele>357.6</ele><time>2026-03-23T17:34:16.998Z</time></trkpt><trkpt lat="44.479123742442404" lon="7.880210567504583"><ele>356.8</ele><time>2026-03-23T17:34:19.998Z</time></trkpt><trkpt lat="44.47919021041025" lon="7.880199902227504"><ele>356.0</ele><time>2026-03-23T17:34:20.998Z</time></trkpt><trkpt lat="44.47927782097213" lon="7.880140650954437"><ele>357.1666666666667</ele><time>2026-03-23T17:34:22.998Z</time></trkpt><trkpt lat="44.479329191537225" lon="7.880048196538665"><ele>358.33333333333337</ele><time>2026-03-23T17:34:23.998Z</time></trkpt><trkpt lat="44.479378315755106" lon="7.879950799788069"><ele>359.5</ele><time>2026-03-23T17:34:24.998Z</time></trkpt><trkpt lat="44.47941573977611" lon="7.879876600568845"><ele>360.6666666666667</ele><time>2026-03-23T17:34:25.998Z</time></trkpt><trkpt lat="44.47944796831203" lon="7.879781621192063"><ele>361.8333333333333</ele><time>2026-03-23T17:34:26.998Z</time></trkpt><trkpt lat="44.479500482752826" lon="7.879695886307921"><ele>363.0</ele><time>2026-03-23T17:34:28.998Z</time></trkpt><trkpt lat="44.47956811820207" lon="7.879593552470261"><ele>362.5</ele><time>2026-03-23T17:34:30.998Z</time></trkpt><trkpt lat="44.47963275254395" lon="7.879496356799613"><ele>362.0</ele><time>2026-03-23T17:34:32.998Z</time></trkpt><trkpt lat="44.47970880194153" lon="7.879506601150844"><ele>361.5</ele><time>2026-03-23T17:34:34.998Z</time></trkpt><trkpt lat="44.47978335876219" lon="7.879454851333103"><ele>361.0</ele><time>2026-03-23T17:34:37.998Z</time></trkpt><trkpt lat="44.47985890917716" lon="7.879402411617935"><ele>360.5</ele><time>2026-03-23T17:34:40.998Z</time></trkpt><trkpt lat="44.47983318673936" lon="7.879299671218207"><ele>360.0</ele><time>2026-03-23T17:34:43Z</time></trkpt><trkpt lat="44.47980394706006" lon="7.879150982171927"><ele>360.0</ele><time>2026-03-23T17:34:46Z</time></trkpt><trkpt lat="44.47977675249148" lon="7.8790320186117775"><ele>360.0</ele><time>2026-03-23T17:34:49Z</time></trkpt><trkpt lat="44.47975521585136" lon="7.878933153101643"><ele>360.0</ele><time>2026-03-23T17:34:51Z</time></trkpt><trkpt lat="44.479713830481884" lon="7.878763487807028"><ele>360.0</ele><time>2026-03-23T17:34:53Z</time></trkpt><trkpt lat="44.47968106823023" lon="7.878639574072196"><ele>360.0</ele><time>2026-03-23T17:34:54Z</time></trkpt><trkpt lat="44.47966104199571" lon="7.878538386612834"><ele>360.1666666666667</ele><time>2026-03-23T17:34:55Z</time></trkpt><trkpt lat="44.479637463472514" lon="7.8784334507577425"><ele>360.3333333333333</ele><time>2026-03-23T17:34:56Z</time></trkpt><trkpt lat="44.47960585592044" lon="7.878340291003401"><ele>360.5</ele><time>2026-03-23T17:34:57Z</time></trkpt><trkpt lat="44.47953468807291" lon="7.87830018772389"><ele>360.66666666666663</ele><time>2026-03-23T17:35:02Z</time></trkpt><trkpt lat="44.47952005288253" lon="7.878179696635189"><ele>360.8333333333333</ele><time>2026-03-23T17:35:04Z</time></trkpt><trkpt lat="44.4794814645216" lon="7.878096769929369"><ele>361.0</ele><time>2026-03-23T17:35:05Z</time></trkpt><trkpt lat="44.479401873909104" lon="7.878012397816143"><ele>361.5</ele><time>2026-03-23T17:35:06Z</time></trkpt><trkpt lat="44.47932592703092" lon="7.877971754782565"><ele>362.0</ele><time>2026-03-23T17:35:07Z</time></trkpt><trkpt lat="44.47926704278721" lon="7.877890990145886"><ele>362.5</ele><time>2026-03-23T17:35:08Z</time></trkpt><trkpt lat="44.479205428014886" lon="7.877838461253661"><ele>363.0</ele><time>2026-03-23T17:35:09Z</time></trkpt><trkpt lat="44.47910715543162" lon="7.877776509639281"><ele>363.5</ele><time>2026-03-23T17:35:11Z</time></trkpt><trkpt lat="44.47903871832274" lon="7.8777235122891645"><ele>364.0</ele><time>2026-03-23T17:35:13Z</time></trkpt><trkpt lat="44.47898483483602" lon="7.8776770639355815"><ele>364.0</ele><time>2026-03-23T17:35:16Z</time></trkpt><trkpt lat="44.47892038568359" lon="7.877606106455997"><ele>364.0</ele><time>2026-03-23T17:35:24.999Z</time></trkpt><trkpt lat="44.478837654533336" lon="7.877583900169901"><ele>364.0</ele><time>2026-03-23T17:35:26.999Z</time></trkpt><trkpt lat="44.478763322690845" lon="7.877556153561032"><ele>364.0</ele><time>2026-03-23T17:35:28.999Z</time></trkpt><trkpt lat="44.47867248763899" lon="7.877505094146666"><ele>364.0</ele><time>2026-03-23T17:35:30.999Z</time></trkpt><trkpt lat="44.47855906293823" lon="7.877443521661138"><ele>363.66666666666663</ele><time>2026-03-23T17:35:32.999Z</time></trkpt><trkpt lat="44.47848993955409" lon="7.8774175341362715"><ele>363.3333333333333</ele><time>2026-03-23T17:35:33.999Z</time></trkpt><trkpt lat="44.47839555976097" lon="7.87737018678022"><ele>363.0</ele><time>2026-03-23T17:35:35.999Z</time></trkpt><trkpt lat="44.47830520824039" lon="7.877322915668151"><ele>362.6666666666667</ele><time>2026-03-23T17:35:37.999Z</time></trkpt><trkpt lat="44.47821948517792" lon="7.877285780595093"><ele>362.33333333333337</ele><time>2026-03-23T17:35:39.999Z</time></trkpt><trkpt lat="44.47814731256444" lon="7.87725130478893"><ele>362.0</ele><time>2026-03-23T17:35:41.999Z</time></trkpt><trkpt lat="44.47815995225299" lon="7.877113847765419"><ele>362.0</ele><time>2026-03-23T17:35:45.999Z</time></trkpt><trkpt lat="44.47818962382689" lon="7.876947740431771"><ele>362.0</ele><time>2026-03-23T17:35:47.999Z</time></trkpt><trkpt lat="44.478231184025496" lon="7.876837469704317"><ele>362.0</ele><time>2026-03-23T17:35:49.999Z</time></trkpt><trkpt lat="44.47827099642695" lon="7.876759507214502"><ele>362.0</ele><time>2026-03-23T17:35:51.999Z</time></trkpt><trkpt lat="44.47833261745605" lon="7.876418260308429"><ele>361.8</ele><time>2026-03-23T17:36:02.999Z</time></trkpt><trkpt lat="44.47833337526441" lon="7.876317479648128"><ele>361.6</ele><time>2026-03-23T17:36:03.999Z</time></trkpt><trkpt lat="44.47833536445871" lon="7.876189935781813"><ele>361.40000000000003</ele><time>2026-03-23T17:36:04.999Z</time></trkpt><trkpt lat="44.47832616546063" lon="7.876030431130508"><ele>361.20000000000005</ele><time>2026-03-23T17:36:05.999Z</time></trkpt><trkpt lat="44.4783274513491" lon="7.875878707618253"><ele>361.0</ele><time>2026-03-23T17:36:06.999Z</time></trkpt><trkpt lat="44.4783267346499" lon="7.875711155717891"><ele>361.0</ele><time>2026-03-23T17:36:07.999Z</time></trkpt><trkpt lat="44.478327782593155" lon="7.875554604816896"><ele>361.0</ele><time>2026-03-23T17:36:08.999Z</time></trkpt><trkpt lat="44.47831526885252" lon="7.875420832323302"><ele>361.0</ele><time>2026-03-23T17:36:09.999Z</time></trkpt><trkpt lat="44.478333169681775" lon="7.875326381019068"><ele>361.0</ele><time>2026-03-23T17:36:11.999Z</time></trkpt><trkpt lat="44.478306523720406" lon="7.875237832969325"><ele>361.0</ele><time>2026-03-23T17:36:13.999Z</time></trkpt><trkpt lat="44.47830706039506" lon="7.87512973043848"><ele>361.0</ele><time>2026-03-23T17:36:15.999Z</time></trkpt><trkpt lat="44.47831065082016" lon="7.8750370168020005"><ele>361.0</ele><time>2026-03-23T17:36:16.999Z</time></trkpt><trkpt lat="44.47830439702188" lon="7.874909553145179"><ele>361.0</ele><time>2026-03-23T17:36:17.999Z</time></trkpt><trkpt lat="44.47830021045711" lon="7.874766052161199"><ele>361.0</ele><time>2026-03-23T17:36:18.999Z</time></trkpt><trkpt lat="44.47828820882205" lon="7.874659856296925"><ele>361.0</ele><time>2026-03-23T17:36:19.999Z</time></trkpt><trkpt lat="44.47828997928394" lon="7.874567502506814"><ele>361.0</ele><time>2026-03-23T17:36:20.998Z</time></trkpt><trkpt lat="44.47829721130869" lon="7.874429846535409"><ele>361.0</ele><time>2026-03-23T17:36:22.998Z</time></trkpt><trkpt lat="44.4784861672714" lon="7.87439423945734"><ele>361.0</ele><time>2026-03-23T17:36:26.998Z</time></trkpt><trkpt lat="44.478672224055714" lon="7.874365587141467"><ele>361.0</ele><time>2026-03-23T17:36:28.998Z</time></trkpt><trkpt lat="44.47879117380908" lon="7.874346737245725"><ele>361.0</ele><time>2026-03-23T17:36:29.998Z</time></trkpt><trkpt lat="44.478894485253726" lon="7.874330130238871"><ele>361.0</ele><time>2026-03-23T17:36:30.998Z</time></trkpt><trkpt lat="44.4790052174385" lon="7.874312330347477"><ele>361.0</ele><time>2026-03-23T17:36:31.998Z</time></trkpt><trkpt lat="44.479089522681925" lon="7.874298778491344"><ele>361.0</ele><time>2026-03-23T17:36:32.998Z</time></trkpt><trkpt lat="44.47916038111508" lon="7.8742873883598135"><ele>361.0</ele><time>2026-03-23T17:36:33.998Z</time></trkpt><trkpt lat="44.47924964484022" lon="7.8742723452503425"><ele>361.0</ele><time>2026-03-23T17:36:35.998Z</time></trkpt><trkpt lat="44.47938504748904" lon="7.874247242780421"><ele>361.0</ele><time>2026-03-23T17:36:43.998Z</time></trkpt><trkpt lat="44.47946167879198" lon="7.8742275323417745"><ele>361.20000000000005</ele><time>2026-03-23T17:36:57Z</time></trkpt><trkpt lat="44.47942501093299" lon="7.873978354464599"><ele>361.40000000000003</ele><time>2026-03-23T17:36:59Z</time></trkpt><trkpt lat="44.47940337759591" lon="7.8738748499456905"><ele>361.6</ele><time>2026-03-23T17:37:00Z</time></trkpt><trkpt lat="44.47938172168532" lon="7.87375111540843"><ele>361.8</ele><time>2026-03-23T17:37:01Z</time></trkpt><trkpt lat="44.47933160510585" lon="7.873639463917064"><ele>362.0</ele><time>2026-03-23T17:37:02Z</time></trkpt><trkpt lat="44.479280540776536" lon="7.873473331842344"><ele>362.40000000000003</ele><time>2026-03-23T17:37:03Z</time></trkpt><trkpt lat="44.47924160991318" lon="7.873294385389869"><ele>362.8</ele><time>2026-03-23T17:37:04Z</time></trkpt><trkpt lat="44.47920208144918" lon="7.8731582728105485"><ele>363.2</ele><time>2026-03-23T17:37:05Z</time></trkpt><trkpt lat="44.47916633684625" lon="7.873052412821185"><ele>363.6</ele><time>2026-03-23T17:37:06Z</time></trkpt><trkpt lat="44.47913219773746" lon="7.872946207338426"><ele>364.0</ele><time>2026-03-23T17:37:09Z</time></trkpt><trkpt lat="44.479082641866086" lon="7.872799178307219"><ele>364.0</ele><time>2026-03-23T17:37:15Z</time></trkpt><trkpt lat="44.47905287552394" lon="7.872688103544853"><ele>364.0</ele><time>2026-03-23T17:37:16Z</time></trkpt><trkpt lat="44.479023388467276" lon="7.872579984789662"><ele>364.0</ele><time>2026-03-23T17:37:17Z</time></trkpt><trkpt lat="44.47898832822812" lon="7.872432283399472"><ele>364.0</ele><time>2026-03-23T17:37:18Z</time></trkpt><trkpt lat="44.478932387293604" lon="7.872276158518335"><ele>364.0</ele><time>2026-03-23T17:37:19Z</time></trkpt><trkpt lat="44.478879597312165" lon="7.872105816577861"><ele>364.0</ele><time>2026-03-23T17:37:20Z</time></trkpt><trkpt lat="44.478820986903564" lon="7.871932660877683"><ele>364.0</ele><time>2026-03-23T17:37:21Z</time></trkpt><trkpt lat="44.47876783964936" lon="7.87176058725103"><ele>364.0</ele><time>2026-03-23T17:37:22Z</time></trkpt><trkpt lat="44.47872760387473" lon="7.8716124799418274"><ele>364.0</ele><time>2026-03-23T17:37:23Z</time></trkpt><trkpt lat="44.4786873576657" lon="7.871470670622016"><ele>364.0</ele><time>2026-03-23T17:37:24Z</time></trkpt><trkpt lat="44.47865140215278" lon="7.87133666947492"><ele>364.0</ele><time>2026-03-23T17:37:25Z</time></trkpt><trkpt lat="44.47861705674001" lon="7.87121834486633"><ele>364.0</ele><time>2026-03-23T17:37:26Z</time></trkpt><trkpt lat="44.47859232682804" lon="7.8711161892456465"><ele>364.0</ele><time>2026-03-23T17:37:27Z</time></trkpt><trkpt lat="44.47854801141148" lon="7.87096119652246"><ele>364.0</ele><time>2026-03-23T17:37:28.999Z</time></trkpt><trkpt lat="44.47852292323102" lon="7.870877633691763"><ele>363.75</ele><time>2026-03-23T17:37:29.999Z</time></trkpt><trkpt lat="44.478643187740154" lon="7.8707259306253885"><ele>363.5</ele><time>2026-03-23T17:37:30.999Z</time></trkpt><trkpt lat="44.478719383001206" lon="7.870596341867836"><ele>363.25</ele><time>2026-03-23T17:37:31.999Z</time></trkpt><trkpt lat="44.478785350346925" lon="7.870472950280215"><ele>363.0</ele><time>2026-03-23T17:37:32.999Z</time></trkpt><trkpt lat="44.478839536613876" lon="7.870360685364986"><ele>363.0</ele><time>2026-03-23T17:37:33.999Z</time></trkpt><trkpt lat="44.47888852395475" lon="7.870266880628739"><ele>363.0</ele><time>2026-03-23T17:37:34.999Z</time></trkpt><trkpt lat="44.478937954431316" lon="7.87017885071104"><ele>363.0</ele><time>2026-03-23T17:37:35.999Z</time></trkpt><trkpt lat="44.47897767537055" lon="7.870098667923353"><ele>363.0</ele><time>2026-03-23T17:37:36.999Z</time></trkpt><trkpt lat="44.47903671630035" lon="7.869964906203157"><ele>363.0</ele><time>2026-03-23T17:37:38.999Z</time></trkpt><trkpt lat="44.47909506209183" lon="7.869889256424647"><ele>363.0</ele><time>2026-03-23T17:37:41.999Z</time></trkpt><trkpt lat="44.47923742923558" lon="7.87003546529798"><ele>363.0</ele><time>2026-03-23T17:37:45.999Z</time></trkpt><trkpt lat="44.47928503551545" lon="7.8701040676697165"><ele>363.0</ele><time>2026-03-23T17:37:46.999Z</time></trkpt><trkpt lat="44.47935473165533" lon="7.870147090204251"><ele>363.0</ele><time>2026-03-23T17:37:47.999Z</time></trkpt><trkpt lat="44.47944660619523" lon="7.870262818529658"><ele>363.0</ele><time>2026-03-23T17:37:49.999Z</time></trkpt><trkpt lat="44.47951544071432" lon="7.870314344984903"><ele>363.0</ele><time>2026-03-23T17:37:50.999Z</time></trkpt><trkpt lat="44.47958758690635" lon="7.870378542874967"><ele>363.0</ele><time>2026-03-23T17:37:51.999Z</time></trkpt><trkpt lat="44.4796558511404" lon="7.870470542817562"><ele>363.0</ele><time>2026-03-23T17:37:52.999Z</time></trkpt><trkpt lat="44.47973945360314" lon="7.870554017501341"><ele>363.0</ele><time>2026-03-23T17:37:53.999Z</time></trkpt><trkpt lat="44.47983691740937" lon="7.8706513318610325"><ele>363.0</ele><time>2026-03-23T17:37:54.999Z</time></trkpt><trkpt lat="44.47993796229785" lon="7.870752678779626"><ele>363.0</ele><time>2026-03-23T17:37:55.999Z</time></trkpt><trkpt lat="44.480065944337795" lon="7.870881116868896"><ele>363.0</ele><time>2026-03-23T17:37:56.999Z</time></trkpt><trkpt lat="44.480188847994114" lon="7.871006597492598"><ele>363.0</ele><time>2026-03-23T17:37:57.999Z</time></trkpt><trkpt lat="44.48030997807377" lon="7.871132412067097"><ele>363.0</ele><time>2026-03-23T17:37:58.999Z</time></trkpt><trkpt lat="44.48041293268668" lon="7.871263899995464"><ele>363.0</ele><time>2026-03-23T17:37:59.999Z</time></trkpt><trkpt lat="44.48049766636017" lon="7.871397023422138"><ele>363.0</ele><time>2026-03-23T17:38:00.999Z</time></trkpt><trkpt lat="44.48057559509216" lon="7.871515628858815"><ele>363.0</ele><time>2026-03-23T17:38:01.999Z</time></trkpt><trkpt lat="44.48062040756851" lon="7.871634166164921"><ele>363.0</ele><time>2026-03-23T17:38:02.999Z</time></trkpt><trkpt lat="44.480657851264645" lon="7.871763711638897"><ele>363.0</ele><time>2026-03-23T17:38:03.999Z</time></trkpt><trkpt lat="44.48069550919693" lon="7.8718683312138"><ele>363.0</ele><time>2026-03-23T17:38:04.999Z</time></trkpt><trkpt lat="44.480721357940695" lon="7.8719532405197485"><ele>363.0</ele><time>2026-03-23T17:38:05.999Z</time></trkpt><trkpt lat="44.4807507276057" lon="7.872032699824599"><ele>363.0</ele><time>2026-03-23T17:38:06.999Z</time></trkpt><trkpt lat="44.48077687719539" lon="7.8721547923695825"><ele>363.0</ele><time>2026-03-23T17:38:08.999Z</time></trkpt><trkpt lat="44.480747576656256" lon="7.872269894979205"><ele>363.0</ele><time>2026-03-23T17:38:10.999Z</time></trkpt><trkpt lat="44.48063119554539" lon="7.872269513501202"><ele>363.0</ele><time>2026-03-23T17:38:11.999Z</time></trkpt><trkpt lat="44.480533335450374" lon="7.872342657007788"><ele>363.0</ele><time>2026-03-23T17:38:12.999Z</time></trkpt><trkpt lat="44.48043471496" lon="7.872380636777082"><ele>363.0</ele><time>2026-03-23T17:38:13.999Z</time></trkpt><trkpt lat="44.480363200694654" lon="7.872422122062907"><ele>363.0</ele><time>2026-03-23T17:38:14.999Z</time></trkpt><trkpt lat="44.48028538255362" lon="7.872470326965503"><ele>363.0</ele><time>2026-03-23T17:38:16.999Z</time></trkpt><trkpt lat="44.48022257549683" lon="7.872477552593814"><ele>363.0</ele><time>2026-03-23T17:38:20.999Z</time></trkpt><trkpt lat="44.48021543865868" lon="7.872608069201669"><ele>363.0</ele><time>2026-03-23T17:38:45.998Z</time></trkpt><trkpt lat="44.48021070285252" lon="7.872738573223059"><ele>363.0</ele><time>2026-03-23T17:38:49.998Z</time></trkpt><trkpt lat="44.480215547190966" lon="7.872842329435716"><ele>363.0</ele><time>2026-03-23T17:38:51.998Z</time></trkpt><trkpt lat="44.480227890744146" lon="7.872958417690747"><ele>363.0</ele><time>2026-03-23T17:38:56.015Z</time></trkpt><trkpt lat="44.480029361911235" lon="7.872864594784695"><ele>363.0</ele><time>2026-03-23T17:39:15.011Z</time></trkpt><trkpt lat="44.47993966949236" lon="7.872878856814632"><ele>363.0</ele><time>2026-03-23T17:39:28Z</time></trkpt><trkpt lat="44.479705725191" lon="7.87291455107292"><ele>363.0</ele><time>2026-03-23T17:39:48.244Z</time></trkpt><trkpt lat="44.47953196743479" lon="7.872754429199502"><ele>363.0</ele><time>2026-03-23T17:41:07.012Z</time></trkpt><trkpt lat="44.47947795016853" lon="7.872833194706984"><ele>363.0</ele><time>2026-03-23T17:41:12.998Z</time></trkpt><trkpt lat="44.479458366166234" lon="7.872748105334527"><ele>363.0</ele><time>2026-03-23T17:41:20Z</time></trkpt><trkpt lat="44.4795485460681" lon="7.872742811102402"><ele>363.0</ele><time>2026-03-23T17:41:24Z</time></trkpt><trkpt lat="44.47964857971427" lon="7.872771734249516"><ele>363.0</ele><time>2026-03-23T17:43:00.998Z</time></trkpt><trkpt lat="44.479956384789645" lon="7.873123576871932"><ele>363.0</ele><time>2026-03-23T17:43:06.998Z</time></trkpt><trkpt lat="44.4796773936856" lon="7.872799140207868"><ele>363.0</ele><time>2026-03-23T17:43:10.998Z</time></trkpt><trkpt lat="44.4797472534978" lon="7.8726727389551"><ele>363.0</ele><time>2026-03-23T17:44:18Z</time></trkpt><trkpt lat="44.479707726633734" lon="7.872743512566727"><ele>363.0</ele><time>2026-03-23T17:45:05.999Z</time></trkpt><trkpt lat="44.47966028530706" lon="7.872802660944257"><ele>363.0</ele><time>2026-03-23T17:45:12.999Z</time></trkpt><trkpt lat="44.47959552807527" lon="7.872903045060013"><ele>364.0</ele><time>2026-03-23T17:45:16.999Z</time></trkpt></trkseg></trk></gpx>